<?xml version="1.0" encoding="UTF-8" standalone="no" ?>
<gpx xmlns="http://www.topografix.com/GPX/1/1" xmlns:xsi="http://www.w3.org/2001/XMLSchema-instance" xsi:schemaLocation="http://www.topografix.com/GPX/1/1 http://www.topografix.com/GPX/1/1/gpx.xsd" version="1.1" creator="VisuGPX - https://www.visugpx.com">
  <metadata>
    <name>Lunature 2023</name>
  </metadata>
  <trk>
    <name><![CDATA[Lunature 2023_1]]></name>
    <trkseg>
      <trkpt lat="44.91695" lon="0.40352">
        <ele>49.4</ele>
        <time>2023-08-26T06:59:59Z</time>
      </trkpt>
      <trkpt lat="44.91695" lon="0.4035">
        <ele>49.4</ele>
        <time>2023-08-26T07:00:00Z</time>
      </trkpt>
      <trkpt lat="44.9169" lon="0.40348">
        <ele>49.4</ele>
        <time>2023-08-26T07:00:03Z</time>
      </trkpt>
      <trkpt lat="44.91682" lon="0.40353">
        <ele>49.4</ele>
        <time>2023-08-26T07:00:07Z</time>
      </trkpt>
      <trkpt lat="44.91678" lon="0.40358">
        <ele>49.4</ele>
        <time>2023-08-26T07:00:09Z</time>
      </trkpt>
      <trkpt lat="44.91663" lon="0.40377">
        <ele>49.6</ele>
        <time>2023-08-26T07:00:17Z</time>
      </trkpt>
      <trkpt lat="44.91653" lon="0.4039">
        <ele>49.6</ele>
        <time>2023-08-26T07:00:22Z</time>
      </trkpt>
      <trkpt lat="44.91649" lon="0.40397">
        <ele>49.6</ele>
        <time>2023-08-26T07:00:25Z</time>
      </trkpt>
      <trkpt lat="44.91648" lon="0.40407">
        <ele>49.6</ele>
        <time>2023-08-26T07:00:28Z</time>
      </trkpt>
      <trkpt lat="44.91651" lon="0.40411">
        <ele>49.5</ele>
        <time>2023-08-26T07:00:29Z</time>
      </trkpt>
      <trkpt lat="44.91663" lon="0.40423">
        <ele>49.4</ele>
        <time>2023-08-26T07:00:32Z</time>
      </trkpt>
      <trkpt lat="44.91673" lon="0.40433">
        <ele>49.3</ele>
        <time>2023-08-26T07:00:35Z</time>
      </trkpt>
      <trkpt lat="44.91684" lon="0.40451">
        <ele>49.9</ele>
        <time>2023-08-26T07:00:40Z</time>
      </trkpt>
      <trkpt lat="44.91697" lon="0.4047">
        <ele>50.9</ele>
        <time>2023-08-26T07:00:46Z</time>
      </trkpt>
      <trkpt lat="44.91707" lon="0.40489">
        <ele>51.5</ele>
        <time>2023-08-26T07:00:51Z</time>
      </trkpt>
      <trkpt lat="44.91709" lon="0.40493">
        <ele>51.6</ele>
        <time>2023-08-26T07:00:52Z</time>
      </trkpt>
      <trkpt lat="44.91722" lon="0.4051">
        <ele>52.1</ele>
        <time>2023-08-26T07:00:57Z</time>
      </trkpt>
      <trkpt lat="44.91739" lon="0.40527">
        <ele>52.4</ele>
        <time>2023-08-26T07:01:03Z</time>
      </trkpt>
      <trkpt lat="44.9176" lon="0.40544">
        <ele>52.6</ele>
        <time>2023-08-26T07:01:10Z</time>
      </trkpt>
      <trkpt lat="44.91773" lon="0.40557">
        <ele>52.7</ele>
        <time>2023-08-26T07:01:15Z</time>
      </trkpt>
      <trkpt lat="44.9179" lon="0.40579">
        <ele>53</ele>
        <time>2023-08-26T07:01:21Z</time>
      </trkpt>
      <trkpt lat="44.91802" lon="0.40606">
        <ele>53.4</ele>
        <time>2023-08-26T07:01:27Z</time>
      </trkpt>
      <trkpt lat="44.91812" lon="0.40625">
        <ele>54</ele>
        <time>2023-08-26T07:01:32Z</time>
      </trkpt>
      <trkpt lat="44.91819" lon="0.40645">
        <ele>54.3</ele>
        <time>2023-08-26T07:01:37Z</time>
      </trkpt>
      <trkpt lat="44.91818" lon="0.40664">
        <ele>54.8</ele>
        <time>2023-08-26T07:01:41Z</time>
      </trkpt>
      <trkpt lat="44.91807" lon="0.40683">
        <ele>55</ele>
        <time>2023-08-26T07:01:46Z</time>
      </trkpt>
      <trkpt lat="44.91799" lon="0.40712">
        <ele>55.2</ele>
        <time>2023-08-26T07:01:52Z</time>
      </trkpt>
      <trkpt lat="44.91799" lon="0.40726">
        <ele>55.4</ele>
        <time>2023-08-26T07:01:55Z</time>
      </trkpt>
      <trkpt lat="44.91798" lon="0.40738">
        <ele>55.5</ele>
        <time>2023-08-26T07:01:58Z</time>
      </trkpt>
      <trkpt lat="44.91799" lon="0.40741">
        <ele>55.5</ele>
        <time>2023-08-26T07:01:59Z</time>
      </trkpt>
      <trkpt lat="44.91802" lon="0.40743">
        <ele>55.5</ele>
        <time>2023-08-26T07:02:01Z</time>
      </trkpt>
      <trkpt lat="44.91805" lon="0.40743">
        <ele>55.5</ele>
        <time>2023-08-26T07:02:03Z</time>
      </trkpt>
      <trkpt lat="44.91807" lon="0.40742">
        <ele>55.5</ele>
        <time>2023-08-26T07:02:05Z</time>
      </trkpt>
      <trkpt lat="44.91813" lon="0.40744">
        <ele>55.5</ele>
        <time>2023-08-26T07:02:08Z</time>
      </trkpt>
      <trkpt lat="44.91816" lon="0.4075">
        <ele>55.5</ele>
        <time>2023-08-26T07:02:10Z</time>
      </trkpt>
      <trkpt lat="44.91817" lon="0.40762">
        <ele>55.5</ele>
        <time>2023-08-26T07:02:14Z</time>
      </trkpt>
      <trkpt lat="44.91818" lon="0.40764">
        <ele>55.5</ele>
        <time>2023-08-26T07:02:15Z</time>
      </trkpt>
      <trkpt lat="44.91818" lon="0.40767">
        <ele>55.5</ele>
        <time>2023-08-26T07:02:16Z</time>
      </trkpt>
      <trkpt lat="44.91821" lon="0.40773">
        <ele>55.5</ele>
        <time>2023-08-26T07:02:18Z</time>
      </trkpt>
      <trkpt lat="44.91823" lon="0.40777">
        <ele>55.4</ele>
        <time>2023-08-26T07:02:19Z</time>
      </trkpt>
      <trkpt lat="44.91827" lon="0.40786">
        <ele>55.4</ele>
        <time>2023-08-26T07:02:21Z</time>
      </trkpt>
      <trkpt lat="44.91845" lon="0.40806">
        <ele>55.3</ele>
        <time>2023-08-26T07:02:27Z</time>
      </trkpt>
      <trkpt lat="44.91849" lon="0.40812">
        <ele>55.2</ele>
        <time>2023-08-26T07:02:29Z</time>
      </trkpt>
      <trkpt lat="44.91854" lon="0.40818">
        <ele>55.1</ele>
        <time>2023-08-26T07:02:31Z</time>
      </trkpt>
      <trkpt lat="44.91863" lon="0.40829">
        <ele>55.2</ele>
        <time>2023-08-26T07:02:35Z</time>
      </trkpt>
      <trkpt lat="44.91867" lon="0.40833">
        <ele>55.1</ele>
        <time>2023-08-26T07:02:36Z</time>
      </trkpt>
      <trkpt lat="44.91874" lon="0.40833">
        <ele>55.4</ele>
        <time>2023-08-26T07:02:38Z</time>
      </trkpt>
      <trkpt lat="44.91876" lon="0.40832">
        <ele>55.5</ele>
        <time>2023-08-26T07:02:39Z</time>
      </trkpt>
      <trkpt lat="44.9188" lon="0.40828">
        <ele>55.8</ele>
        <time>2023-08-26T07:02:41Z</time>
      </trkpt>
      <trkpt lat="44.91883" lon="0.40825">
        <ele>56</ele>
        <time>2023-08-26T07:02:43Z</time>
      </trkpt>
      <trkpt lat="44.91897" lon="0.40813">
        <ele>56.4</ele>
        <time>2023-08-26T07:02:50Z</time>
      </trkpt>
      <trkpt lat="44.91903" lon="0.40811">
        <ele>56.5</ele>
        <time>2023-08-26T07:02:53Z</time>
      </trkpt>
      <trkpt lat="44.91912" lon="0.40806">
        <ele>56.8</ele>
        <time>2023-08-26T07:02:57Z</time>
      </trkpt>
      <trkpt lat="44.91925" lon="0.408">
        <ele>57.3</ele>
        <time>2023-08-26T07:03:03Z</time>
      </trkpt>
      <trkpt lat="44.9193" lon="0.40797">
        <ele>57.6</ele>
        <time>2023-08-26T07:03:05Z</time>
      </trkpt>
      <trkpt lat="44.91935" lon="0.40795">
        <ele>57.9</ele>
        <time>2023-08-26T07:03:07Z</time>
      </trkpt>
      <trkpt lat="44.91946" lon="0.4079">
        <ele>58.5</ele>
        <time>2023-08-26T07:03:12Z</time>
      </trkpt>
      <trkpt lat="44.91962" lon="0.40781">
        <ele>59.4</ele>
        <time>2023-08-26T07:03:19Z</time>
      </trkpt>
      <trkpt lat="44.91968" lon="0.40779">
        <ele>59.6</ele>
        <time>2023-08-26T07:03:21Z</time>
      </trkpt>
      <trkpt lat="44.91972" lon="0.40776">
        <ele>60</ele>
        <time>2023-08-26T07:03:23Z</time>
      </trkpt>
      <trkpt lat="44.91979" lon="0.40773">
        <ele>60.4</ele>
        <time>2023-08-26T07:03:26Z</time>
      </trkpt>
      <trkpt lat="44.91982" lon="0.40772">
        <ele>60.5</ele>
        <time>2023-08-26T07:03:27Z</time>
      </trkpt>
      <trkpt lat="44.91984" lon="0.4077">
        <ele>60.5</ele>
        <time>2023-08-26T07:03:28Z</time>
      </trkpt>
      <trkpt lat="44.91996" lon="0.40765">
        <ele>61.2</ele>
        <time>2023-08-26T07:03:33Z</time>
      </trkpt>
      <trkpt lat="44.9201" lon="0.4076">
        <ele>61.8</ele>
        <time>2023-08-26T07:03:40Z</time>
      </trkpt>
      <trkpt lat="44.92019" lon="0.40757">
        <ele>62</ele>
        <time>2023-08-26T07:03:45Z</time>
      </trkpt>
      <trkpt lat="44.92026" lon="0.40764">
        <ele>62</ele>
        <time>2023-08-26T07:03:50Z</time>
      </trkpt>
      <trkpt lat="44.92037" lon="0.40783">
        <ele>61.5</ele>
        <time>2023-08-26T07:03:55Z</time>
      </trkpt>
      <trkpt lat="44.9204" lon="0.40788">
        <ele>61.4</ele>
        <time>2023-08-26T07:03:56Z</time>
      </trkpt>
      <trkpt lat="44.92051" lon="0.40801">
        <ele>61.2</ele>
        <time>2023-08-26T07:04:00Z</time>
      </trkpt>
      <trkpt lat="44.92069" lon="0.40814">
        <ele>62.2</ele>
        <time>2023-08-26T07:04:06Z</time>
      </trkpt>
      <trkpt lat="44.92084" lon="0.40821">
        <ele>63.8</ele>
        <time>2023-08-26T07:04:11Z</time>
      </trkpt>
      <trkpt lat="44.92094" lon="0.40816">
        <ele>65.1</ele>
        <time>2023-08-26T07:04:16Z</time>
      </trkpt>
      <trkpt lat="44.92112" lon="0.40808">
        <ele>67.1</ele>
        <time>2023-08-26T07:04:25Z</time>
      </trkpt>
      <trkpt lat="44.92117" lon="0.40804">
        <ele>68.3</ele>
        <time>2023-08-26T07:04:27Z</time>
      </trkpt>
      <trkpt lat="44.92122" lon="0.40796">
        <ele>68.6</ele>
        <time>2023-08-26T07:04:30Z</time>
      </trkpt>
      <trkpt lat="44.92123" lon="0.40788">
        <ele>67.7</ele>
        <time>2023-08-26T07:04:32Z</time>
      </trkpt>
      <trkpt lat="44.92123" lon="0.40777">
        <ele>66.4</ele>
        <time>2023-08-26T07:04:34Z</time>
      </trkpt>
      <trkpt lat="44.92125" lon="0.40764">
        <ele>65.6</ele>
        <time>2023-08-26T07:04:36Z</time>
      </trkpt>
      <trkpt lat="44.92126" lon="0.4075">
        <ele>64.4</ele>
        <time>2023-08-26T07:04:38Z</time>
      </trkpt>
      <trkpt lat="44.92128" lon="0.40741">
        <ele>64.1</ele>
        <time>2023-08-26T07:04:40Z</time>
      </trkpt>
      <trkpt lat="44.92131" lon="0.40739">
        <ele>64.2</ele>
        <time>2023-08-26T07:04:41Z</time>
      </trkpt>
      <trkpt lat="44.92134" lon="0.40739">
        <ele>64.7</ele>
        <time>2023-08-26T07:04:42Z</time>
      </trkpt>
      <trkpt lat="44.92142" lon="0.40739">
        <ele>66</ele>
        <time>2023-08-26T07:04:45Z</time>
      </trkpt>
      <trkpt lat="44.92162" lon="0.4074">
        <ele>68.8</ele>
        <time>2023-08-26T07:04:51Z</time>
      </trkpt>
      <trkpt lat="44.92174" lon="0.40746">
        <ele>70.2</ele>
        <time>2023-08-26T07:04:55Z</time>
      </trkpt>
      <trkpt lat="44.92182" lon="0.40757">
        <ele>71.6</ele>
        <time>2023-08-26T07:05:00Z</time>
      </trkpt>
      <trkpt lat="44.92189" lon="0.40769">
        <ele>73.1</ele>
        <time>2023-08-26T07:05:06Z</time>
      </trkpt>
      <trkpt lat="44.92193" lon="0.40785">
        <ele>74.5</ele>
        <time>2023-08-26T07:05:13Z</time>
      </trkpt>
      <trkpt lat="44.92199" lon="0.40798">
        <ele>75.2</ele>
        <time>2023-08-26T07:05:19Z</time>
      </trkpt>
      <trkpt lat="44.92201" lon="0.40802">
        <ele>75.3</ele>
        <time>2023-08-26T07:05:21Z</time>
      </trkpt>
      <trkpt lat="44.92203" lon="0.40806">
        <ele>75.4</ele>
        <time>2023-08-26T07:05:23Z</time>
      </trkpt>
      <trkpt lat="44.92205" lon="0.40807">
        <ele>75.4</ele>
        <time>2023-08-26T07:05:24Z</time>
      </trkpt>
      <trkpt lat="44.9221" lon="0.4081">
        <ele>75.3</ele>
        <time>2023-08-26T07:05:27Z</time>
      </trkpt>
      <trkpt lat="44.92213" lon="0.40809">
        <ele>75.1</ele>
        <time>2023-08-26T07:05:29Z</time>
      </trkpt>
      <trkpt lat="44.92221" lon="0.40808">
        <ele>74.5</ele>
        <time>2023-08-26T07:05:33Z</time>
      </trkpt>
      <trkpt lat="44.92222" lon="0.40809">
        <ele>74.6</ele>
        <time>2023-08-26T07:05:34Z</time>
      </trkpt>
      <trkpt lat="44.92226" lon="0.40814">
        <ele>74.6</ele>
        <time>2023-08-26T07:05:37Z</time>
      </trkpt>
      <trkpt lat="44.92226" lon="0.40816">
        <ele>74.6</ele>
        <time>2023-08-26T07:05:38Z</time>
      </trkpt>
      <trkpt lat="44.92228" lon="0.40822">
        <ele>74.9</ele>
        <time>2023-08-26T07:05:41Z</time>
      </trkpt>
      <trkpt lat="44.92225" lon="0.40827">
        <ele>75.3</ele>
        <time>2023-08-26T07:05:43Z</time>
      </trkpt>
      <trkpt lat="44.92217" lon="0.40842">
        <ele>76.5</ele>
        <time>2023-08-26T07:05:49Z</time>
      </trkpt>
      <trkpt lat="44.92208" lon="0.40864">
        <ele>77.5</ele>
        <time>2023-08-26T07:05:57Z</time>
      </trkpt>
      <trkpt lat="44.92208" lon="0.40868">
        <ele>77.6</ele>
        <time>2023-08-26T07:05:59Z</time>
      </trkpt>
      <trkpt lat="44.9221" lon="0.40876">
        <ele>77.7</ele>
        <time>2023-08-26T07:06:02Z</time>
      </trkpt>
      <trkpt lat="44.92215" lon="0.40898">
        <ele>77.6</ele>
        <time>2023-08-26T07:06:10Z</time>
      </trkpt>
      <trkpt lat="44.92216" lon="0.40915">
        <ele>77.5</ele>
        <time>2023-08-26T07:06:15Z</time>
      </trkpt>
      <trkpt lat="44.92221" lon="0.40933">
        <ele>77.4</ele>
        <time>2023-08-26T07:06:21Z</time>
      </trkpt>
      <trkpt lat="44.92227" lon="0.40944">
        <ele>77.2</ele>
        <time>2023-08-26T07:06:25Z</time>
      </trkpt>
      <trkpt lat="44.92237" lon="0.40955">
        <ele>76.7</ele>
        <time>2023-08-26T07:06:30Z</time>
      </trkpt>
      <trkpt lat="44.92239" lon="0.40955">
        <ele>76.7</ele>
        <time>2023-08-26T07:06:31Z</time>
      </trkpt>
      <trkpt lat="44.92244" lon="0.4095">
        <ele>76.5</ele>
        <time>2023-08-26T07:06:33Z</time>
      </trkpt>
      <trkpt lat="44.92258" lon="0.40927">
        <ele>75.6</ele>
        <time>2023-08-26T07:06:38Z</time>
      </trkpt>
      <trkpt lat="44.92276" lon="0.40902">
        <ele>72.7</ele>
        <time>2023-08-26T07:06:42Z</time>
      </trkpt>
      <trkpt lat="44.92306" lon="0.40858">
        <ele>69.4</ele>
        <time>2023-08-26T07:06:47Z</time>
      </trkpt>
      <trkpt lat="44.9235" lon="0.40805">
        <ele>67</ele>
        <time>2023-08-26T07:06:53Z</time>
      </trkpt>
      <trkpt lat="44.92361" lon="0.40793">
        <ele>65.8</ele>
        <time>2023-08-26T07:06:55Z</time>
      </trkpt>
      <trkpt lat="44.92365" lon="0.40787">
        <ele>65.4</ele>
        <time>2023-08-26T07:06:56Z</time>
      </trkpt>
      <trkpt lat="44.92367" lon="0.4078">
        <ele>65.4</ele>
        <time>2023-08-26T07:06:57Z</time>
      </trkpt>
      <trkpt lat="44.92367" lon="0.40774">
        <ele>65.3</ele>
        <time>2023-08-26T07:06:58Z</time>
      </trkpt>
      <trkpt lat="44.92365" lon="0.40767">
        <ele>65.2</ele>
        <time>2023-08-26T07:06:59Z</time>
      </trkpt>
      <trkpt lat="44.92358" lon="0.40756">
        <ele>65.9</ele>
        <time>2023-08-26T07:07:01Z</time>
      </trkpt>
      <trkpt lat="44.92336" lon="0.40723">
        <ele>65.8</ele>
        <time>2023-08-26T07:07:07Z</time>
      </trkpt>
      <trkpt lat="44.92334" lon="0.40709">
        <ele>64.7</ele>
        <time>2023-08-26T07:07:09Z</time>
      </trkpt>
      <trkpt lat="44.92336" lon="0.40703">
        <ele>64.4</ele>
        <time>2023-08-26T07:07:10Z</time>
      </trkpt>
      <trkpt lat="44.92339" lon="0.40697">
        <ele>63.9</ele>
        <time>2023-08-26T07:07:11Z</time>
      </trkpt>
      <trkpt lat="44.92349" lon="0.40686">
        <ele>63.1</ele>
        <time>2023-08-26T07:07:13Z</time>
      </trkpt>
      <trkpt lat="44.92354" lon="0.4068">
        <ele>62.7</ele>
        <time>2023-08-26T07:07:14Z</time>
      </trkpt>
      <trkpt lat="44.92365" lon="0.40667">
        <ele>61.1</ele>
        <time>2023-08-26T07:07:16Z</time>
      </trkpt>
      <trkpt lat="44.92371" lon="0.4066">
        <ele>60.2</ele>
        <time>2023-08-26T07:07:17Z</time>
      </trkpt>
      <trkpt lat="44.92402" lon="0.40629">
        <ele>56.6</ele>
        <time>2023-08-26T07:07:21Z</time>
      </trkpt>
      <trkpt lat="44.9241" lon="0.40621">
        <ele>55.9</ele>
        <time>2023-08-26T07:07:22Z</time>
      </trkpt>
      <trkpt lat="44.92424" lon="0.40608">
        <ele>55.4</ele>
        <time>2023-08-26T07:07:24Z</time>
      </trkpt>
      <trkpt lat="44.92429" lon="0.40602">
        <ele>55.3</ele>
        <time>2023-08-26T07:07:25Z</time>
      </trkpt>
      <trkpt lat="44.92431" lon="0.40596">
        <ele>55.2</ele>
        <time>2023-08-26T07:07:26Z</time>
      </trkpt>
      <trkpt lat="44.92431" lon="0.4059">
        <ele>55.1</ele>
        <time>2023-08-26T07:07:27Z</time>
      </trkpt>
      <trkpt lat="44.9243" lon="0.40584">
        <ele>55</ele>
        <time>2023-08-26T07:07:28Z</time>
      </trkpt>
      <trkpt lat="44.92423" lon="0.40573">
        <ele>54.9</ele>
        <time>2023-08-26T07:07:30Z</time>
      </trkpt>
      <trkpt lat="44.9242" lon="0.40568">
        <ele>54.8</ele>
        <time>2023-08-26T07:07:31Z</time>
      </trkpt>
      <trkpt lat="44.92416" lon="0.40552">
        <ele>54.6</ele>
        <time>2023-08-26T07:07:33Z</time>
      </trkpt>
      <trkpt lat="44.92421" lon="0.40541">
        <ele>54.5</ele>
        <time>2023-08-26T07:07:35Z</time>
      </trkpt>
      <trkpt lat="44.92425" lon="0.40536">
        <ele>54.4</ele>
        <time>2023-08-26T07:07:36Z</time>
      </trkpt>
      <trkpt lat="44.9243" lon="0.40534">
        <ele>54.3</ele>
        <time>2023-08-26T07:07:37Z</time>
      </trkpt>
      <trkpt lat="44.92441" lon="0.40533">
        <ele>54.1</ele>
        <time>2023-08-26T07:07:39Z</time>
      </trkpt>
      <trkpt lat="44.92463" lon="0.40533">
        <ele>53.9</ele>
        <time>2023-08-26T07:07:43Z</time>
      </trkpt>
      <trkpt lat="44.92475" lon="0.40533">
        <ele>53.9</ele>
        <time>2023-08-26T07:07:45Z</time>
      </trkpt>
      <trkpt lat="44.925" lon="0.4054">
        <ele>54</ele>
        <time>2023-08-26T07:07:50Z</time>
      </trkpt>
      <trkpt lat="44.92526" lon="0.40552">
        <ele>54.2</ele>
        <time>2023-08-26T07:07:55Z</time>
      </trkpt>
      <trkpt lat="44.92531" lon="0.40553">
        <ele>54.2</ele>
        <time>2023-08-26T07:07:56Z</time>
      </trkpt>
      <trkpt lat="44.92568" lon="0.40558">
        <ele>54.6</ele>
        <time>2023-08-26T07:08:03Z</time>
      </trkpt>
      <trkpt lat="44.92573" lon="0.4056">
        <ele>54.7</ele>
        <time>2023-08-26T07:08:04Z</time>
      </trkpt>
      <trkpt lat="44.92582" lon="0.40563">
        <ele>54.8</ele>
        <time>2023-08-26T07:08:06Z</time>
      </trkpt>
      <trkpt lat="44.9259" lon="0.40561">
        <ele>54.8</ele>
        <time>2023-08-26T07:08:08Z</time>
      </trkpt>
      <trkpt lat="44.92596" lon="0.40548">
        <ele>54.6</ele>
        <time>2023-08-26T07:08:11Z</time>
      </trkpt>
      <trkpt lat="44.926" lon="0.40538">
        <ele>54.4</ele>
        <time>2023-08-26T07:08:13Z</time>
      </trkpt>
      <trkpt lat="44.92604" lon="0.40531">
        <ele>54.1</ele>
        <time>2023-08-26T07:08:15Z</time>
      </trkpt>
      <trkpt lat="44.92608" lon="0.40531">
        <ele>54.1</ele>
        <time>2023-08-26T07:08:16Z</time>
      </trkpt>
      <trkpt lat="44.92614" lon="0.40535">
        <ele>54.1</ele>
        <time>2023-08-26T07:08:18Z</time>
      </trkpt>
      <trkpt lat="44.92625" lon="0.40548">
        <ele>54.5</ele>
        <time>2023-08-26T07:08:22Z</time>
      </trkpt>
      <trkpt lat="44.92635" lon="0.40561">
        <ele>54.9</ele>
        <time>2023-08-26T07:08:26Z</time>
      </trkpt>
      <trkpt lat="44.92645" lon="0.40565">
        <ele>55.4</ele>
        <time>2023-08-26T07:08:29Z</time>
      </trkpt>
      <trkpt lat="44.92648" lon="0.40563">
        <ele>55.5</ele>
        <time>2023-08-26T07:08:30Z</time>
      </trkpt>
      <trkpt lat="44.92665" lon="0.40553">
        <ele>56</ele>
        <time>2023-08-26T07:08:35Z</time>
      </trkpt>
      <trkpt lat="44.92679" lon="0.40539">
        <ele>56.3</ele>
        <time>2023-08-26T07:08:40Z</time>
      </trkpt>
      <trkpt lat="44.92685" lon="0.40535">
        <ele>56.4</ele>
        <time>2023-08-26T07:08:43Z</time>
      </trkpt>
      <trkpt lat="44.92686" lon="0.40533">
        <ele>56.4</ele>
        <time>2023-08-26T07:08:44Z</time>
      </trkpt>
      <trkpt lat="44.92687" lon="0.40529">
        <ele>56.4</ele>
        <time>2023-08-26T07:08:47Z</time>
      </trkpt>
      <trkpt lat="44.9269" lon="0.40527">
        <ele>56.4</ele>
        <time>2023-08-26T07:08:48Z</time>
      </trkpt>
      <trkpt lat="44.92693" lon="0.40521">
        <ele>56.3</ele>
        <time>2023-08-26T07:08:50Z</time>
      </trkpt>
      <trkpt lat="44.92694" lon="0.4052">
        <ele>56.3</ele>
        <time>2023-08-26T07:08:51Z</time>
      </trkpt>
      <trkpt lat="44.92698" lon="0.40516">
        <ele>56.1</ele>
        <time>2023-08-26T07:08:53Z</time>
      </trkpt>
      <trkpt lat="44.92706" lon="0.4051">
        <ele>55.9</ele>
        <time>2023-08-26T07:08:55Z</time>
      </trkpt>
      <trkpt lat="44.9271" lon="0.40505">
        <ele>55.7</ele>
        <time>2023-08-26T07:08:56Z</time>
      </trkpt>
      <trkpt lat="44.92711" lon="0.40502">
        <ele>55.6</ele>
        <time>2023-08-26T07:08:57Z</time>
      </trkpt>
      <trkpt lat="44.92712" lon="0.40499">
        <ele>55.6</ele>
        <time>2023-08-26T07:08:58Z</time>
      </trkpt>
      <trkpt lat="44.92716" lon="0.40494">
        <ele>55.5</ele>
        <time>2023-08-26T07:09:00Z</time>
      </trkpt>
      <trkpt lat="44.92721" lon="0.40489">
        <ele>55.3</ele>
        <time>2023-08-26T07:09:03Z</time>
      </trkpt>
      <trkpt lat="44.92723" lon="0.40488">
        <ele>55.3</ele>
        <time>2023-08-26T07:09:04Z</time>
      </trkpt>
      <trkpt lat="44.9273" lon="0.40479">
        <ele>55.2</ele>
        <time>2023-08-26T07:09:09Z</time>
      </trkpt>
      <trkpt lat="44.92733" lon="0.40471">
        <ele>55.2</ele>
        <time>2023-08-26T07:09:13Z</time>
      </trkpt>
      <trkpt lat="44.92735" lon="0.40468">
        <ele>55.2</ele>
        <time>2023-08-26T07:09:14Z</time>
      </trkpt>
      <trkpt lat="44.92739" lon="0.40461">
        <ele>55.2</ele>
        <time>2023-08-26T07:09:16Z</time>
      </trkpt>
      <trkpt lat="44.92741" lon="0.40458">
        <ele>55.2</ele>
        <time>2023-08-26T07:09:17Z</time>
      </trkpt>
      <trkpt lat="44.92747" lon="0.4045">
        <ele>55.3</ele>
        <time>2023-08-26T07:09:20Z</time>
      </trkpt>
      <trkpt lat="44.92751" lon="0.40444">
        <ele>55.3</ele>
        <time>2023-08-26T07:09:22Z</time>
      </trkpt>
      <trkpt lat="44.92754" lon="0.40439">
        <ele>55.3</ele>
        <time>2023-08-26T07:09:24Z</time>
      </trkpt>
      <trkpt lat="44.92759" lon="0.40431">
        <ele>55.4</ele>
        <time>2023-08-26T07:09:27Z</time>
      </trkpt>
      <trkpt lat="44.92764" lon="0.40427">
        <ele>55.4</ele>
        <time>2023-08-26T07:09:29Z</time>
      </trkpt>
      <trkpt lat="44.92775" lon="0.40424">
        <ele>55.4</ele>
        <time>2023-08-26T07:09:33Z</time>
      </trkpt>
      <trkpt lat="44.92789" lon="0.40425">
        <ele>55.3</ele>
        <time>2023-08-26T07:09:37Z</time>
      </trkpt>
      <trkpt lat="44.92801" lon="0.40429">
        <ele>55.1</ele>
        <time>2023-08-26T07:09:41Z</time>
      </trkpt>
      <trkpt lat="44.92817" lon="0.40439">
        <ele>55</ele>
        <time>2023-08-26T07:09:47Z</time>
      </trkpt>
      <trkpt lat="44.92824" lon="0.40441">
        <ele>55</ele>
        <time>2023-08-26T07:09:49Z</time>
      </trkpt>
      <trkpt lat="44.92828" lon="0.40446">
        <ele>55</ele>
        <time>2023-08-26T07:09:51Z</time>
      </trkpt>
      <trkpt lat="44.92829" lon="0.4045">
        <ele>55</ele>
        <time>2023-08-26T07:09:52Z</time>
      </trkpt>
      <trkpt lat="44.92832" lon="0.40454">
        <ele>55</ele>
        <time>2023-08-26T07:09:54Z</time>
      </trkpt>
      <trkpt lat="44.92846" lon="0.40464">
        <ele>55</ele>
        <time>2023-08-26T07:09:58Z</time>
      </trkpt>
      <trkpt lat="44.9285" lon="0.40468">
        <ele>55</ele>
        <time>2023-08-26T07:10:00Z</time>
      </trkpt>
      <trkpt lat="44.92855" lon="0.40471">
        <ele>55</ele>
        <time>2023-08-26T07:10:02Z</time>
      </trkpt>
      <trkpt lat="44.92863" lon="0.4048">
        <ele>55</ele>
        <time>2023-08-26T07:10:06Z</time>
      </trkpt>
      <trkpt lat="44.92866" lon="0.40482">
        <ele>55</ele>
        <time>2023-08-26T07:10:07Z</time>
      </trkpt>
      <trkpt lat="44.92878" lon="0.40485">
        <ele>55</ele>
        <time>2023-08-26T07:10:10Z</time>
      </trkpt>
      <trkpt lat="44.92887" lon="0.40488">
        <ele>55</ele>
        <time>2023-08-26T07:10:13Z</time>
      </trkpt>
      <trkpt lat="44.929" lon="0.40492">
        <ele>55</ele>
        <time>2023-08-26T07:10:18Z</time>
      </trkpt>
      <trkpt lat="44.92904" lon="0.40493">
        <ele>55</ele>
        <time>2023-08-26T07:10:21Z</time>
      </trkpt>
      <trkpt lat="44.92905" lon="0.40494">
        <ele>55</ele>
        <time>2023-08-26T07:10:22Z</time>
      </trkpt>
      <trkpt lat="44.92913" lon="0.40495">
        <ele>55</ele>
        <time>2023-08-26T07:10:25Z</time>
      </trkpt>
      <trkpt lat="44.92916" lon="0.40494">
        <ele>55</ele>
        <time>2023-08-26T07:10:26Z</time>
      </trkpt>
      <trkpt lat="44.92923" lon="0.40493">
        <ele>54.9</ele>
        <time>2023-08-26T07:10:29Z</time>
      </trkpt>
      <trkpt lat="44.92926" lon="0.40492">
        <ele>54.9</ele>
        <time>2023-08-26T07:10:31Z</time>
      </trkpt>
      <trkpt lat="44.92929" lon="0.40491">
        <ele>54.9</ele>
        <time>2023-08-26T07:10:33Z</time>
      </trkpt>
      <trkpt lat="44.92932" lon="0.40491">
        <ele>54.9</ele>
        <time>2023-08-26T07:10:34Z</time>
      </trkpt>
      <trkpt lat="44.92953" lon="0.40489">
        <ele>54.9</ele>
        <time>2023-08-26T07:10:38Z</time>
      </trkpt>
      <trkpt lat="44.92962" lon="0.40495">
        <ele>55</ele>
        <time>2023-08-26T07:10:42Z</time>
      </trkpt>
      <trkpt lat="44.92967" lon="0.40499">
        <ele>55</ele>
        <time>2023-08-26T07:10:44Z</time>
      </trkpt>
      <trkpt lat="44.92972" lon="0.40499">
        <ele>55.1</ele>
        <time>2023-08-26T07:10:46Z</time>
      </trkpt>
      <trkpt lat="44.92981" lon="0.40496">
        <ele>55.2</ele>
        <time>2023-08-26T07:10:49Z</time>
      </trkpt>
      <trkpt lat="44.92985" lon="0.40496">
        <ele>55.2</ele>
        <time>2023-08-26T07:10:50Z</time>
      </trkpt>
      <trkpt lat="44.92988" lon="0.40497">
        <ele>55.3</ele>
        <time>2023-08-26T07:10:51Z</time>
      </trkpt>
      <trkpt lat="44.92996" lon="0.40499">
        <ele>55.3</ele>
        <time>2023-08-26T07:10:53Z</time>
      </trkpt>
      <trkpt lat="44.93" lon="0.40508">
        <ele>55.3</ele>
        <time>2023-08-26T07:10:56Z</time>
      </trkpt>
      <trkpt lat="44.93004" lon="0.40513">
        <ele>55.3</ele>
        <time>2023-08-26T07:10:58Z</time>
      </trkpt>
      <trkpt lat="44.93008" lon="0.40514">
        <ele>55.3</ele>
        <time>2023-08-26T07:10:59Z</time>
      </trkpt>
      <trkpt lat="44.93017" lon="0.40519">
        <ele>55.4</ele>
        <time>2023-08-26T07:11:02Z</time>
      </trkpt>
      <trkpt lat="44.9302" lon="0.4052">
        <ele>55.4</ele>
        <time>2023-08-26T07:11:03Z</time>
      </trkpt>
      <trkpt lat="44.93022" lon="0.40522">
        <ele>55.4</ele>
        <time>2023-08-26T07:11:04Z</time>
      </trkpt>
      <trkpt lat="44.93028" lon="0.40527">
        <ele>55.5</ele>
        <time>2023-08-26T07:11:06Z</time>
      </trkpt>
      <trkpt lat="44.93042" lon="0.40532">
        <ele>55.6</ele>
        <time>2023-08-26T07:11:10Z</time>
      </trkpt>
      <trkpt lat="44.93052" lon="0.40531">
        <ele>55.7</ele>
        <time>2023-08-26T07:11:14Z</time>
      </trkpt>
      <trkpt lat="44.9306" lon="0.40536">
        <ele>55.8</ele>
        <time>2023-08-26T07:11:18Z</time>
      </trkpt>
      <trkpt lat="44.93067" lon="0.40539">
        <ele>55.9</ele>
        <time>2023-08-26T07:11:22Z</time>
      </trkpt>
      <trkpt lat="44.93069" lon="0.40548">
        <ele>56.1</ele>
        <time>2023-08-26T07:11:30Z</time>
      </trkpt>
      <trkpt lat="44.93068" lon="0.4055">
        <ele>56.6</ele>
        <time>2023-08-26T07:11:32Z</time>
      </trkpt>
      <trkpt lat="44.93068" lon="0.4055">
        <ele>56.6</ele>
        <time>2023-08-26T07:11:33Z</time>
      </trkpt>
      <trkpt lat="44.93074" lon="0.40552">
        <ele>56.8</ele>
        <time>2023-08-26T07:11:41Z</time>
      </trkpt>
      <trkpt lat="44.93076" lon="0.40558">
        <ele>57</ele>
        <time>2023-08-26T07:11:43Z</time>
      </trkpt>
      <trkpt lat="44.93085" lon="0.40577">
        <ele>57.6</ele>
        <time>2023-08-26T07:11:49Z</time>
      </trkpt>
      <trkpt lat="44.93098" lon="0.40584">
        <ele>58.3</ele>
        <time>2023-08-26T07:11:54Z</time>
      </trkpt>
      <trkpt lat="44.93106" lon="0.40583">
        <ele>58.8</ele>
        <time>2023-08-26T07:11:57Z</time>
      </trkpt>
      <trkpt lat="44.93114" lon="0.40579">
        <ele>59.3</ele>
        <time>2023-08-26T07:12:00Z</time>
      </trkpt>
      <trkpt lat="44.93134" lon="0.40573">
        <ele>60.6</ele>
        <time>2023-08-26T07:12:07Z</time>
      </trkpt>
      <trkpt lat="44.93141" lon="0.40579">
        <ele>61.9</ele>
        <time>2023-08-26T07:12:10Z</time>
      </trkpt>
      <trkpt lat="44.93142" lon="0.40583">
        <ele>62.2</ele>
        <time>2023-08-26T07:12:11Z</time>
      </trkpt>
      <trkpt lat="44.93141" lon="0.40605">
        <ele>64.1</ele>
        <time>2023-08-26T07:12:17Z</time>
      </trkpt>
      <trkpt lat="44.9314" lon="0.40619">
        <ele>65.3</ele>
        <time>2023-08-26T07:12:21Z</time>
      </trkpt>
      <trkpt lat="44.93139" lon="0.40632">
        <ele>66.4</ele>
        <time>2023-08-26T07:12:25Z</time>
      </trkpt>
      <trkpt lat="44.93138" lon="0.40655">
        <ele>68.3</ele>
        <time>2023-08-26T07:12:32Z</time>
      </trkpt>
      <trkpt lat="44.93136" lon="0.40665">
        <ele>68.8</ele>
        <time>2023-08-26T07:12:35Z</time>
      </trkpt>
      <trkpt lat="44.93135" lon="0.40676">
        <ele>69.2</ele>
        <time>2023-08-26T07:12:38Z</time>
      </trkpt>
      <trkpt lat="44.93134" lon="0.40703">
        <ele>69</ele>
        <time>2023-08-26T07:12:45Z</time>
      </trkpt>
      <trkpt lat="44.93134" lon="0.40708">
        <ele>68.8</ele>
        <time>2023-08-26T07:12:46Z</time>
      </trkpt>
      <trkpt lat="44.93134" lon="0.40714">
        <ele>68.6</ele>
        <time>2023-08-26T07:12:47Z</time>
      </trkpt>
      <trkpt lat="44.93132" lon="0.40742">
        <ele>67.8</ele>
        <time>2023-08-26T07:12:51Z</time>
      </trkpt>
      <trkpt lat="44.93129" lon="0.40791">
        <ele>68.1</ele>
        <time>2023-08-26T07:12:58Z</time>
      </trkpt>
      <trkpt lat="44.93128" lon="0.40821">
        <ele>69.5</ele>
        <time>2023-08-26T07:13:05Z</time>
      </trkpt>
      <trkpt lat="44.93128" lon="0.40851">
        <ele>71.1</ele>
        <time>2023-08-26T07:13:12Z</time>
      </trkpt>
      <trkpt lat="44.93127" lon="0.40872">
        <ele>72.5</ele>
        <time>2023-08-26T07:13:18Z</time>
      </trkpt>
      <trkpt lat="44.93126" lon="0.40894">
        <ele>73.9</ele>
        <time>2023-08-26T07:13:25Z</time>
      </trkpt>
      <trkpt lat="44.93124" lon="0.40922">
        <ele>75.7</ele>
        <time>2023-08-26T07:13:34Z</time>
      </trkpt>
      <trkpt lat="44.93123" lon="0.40948">
        <ele>77.7</ele>
        <time>2023-08-26T07:13:42Z</time>
      </trkpt>
      <trkpt lat="44.93122" lon="0.40959">
        <ele>78.7</ele>
        <time>2023-08-26T07:13:46Z</time>
      </trkpt>
      <trkpt lat="44.93121" lon="0.40964">
        <ele>79.2</ele>
        <time>2023-08-26T07:13:48Z</time>
      </trkpt>
      <trkpt lat="44.93121" lon="0.40977">
        <ele>80.9</ele>
        <time>2023-08-26T07:13:55Z</time>
      </trkpt>
      <trkpt lat="44.93121" lon="0.40985">
        <ele>81.9</ele>
        <time>2023-08-26T07:13:59Z</time>
      </trkpt>
      <trkpt lat="44.9312" lon="0.40991">
        <ele>82.7</ele>
        <time>2023-08-26T07:14:02Z</time>
      </trkpt>
      <trkpt lat="44.93119" lon="0.41004">
        <ele>84.4</ele>
        <time>2023-08-26T07:14:09Z</time>
      </trkpt>
      <trkpt lat="44.93119" lon="0.41009">
        <ele>85.1</ele>
        <time>2023-08-26T07:14:12Z</time>
      </trkpt>
      <trkpt lat="44.93118" lon="0.41015">
        <ele>85.9</ele>
        <time>2023-08-26T07:14:15Z</time>
      </trkpt>
      <trkpt lat="44.93118" lon="0.41028">
        <ele>87.5</ele>
        <time>2023-08-26T07:14:22Z</time>
      </trkpt>
      <trkpt lat="44.93118" lon="0.41042">
        <ele>89.1</ele>
        <time>2023-08-26T07:14:30Z</time>
      </trkpt>
      <trkpt lat="44.93118" lon="0.4106">
        <ele>90.9</ele>
        <time>2023-08-26T07:14:40Z</time>
      </trkpt>
      <trkpt lat="44.93117" lon="0.41072">
        <ele>92.1</ele>
        <time>2023-08-26T07:14:47Z</time>
      </trkpt>
      <trkpt lat="44.93117" lon="0.41085">
        <ele>93.2</ele>
        <time>2023-08-26T07:14:54Z</time>
      </trkpt>
      <trkpt lat="44.93116" lon="0.41094">
        <ele>93.9</ele>
        <time>2023-08-26T07:14:58Z</time>
      </trkpt>
      <trkpt lat="44.93116" lon="0.41096">
        <ele>94.1</ele>
        <time>2023-08-26T07:14:59Z</time>
      </trkpt>
      <trkpt lat="44.93115" lon="0.41108">
        <ele>94.8</ele>
        <time>2023-08-26T07:15:05Z</time>
      </trkpt>
      <trkpt lat="44.93115" lon="0.41123">
        <ele>95.5</ele>
        <time>2023-08-26T07:15:11Z</time>
      </trkpt>
      <trkpt lat="44.93114" lon="0.41154">
        <ele>96.3</ele>
        <time>2023-08-26T07:15:20Z</time>
      </trkpt>
      <trkpt lat="44.93112" lon="0.41195">
        <ele>96.5</ele>
        <time>2023-08-26T07:15:30Z</time>
      </trkpt>
      <trkpt lat="44.93113" lon="0.41227">
        <ele>96</ele>
        <time>2023-08-26T07:15:36Z</time>
      </trkpt>
      <trkpt lat="44.93111" lon="0.41273">
        <ele>94.7</ele>
        <time>2023-08-26T07:15:43Z</time>
      </trkpt>
      <trkpt lat="44.93111" lon="0.4128">
        <ele>94.5</ele>
        <time>2023-08-26T07:15:44Z</time>
      </trkpt>
      <trkpt lat="44.93108" lon="0.41337">
        <ele>93.5</ele>
        <time>2023-08-26T07:15:51Z</time>
      </trkpt>
      <trkpt lat="44.93109" lon="0.41368">
        <ele>94.5</ele>
        <time>2023-08-26T07:15:56Z</time>
      </trkpt>
      <trkpt lat="44.93108" lon="0.41393">
        <ele>96.3</ele>
        <time>2023-08-26T07:16:02Z</time>
      </trkpt>
      <trkpt lat="44.93107" lon="0.41404">
        <ele>97.5</ele>
        <time>2023-08-26T07:16:07Z</time>
      </trkpt>
      <trkpt lat="44.93105" lon="0.4142">
        <ele>99.5</ele>
        <time>2023-08-26T07:16:15Z</time>
      </trkpt>
      <trkpt lat="44.93106" lon="0.41432">
        <ele>101.1</ele>
        <time>2023-08-26T07:16:21Z</time>
      </trkpt>
      <trkpt lat="44.93106" lon="0.41435">
        <ele>101.6</ele>
        <time>2023-08-26T07:16:23Z</time>
      </trkpt>
      <trkpt lat="44.93105" lon="0.4145">
        <ele>103.6</ele>
        <time>2023-08-26T07:16:31Z</time>
      </trkpt>
      <trkpt lat="44.93104" lon="0.41467">
        <ele>105.9</ele>
        <time>2023-08-26T07:16:40Z</time>
      </trkpt>
      <trkpt lat="44.93104" lon="0.41476">
        <ele>107</ele>
        <time>2023-08-26T07:16:45Z</time>
      </trkpt>
      <trkpt lat="44.93104" lon="0.4148">
        <ele>107.5</ele>
        <time>2023-08-26T07:16:47Z</time>
      </trkpt>
      <trkpt lat="44.93104" lon="0.41482">
        <ele>107.7</ele>
        <time>2023-08-26T07:16:48Z</time>
      </trkpt>
      <trkpt lat="44.93102" lon="0.41491">
        <ele>108.8</ele>
        <time>2023-08-26T07:16:53Z</time>
      </trkpt>
      <trkpt lat="44.93101" lon="0.41499">
        <ele>109.7</ele>
        <time>2023-08-26T07:16:57Z</time>
      </trkpt>
      <trkpt lat="44.931" lon="0.41505">
        <ele>110.3</ele>
        <time>2023-08-26T07:17:00Z</time>
      </trkpt>
      <trkpt lat="44.931" lon="0.41522">
        <ele>111.9</ele>
        <time>2023-08-26T07:17:09Z</time>
      </trkpt>
      <trkpt lat="44.93101" lon="0.41537">
        <ele>113</ele>
        <time>2023-08-26T07:17:16Z</time>
      </trkpt>
      <trkpt lat="44.93101" lon="0.41555">
        <ele>113.7</ele>
        <time>2023-08-26T07:17:23Z</time>
      </trkpt>
      <trkpt lat="44.931" lon="0.41558">
        <ele>113.8</ele>
        <time>2023-08-26T07:17:24Z</time>
      </trkpt>
      <trkpt lat="44.93098" lon="0.41569">
        <ele>113.7</ele>
        <time>2023-08-26T07:17:27Z</time>
      </trkpt>
      <trkpt lat="44.931" lon="0.41597">
        <ele>112.7</ele>
        <time>2023-08-26T07:17:32Z</time>
      </trkpt>
      <trkpt lat="44.931" lon="0.41604">
        <ele>112.3</ele>
        <time>2023-08-26T07:17:33Z</time>
      </trkpt>
      <trkpt lat="44.93104" lon="0.41616">
        <ele>111.5</ele>
        <time>2023-08-26T07:17:35Z</time>
      </trkpt>
      <trkpt lat="44.93107" lon="0.41619">
        <ele>111.1</ele>
        <time>2023-08-26T07:17:36Z</time>
      </trkpt>
      <trkpt lat="44.93116" lon="0.4162">
        <ele>110.9</ele>
        <time>2023-08-26T07:17:38Z</time>
      </trkpt>
      <trkpt lat="44.93124" lon="0.41619">
        <ele>110.8</ele>
        <time>2023-08-26T07:17:40Z</time>
      </trkpt>
      <trkpt lat="44.93133" lon="0.4162">
        <ele>110.7</ele>
        <time>2023-08-26T07:17:42Z</time>
      </trkpt>
      <trkpt lat="44.93141" lon="0.41623">
        <ele>110.6</ele>
        <time>2023-08-26T07:17:44Z</time>
      </trkpt>
      <trkpt lat="44.93146" lon="0.41624">
        <ele>110.5</ele>
        <time>2023-08-26T07:17:45Z</time>
      </trkpt>
      <trkpt lat="44.93173" lon="0.41632">
        <ele>110.3</ele>
        <time>2023-08-26T07:17:51Z</time>
      </trkpt>
      <trkpt lat="44.93183" lon="0.41633">
        <ele>110.5</ele>
        <time>2023-08-26T07:17:53Z</time>
      </trkpt>
      <trkpt lat="44.93202" lon="0.41631">
        <ele>111.2</ele>
        <time>2023-08-26T07:17:57Z</time>
      </trkpt>
      <trkpt lat="44.93228" lon="0.41623">
        <ele>112.1</ele>
        <time>2023-08-26T07:18:03Z</time>
      </trkpt>
      <trkpt lat="44.93232" lon="0.41622">
        <ele>112.2</ele>
        <time>2023-08-26T07:18:04Z</time>
      </trkpt>
      <trkpt lat="44.93251" lon="0.41613">
        <ele>112.4</ele>
        <time>2023-08-26T07:18:09Z</time>
      </trkpt>
      <trkpt lat="44.9328" lon="0.41595">
        <ele>112.4</ele>
        <time>2023-08-26T07:18:16Z</time>
      </trkpt>
      <trkpt lat="44.93301" lon="0.41582">
        <ele>112.4</ele>
        <time>2023-08-26T07:18:21Z</time>
      </trkpt>
      <trkpt lat="44.93316" lon="0.41573">
        <ele>112.6</ele>
        <time>2023-08-26T07:18:25Z</time>
      </trkpt>
      <trkpt lat="44.9332" lon="0.41571">
        <ele>112.7</ele>
        <time>2023-08-26T07:18:26Z</time>
      </trkpt>
      <trkpt lat="44.93329" lon="0.41566">
        <ele>112.9</ele>
        <time>2023-08-26T07:18:28Z</time>
      </trkpt>
      <trkpt lat="44.93343" lon="0.41558">
        <ele>113.6</ele>
        <time>2023-08-26T07:18:32Z</time>
      </trkpt>
      <trkpt lat="44.93356" lon="0.41547">
        <ele>114.6</ele>
        <time>2023-08-26T07:18:37Z</time>
      </trkpt>
      <trkpt lat="44.93365" lon="0.4154">
        <ele>115.3</ele>
        <time>2023-08-26T07:18:40Z</time>
      </trkpt>
      <trkpt lat="44.93376" lon="0.41532">
        <ele>116.5</ele>
        <time>2023-08-26T07:18:44Z</time>
      </trkpt>
      <trkpt lat="44.9339" lon="0.41522">
        <ele>117.8</ele>
        <time>2023-08-26T07:18:49Z</time>
      </trkpt>
      <trkpt lat="44.93404" lon="0.41508">
        <ele>118.8</ele>
        <time>2023-08-26T07:18:54Z</time>
      </trkpt>
      <trkpt lat="44.93415" lon="0.41497">
        <ele>119.1</ele>
        <time>2023-08-26T07:18:58Z</time>
      </trkpt>
      <trkpt lat="44.93427" lon="0.41488">
        <ele>118.8</ele>
        <time>2023-08-26T07:19:01Z</time>
      </trkpt>
      <trkpt lat="44.93443" lon="0.41474">
        <ele>117.6</ele>
        <time>2023-08-26T07:19:05Z</time>
      </trkpt>
      <trkpt lat="44.93451" lon="0.41469">
        <ele>117.1</ele>
        <time>2023-08-26T07:19:07Z</time>
      </trkpt>
      <trkpt lat="44.93462" lon="0.41468">
        <ele>116.5</ele>
        <time>2023-08-26T07:19:09Z</time>
      </trkpt>
      <trkpt lat="44.93465" lon="0.4147">
        <ele>116.3</ele>
        <time>2023-08-26T07:19:10Z</time>
      </trkpt>
      <trkpt lat="44.93472" lon="0.41478">
        <ele>115.8</ele>
        <time>2023-08-26T07:19:12Z</time>
      </trkpt>
      <trkpt lat="44.93476" lon="0.41494">
        <ele>116.2</ele>
        <time>2023-08-26T07:19:15Z</time>
      </trkpt>
      <trkpt lat="44.93477" lon="0.41514">
        <ele>116.6</ele>
        <time>2023-08-26T07:19:19Z</time>
      </trkpt>
      <trkpt lat="44.93483" lon="0.41536">
        <ele>117.1</ele>
        <time>2023-08-26T07:19:24Z</time>
      </trkpt>
      <trkpt lat="44.93486" lon="0.41543">
        <ele>117.2</ele>
        <time>2023-08-26T07:19:26Z</time>
      </trkpt>
      <trkpt lat="44.93491" lon="0.4155">
        <ele>117.4</ele>
        <time>2023-08-26T07:19:28Z</time>
      </trkpt>
      <trkpt lat="44.93496" lon="0.41561">
        <ele>117.7</ele>
        <time>2023-08-26T07:19:31Z</time>
      </trkpt>
      <trkpt lat="44.935" lon="0.4157">
        <ele>117.9</ele>
        <time>2023-08-26T07:19:33Z</time>
      </trkpt>
      <trkpt lat="44.93509" lon="0.41592">
        <ele>118.4</ele>
        <time>2023-08-26T07:19:38Z</time>
      </trkpt>
      <trkpt lat="44.93515" lon="0.41606">
        <ele>118.7</ele>
        <time>2023-08-26T07:19:41Z</time>
      </trkpt>
      <trkpt lat="44.93521" lon="0.41615">
        <ele>118.9</ele>
        <time>2023-08-26T07:19:43Z</time>
      </trkpt>
      <trkpt lat="44.93539" lon="0.41653">
        <ele>119.8</ele>
        <time>2023-08-26T07:19:50Z</time>
      </trkpt>
      <trkpt lat="44.93553" lon="0.41676">
        <ele>120.4</ele>
        <time>2023-08-26T07:19:55Z</time>
      </trkpt>
      <trkpt lat="44.93572" lon="0.41711">
        <ele>120.9</ele>
        <time>2023-08-26T07:20:03Z</time>
      </trkpt>
      <trkpt lat="44.93584" lon="0.41725">
        <ele>120.9</ele>
        <time>2023-08-26T07:20:07Z</time>
      </trkpt>
      <trkpt lat="44.93592" lon="0.41731">
        <ele>120.8</ele>
        <time>2023-08-26T07:20:09Z</time>
      </trkpt>
      <trkpt lat="44.93634" lon="0.41754">
        <ele>120.4</ele>
        <time>2023-08-26T07:20:18Z</time>
      </trkpt>
      <trkpt lat="44.93668" lon="0.41765">
        <ele>120.2</ele>
        <time>2023-08-26T07:20:25Z</time>
      </trkpt>
      <trkpt lat="44.93705" lon="0.41765">
        <ele>119.9</ele>
        <time>2023-08-26T07:20:33Z</time>
      </trkpt>
      <trkpt lat="44.93742" lon="0.41762">
        <ele>119.2</ele>
        <time>2023-08-26T07:20:41Z</time>
      </trkpt>
      <trkpt lat="44.93748" lon="0.41762">
        <ele>118.9</ele>
        <time>2023-08-26T07:20:43Z</time>
      </trkpt>
      <trkpt lat="44.9375" lon="0.41759">
        <ele>118.7</ele>
        <time>2023-08-26T07:20:44Z</time>
      </trkpt>
      <trkpt lat="44.9375" lon="0.41753">
        <ele>118.4</ele>
        <time>2023-08-26T07:20:45Z</time>
      </trkpt>
      <trkpt lat="44.93748" lon="0.41738">
        <ele>115.3</ele>
        <time>2023-08-26T07:20:47Z</time>
      </trkpt>
      <trkpt lat="44.93742" lon="0.41691">
        <ele>110.6</ele>
        <time>2023-08-26T07:20:51Z</time>
      </trkpt>
      <trkpt lat="44.93742" lon="0.41648">
        <ele>107.1</ele>
        <time>2023-08-26T07:20:54Z</time>
      </trkpt>
      <trkpt lat="44.93745" lon="0.41633">
        <ele>106</ele>
        <time>2023-08-26T07:20:55Z</time>
      </trkpt>
      <trkpt lat="44.93757" lon="0.4156">
        <ele>101.6</ele>
        <time>2023-08-26T07:21:00Z</time>
      </trkpt>
      <trkpt lat="44.93762" lon="0.41542">
        <ele>100.7</ele>
        <time>2023-08-26T07:21:02Z</time>
      </trkpt>
      <trkpt lat="44.93766" lon="0.41538">
        <ele>100.5</ele>
        <time>2023-08-26T07:21:03Z</time>
      </trkpt>
      <trkpt lat="44.93771" lon="0.41536">
        <ele>100.2</ele>
        <time>2023-08-26T07:21:04Z</time>
      </trkpt>
      <trkpt lat="44.93776" lon="0.41537">
        <ele>100.1</ele>
        <time>2023-08-26T07:21:05Z</time>
      </trkpt>
      <trkpt lat="44.93786" lon="0.41542">
        <ele>99.8</ele>
        <time>2023-08-26T07:21:07Z</time>
      </trkpt>
      <trkpt lat="44.93803" lon="0.41546">
        <ele>99.5</ele>
        <time>2023-08-26T07:21:10Z</time>
      </trkpt>
      <trkpt lat="44.93834" lon="0.41547">
        <ele>99.5</ele>
        <time>2023-08-26T07:21:15Z</time>
      </trkpt>
      <trkpt lat="44.93841" lon="0.41548">
        <ele>99.6</ele>
        <time>2023-08-26T07:21:16Z</time>
      </trkpt>
      <trkpt lat="44.93847" lon="0.41548">
        <ele>99.8</ele>
        <time>2023-08-26T07:21:17Z</time>
      </trkpt>
      <trkpt lat="44.9386" lon="0.41545">
        <ele>100.1</ele>
        <time>2023-08-26T07:21:19Z</time>
      </trkpt>
      <trkpt lat="44.93866" lon="0.41543">
        <ele>100.1</ele>
        <time>2023-08-26T07:21:20Z</time>
      </trkpt>
      <trkpt lat="44.93872" lon="0.41538">
        <ele>100.1</ele>
        <time>2023-08-26T07:21:21Z</time>
      </trkpt>
      <trkpt lat="44.9389" lon="0.41524">
        <ele>99.6</ele>
        <time>2023-08-26T07:21:24Z</time>
      </trkpt>
      <trkpt lat="44.93896" lon="0.41521">
        <ele>99.3</ele>
        <time>2023-08-26T07:21:25Z</time>
      </trkpt>
      <trkpt lat="44.93909" lon="0.41512">
        <ele>98.8</ele>
        <time>2023-08-26T07:21:27Z</time>
      </trkpt>
      <trkpt lat="44.93921" lon="0.415">
        <ele>98.4</ele>
        <time>2023-08-26T07:21:29Z</time>
      </trkpt>
      <trkpt lat="44.93932" lon="0.41486">
        <ele>98.1</ele>
        <time>2023-08-26T07:21:31Z</time>
      </trkpt>
      <trkpt lat="44.93941" lon="0.41471">
        <ele>98</ele>
        <time>2023-08-26T07:21:33Z</time>
      </trkpt>
      <trkpt lat="44.93958" lon="0.41447">
        <ele>97.9</ele>
        <time>2023-08-26T07:21:36Z</time>
      </trkpt>
      <trkpt lat="44.93966" lon="0.41431">
        <ele>97.9</ele>
        <time>2023-08-26T07:21:38Z</time>
      </trkpt>
      <trkpt lat="44.93988" lon="0.41384">
        <ele>96.4</ele>
        <time>2023-08-26T07:21:44Z</time>
      </trkpt>
      <trkpt lat="44.93998" lon="0.41369">
        <ele>95.3</ele>
        <time>2023-08-26T07:21:46Z</time>
      </trkpt>
      <trkpt lat="44.9401" lon="0.41354">
        <ele>93.8</ele>
        <time>2023-08-26T07:21:48Z</time>
      </trkpt>
      <trkpt lat="44.94017" lon="0.41346">
        <ele>93</ele>
        <time>2023-08-26T07:21:49Z</time>
      </trkpt>
      <trkpt lat="44.9403" lon="0.41331">
        <ele>91.5</ele>
        <time>2023-08-26T07:21:51Z</time>
      </trkpt>
      <trkpt lat="44.94059" lon="0.41319">
        <ele>89</ele>
        <time>2023-08-26T07:21:54Z</time>
      </trkpt>
      <trkpt lat="44.94078" lon="0.41312">
        <ele>87.7</ele>
        <time>2023-08-26T07:21:56Z</time>
      </trkpt>
      <trkpt lat="44.94096" lon="0.41301">
        <ele>86.6</ele>
        <time>2023-08-26T07:21:58Z</time>
      </trkpt>
      <trkpt lat="44.94103" lon="0.41296">
        <ele>86.2</ele>
        <time>2023-08-26T07:21:59Z</time>
      </trkpt>
      <trkpt lat="44.94113" lon="0.41282">
        <ele>85.6</ele>
        <time>2023-08-26T07:22:01Z</time>
      </trkpt>
      <trkpt lat="44.94119" lon="0.41265">
        <ele>85.2</ele>
        <time>2023-08-26T07:22:03Z</time>
      </trkpt>
      <trkpt lat="44.94125" lon="0.41248">
        <ele>84.6</ele>
        <time>2023-08-26T07:22:05Z</time>
      </trkpt>
      <trkpt lat="44.94129" lon="0.4124">
        <ele>84.2</ele>
        <time>2023-08-26T07:22:06Z</time>
      </trkpt>
      <trkpt lat="44.94139" lon="0.41223">
        <ele>83</ele>
        <time>2023-08-26T07:22:08Z</time>
      </trkpt>
      <trkpt lat="44.94149" lon="0.41209">
        <ele>81.7</ele>
        <time>2023-08-26T07:22:10Z</time>
      </trkpt>
      <trkpt lat="44.94157" lon="0.41205">
        <ele>80.8</ele>
        <time>2023-08-26T07:22:11Z</time>
      </trkpt>
      <trkpt lat="44.94176" lon="0.41195">
        <ele>78.4</ele>
        <time>2023-08-26T07:22:13Z</time>
      </trkpt>
      <trkpt lat="44.94189" lon="0.41179">
        <ele>76.6</ele>
        <time>2023-08-26T07:22:15Z</time>
      </trkpt>
      <trkpt lat="44.94199" lon="0.41144">
        <ele>74.5</ele>
        <time>2023-08-26T07:22:18Z</time>
      </trkpt>
      <trkpt lat="44.94205" lon="0.41121">
        <ele>73.4</ele>
        <time>2023-08-26T07:22:20Z</time>
      </trkpt>
      <trkpt lat="44.94211" lon="0.41111">
        <ele>72.9</ele>
        <time>2023-08-26T07:22:21Z</time>
      </trkpt>
      <trkpt lat="44.94218" lon="0.41102">
        <ele>72.3</ele>
        <time>2023-08-26T07:22:22Z</time>
      </trkpt>
      <trkpt lat="44.94232" lon="0.41087">
        <ele>71.2</ele>
        <time>2023-08-26T07:22:24Z</time>
      </trkpt>
      <trkpt lat="44.94242" lon="0.4107">
        <ele>70.3</ele>
        <time>2023-08-26T07:22:26Z</time>
      </trkpt>
      <trkpt lat="44.94264" lon="0.41042">
        <ele>68.9</ele>
        <time>2023-08-26T07:22:29Z</time>
      </trkpt>
      <trkpt lat="44.94281" lon="0.41025">
        <ele>68.2</ele>
        <time>2023-08-26T07:22:31Z</time>
      </trkpt>
      <trkpt lat="44.9429" lon="0.41018">
        <ele>68.1</ele>
        <time>2023-08-26T07:22:32Z</time>
      </trkpt>
      <trkpt lat="44.94305" lon="0.41005">
        <ele>68.3</ele>
        <time>2023-08-26T07:22:34Z</time>
      </trkpt>
      <trkpt lat="44.94319" lon="0.40989">
        <ele>68.9</ele>
        <time>2023-08-26T07:22:36Z</time>
      </trkpt>
      <trkpt lat="44.94327" lon="0.40973">
        <ele>69.6</ele>
        <time>2023-08-26T07:22:38Z</time>
      </trkpt>
      <trkpt lat="44.94328" lon="0.40965">
        <ele>69.9</ele>
        <time>2023-08-26T07:22:39Z</time>
      </trkpt>
      <trkpt lat="44.94328" lon="0.40958">
        <ele>70.2</ele>
        <time>2023-08-26T07:22:40Z</time>
      </trkpt>
      <trkpt lat="44.94327" lon="0.40938">
        <ele>70.8</ele>
        <time>2023-08-26T07:22:43Z</time>
      </trkpt>
      <trkpt lat="44.94315" lon="0.40918">
        <ele>70.8</ele>
        <time>2023-08-26T07:22:47Z</time>
      </trkpt>
      <trkpt lat="44.94304" lon="0.40899">
        <ele>70.5</ele>
        <time>2023-08-26T07:22:50Z</time>
      </trkpt>
      <trkpt lat="44.94302" lon="0.40893">
        <ele>70.5</ele>
        <time>2023-08-26T07:22:51Z</time>
      </trkpt>
      <trkpt lat="44.94299" lon="0.40887">
        <ele>70.5</ele>
        <time>2023-08-26T07:22:52Z</time>
      </trkpt>
      <trkpt lat="44.94295" lon="0.40875">
        <ele>70.4</ele>
        <time>2023-08-26T07:22:54Z</time>
      </trkpt>
      <trkpt lat="44.94293" lon="0.40861">
        <ele>70.3</ele>
        <time>2023-08-26T07:22:56Z</time>
      </trkpt>
      <trkpt lat="44.9429" lon="0.40853">
        <ele>70.2</ele>
        <time>2023-08-26T07:22:57Z</time>
      </trkpt>
      <trkpt lat="44.94283" lon="0.40835">
        <ele>69.9</ele>
        <time>2023-08-26T07:22:59Z</time>
      </trkpt>
      <trkpt lat="44.94281" lon="0.40825">
        <ele>69.6</ele>
        <time>2023-08-26T07:23:00Z</time>
      </trkpt>
      <trkpt lat="44.94276" lon="0.40805">
        <ele>69.1</ele>
        <time>2023-08-26T07:23:02Z</time>
      </trkpt>
      <trkpt lat="44.94275" lon="0.40796">
        <ele>68.9</ele>
        <time>2023-08-26T07:23:03Z</time>
      </trkpt>
      <trkpt lat="44.94274" lon="0.40786">
        <ele>68.7</ele>
        <time>2023-08-26T07:23:04Z</time>
      </trkpt>
      <trkpt lat="44.94271" lon="0.40756">
        <ele>68.1</ele>
        <time>2023-08-26T07:23:07Z</time>
      </trkpt>
      <trkpt lat="44.94267" lon="0.40736">
        <ele>67.9</ele>
        <time>2023-08-26T07:23:09Z</time>
      </trkpt>
      <trkpt lat="44.94262" lon="0.40718">
        <ele>67.9</ele>
        <time>2023-08-26T07:23:11Z</time>
      </trkpt>
      <trkpt lat="44.94253" lon="0.40693">
        <ele>68.3</ele>
        <time>2023-08-26T07:23:14Z</time>
      </trkpt>
      <trkpt lat="44.94246" lon="0.40676">
        <ele>68.5</ele>
        <time>2023-08-26T07:23:16Z</time>
      </trkpt>
      <trkpt lat="44.94239" lon="0.40651">
        <ele>68.6</ele>
        <time>2023-08-26T07:23:19Z</time>
      </trkpt>
      <trkpt lat="44.94233" lon="0.40637">
        <ele>68.7</ele>
        <time>2023-08-26T07:23:21Z</time>
      </trkpt>
      <trkpt lat="44.94231" lon="0.4063">
        <ele>68.8</ele>
        <time>2023-08-26T07:23:22Z</time>
      </trkpt>
      <trkpt lat="44.94231" lon="0.40624">
        <ele>69.3</ele>
        <time>2023-08-26T07:23:23Z</time>
      </trkpt>
      <trkpt lat="44.94239" lon="0.4061">
        <ele>70.6</ele>
        <time>2023-08-26T07:23:27Z</time>
      </trkpt>
      <trkpt lat="44.94249" lon="0.40592">
        <ele>72.2</ele>
        <time>2023-08-26T07:23:33Z</time>
      </trkpt>
      <trkpt lat="44.94267" lon="0.40568">
        <ele>74.6</ele>
        <time>2023-08-26T07:23:42Z</time>
      </trkpt>
      <trkpt lat="44.94276" lon="0.40554">
        <ele>76</ele>
        <time>2023-08-26T07:23:47Z</time>
      </trkpt>
      <trkpt lat="44.94279" lon="0.40549">
        <ele>76.7</ele>
        <time>2023-08-26T07:23:49Z</time>
      </trkpt>
      <trkpt lat="44.94285" lon="0.40539">
        <ele>78</ele>
        <time>2023-08-26T07:23:53Z</time>
      </trkpt>
      <trkpt lat="44.94287" lon="0.40535">
        <ele>78.5</ele>
        <time>2023-08-26T07:23:55Z</time>
      </trkpt>
      <trkpt lat="44.94295" lon="0.40525">
        <ele>80.3</ele>
        <time>2023-08-26T07:24:01Z</time>
      </trkpt>
      <trkpt lat="44.94297" lon="0.40524">
        <ele>80.6</ele>
        <time>2023-08-26T07:24:02Z</time>
      </trkpt>
      <trkpt lat="44.94302" lon="0.40517">
        <ele>81.9</ele>
        <time>2023-08-26T07:24:07Z</time>
      </trkpt>
      <trkpt lat="44.94304" lon="0.40514">
        <ele>82.4</ele>
        <time>2023-08-26T07:24:09Z</time>
      </trkpt>
      <trkpt lat="44.94306" lon="0.40513">
        <ele>82.7</ele>
        <time>2023-08-26T07:24:10Z</time>
      </trkpt>
      <trkpt lat="44.94314" lon="0.40505">
        <ele>84.4</ele>
        <time>2023-08-26T07:24:17Z</time>
      </trkpt>
      <trkpt lat="44.94322" lon="0.40495">
        <ele>86.2</ele>
        <time>2023-08-26T07:24:25Z</time>
      </trkpt>
      <trkpt lat="44.94331" lon="0.40487">
        <ele>88.1</ele>
        <time>2023-08-26T07:24:33Z</time>
      </trkpt>
      <trkpt lat="44.94338" lon="0.40479">
        <ele>89.6</ele>
        <time>2023-08-26T07:24:40Z</time>
      </trkpt>
      <trkpt lat="44.94347" lon="0.40472">
        <ele>91.3</ele>
        <time>2023-08-26T07:24:48Z</time>
      </trkpt>
      <trkpt lat="44.94355" lon="0.40466">
        <ele>92.6</ele>
        <time>2023-08-26T07:24:55Z</time>
      </trkpt>
      <trkpt lat="44.94367" lon="0.40456">
        <ele>94</ele>
        <time>2023-08-26T07:25:04Z</time>
      </trkpt>
      <trkpt lat="44.94376" lon="0.40449">
        <ele>94.7</ele>
        <time>2023-08-26T07:25:10Z</time>
      </trkpt>
      <trkpt lat="44.94386" lon="0.40438">
        <ele>95.1</ele>
        <time>2023-08-26T07:25:16Z</time>
      </trkpt>
      <trkpt lat="44.944" lon="0.40426">
        <ele>95.1</ele>
        <time>2023-08-26T07:25:22Z</time>
      </trkpt>
      <trkpt lat="44.94412" lon="0.40412">
        <ele>94.8</ele>
        <time>2023-08-26T07:25:27Z</time>
      </trkpt>
      <trkpt lat="44.94424" lon="0.40398">
        <ele>94.5</ele>
        <time>2023-08-26T07:25:31Z</time>
      </trkpt>
      <trkpt lat="44.94429" lon="0.40392">
        <ele>94.3</ele>
        <time>2023-08-26T07:25:33Z</time>
      </trkpt>
      <trkpt lat="44.94436" lon="0.40385">
        <ele>94.3</ele>
        <time>2023-08-26T07:25:35Z</time>
      </trkpt>
      <trkpt lat="44.94452" lon="0.40379">
        <ele>94.4</ele>
        <time>2023-08-26T07:25:39Z</time>
      </trkpt>
      <trkpt lat="44.94459" lon="0.40383">
        <ele>94.6</ele>
        <time>2023-08-26T07:25:42Z</time>
      </trkpt>
      <trkpt lat="44.94463" lon="0.40388">
        <ele>94.7</ele>
        <time>2023-08-26T07:25:44Z</time>
      </trkpt>
      <trkpt lat="44.9447" lon="0.40395">
        <ele>95.1</ele>
        <time>2023-08-26T07:25:46Z</time>
      </trkpt>
      <trkpt lat="44.94487" lon="0.40413">
        <ele>96.2</ele>
        <time>2023-08-26T07:25:51Z</time>
      </trkpt>
      <trkpt lat="44.94493" lon="0.40411">
        <ele>96.5</ele>
        <time>2023-08-26T07:25:53Z</time>
      </trkpt>
      <trkpt lat="44.94495" lon="0.40407">
        <ele>96.6</ele>
        <time>2023-08-26T07:25:54Z</time>
      </trkpt>
      <trkpt lat="44.94498" lon="0.40402">
        <ele>96.7</ele>
        <time>2023-08-26T07:25:55Z</time>
      </trkpt>
      <trkpt lat="44.94511" lon="0.40384">
        <ele>97.1</ele>
        <time>2023-08-26T07:25:59Z</time>
      </trkpt>
      <trkpt lat="44.94534" lon="0.4035">
        <ele>98</ele>
        <time>2023-08-26T07:26:07Z</time>
      </trkpt>
      <trkpt lat="44.94556" lon="0.40319">
        <ele>100</ele>
        <time>2023-08-26T07:26:15Z</time>
      </trkpt>
      <trkpt lat="44.94574" lon="0.40304">
        <ele>102</ele>
        <time>2023-08-26T07:26:23Z</time>
      </trkpt>
      <trkpt lat="44.94594" lon="0.40286">
        <ele>104.2</ele>
        <time>2023-08-26T07:26:33Z</time>
      </trkpt>
      <trkpt lat="44.9461" lon="0.40271">
        <ele>105.4</ele>
        <time>2023-08-26T07:26:41Z</time>
      </trkpt>
      <trkpt lat="44.9463" lon="0.40252">
        <ele>106.1</ele>
        <time>2023-08-26T07:26:50Z</time>
      </trkpt>
      <trkpt lat="44.94648" lon="0.40236">
        <ele>106.2</ele>
        <time>2023-08-26T07:26:57Z</time>
      </trkpt>
      <trkpt lat="44.94673" lon="0.40213">
        <ele>106.9</ele>
        <time>2023-08-26T07:27:07Z</time>
      </trkpt>
      <trkpt lat="44.94684" lon="0.40203">
        <ele>107.5</ele>
        <time>2023-08-26T07:27:11Z</time>
      </trkpt>
      <trkpt lat="44.94703" lon="0.40189">
        <ele>108.6</ele>
        <time>2023-08-26T07:27:18Z</time>
      </trkpt>
      <trkpt lat="44.94722" lon="0.40176">
        <ele>110.3</ele>
        <time>2023-08-26T07:27:25Z</time>
      </trkpt>
      <trkpt lat="44.94744" lon="0.40169">
        <ele>112.2</ele>
        <time>2023-08-26T07:27:33Z</time>
      </trkpt>
      <trkpt lat="44.94756" lon="0.40165">
        <ele>113.1</ele>
        <time>2023-08-26T07:27:37Z</time>
      </trkpt>
      <trkpt lat="44.94777" lon="0.4016">
        <ele>114.4</ele>
        <time>2023-08-26T07:27:44Z</time>
      </trkpt>
      <trkpt lat="44.94798" lon="0.40154">
        <ele>115.6</ele>
        <time>2023-08-26T07:27:51Z</time>
      </trkpt>
      <trkpt lat="44.94813" lon="0.4015">
        <ele>116.1</ele>
        <time>2023-08-26T07:27:56Z</time>
      </trkpt>
      <trkpt lat="44.94842" lon="0.40141">
        <ele>117</ele>
        <time>2023-08-26T07:28:06Z</time>
      </trkpt>
      <trkpt lat="44.94865" lon="0.40136">
        <ele>117.6</ele>
        <time>2023-08-26T07:28:14Z</time>
      </trkpt>
      <trkpt lat="44.94886" lon="0.4013">
        <ele>118</ele>
        <time>2023-08-26T07:28:21Z</time>
      </trkpt>
      <trkpt lat="44.94894" lon="0.40128">
        <ele>118.2</ele>
        <time>2023-08-26T07:28:24Z</time>
      </trkpt>
      <trkpt lat="44.94924" lon="0.4012">
        <ele>118.9</ele>
        <time>2023-08-26T07:28:34Z</time>
      </trkpt>
      <trkpt lat="44.94932" lon="0.40117">
        <ele>119.1</ele>
        <time>2023-08-26T07:28:37Z</time>
      </trkpt>
      <trkpt lat="44.94947" lon="0.40113">
        <ele>119.6</ele>
        <time>2023-08-26T07:28:42Z</time>
      </trkpt>
      <trkpt lat="44.94969" lon="0.40109">
        <ele>119.9</ele>
        <time>2023-08-26T07:28:49Z</time>
      </trkpt>
      <trkpt lat="44.94976" lon="0.40118">
        <ele>120</ele>
        <time>2023-08-26T07:28:52Z</time>
      </trkpt>
      <trkpt lat="44.94977" lon="0.40123">
        <ele>120</ele>
        <time>2023-08-26T07:28:53Z</time>
      </trkpt>
      <trkpt lat="44.94984" lon="0.40158">
        <ele>120</ele>
        <time>2023-08-26T07:29:00Z</time>
      </trkpt>
      <trkpt lat="44.94995" lon="0.40203">
        <ele>119.4</ele>
        <time>2023-08-26T07:29:08Z</time>
      </trkpt>
      <trkpt lat="44.95005" lon="0.40235">
        <ele>119.2</ele>
        <time>2023-08-26T07:29:13Z</time>
      </trkpt>
      <trkpt lat="44.95009" lon="0.40248">
        <ele>119.1</ele>
        <time>2023-08-26T07:29:15Z</time>
      </trkpt>
      <trkpt lat="44.9502" lon="0.40284">
        <ele>119.4</ele>
        <time>2023-08-26T07:29:21Z</time>
      </trkpt>
      <trkpt lat="44.95032" lon="0.40315">
        <ele>119.4</ele>
        <time>2023-08-26T07:29:27Z</time>
      </trkpt>
      <trkpt lat="44.95041" lon="0.4032">
        <ele>119.8</ele>
        <time>2023-08-26T07:29:30Z</time>
      </trkpt>
      <trkpt lat="44.95045" lon="0.40319">
        <ele>119.9</ele>
        <time>2023-08-26T07:29:31Z</time>
      </trkpt>
      <trkpt lat="44.95073" lon="0.4031">
        <ele>121.1</ele>
        <time>2023-08-26T07:29:39Z</time>
      </trkpt>
      <trkpt lat="44.95086" lon="0.40307">
        <ele>121.8</ele>
        <time>2023-08-26T07:29:43Z</time>
      </trkpt>
      <trkpt lat="44.95096" lon="0.40305">
        <ele>122.5</ele>
        <time>2023-08-26T07:29:46Z</time>
      </trkpt>
      <trkpt lat="44.95126" lon="0.40302">
        <ele>124.5</ele>
        <time>2023-08-26T07:29:55Z</time>
      </trkpt>
      <trkpt lat="44.95129" lon="0.40301">
        <ele>124.7</ele>
        <time>2023-08-26T07:29:56Z</time>
      </trkpt>
      <trkpt lat="44.95159" lon="0.40298">
        <ele>126.7</ele>
        <time>2023-08-26T07:30:05Z</time>
      </trkpt>
      <trkpt lat="44.95162" lon="0.40297">
        <ele>127</ele>
        <time>2023-08-26T07:30:06Z</time>
      </trkpt>
      <trkpt lat="44.95186" lon="0.40294">
        <ele>128.4</ele>
        <time>2023-08-26T07:30:13Z</time>
      </trkpt>
      <trkpt lat="44.95192" lon="0.40293">
        <ele>128.8</ele>
        <time>2023-08-26T07:30:15Z</time>
      </trkpt>
      <trkpt lat="44.95221" lon="0.4029">
        <ele>130.5</ele>
        <time>2023-08-26T07:30:24Z</time>
      </trkpt>
      <trkpt lat="44.95236" lon="0.40292">
        <ele>131.1</ele>
        <time>2023-08-26T07:30:29Z</time>
      </trkpt>
      <trkpt lat="44.95243" lon="0.40294">
        <ele>131.3</ele>
        <time>2023-08-26T07:30:31Z</time>
      </trkpt>
      <trkpt lat="44.95257" lon="0.403">
        <ele>131.5</ele>
        <time>2023-08-26T07:30:35Z</time>
      </trkpt>
      <trkpt lat="44.9528" lon="0.40314">
        <ele>131.8</ele>
        <time>2023-08-26T07:30:42Z</time>
      </trkpt>
      <trkpt lat="44.95304" lon="0.40336">
        <ele>131.9</ele>
        <time>2023-08-26T07:30:50Z</time>
      </trkpt>
      <trkpt lat="44.95318" lon="0.40343">
        <ele>132.1</ele>
        <time>2023-08-26T07:30:54Z</time>
      </trkpt>
      <trkpt lat="44.95323" lon="0.40341">
        <ele>131.9</ele>
        <time>2023-08-26T07:30:55Z</time>
      </trkpt>
      <trkpt lat="44.95326" lon="0.40336">
        <ele>131.8</ele>
        <time>2023-08-26T07:30:56Z</time>
      </trkpt>
      <trkpt lat="44.9533" lon="0.40324">
        <ele>131.5</ele>
        <time>2023-08-26T07:30:58Z</time>
      </trkpt>
      <trkpt lat="44.95345" lon="0.40271">
        <ele>130.5</ele>
        <time>2023-08-26T07:31:06Z</time>
      </trkpt>
      <trkpt lat="44.95355" lon="0.40236">
        <ele>129.9</ele>
        <time>2023-08-26T07:31:11Z</time>
      </trkpt>
      <trkpt lat="44.95363" lon="0.40207">
        <ele>129.2</ele>
        <time>2023-08-26T07:31:15Z</time>
      </trkpt>
      <trkpt lat="44.95363" lon="0.402">
        <ele>128.9</ele>
        <time>2023-08-26T07:31:16Z</time>
      </trkpt>
      <trkpt lat="44.95361" lon="0.40193">
        <ele>128.6</ele>
        <time>2023-08-26T07:31:17Z</time>
      </trkpt>
      <trkpt lat="44.95355" lon="0.4018">
        <ele>127.9</ele>
        <time>2023-08-26T07:31:19Z</time>
      </trkpt>
      <trkpt lat="44.95354" lon="0.40155">
        <ele>126.8</ele>
        <time>2023-08-26T07:31:22Z</time>
      </trkpt>
      <trkpt lat="44.9536" lon="0.40118">
        <ele>125</ele>
        <time>2023-08-26T07:31:26Z</time>
      </trkpt>
      <trkpt lat="44.95362" lon="0.40096">
        <ele>123.8</ele>
        <time>2023-08-26T07:31:29Z</time>
      </trkpt>
      <trkpt lat="44.95356" lon="0.40086">
        <ele>123</ele>
        <time>2023-08-26T07:31:31Z</time>
      </trkpt>
      <trkpt lat="44.95352" lon="0.40084">
        <ele>122.6</ele>
        <time>2023-08-26T07:31:32Z</time>
      </trkpt>
      <trkpt lat="44.95342" lon="0.40084">
        <ele>121.9</ele>
        <time>2023-08-26T07:31:34Z</time>
      </trkpt>
      <trkpt lat="44.95333" lon="0.40085">
        <ele>121.4</ele>
        <time>2023-08-26T07:31:36Z</time>
      </trkpt>
      <trkpt lat="44.95321" lon="0.40084">
        <ele>121</ele>
        <time>2023-08-26T07:31:38Z</time>
      </trkpt>
      <trkpt lat="44.95316" lon="0.40082">
        <ele>120.9</ele>
        <time>2023-08-26T07:31:39Z</time>
      </trkpt>
      <trkpt lat="44.95306" lon="0.40074">
        <ele>120.7</ele>
        <time>2023-08-26T07:31:42Z</time>
      </trkpt>
      <trkpt lat="44.95292" lon="0.40058">
        <ele>120.8</ele>
        <time>2023-08-26T07:31:46Z</time>
      </trkpt>
      <trkpt lat="44.95288" lon="0.40053">
        <ele>120.9</ele>
        <time>2023-08-26T07:31:47Z</time>
      </trkpt>
      <trkpt lat="44.95282" lon="0.4004">
        <ele>121.2</ele>
        <time>2023-08-26T07:31:49Z</time>
      </trkpt>
      <trkpt lat="44.95279" lon="0.40033">
        <ele>121.3</ele>
        <time>2023-08-26T07:31:50Z</time>
      </trkpt>
      <trkpt lat="44.95267" lon="0.39991">
        <ele>121.9</ele>
        <time>2023-08-26T07:31:56Z</time>
      </trkpt>
      <trkpt lat="44.95265" lon="0.39983">
        <ele>121.8</ele>
        <time>2023-08-26T07:31:57Z</time>
      </trkpt>
      <trkpt lat="44.95259" lon="0.39967">
        <ele>121.6</ele>
        <time>2023-08-26T07:31:59Z</time>
      </trkpt>
      <trkpt lat="44.95254" lon="0.3995">
        <ele>121.1</ele>
        <time>2023-08-26T07:32:01Z</time>
      </trkpt>
      <trkpt lat="44.95251" lon="0.39933">
        <ele>120.3</ele>
        <time>2023-08-26T07:32:03Z</time>
      </trkpt>
      <trkpt lat="44.95252" lon="0.39916">
        <ele>119.5</ele>
        <time>2023-08-26T07:32:05Z</time>
      </trkpt>
      <trkpt lat="44.95262" lon="0.39889">
        <ele>117.8</ele>
        <time>2023-08-26T07:32:08Z</time>
      </trkpt>
      <trkpt lat="44.95267" lon="0.39881">
        <ele>117.1</ele>
        <time>2023-08-26T07:32:09Z</time>
      </trkpt>
      <trkpt lat="44.9529" lon="0.39845">
        <ele>114.4</ele>
        <time>2023-08-26T07:32:13Z</time>
      </trkpt>
      <trkpt lat="44.95299" lon="0.39829">
        <ele>113.3</ele>
        <time>2023-08-26T07:32:15Z</time>
      </trkpt>
      <trkpt lat="44.95302" lon="0.39821">
        <ele>112.7</ele>
        <time>2023-08-26T07:32:16Z</time>
      </trkpt>
      <trkpt lat="44.95305" lon="0.39814">
        <ele>112.2</ele>
        <time>2023-08-26T07:32:17Z</time>
      </trkpt>
      <trkpt lat="44.95304" lon="0.39797">
        <ele>110.8</ele>
        <time>2023-08-26T07:32:19Z</time>
      </trkpt>
      <trkpt lat="44.95295" lon="0.39782">
        <ele>109.3</ele>
        <time>2023-08-26T07:32:21Z</time>
      </trkpt>
      <trkpt lat="44.9529" lon="0.39775">
        <ele>108.7</ele>
        <time>2023-08-26T07:32:22Z</time>
      </trkpt>
      <trkpt lat="44.95267" lon="0.39742">
        <ele>108.4</ele>
        <time>2023-08-26T07:32:27Z</time>
      </trkpt>
      <trkpt lat="44.95246" lon="0.39709">
        <ele>109.6</ele>
        <time>2023-08-26T07:32:33Z</time>
      </trkpt>
      <trkpt lat="44.95224" lon="0.39676">
        <ele>110.9</ele>
        <time>2023-08-26T07:32:40Z</time>
      </trkpt>
      <trkpt lat="44.95203" lon="0.39643">
        <ele>111.9</ele>
        <time>2023-08-26T07:32:47Z</time>
      </trkpt>
      <trkpt lat="44.95201" lon="0.39638">
        <ele>112</ele>
        <time>2023-08-26T07:32:48Z</time>
      </trkpt>
      <trkpt lat="44.9519" lon="0.39625">
        <ele>112.2</ele>
        <time>2023-08-26T07:32:51Z</time>
      </trkpt>
      <trkpt lat="44.95187" lon="0.3962">
        <ele>112.3</ele>
        <time>2023-08-26T07:32:52Z</time>
      </trkpt>
      <trkpt lat="44.95183" lon="0.39616">
        <ele>112.3</ele>
        <time>2023-08-26T07:32:53Z</time>
      </trkpt>
      <trkpt lat="44.95157" lon="0.3959">
        <ele>111.8</ele>
        <time>2023-08-26T07:32:59Z</time>
      </trkpt>
      <trkpt lat="44.95144" lon="0.39579">
        <ele>111.3</ele>
        <time>2023-08-26T07:33:02Z</time>
      </trkpt>
      <trkpt lat="44.95136" lon="0.3957">
        <ele>110.9</ele>
        <time>2023-08-26T07:33:04Z</time>
      </trkpt>
      <trkpt lat="44.95116" lon="0.39546">
        <ele>109.2</ele>
        <time>2023-08-26T07:33:08Z</time>
      </trkpt>
      <trkpt lat="44.95111" lon="0.39539">
        <ele>108.5</ele>
        <time>2023-08-26T07:33:09Z</time>
      </trkpt>
      <trkpt lat="44.95109" lon="0.39533">
        <ele>107.8</ele>
        <time>2023-08-26T07:33:10Z</time>
      </trkpt>
      <trkpt lat="44.95107" lon="0.39519">
        <ele>106.2</ele>
        <time>2023-08-26T07:33:12Z</time>
      </trkpt>
      <trkpt lat="44.95113" lon="0.39492">
        <ele>102.4</ele>
        <time>2023-08-26T07:33:15Z</time>
      </trkpt>
      <trkpt lat="44.95115" lon="0.39483">
        <ele>101.1</ele>
        <time>2023-08-26T07:33:16Z</time>
      </trkpt>
      <trkpt lat="44.95127" lon="0.39441">
        <ele>95</ele>
        <time>2023-08-26T07:33:20Z</time>
      </trkpt>
      <trkpt lat="44.95135" lon="0.3941">
        <ele>91.4</ele>
        <time>2023-08-26T07:33:23Z</time>
      </trkpt>
      <trkpt lat="44.95137" lon="0.39402">
        <ele>90.4</ele>
        <time>2023-08-26T07:33:24Z</time>
      </trkpt>
      <trkpt lat="44.95137" lon="0.39394">
        <ele>89.5</ele>
        <time>2023-08-26T07:33:25Z</time>
      </trkpt>
      <trkpt lat="44.95132" lon="0.39381">
        <ele>87.7</ele>
        <time>2023-08-26T07:33:27Z</time>
      </trkpt>
      <trkpt lat="44.95123" lon="0.39375">
        <ele>86.1</ele>
        <time>2023-08-26T07:33:29Z</time>
      </trkpt>
      <trkpt lat="44.95104" lon="0.39373">
        <ele>83.9</ele>
        <time>2023-08-26T07:33:32Z</time>
      </trkpt>
      <trkpt lat="44.95078" lon="0.39378">
        <ele>82.5</ele>
        <time>2023-08-26T07:33:36Z</time>
      </trkpt>
      <trkpt lat="44.95067" lon="0.39383">
        <ele>82.3</ele>
        <time>2023-08-26T07:33:38Z</time>
      </trkpt>
      <trkpt lat="44.95062" lon="0.39385">
        <ele>82.2</ele>
        <time>2023-08-26T07:33:39Z</time>
      </trkpt>
      <trkpt lat="44.95046" lon="0.39392">
        <ele>82.1</ele>
        <time>2023-08-26T07:33:42Z</time>
      </trkpt>
      <trkpt lat="44.95019" lon="0.39406">
        <ele>82.6</ele>
        <time>2023-08-26T07:33:47Z</time>
      </trkpt>
      <trkpt lat="44.95013" lon="0.39409">
        <ele>82.8</ele>
        <time>2023-08-26T07:33:48Z</time>
      </trkpt>
      <trkpt lat="44.95005" lon="0.39414">
        <ele>83.1</ele>
        <time>2023-08-26T07:33:50Z</time>
      </trkpt>
      <trkpt lat="44.94996" lon="0.39419">
        <ele>83.4</ele>
        <time>2023-08-26T07:33:52Z</time>
      </trkpt>
      <trkpt lat="44.94987" lon="0.39423">
        <ele>83.6</ele>
        <time>2023-08-26T07:33:54Z</time>
      </trkpt>
      <trkpt lat="44.94979" lon="0.39427">
        <ele>83.6</ele>
        <time>2023-08-26T07:33:56Z</time>
      </trkpt>
      <trkpt lat="44.94974" lon="0.39428">
        <ele>83.5</ele>
        <time>2023-08-26T07:33:57Z</time>
      </trkpt>
      <trkpt lat="44.94968" lon="0.39426">
        <ele>83.2</ele>
        <time>2023-08-26T07:33:58Z</time>
      </trkpt>
      <trkpt lat="44.94957" lon="0.39417">
        <ele>82.4</ele>
        <time>2023-08-26T07:34:00Z</time>
      </trkpt>
      <trkpt lat="44.94942" lon="0.39404">
        <ele>81.9</ele>
        <time>2023-08-26T07:34:03Z</time>
      </trkpt>
      <trkpt lat="44.94939" lon="0.39399">
        <ele>81.9</ele>
        <time>2023-08-26T07:34:04Z</time>
      </trkpt>
      <trkpt lat="44.94933" lon="0.39391">
        <ele>82.2</ele>
        <time>2023-08-26T07:34:06Z</time>
      </trkpt>
      <trkpt lat="44.94926" lon="0.39384">
        <ele>83.1</ele>
        <time>2023-08-26T07:34:08Z</time>
      </trkpt>
      <trkpt lat="44.94914" lon="0.39372">
        <ele>85.2</ele>
        <time>2023-08-26T07:34:13Z</time>
      </trkpt>
      <trkpt lat="44.94909" lon="0.39365">
        <ele>86.6</ele>
        <time>2023-08-26T07:34:17Z</time>
      </trkpt>
      <trkpt lat="44.94908" lon="0.39364">
        <ele>86.9</ele>
        <time>2023-08-26T07:34:18Z</time>
      </trkpt>
      <trkpt lat="44.94905" lon="0.3936">
        <ele>87.8</ele>
        <time>2023-08-26T07:34:21Z</time>
      </trkpt>
      <trkpt lat="44.94901" lon="0.39356">
        <ele>88.8</ele>
        <time>2023-08-26T07:34:24Z</time>
      </trkpt>
      <trkpt lat="44.94901" lon="0.39354">
        <ele>89.1</ele>
        <time>2023-08-26T07:34:25Z</time>
      </trkpt>
      <trkpt lat="44.94897" lon="0.3935">
        <ele>90.1</ele>
        <time>2023-08-26T07:34:28Z</time>
      </trkpt>
      <trkpt lat="44.94893" lon="0.39346">
        <ele>91.3</ele>
        <time>2023-08-26T07:34:33Z</time>
      </trkpt>
      <trkpt lat="44.9489" lon="0.3934">
        <ele>92.4</ele>
        <time>2023-08-26T07:34:37Z</time>
      </trkpt>
      <trkpt lat="44.94888" lon="0.39337">
        <ele>93.1</ele>
        <time>2023-08-26T07:34:39Z</time>
      </trkpt>
      <trkpt lat="44.94887" lon="0.39335">
        <ele>93.5</ele>
        <time>2023-08-26T07:34:40Z</time>
      </trkpt>
      <trkpt lat="44.94881" lon="0.39328">
        <ele>95.2</ele>
        <time>2023-08-26T07:34:46Z</time>
      </trkpt>
      <trkpt lat="44.94875" lon="0.39318">
        <ele>96.8</ele>
        <time>2023-08-26T07:34:53Z</time>
      </trkpt>
      <trkpt lat="44.94871" lon="0.39311">
        <ele>97.9</ele>
        <time>2023-08-26T07:34:58Z</time>
      </trkpt>
      <trkpt lat="44.9487" lon="0.39309">
        <ele>98.1</ele>
        <time>2023-08-26T07:34:59Z</time>
      </trkpt>
      <trkpt lat="44.94869" lon="0.39306">
        <ele>98.6</ele>
        <time>2023-08-26T07:35:02Z</time>
      </trkpt>
      <trkpt lat="44.94867" lon="0.39302">
        <ele>99</ele>
        <time>2023-08-26T07:35:04Z</time>
      </trkpt>
      <trkpt lat="44.94863" lon="0.39295">
        <ele>100</ele>
        <time>2023-08-26T07:35:09Z</time>
      </trkpt>
      <trkpt lat="44.94861" lon="0.3929">
        <ele>100.5</ele>
        <time>2023-08-26T07:35:12Z</time>
      </trkpt>
      <trkpt lat="44.94857" lon="0.39284">
        <ele>101.3</ele>
        <time>2023-08-26T07:35:17Z</time>
      </trkpt>
      <trkpt lat="44.94856" lon="0.39281">
        <ele>101.6</ele>
        <time>2023-08-26T07:35:19Z</time>
      </trkpt>
      <trkpt lat="44.94849" lon="0.39269">
        <ele>103.1</ele>
        <time>2023-08-26T07:35:27Z</time>
      </trkpt>
      <trkpt lat="44.94848" lon="0.39266">
        <ele>103.5</ele>
        <time>2023-08-26T07:35:29Z</time>
      </trkpt>
      <trkpt lat="44.94847" lon="0.39263">
        <ele>103.8</ele>
        <time>2023-08-26T07:35:31Z</time>
      </trkpt>
      <trkpt lat="44.94845" lon="0.3926">
        <ele>104.2</ele>
        <time>2023-08-26T07:35:33Z</time>
      </trkpt>
      <trkpt lat="44.94841" lon="0.39251">
        <ele>105.1</ele>
        <time>2023-08-26T07:35:39Z</time>
      </trkpt>
      <trkpt lat="44.94837" lon="0.39243">
        <ele>105.9</ele>
        <time>2023-08-26T07:35:45Z</time>
      </trkpt>
      <trkpt lat="44.94835" lon="0.39241">
        <ele>106.1</ele>
        <time>2023-08-26T07:35:46Z</time>
      </trkpt>
      <trkpt lat="44.94832" lon="0.39235">
        <ele>106.6</ele>
        <time>2023-08-26T07:35:50Z</time>
      </trkpt>
      <trkpt lat="44.94826" lon="0.39224">
        <ele>107.3</ele>
        <time>2023-08-26T07:35:57Z</time>
      </trkpt>
      <trkpt lat="44.94819" lon="0.39212">
        <ele>108</ele>
        <time>2023-08-26T07:36:04Z</time>
      </trkpt>
      <trkpt lat="44.94813" lon="0.39199">
        <ele>108.5</ele>
        <time>2023-08-26T07:36:10Z</time>
      </trkpt>
      <trkpt lat="44.94805" lon="0.39184">
        <ele>109</ele>
        <time>2023-08-26T07:36:17Z</time>
      </trkpt>
      <trkpt lat="44.94796" lon="0.3917">
        <ele>109.2</ele>
        <time>2023-08-26T07:36:24Z</time>
      </trkpt>
      <trkpt lat="44.94789" lon="0.39157">
        <ele>109.2</ele>
        <time>2023-08-26T07:36:29Z</time>
      </trkpt>
      <trkpt lat="44.94787" lon="0.39154">
        <ele>109.1</ele>
        <time>2023-08-26T07:36:30Z</time>
      </trkpt>
      <trkpt lat="44.94776" lon="0.39131">
        <ele>107.2</ele>
        <time>2023-08-26T07:36:36Z</time>
      </trkpt>
      <trkpt lat="44.94774" lon="0.39126">
        <ele>106.7</ele>
        <time>2023-08-26T07:36:37Z</time>
      </trkpt>
      <trkpt lat="44.94768" lon="0.39113">
        <ele>105.3</ele>
        <time>2023-08-26T07:36:39Z</time>
      </trkpt>
      <trkpt lat="44.94764" lon="0.39106">
        <ele>104.5</ele>
        <time>2023-08-26T07:36:40Z</time>
      </trkpt>
      <trkpt lat="44.94739" lon="0.39061">
        <ele>99.2</ele>
        <time>2023-08-26T07:36:45Z</time>
      </trkpt>
      <trkpt lat="44.94723" lon="0.39032">
        <ele>95.9</ele>
        <time>2023-08-26T07:36:48Z</time>
      </trkpt>
      <trkpt lat="44.94717" lon="0.39025">
        <ele>95</ele>
        <time>2023-08-26T07:36:49Z</time>
      </trkpt>
      <trkpt lat="44.94712" lon="0.3902">
        <ele>94.2</ele>
        <time>2023-08-26T07:36:50Z</time>
      </trkpt>
      <trkpt lat="44.94706" lon="0.39019">
        <ele>93.6</ele>
        <time>2023-08-26T07:36:51Z</time>
      </trkpt>
      <trkpt lat="44.947" lon="0.39021">
        <ele>93</ele>
        <time>2023-08-26T07:36:52Z</time>
      </trkpt>
      <trkpt lat="44.94687" lon="0.39029">
        <ele>91.8</ele>
        <time>2023-08-26T07:36:54Z</time>
      </trkpt>
      <trkpt lat="44.9468" lon="0.39033">
        <ele>91.3</ele>
        <time>2023-08-26T07:36:55Z</time>
      </trkpt>
      <trkpt lat="44.94668" lon="0.39041">
        <ele>90.5</ele>
        <time>2023-08-26T07:36:57Z</time>
      </trkpt>
      <trkpt lat="44.94636" lon="0.39068">
        <ele>88.1</ele>
        <time>2023-08-26T07:37:02Z</time>
      </trkpt>
      <trkpt lat="44.94629" lon="0.39073">
        <ele>87.5</ele>
        <time>2023-08-26T07:37:03Z</time>
      </trkpt>
      <trkpt lat="44.94592" lon="0.391">
        <ele>84</ele>
        <time>2023-08-26T07:37:08Z</time>
      </trkpt>
      <trkpt lat="44.94583" lon="0.39107">
        <ele>83.2</ele>
        <time>2023-08-26T07:37:09Z</time>
      </trkpt>
      <trkpt lat="44.94567" lon="0.39117">
        <ele>81.6</ele>
        <time>2023-08-26T07:37:11Z</time>
      </trkpt>
      <trkpt lat="44.94557" lon="0.39121">
        <ele>80.8</ele>
        <time>2023-08-26T07:37:12Z</time>
      </trkpt>
      <trkpt lat="44.94537" lon="0.39128">
        <ele>79.1</ele>
        <time>2023-08-26T07:37:14Z</time>
      </trkpt>
      <trkpt lat="44.94518" lon="0.39132">
        <ele>77.5</ele>
        <time>2023-08-26T07:37:16Z</time>
      </trkpt>
      <trkpt lat="44.9451" lon="0.39135">
        <ele>76.9</ele>
        <time>2023-08-26T07:37:17Z</time>
      </trkpt>
      <trkpt lat="44.94498" lon="0.39139">
        <ele>76.1</ele>
        <time>2023-08-26T07:37:19Z</time>
      </trkpt>
      <trkpt lat="44.94494" lon="0.39138">
        <ele>75.9</ele>
        <time>2023-08-26T07:37:20Z</time>
      </trkpt>
      <trkpt lat="44.9449" lon="0.39129">
        <ele>75.5</ele>
        <time>2023-08-26T07:37:22Z</time>
      </trkpt>
      <trkpt lat="44.94487" lon="0.39121">
        <ele>75.3</ele>
        <time>2023-08-26T07:37:23Z</time>
      </trkpt>
      <trkpt lat="44.94483" lon="0.39107">
        <ele>75</ele>
        <time>2023-08-26T07:37:25Z</time>
      </trkpt>
      <trkpt lat="44.9448" lon="0.39092">
        <ele>74.9</ele>
        <time>2023-08-26T07:37:27Z</time>
      </trkpt>
      <trkpt lat="44.94475" lon="0.39076">
        <ele>74.9</ele>
        <time>2023-08-26T07:37:29Z</time>
      </trkpt>
      <trkpt lat="44.9447" lon="0.3906">
        <ele>75</ele>
        <time>2023-08-26T07:37:31Z</time>
      </trkpt>
      <trkpt lat="44.94458" lon="0.39032">
        <ele>75.3</ele>
        <time>2023-08-26T07:37:35Z</time>
      </trkpt>
      <trkpt lat="44.94446" lon="0.39025">
        <ele>75.6</ele>
        <time>2023-08-26T07:37:37Z</time>
      </trkpt>
      <trkpt lat="44.94443" lon="0.39027">
        <ele>75.4</ele>
        <time>2023-08-26T07:37:38Z</time>
      </trkpt>
      <trkpt lat="44.94438" lon="0.3903">
        <ele>75.2</ele>
        <time>2023-08-26T07:37:39Z</time>
      </trkpt>
      <trkpt lat="44.94431" lon="0.39041">
        <ele>74.9</ele>
        <time>2023-08-26T07:37:41Z</time>
      </trkpt>
      <trkpt lat="44.94424" lon="0.39052">
        <ele>74.7</ele>
        <time>2023-08-26T07:37:43Z</time>
      </trkpt>
      <trkpt lat="44.94421" lon="0.39058">
        <ele>74.6</ele>
        <time>2023-08-26T07:37:44Z</time>
      </trkpt>
      <trkpt lat="44.94407" lon="0.39084">
        <ele>74.4</ele>
        <time>2023-08-26T07:37:48Z</time>
      </trkpt>
      <trkpt lat="44.94403" lon="0.39089">
        <ele>74.5</ele>
        <time>2023-08-26T07:37:49Z</time>
      </trkpt>
      <trkpt lat="44.944" lon="0.39095">
        <ele>74.5</ele>
        <time>2023-08-26T07:37:50Z</time>
      </trkpt>
      <trkpt lat="44.94393" lon="0.39115">
        <ele>74.8</ele>
        <time>2023-08-26T07:37:53Z</time>
      </trkpt>
      <trkpt lat="44.94386" lon="0.39145">
        <ele>75.8</ele>
        <time>2023-08-26T07:37:58Z</time>
      </trkpt>
      <trkpt lat="44.94391" lon="0.3917">
        <ele>77.2</ele>
        <time>2023-08-26T07:38:03Z</time>
      </trkpt>
      <trkpt lat="44.94395" lon="0.39189">
        <ele>78.2</ele>
        <time>2023-08-26T07:38:08Z</time>
      </trkpt>
      <trkpt lat="44.94396" lon="0.39211">
        <ele>79.3</ele>
        <time>2023-08-26T07:38:13Z</time>
      </trkpt>
      <trkpt lat="44.94396" lon="0.39215">
        <ele>79.5</ele>
        <time>2023-08-26T07:38:14Z</time>
      </trkpt>
      <trkpt lat="44.94394" lon="0.39237">
        <ele>80.4</ele>
        <time>2023-08-26T07:38:19Z</time>
      </trkpt>
      <trkpt lat="44.94391" lon="0.39258">
        <ele>81.2</ele>
        <time>2023-08-26T07:38:24Z</time>
      </trkpt>
      <trkpt lat="44.94388" lon="0.39281">
        <ele>81.7</ele>
        <time>2023-08-26T07:38:29Z</time>
      </trkpt>
      <trkpt lat="44.94382" lon="0.39309">
        <ele>82.2</ele>
        <time>2023-08-26T07:38:36Z</time>
      </trkpt>
      <trkpt lat="44.94369" lon="0.39331">
        <ele>82.3</ele>
        <time>2023-08-26T07:38:42Z</time>
      </trkpt>
      <trkpt lat="44.94357" lon="0.39344">
        <ele>82.4</ele>
        <time>2023-08-26T07:38:46Z</time>
      </trkpt>
      <trkpt lat="44.94339" lon="0.39359">
        <ele>82.8</ele>
        <time>2023-08-26T07:38:52Z</time>
      </trkpt>
      <trkpt lat="44.94329" lon="0.39346">
        <ele>83.5</ele>
        <time>2023-08-26T07:38:56Z</time>
      </trkpt>
      <trkpt lat="44.94323" lon="0.39335">
        <ele>83.8</ele>
        <time>2023-08-26T07:38:59Z</time>
      </trkpt>
      <trkpt lat="44.94311" lon="0.39318">
        <ele>84.5</ele>
        <time>2023-08-26T07:39:04Z</time>
      </trkpt>
      <trkpt lat="44.94295" lon="0.39293">
        <ele>85.8</ele>
        <time>2023-08-26T07:39:11Z</time>
      </trkpt>
      <trkpt lat="44.94276" lon="0.39265">
        <ele>87.2</ele>
        <time>2023-08-26T07:39:19Z</time>
      </trkpt>
      <trkpt lat="44.94265" lon="0.39242">
        <ele>88.2</ele>
        <time>2023-08-26T07:39:25Z</time>
      </trkpt>
      <trkpt lat="44.94252" lon="0.39222">
        <ele>89.2</ele>
        <time>2023-08-26T07:39:31Z</time>
      </trkpt>
      <trkpt lat="44.94238" lon="0.39198">
        <ele>90.2</ele>
        <time>2023-08-26T07:39:38Z</time>
      </trkpt>
      <trkpt lat="44.94224" lon="0.39189">
        <ele>91</ele>
        <time>2023-08-26T07:39:43Z</time>
      </trkpt>
      <trkpt lat="44.94209" lon="0.39183">
        <ele>91.7</ele>
        <time>2023-08-26T07:39:48Z</time>
      </trkpt>
      <trkpt lat="44.94186" lon="0.39174">
        <ele>92.5</ele>
        <time>2023-08-26T07:39:55Z</time>
      </trkpt>
      <trkpt lat="44.9418" lon="0.39169">
        <ele>92.7</ele>
        <time>2023-08-26T07:39:57Z</time>
      </trkpt>
      <trkpt lat="44.94179" lon="0.39161">
        <ele>92.8</ele>
        <time>2023-08-26T07:39:59Z</time>
      </trkpt>
      <trkpt lat="44.94179" lon="0.39142">
        <ele>92.8</ele>
        <time>2023-08-26T07:40:03Z</time>
      </trkpt>
      <trkpt lat="44.94168" lon="0.39102">
        <ele>92.7</ele>
        <time>2023-08-26T07:40:10Z</time>
      </trkpt>
      <trkpt lat="44.94154" lon="0.39075">
        <ele>92.8</ele>
        <time>2023-08-26T07:40:16Z</time>
      </trkpt>
      <trkpt lat="44.94144" lon="0.39059">
        <ele>92.8</ele>
        <time>2023-08-26T07:40:20Z</time>
      </trkpt>
      <trkpt lat="44.94138" lon="0.39047">
        <ele>92.9</ele>
        <time>2023-08-26T07:40:23Z</time>
      </trkpt>
      <trkpt lat="44.94135" lon="0.39044">
        <ele>92.9</ele>
        <time>2023-08-26T07:40:24Z</time>
      </trkpt>
      <trkpt lat="44.94128" lon="0.39036">
        <ele>92.9</ele>
        <time>2023-08-26T07:40:26Z</time>
      </trkpt>
      <trkpt lat="44.94124" lon="0.39033">
        <ele>92.9</ele>
        <time>2023-08-26T07:40:27Z</time>
      </trkpt>
      <trkpt lat="44.94108" lon="0.3902">
        <ele>92.6</ele>
        <time>2023-08-26T07:40:31Z</time>
      </trkpt>
      <trkpt lat="44.94096" lon="0.39006">
        <ele>92.1</ele>
        <time>2023-08-26T07:40:35Z</time>
      </trkpt>
      <trkpt lat="44.9408" lon="0.38972">
        <ele>91</ele>
        <time>2023-08-26T07:40:41Z</time>
      </trkpt>
      <trkpt lat="44.94067" lon="0.38931">
        <ele>90.1</ele>
        <time>2023-08-26T07:40:46Z</time>
      </trkpt>
      <trkpt lat="44.94063" lon="0.38914">
        <ele>89.8</ele>
        <time>2023-08-26T07:40:48Z</time>
      </trkpt>
      <trkpt lat="44.94057" lon="0.38897">
        <ele>89.6</ele>
        <time>2023-08-26T07:40:50Z</time>
      </trkpt>
      <trkpt lat="44.94046" lon="0.38873">
        <ele>89.5</ele>
        <time>2023-08-26T07:40:53Z</time>
      </trkpt>
      <trkpt lat="44.9403" lon="0.3885">
        <ele>89.8</ele>
        <time>2023-08-26T07:40:56Z</time>
      </trkpt>
      <trkpt lat="44.94021" lon="0.38839">
        <ele>90.1</ele>
        <time>2023-08-26T07:40:58Z</time>
      </trkpt>
      <trkpt lat="44.94017" lon="0.38835">
        <ele>90.2</ele>
        <time>2023-08-26T07:40:59Z</time>
      </trkpt>
      <trkpt lat="44.94006" lon="0.3882">
        <ele>90.7</ele>
        <time>2023-08-26T07:41:02Z</time>
      </trkpt>
      <trkpt lat="44.94002" lon="0.38814">
        <ele>90.9</ele>
        <time>2023-08-26T07:41:03Z</time>
      </trkpt>
      <trkpt lat="44.93991" lon="0.38795">
        <ele>91.6</ele>
        <time>2023-08-26T07:41:05Z</time>
      </trkpt>
      <trkpt lat="44.93991" lon="0.38795">
        <ele>91.6</ele>
        <time>2023-08-26T07:41:06Z</time>
      </trkpt>
      <trkpt lat="44.9398" lon="0.38775">
        <ele>92.5</ele>
        <time>2023-08-26T07:41:10Z</time>
      </trkpt>
      <trkpt lat="44.93975" lon="0.38765">
        <ele>92.9</ele>
        <time>2023-08-26T07:41:12Z</time>
      </trkpt>
      <trkpt lat="44.93973" lon="0.38761">
        <ele>93.1</ele>
        <time>2023-08-26T07:41:13Z</time>
      </trkpt>
      <trkpt lat="44.93958" lon="0.38735">
        <ele>94.4</ele>
        <time>2023-08-26T07:41:18Z</time>
      </trkpt>
      <trkpt lat="44.93946" lon="0.38714">
        <ele>95.6</ele>
        <time>2023-08-26T07:41:23Z</time>
      </trkpt>
      <trkpt lat="44.93941" lon="0.38706">
        <ele>96</ele>
        <time>2023-08-26T07:41:25Z</time>
      </trkpt>
      <trkpt lat="44.93932" lon="0.38691">
        <ele>96.9</ele>
        <time>2023-08-26T07:41:29Z</time>
      </trkpt>
      <trkpt lat="44.93927" lon="0.38684">
        <ele>97.3</ele>
        <time>2023-08-26T07:41:31Z</time>
      </trkpt>
      <trkpt lat="44.93914" lon="0.38662">
        <ele>98.5</ele>
        <time>2023-08-26T07:41:37Z</time>
      </trkpt>
      <trkpt lat="44.93905" lon="0.38636">
        <ele>99.7</ele>
        <time>2023-08-26T07:41:43Z</time>
      </trkpt>
      <trkpt lat="44.93901" lon="0.38611">
        <ele>100.8</ele>
        <time>2023-08-26T07:41:49Z</time>
      </trkpt>
      <trkpt lat="44.93898" lon="0.38587">
        <ele>102</ele>
        <time>2023-08-26T07:41:55Z</time>
      </trkpt>
      <trkpt lat="44.93897" lon="0.38576">
        <ele>102.6</ele>
        <time>2023-08-26T07:41:58Z</time>
      </trkpt>
      <trkpt lat="44.93896" lon="0.38568">
        <ele>103.1</ele>
        <time>2023-08-26T07:42:00Z</time>
      </trkpt>
      <trkpt lat="44.93893" lon="0.38544">
        <ele>104.5</ele>
        <time>2023-08-26T07:42:06Z</time>
      </trkpt>
      <trkpt lat="44.93894" lon="0.38526">
        <ele>105.5</ele>
        <time>2023-08-26T07:42:11Z</time>
      </trkpt>
      <trkpt lat="44.93895" lon="0.38507">
        <ele>106.4</ele>
        <time>2023-08-26T07:42:17Z</time>
      </trkpt>
      <trkpt lat="44.93898" lon="0.38488">
        <ele>107.4</ele>
        <time>2023-08-26T07:42:25Z</time>
      </trkpt>
      <trkpt lat="44.93904" lon="0.38473">
        <ele>108.2</ele>
        <time>2023-08-26T07:42:32Z</time>
      </trkpt>
      <trkpt lat="44.9391" lon="0.38456">
        <ele>109.2</ele>
        <time>2023-08-26T07:42:40Z</time>
      </trkpt>
      <trkpt lat="44.93912" lon="0.38451">
        <ele>109.4</ele>
        <time>2023-08-26T07:42:41Z</time>
      </trkpt>
      <trkpt lat="44.93912" lon="0.38449">
        <ele>109.5</ele>
        <time>2023-08-26T07:42:42Z</time>
      </trkpt>
      <trkpt lat="44.93913" lon="0.38437">
        <ele>109.9</ele>
        <time>2023-08-26T07:42:46Z</time>
      </trkpt>
      <trkpt lat="44.93913" lon="0.38414">
        <ele>110.1</ele>
        <time>2023-08-26T07:42:51Z</time>
      </trkpt>
      <trkpt lat="44.93909" lon="0.38388">
        <ele>110.3</ele>
        <time>2023-08-26T07:42:56Z</time>
      </trkpt>
      <trkpt lat="44.93906" lon="0.38373">
        <ele>110.4</ele>
        <time>2023-08-26T07:42:59Z</time>
      </trkpt>
      <trkpt lat="44.93907" lon="0.38363">
        <ele>110.5</ele>
        <time>2023-08-26T07:43:01Z</time>
      </trkpt>
      <trkpt lat="44.93907" lon="0.3834">
        <ele>110.8</ele>
        <time>2023-08-26T07:43:06Z</time>
      </trkpt>
      <trkpt lat="44.93906" lon="0.38317">
        <ele>111.1</ele>
        <time>2023-08-26T07:43:11Z</time>
      </trkpt>
      <trkpt lat="44.93908" lon="0.383">
        <ele>111.3</ele>
        <time>2023-08-26T07:43:15Z</time>
      </trkpt>
      <trkpt lat="44.93911" lon="0.38296">
        <ele>111.3</ele>
        <time>2023-08-26T07:43:16Z</time>
      </trkpt>
      <trkpt lat="44.93919" lon="0.38294">
        <ele>111.1</ele>
        <time>2023-08-26T07:43:18Z</time>
      </trkpt>
      <trkpt lat="44.93929" lon="0.38293">
        <ele>110.7</ele>
        <time>2023-08-26T07:43:20Z</time>
      </trkpt>
      <trkpt lat="44.93939" lon="0.3829">
        <ele>110.2</ele>
        <time>2023-08-26T07:43:22Z</time>
      </trkpt>
      <trkpt lat="44.93969" lon="0.3828">
        <ele>108.3</ele>
        <time>2023-08-26T07:43:27Z</time>
      </trkpt>
      <trkpt lat="44.94005" lon="0.38272">
        <ele>105.2</ele>
        <time>2023-08-26T07:43:32Z</time>
      </trkpt>
      <trkpt lat="44.94013" lon="0.3827">
        <ele>104.6</ele>
        <time>2023-08-26T07:43:33Z</time>
      </trkpt>
      <trkpt lat="44.94032" lon="0.38256">
        <ele>103.3</ele>
        <time>2023-08-26T07:43:36Z</time>
      </trkpt>
      <trkpt lat="44.94058" lon="0.38239">
        <ele>102.1</ele>
        <time>2023-08-26T07:43:40Z</time>
      </trkpt>
      <trkpt lat="44.94064" lon="0.38235">
        <ele>101.7</ele>
        <time>2023-08-26T07:43:41Z</time>
      </trkpt>
      <trkpt lat="44.9407" lon="0.38231">
        <ele>101.4</ele>
        <time>2023-08-26T07:43:42Z</time>
      </trkpt>
      <trkpt lat="44.94089" lon="0.38218">
        <ele>100.6</ele>
        <time>2023-08-26T07:43:45Z</time>
      </trkpt>
      <trkpt lat="44.94095" lon="0.38212">
        <ele>100.4</ele>
        <time>2023-08-26T07:43:46Z</time>
      </trkpt>
      <trkpt lat="44.941" lon="0.38206">
        <ele>100.3</ele>
        <time>2023-08-26T07:43:47Z</time>
      </trkpt>
      <trkpt lat="44.9411" lon="0.38193">
        <ele>99.8</ele>
        <time>2023-08-26T07:43:49Z</time>
      </trkpt>
      <trkpt lat="44.94121" lon="0.38185">
        <ele>99.2</ele>
        <time>2023-08-26T07:43:51Z</time>
      </trkpt>
      <trkpt lat="44.94128" lon="0.38185">
        <ele>98.6</ele>
        <time>2023-08-26T07:43:52Z</time>
      </trkpt>
      <trkpt lat="44.94135" lon="0.38187">
        <ele>97.8</ele>
        <time>2023-08-26T07:43:53Z</time>
      </trkpt>
      <trkpt lat="44.94149" lon="0.38194">
        <ele>95.8</ele>
        <time>2023-08-26T07:43:55Z</time>
      </trkpt>
      <trkpt lat="44.94176" lon="0.382">
        <ele>93.7</ele>
        <time>2023-08-26T07:43:59Z</time>
      </trkpt>
      <trkpt lat="44.94187" lon="0.38205">
        <ele>93.7</ele>
        <time>2023-08-26T07:44:01Z</time>
      </trkpt>
      <trkpt lat="44.94194" lon="0.38209">
        <ele>94</ele>
        <time>2023-08-26T07:44:03Z</time>
      </trkpt>
      <trkpt lat="44.94215" lon="0.38219">
        <ele>95.8</ele>
        <time>2023-08-26T07:44:10Z</time>
      </trkpt>
      <trkpt lat="44.94229" lon="0.38229">
        <ele>97.4</ele>
        <time>2023-08-26T07:44:15Z</time>
      </trkpt>
      <trkpt lat="44.94233" lon="0.38232">
        <ele>97.9</ele>
        <time>2023-08-26T07:44:17Z</time>
      </trkpt>
      <trkpt lat="44.9425" lon="0.38241">
        <ele>99.1</ele>
        <time>2023-08-26T07:44:23Z</time>
      </trkpt>
      <trkpt lat="44.94259" lon="0.38247">
        <ele>99.7</ele>
        <time>2023-08-26T07:44:27Z</time>
      </trkpt>
      <trkpt lat="44.94264" lon="0.3825">
        <ele>100</ele>
        <time>2023-08-26T07:44:29Z</time>
      </trkpt>
      <trkpt lat="44.94275" lon="0.38256">
        <ele>100.5</ele>
        <time>2023-08-26T07:44:33Z</time>
      </trkpt>
      <trkpt lat="44.94281" lon="0.38259">
        <ele>100.8</ele>
        <time>2023-08-26T07:44:35Z</time>
      </trkpt>
      <trkpt lat="44.94302" lon="0.3827">
        <ele>101.9</ele>
        <time>2023-08-26T07:44:42Z</time>
      </trkpt>
      <trkpt lat="44.9432" lon="0.38278">
        <ele>102.7</ele>
        <time>2023-08-26T07:44:48Z</time>
      </trkpt>
      <trkpt lat="44.94341" lon="0.38282">
        <ele>103.1</ele>
        <time>2023-08-26T07:44:54Z</time>
      </trkpt>
      <trkpt lat="44.94348" lon="0.3828">
        <ele>103.1</ele>
        <time>2023-08-26T07:44:56Z</time>
      </trkpt>
      <trkpt lat="44.94355" lon="0.38277">
        <ele>102.9</ele>
        <time>2023-08-26T07:44:58Z</time>
      </trkpt>
      <trkpt lat="44.94379" lon="0.3827">
        <ele>101.8</ele>
        <time>2023-08-26T07:45:03Z</time>
      </trkpt>
      <trkpt lat="44.94398" lon="0.38264">
        <ele>100.2</ele>
        <time>2023-08-26T07:45:06Z</time>
      </trkpt>
      <trkpt lat="44.94406" lon="0.38263">
        <ele>99.5</ele>
        <time>2023-08-26T07:45:07Z</time>
      </trkpt>
      <trkpt lat="44.94442" lon="0.38253">
        <ele>95.8</ele>
        <time>2023-08-26T07:45:12Z</time>
      </trkpt>
      <trkpt lat="44.94479" lon="0.38241">
        <ele>92.2</ele>
        <time>2023-08-26T07:45:17Z</time>
      </trkpt>
      <trkpt lat="44.94491" lon="0.38243">
        <ele>91.1</ele>
        <time>2023-08-26T07:45:19Z</time>
      </trkpt>
      <trkpt lat="44.94497" lon="0.38246">
        <ele>90.2</ele>
        <time>2023-08-26T07:45:20Z</time>
      </trkpt>
      <trkpt lat="44.94503" lon="0.38251">
        <ele>89</ele>
        <time>2023-08-26T07:45:21Z</time>
      </trkpt>
      <trkpt lat="44.94516" lon="0.38266">
        <ele>85.9</ele>
        <time>2023-08-26T07:45:23Z</time>
      </trkpt>
      <trkpt lat="44.94542" lon="0.38304">
        <ele>82.5</ele>
        <time>2023-08-26T07:45:28Z</time>
      </trkpt>
      <trkpt lat="44.94556" lon="0.38317">
        <ele>83</ele>
        <time>2023-08-26T07:45:32Z</time>
      </trkpt>
      <trkpt lat="44.94561" lon="0.38323">
        <ele>83.8</ele>
        <time>2023-08-26T07:45:35Z</time>
      </trkpt>
      <trkpt lat="44.94573" lon="0.38337">
        <ele>86.6</ele>
        <time>2023-08-26T07:45:43Z</time>
      </trkpt>
      <trkpt lat="44.94578" lon="0.38341">
        <ele>87.6</ele>
        <time>2023-08-26T07:45:48Z</time>
      </trkpt>
      <trkpt lat="44.9458" lon="0.38344">
        <ele>88.1</ele>
        <time>2023-08-26T07:45:50Z</time>
      </trkpt>
      <trkpt lat="44.94591" lon="0.38356">
        <ele>90.3</ele>
        <time>2023-08-26T07:45:57Z</time>
      </trkpt>
      <trkpt lat="44.94597" lon="0.3836">
        <ele>91.3</ele>
        <time>2023-08-26T07:46:01Z</time>
      </trkpt>
      <trkpt lat="44.94601" lon="0.38364">
        <ele>92.2</ele>
        <time>2023-08-26T07:46:05Z</time>
      </trkpt>
      <trkpt lat="44.94608" lon="0.38371">
        <ele>93.6</ele>
        <time>2023-08-26T07:46:12Z</time>
      </trkpt>
      <trkpt lat="44.94619" lon="0.38378">
        <ele>95.8</ele>
        <time>2023-08-26T07:46:18Z</time>
      </trkpt>
      <trkpt lat="44.94625" lon="0.38377">
        <ele>96.6</ele>
        <time>2023-08-26T07:46:21Z</time>
      </trkpt>
      <trkpt lat="44.9463" lon="0.38377">
        <ele>97.1</ele>
        <time>2023-08-26T07:46:24Z</time>
      </trkpt>
      <trkpt lat="44.9464" lon="0.38375">
        <ele>97.5</ele>
        <time>2023-08-26T07:46:29Z</time>
      </trkpt>
      <trkpt lat="44.94649" lon="0.38373">
        <ele>97.9</ele>
        <time>2023-08-26T07:46:33Z</time>
      </trkpt>
      <trkpt lat="44.94657" lon="0.38371">
        <ele>98.2</ele>
        <time>2023-08-26T07:46:37Z</time>
      </trkpt>
      <trkpt lat="44.9467" lon="0.38374">
        <ele>98.7</ele>
        <time>2023-08-26T07:46:42Z</time>
      </trkpt>
      <trkpt lat="44.94683" lon="0.38378">
        <ele>99.3</ele>
        <time>2023-08-26T07:46:48Z</time>
      </trkpt>
      <trkpt lat="44.94694" lon="0.38391">
        <ele>100</ele>
        <time>2023-08-26T07:46:53Z</time>
      </trkpt>
      <trkpt lat="44.94698" lon="0.38394">
        <ele>100.1</ele>
        <time>2023-08-26T07:46:54Z</time>
      </trkpt>
      <trkpt lat="44.94715" lon="0.38415">
        <ele>101.2</ele>
        <time>2023-08-26T07:47:01Z</time>
      </trkpt>
      <trkpt lat="44.94736" lon="0.3844">
        <ele>102.5</ele>
        <time>2023-08-26T07:47:10Z</time>
      </trkpt>
      <trkpt lat="44.94748" lon="0.38445">
        <ele>103.1</ele>
        <time>2023-08-26T07:47:15Z</time>
      </trkpt>
      <trkpt lat="44.94767" lon="0.38442">
        <ele>103.8</ele>
        <time>2023-08-26T07:47:21Z</time>
      </trkpt>
      <trkpt lat="44.9477" lon="0.3844">
        <ele>103.9</ele>
        <time>2023-08-26T07:47:22Z</time>
      </trkpt>
      <trkpt lat="44.94779" lon="0.38433">
        <ele>104.3</ele>
        <time>2023-08-26T07:47:25Z</time>
      </trkpt>
      <trkpt lat="44.94798" lon="0.38419">
        <ele>105.4</ele>
        <time>2023-08-26T07:47:31Z</time>
      </trkpt>
      <trkpt lat="44.94815" lon="0.38407">
        <ele>106.5</ele>
        <time>2023-08-26T07:47:37Z</time>
      </trkpt>
      <trkpt lat="44.94839" lon="0.38389">
        <ele>108.1</ele>
        <time>2023-08-26T07:47:45Z</time>
      </trkpt>
      <trkpt lat="44.94859" lon="0.38375">
        <ele>109.4</ele>
        <time>2023-08-26T07:47:52Z</time>
      </trkpt>
      <trkpt lat="44.94876" lon="0.38364">
        <ele>110.7</ele>
        <time>2023-08-26T07:47:58Z</time>
      </trkpt>
      <trkpt lat="44.9489" lon="0.38356">
        <ele>111.7</ele>
        <time>2023-08-26T07:48:03Z</time>
      </trkpt>
      <trkpt lat="44.94898" lon="0.38351">
        <ele>112.2</ele>
        <time>2023-08-26T07:48:06Z</time>
      </trkpt>
      <trkpt lat="44.9492" lon="0.38341">
        <ele>113.7</ele>
        <time>2023-08-26T07:48:14Z</time>
      </trkpt>
      <trkpt lat="44.94933" lon="0.38335">
        <ele>114.6</ele>
        <time>2023-08-26T07:48:19Z</time>
      </trkpt>
      <trkpt lat="44.94946" lon="0.38329">
        <ele>115.4</ele>
        <time>2023-08-26T07:48:24Z</time>
      </trkpt>
      <trkpt lat="44.94965" lon="0.38319">
        <ele>116.4</ele>
        <time>2023-08-26T07:48:31Z</time>
      </trkpt>
      <trkpt lat="44.9498" lon="0.3831">
        <ele>117</ele>
        <time>2023-08-26T07:48:37Z</time>
      </trkpt>
      <trkpt lat="44.94995" lon="0.38302">
        <ele>117.5</ele>
        <time>2023-08-26T07:48:42Z</time>
      </trkpt>
      <trkpt lat="44.95009" lon="0.38293">
        <ele>118</ele>
        <time>2023-08-26T07:48:47Z</time>
      </trkpt>
      <trkpt lat="44.95023" lon="0.38278">
        <ele>118.6</ele>
        <time>2023-08-26T07:48:53Z</time>
      </trkpt>
      <trkpt lat="44.95038" lon="0.38265">
        <ele>119.2</ele>
        <time>2023-08-26T07:48:58Z</time>
      </trkpt>
      <trkpt lat="44.95045" lon="0.38261">
        <ele>119.4</ele>
        <time>2023-08-26T07:49:00Z</time>
      </trkpt>
      <trkpt lat="44.95051" lon="0.38256">
        <ele>119.6</ele>
        <time>2023-08-26T07:49:02Z</time>
      </trkpt>
      <trkpt lat="44.95073" lon="0.38235">
        <ele>119.9</ele>
        <time>2023-08-26T07:49:10Z</time>
      </trkpt>
      <trkpt lat="44.95091" lon="0.38226">
        <ele>120</ele>
        <time>2023-08-26T07:49:15Z</time>
      </trkpt>
      <trkpt lat="44.95105" lon="0.38221">
        <ele>119.6</ele>
        <time>2023-08-26T07:49:19Z</time>
      </trkpt>
      <trkpt lat="44.95108" lon="0.38217">
        <ele>119.3</ele>
        <time>2023-08-26T07:49:20Z</time>
      </trkpt>
      <trkpt lat="44.95108" lon="0.38211">
        <ele>119</ele>
        <time>2023-08-26T07:49:21Z</time>
      </trkpt>
      <trkpt lat="44.95107" lon="0.38205">
        <ele>118.7</ele>
        <time>2023-08-26T07:49:22Z</time>
      </trkpt>
      <trkpt lat="44.951" lon="0.38185">
        <ele>117.6</ele>
        <time>2023-08-26T07:49:25Z</time>
      </trkpt>
      <trkpt lat="44.95096" lon="0.38177">
        <ele>117.1</ele>
        <time>2023-08-26T07:49:26Z</time>
      </trkpt>
      <trkpt lat="44.95092" lon="0.38168">
        <ele>116.6</ele>
        <time>2023-08-26T07:49:27Z</time>
      </trkpt>
      <trkpt lat="44.95085" lon="0.38151">
        <ele>115.7</ele>
        <time>2023-08-26T07:49:29Z</time>
      </trkpt>
      <trkpt lat="44.95076" lon="0.38126">
        <ele>114.2</ele>
        <time>2023-08-26T07:49:32Z</time>
      </trkpt>
      <trkpt lat="44.9507" lon="0.38108">
        <ele>113.1</ele>
        <time>2023-08-26T07:49:34Z</time>
      </trkpt>
      <trkpt lat="44.95048" lon="0.38058">
        <ele>109.8</ele>
        <time>2023-08-26T07:49:39Z</time>
      </trkpt>
      <trkpt lat="44.95031" lon="0.38025">
        <ele>109.3</ele>
        <time>2023-08-26T07:49:42Z</time>
      </trkpt>
      <trkpt lat="44.95019" lon="0.38008">
        <ele>110</ele>
        <time>2023-08-26T07:49:44Z</time>
      </trkpt>
      <trkpt lat="44.95008" lon="0.37991">
        <ele>111.2</ele>
        <time>2023-08-26T07:49:47Z</time>
      </trkpt>
      <trkpt lat="44.95001" lon="0.37977">
        <ele>112.3</ele>
        <time>2023-08-26T07:49:51Z</time>
      </trkpt>
      <trkpt lat="44.94991" lon="0.37954">
        <ele>113.9</ele>
        <time>2023-08-26T07:49:57Z</time>
      </trkpt>
      <trkpt lat="44.94986" lon="0.37939">
        <ele>114.8</ele>
        <time>2023-08-26T07:50:01Z</time>
      </trkpt>
      <trkpt lat="44.94978" lon="0.37922">
        <ele>115.8</ele>
        <time>2023-08-26T07:50:05Z</time>
      </trkpt>
      <trkpt lat="44.94969" lon="0.37906">
        <ele>117.1</ele>
        <time>2023-08-26T07:50:10Z</time>
      </trkpt>
      <trkpt lat="44.94958" lon="0.37886">
        <ele>118.4</ele>
        <time>2023-08-26T07:50:16Z</time>
      </trkpt>
      <trkpt lat="44.94949" lon="0.37873">
        <ele>118.9</ele>
        <time>2023-08-26T07:50:20Z</time>
      </trkpt>
      <trkpt lat="44.94938" lon="0.37854">
        <ele>118.7</ele>
        <time>2023-08-26T07:50:25Z</time>
      </trkpt>
      <trkpt lat="44.94925" lon="0.37832">
        <ele>117.3</ele>
        <time>2023-08-26T07:50:29Z</time>
      </trkpt>
      <trkpt lat="44.9491" lon="0.37806">
        <ele>115.1</ele>
        <time>2023-08-26T07:50:32Z</time>
      </trkpt>
      <trkpt lat="44.94892" lon="0.37777">
        <ele>111.6</ele>
        <time>2023-08-26T07:50:35Z</time>
      </trkpt>
      <trkpt lat="44.94886" lon="0.37766">
        <ele>110.4</ele>
        <time>2023-08-26T07:50:36Z</time>
      </trkpt>
      <trkpt lat="44.94866" lon="0.37729">
        <ele>106.3</ele>
        <time>2023-08-26T07:50:39Z</time>
      </trkpt>
      <trkpt lat="44.94834" lon="0.37671">
        <ele>100.6</ele>
        <time>2023-08-26T07:50:44Z</time>
      </trkpt>
      <trkpt lat="44.9483" lon="0.37663">
        <ele>99.8</ele>
        <time>2023-08-26T07:50:45Z</time>
      </trkpt>
      <trkpt lat="44.94818" lon="0.37641">
        <ele>97.2</ele>
        <time>2023-08-26T07:50:48Z</time>
      </trkpt>
      <trkpt lat="44.94814" lon="0.37635">
        <ele>96.5</ele>
        <time>2023-08-26T07:50:49Z</time>
      </trkpt>
      <trkpt lat="44.9481" lon="0.37624">
        <ele>95.4</ele>
        <time>2023-08-26T07:50:51Z</time>
      </trkpt>
      <trkpt lat="44.94811" lon="0.37619">
        <ele>95</ele>
        <time>2023-08-26T07:50:52Z</time>
      </trkpt>
      <trkpt lat="44.94815" lon="0.37611">
        <ele>94.7</ele>
        <time>2023-08-26T07:50:54Z</time>
      </trkpt>
      <trkpt lat="44.94831" lon="0.376">
        <ele>94.7</ele>
        <time>2023-08-26T07:50:59Z</time>
      </trkpt>
      <trkpt lat="44.9485" lon="0.37583">
        <ele>95.2</ele>
        <time>2023-08-26T07:51:05Z</time>
      </trkpt>
      <trkpt lat="44.94866" lon="0.37567">
        <ele>95.7</ele>
        <time>2023-08-26T07:51:10Z</time>
      </trkpt>
      <trkpt lat="44.94883" lon="0.37545">
        <ele>96.3</ele>
        <time>2023-08-26T07:51:16Z</time>
      </trkpt>
      <trkpt lat="44.94894" lon="0.37527">
        <ele>96.7</ele>
        <time>2023-08-26T07:51:20Z</time>
      </trkpt>
      <trkpt lat="44.94907" lon="0.37511">
        <ele>97.1</ele>
        <time>2023-08-26T07:51:25Z</time>
      </trkpt>
      <trkpt lat="44.94916" lon="0.37498">
        <ele>97.4</ele>
        <time>2023-08-26T07:51:29Z</time>
      </trkpt>
      <trkpt lat="44.9494" lon="0.37482">
        <ele>97.9</ele>
        <time>2023-08-26T07:51:35Z</time>
      </trkpt>
      <trkpt lat="44.94944" lon="0.3748">
        <ele>98</ele>
        <time>2023-08-26T07:51:36Z</time>
      </trkpt>
      <trkpt lat="44.94954" lon="0.37469">
        <ele>98.1</ele>
        <time>2023-08-26T07:51:39Z</time>
      </trkpt>
      <trkpt lat="44.94957" lon="0.37464">
        <ele>98.1</ele>
        <time>2023-08-26T07:51:40Z</time>
      </trkpt>
      <trkpt lat="44.94964" lon="0.37455">
        <ele>98.2</ele>
        <time>2023-08-26T07:51:42Z</time>
      </trkpt>
      <trkpt lat="44.94977" lon="0.37443">
        <ele>98.3</ele>
        <time>2023-08-26T07:51:46Z</time>
      </trkpt>
      <trkpt lat="44.94998" lon="0.37426">
        <ele>98.7</ele>
        <time>2023-08-26T07:51:52Z</time>
      </trkpt>
      <trkpt lat="44.95006" lon="0.37422">
        <ele>98.8</ele>
        <time>2023-08-26T07:51:54Z</time>
      </trkpt>
      <trkpt lat="44.95014" lon="0.37418">
        <ele>99</ele>
        <time>2023-08-26T07:51:56Z</time>
      </trkpt>
      <trkpt lat="44.95021" lon="0.37415">
        <ele>99.1</ele>
        <time>2023-08-26T07:51:58Z</time>
      </trkpt>
      <trkpt lat="44.95031" lon="0.37411">
        <ele>99.3</ele>
        <time>2023-08-26T07:52:01Z</time>
      </trkpt>
      <trkpt lat="44.9505" lon="0.37405">
        <ele>99.6</ele>
        <time>2023-08-26T07:52:06Z</time>
      </trkpt>
      <trkpt lat="44.95054" lon="0.37403">
        <ele>99.7</ele>
        <time>2023-08-26T07:52:07Z</time>
      </trkpt>
      <trkpt lat="44.95062" lon="0.37397">
        <ele>100</ele>
        <time>2023-08-26T07:52:09Z</time>
      </trkpt>
      <trkpt lat="44.95066" lon="0.37395">
        <ele>100.1</ele>
        <time>2023-08-26T07:52:10Z</time>
      </trkpt>
      <trkpt lat="44.95085" lon="0.3738">
        <ele>100.8</ele>
        <time>2023-08-26T07:52:15Z</time>
      </trkpt>
      <trkpt lat="44.95089" lon="0.37377">
        <ele>100.9</ele>
        <time>2023-08-26T07:52:16Z</time>
      </trkpt>
      <trkpt lat="44.95099" lon="0.37361">
        <ele>101.7</ele>
        <time>2023-08-26T07:52:20Z</time>
      </trkpt>
      <trkpt lat="44.95115" lon="0.37337">
        <ele>103.3</ele>
        <time>2023-08-26T07:52:26Z</time>
      </trkpt>
      <trkpt lat="44.95127" lon="0.37324">
        <ele>104.5</ele>
        <time>2023-08-26T07:52:31Z</time>
      </trkpt>
      <trkpt lat="44.95137" lon="0.37311">
        <ele>105.6</ele>
        <time>2023-08-26T07:52:36Z</time>
      </trkpt>
      <trkpt lat="44.95145" lon="0.37297">
        <ele>106.6</ele>
        <time>2023-08-26T07:52:41Z</time>
      </trkpt>
      <trkpt lat="44.95149" lon="0.37286">
        <ele>107.3</ele>
        <time>2023-08-26T07:52:45Z</time>
      </trkpt>
      <trkpt lat="44.95157" lon="0.37277">
        <ele>108.2</ele>
        <time>2023-08-26T07:52:50Z</time>
      </trkpt>
      <trkpt lat="44.95159" lon="0.37276">
        <ele>108.4</ele>
        <time>2023-08-26T07:52:51Z</time>
      </trkpt>
      <trkpt lat="44.95171" lon="0.37273">
        <ele>109.4</ele>
        <time>2023-08-26T07:52:57Z</time>
      </trkpt>
      <trkpt lat="44.95174" lon="0.37271">
        <ele>109.7</ele>
        <time>2023-08-26T07:52:58Z</time>
      </trkpt>
      <trkpt lat="44.95184" lon="0.37268">
        <ele>110.4</ele>
        <time>2023-08-26T07:53:04Z</time>
      </trkpt>
      <trkpt lat="44.95193" lon="0.37265">
        <ele>110.8</ele>
        <time>2023-08-26T07:53:07Z</time>
      </trkpt>
      <trkpt lat="44.95197" lon="0.37263">
        <ele>111</ele>
        <time>2023-08-26T07:53:09Z</time>
      </trkpt>
      <trkpt lat="44.95201" lon="0.37261">
        <ele>111.2</ele>
        <time>2023-08-26T07:53:11Z</time>
      </trkpt>
      <trkpt lat="44.95208" lon="0.3726">
        <ele>111.4</ele>
        <time>2023-08-26T07:53:14Z</time>
      </trkpt>
      <trkpt lat="44.95212" lon="0.37258">
        <ele>111.4</ele>
        <time>2023-08-26T07:53:16Z</time>
      </trkpt>
      <trkpt lat="44.95219" lon="0.37248">
        <ele>111.4</ele>
        <time>2023-08-26T07:53:21Z</time>
      </trkpt>
      <trkpt lat="44.95224" lon="0.37222">
        <ele>111.1</ele>
        <time>2023-08-26T07:53:28Z</time>
      </trkpt>
      <trkpt lat="44.95225" lon="0.37211">
        <ele>110.9</ele>
        <time>2023-08-26T07:53:30Z</time>
      </trkpt>
      <trkpt lat="44.95225" lon="0.37207">
        <ele>110.8</ele>
        <time>2023-08-26T07:53:31Z</time>
      </trkpt>
      <trkpt lat="44.95224" lon="0.37204">
        <ele>110.8</ele>
        <time>2023-08-26T07:53:32Z</time>
      </trkpt>
      <trkpt lat="44.95223" lon="0.37185">
        <ele>110.3</ele>
        <time>2023-08-26T07:53:36Z</time>
      </trkpt>
      <trkpt lat="44.95224" lon="0.37179">
        <ele>110.2</ele>
        <time>2023-08-26T07:53:37Z</time>
      </trkpt>
      <trkpt lat="44.95225" lon="0.37168">
        <ele>110</ele>
        <time>2023-08-26T07:53:39Z</time>
      </trkpt>
      <trkpt lat="44.95225" lon="0.37163">
        <ele>109.9</ele>
        <time>2023-08-26T07:53:40Z</time>
      </trkpt>
      <trkpt lat="44.95226" lon="0.37156">
        <ele>109.7</ele>
        <time>2023-08-26T07:53:41Z</time>
      </trkpt>
      <trkpt lat="44.95229" lon="0.37142">
        <ele>109.4</ele>
        <time>2023-08-26T07:53:43Z</time>
      </trkpt>
      <trkpt lat="44.95232" lon="0.37107">
        <ele>108.8</ele>
        <time>2023-08-26T07:53:47Z</time>
      </trkpt>
      <trkpt lat="44.95238" lon="0.3709">
        <ele>108.7</ele>
        <time>2023-08-26T07:53:49Z</time>
      </trkpt>
      <trkpt lat="44.95242" lon="0.37083">
        <ele>108.7</ele>
        <time>2023-08-26T07:53:50Z</time>
      </trkpt>
      <trkpt lat="44.95246" lon="0.37076">
        <ele>108.8</ele>
        <time>2023-08-26T07:53:51Z</time>
      </trkpt>
      <trkpt lat="44.95248" lon="0.37059">
        <ele>109.1</ele>
        <time>2023-08-26T07:53:53Z</time>
      </trkpt>
      <trkpt lat="44.95245" lon="0.37043">
        <ele>109.7</ele>
        <time>2023-08-26T07:53:55Z</time>
      </trkpt>
      <trkpt lat="44.9524" lon="0.37037">
        <ele>110.2</ele>
        <time>2023-08-26T07:53:56Z</time>
      </trkpt>
      <trkpt lat="44.95237" lon="0.37031">
        <ele>110.8</ele>
        <time>2023-08-26T07:53:57Z</time>
      </trkpt>
      <trkpt lat="44.95229" lon="0.37022">
        <ele>111.8</ele>
        <time>2023-08-26T07:53:59Z</time>
      </trkpt>
      <trkpt lat="44.95217" lon="0.3701">
        <ele>113.3</ele>
        <time>2023-08-26T07:54:03Z</time>
      </trkpt>
      <trkpt lat="44.95212" lon="0.37">
        <ele>114</ele>
        <time>2023-08-26T07:54:06Z</time>
      </trkpt>
      <trkpt lat="44.95208" lon="0.36982">
        <ele>114.9</ele>
        <time>2023-08-26T07:54:11Z</time>
      </trkpt>
      <trkpt lat="44.95206" lon="0.36963">
        <ele>115.6</ele>
        <time>2023-08-26T07:54:16Z</time>
      </trkpt>
      <trkpt lat="44.95204" lon="0.36942">
        <ele>116.5</ele>
        <time>2023-08-26T07:54:21Z</time>
      </trkpt>
      <trkpt lat="44.95204" lon="0.36916">
        <ele>117.6</ele>
        <time>2023-08-26T07:54:27Z</time>
      </trkpt>
      <trkpt lat="44.95205" lon="0.36894">
        <ele>118.8</ele>
        <time>2023-08-26T07:54:32Z</time>
      </trkpt>
      <trkpt lat="44.95204" lon="0.36873">
        <ele>119.9</ele>
        <time>2023-08-26T07:54:37Z</time>
      </trkpt>
      <trkpt lat="44.95204" lon="0.3687">
        <ele>120.1</ele>
        <time>2023-08-26T07:54:38Z</time>
      </trkpt>
      <trkpt lat="44.95201" lon="0.36862">
        <ele>120.5</ele>
        <time>2023-08-26T07:54:41Z</time>
      </trkpt>
      <trkpt lat="44.952" lon="0.36843">
        <ele>121.6</ele>
        <time>2023-08-26T07:54:46Z</time>
      </trkpt>
      <trkpt lat="44.95197" lon="0.36823">
        <ele>122.7</ele>
        <time>2023-08-26T07:54:51Z</time>
      </trkpt>
      <trkpt lat="44.95197" lon="0.36817">
        <ele>123</ele>
        <time>2023-08-26T07:54:53Z</time>
      </trkpt>
      <trkpt lat="44.95197" lon="0.36814">
        <ele>123.1</ele>
        <time>2023-08-26T07:54:54Z</time>
      </trkpt>
      <trkpt lat="44.95199" lon="0.36806">
        <ele>123.4</ele>
        <time>2023-08-26T07:54:57Z</time>
      </trkpt>
      <trkpt lat="44.95198" lon="0.36803">
        <ele>123.5</ele>
        <time>2023-08-26T07:54:58Z</time>
      </trkpt>
      <trkpt lat="44.95196" lon="0.36782">
        <ele>124.2</ele>
        <time>2023-08-26T07:55:03Z</time>
      </trkpt>
      <trkpt lat="44.95195" lon="0.36767">
        <ele>124.6</ele>
        <time>2023-08-26T07:55:07Z</time>
      </trkpt>
      <trkpt lat="44.95193" lon="0.36764">
        <ele>124.7</ele>
        <time>2023-08-26T07:55:08Z</time>
      </trkpt>
      <trkpt lat="44.9519" lon="0.3675">
        <ele>125.1</ele>
        <time>2023-08-26T07:55:12Z</time>
      </trkpt>
      <trkpt lat="44.95186" lon="0.36734">
        <ele>125.5</ele>
        <time>2023-08-26T07:55:16Z</time>
      </trkpt>
      <trkpt lat="44.95183" lon="0.36718">
        <ele>125.6</ele>
        <time>2023-08-26T07:55:20Z</time>
      </trkpt>
      <trkpt lat="44.95182" lon="0.36714">
        <ele>125.6</ele>
        <time>2023-08-26T07:55:21Z</time>
      </trkpt>
      <trkpt lat="44.95183" lon="0.36701">
        <ele>125.6</ele>
        <time>2023-08-26T07:55:24Z</time>
      </trkpt>
      <trkpt lat="44.95182" lon="0.36678">
        <ele>125.7</ele>
        <time>2023-08-26T07:55:29Z</time>
      </trkpt>
      <trkpt lat="44.95181" lon="0.3666">
        <ele>125.6</ele>
        <time>2023-08-26T07:55:33Z</time>
      </trkpt>
      <trkpt lat="44.95186" lon="0.36634">
        <ele>125.4</ele>
        <time>2023-08-26T07:55:38Z</time>
      </trkpt>
      <trkpt lat="44.95187" lon="0.3662">
        <ele>125.2</ele>
        <time>2023-08-26T07:55:40Z</time>
      </trkpt>
      <trkpt lat="44.95188" lon="0.36607">
        <ele>125</ele>
        <time>2023-08-26T07:55:42Z</time>
      </trkpt>
      <trkpt lat="44.95188" lon="0.366">
        <ele>124.8</ele>
        <time>2023-08-26T07:55:43Z</time>
      </trkpt>
      <trkpt lat="44.95188" lon="0.36585">
        <ele>124.6</ele>
        <time>2023-08-26T07:55:45Z</time>
      </trkpt>
      <trkpt lat="44.95188" lon="0.3657">
        <ele>124.4</ele>
        <time>2023-08-26T07:55:47Z</time>
      </trkpt>
      <trkpt lat="44.95191" lon="0.36556">
        <ele>124.3</ele>
        <time>2023-08-26T07:55:49Z</time>
      </trkpt>
      <trkpt lat="44.95192" lon="0.36543">
        <ele>124.2</ele>
        <time>2023-08-26T07:55:51Z</time>
      </trkpt>
      <trkpt lat="44.95193" lon="0.36529">
        <ele>124.3</ele>
        <time>2023-08-26T07:55:53Z</time>
      </trkpt>
      <trkpt lat="44.95192" lon="0.36514">
        <ele>124.4</ele>
        <time>2023-08-26T07:55:55Z</time>
      </trkpt>
      <trkpt lat="44.95192" lon="0.36507">
        <ele>124.5</ele>
        <time>2023-08-26T07:55:56Z</time>
      </trkpt>
      <trkpt lat="44.95195" lon="0.36495">
        <ele>124.5</ele>
        <time>2023-08-26T07:55:58Z</time>
      </trkpt>
      <trkpt lat="44.95197" lon="0.36481">
        <ele>124.7</ele>
        <time>2023-08-26T07:56:00Z</time>
      </trkpt>
      <trkpt lat="44.952" lon="0.36467">
        <ele>124.8</ele>
        <time>2023-08-26T07:56:02Z</time>
      </trkpt>
      <trkpt lat="44.95203" lon="0.36452">
        <ele>125</ele>
        <time>2023-08-26T07:56:04Z</time>
      </trkpt>
      <trkpt lat="44.95205" lon="0.36446">
        <ele>125</ele>
        <time>2023-08-26T07:56:05Z</time>
      </trkpt>
      <trkpt lat="44.95208" lon="0.36433">
        <ele>125.2</ele>
        <time>2023-08-26T07:56:07Z</time>
      </trkpt>
      <trkpt lat="44.95209" lon="0.3642">
        <ele>125.3</ele>
        <time>2023-08-26T07:56:09Z</time>
      </trkpt>
      <trkpt lat="44.9521" lon="0.36399">
        <ele>125.4</ele>
        <time>2023-08-26T07:56:12Z</time>
      </trkpt>
      <trkpt lat="44.95212" lon="0.3637">
        <ele>125.5</ele>
        <time>2023-08-26T07:56:16Z</time>
      </trkpt>
      <trkpt lat="44.95213" lon="0.36357">
        <ele>125.6</ele>
        <time>2023-08-26T07:56:18Z</time>
      </trkpt>
      <trkpt lat="44.95213" lon="0.3635">
        <ele>125.6</ele>
        <time>2023-08-26T07:56:19Z</time>
      </trkpt>
      <trkpt lat="44.95219" lon="0.36316">
        <ele>125.6</ele>
        <time>2023-08-26T07:56:24Z</time>
      </trkpt>
      <trkpt lat="44.95218" lon="0.36301">
        <ele>125.7</ele>
        <time>2023-08-26T07:56:26Z</time>
      </trkpt>
      <trkpt lat="44.95216" lon="0.3628">
        <ele>125.6</ele>
        <time>2023-08-26T07:56:29Z</time>
      </trkpt>
      <trkpt lat="44.95217" lon="0.36264">
        <ele>125.3</ele>
        <time>2023-08-26T07:56:31Z</time>
      </trkpt>
      <trkpt lat="44.95219" lon="0.36257">
        <ele>125.1</ele>
        <time>2023-08-26T07:56:32Z</time>
      </trkpt>
      <trkpt lat="44.95222" lon="0.36251">
        <ele>124.9</ele>
        <time>2023-08-26T07:56:33Z</time>
      </trkpt>
      <trkpt lat="44.95226" lon="0.36239">
        <ele>124.5</ele>
        <time>2023-08-26T07:56:35Z</time>
      </trkpt>
      <trkpt lat="44.95227" lon="0.36223">
        <ele>124.2</ele>
        <time>2023-08-26T07:56:38Z</time>
      </trkpt>
      <trkpt lat="44.95225" lon="0.36196">
        <ele>124.5</ele>
        <time>2023-08-26T07:56:43Z</time>
      </trkpt>
      <trkpt lat="44.95222" lon="0.36166">
        <ele>125.4</ele>
        <time>2023-08-26T07:56:48Z</time>
      </trkpt>
      <trkpt lat="44.95221" lon="0.36134">
        <ele>126.6</ele>
        <time>2023-08-26T07:56:53Z</time>
      </trkpt>
      <trkpt lat="44.9522" lon="0.36122">
        <ele>127</ele>
        <time>2023-08-26T07:56:55Z</time>
      </trkpt>
      <trkpt lat="44.95217" lon="0.36091">
        <ele>128.2</ele>
        <time>2023-08-26T07:57:01Z</time>
      </trkpt>
      <trkpt lat="44.95211" lon="0.36067">
        <ele>129</ele>
        <time>2023-08-26T07:57:06Z</time>
      </trkpt>
      <trkpt lat="44.95202" lon="0.36041">
        <ele>130</ele>
        <time>2023-08-26T07:57:12Z</time>
      </trkpt>
      <trkpt lat="44.95197" lon="0.36014">
        <ele>130.6</ele>
        <time>2023-08-26T07:57:18Z</time>
      </trkpt>
      <trkpt lat="44.95199" lon="0.35997">
        <ele>130.8</ele>
        <time>2023-08-26T07:57:22Z</time>
      </trkpt>
      <trkpt lat="44.95202" lon="0.35974">
        <ele>131</ele>
        <time>2023-08-26T07:57:27Z</time>
      </trkpt>
      <trkpt lat="44.952" lon="0.3594">
        <ele>131.2</ele>
        <time>2023-08-26T07:57:34Z</time>
      </trkpt>
      <trkpt lat="44.95197" lon="0.35921">
        <ele>131.4</ele>
        <time>2023-08-26T07:57:38Z</time>
      </trkpt>
      <trkpt lat="44.95194" lon="0.35902">
        <ele>131.7</ele>
        <time>2023-08-26T07:57:42Z</time>
      </trkpt>
      <trkpt lat="44.95191" lon="0.35884">
        <ele>132.2</ele>
        <time>2023-08-26T07:57:46Z</time>
      </trkpt>
      <trkpt lat="44.9519" lon="0.35861">
        <ele>132.8</ele>
        <time>2023-08-26T07:57:51Z</time>
      </trkpt>
      <trkpt lat="44.95186" lon="0.35858">
        <ele>132.9</ele>
        <time>2023-08-26T07:57:53Z</time>
      </trkpt>
      <trkpt lat="44.95182" lon="0.35859">
        <ele>132.9</ele>
        <time>2023-08-26T07:57:54Z</time>
      </trkpt>
      <trkpt lat="44.95166" lon="0.35864">
        <ele>133</ele>
        <time>2023-08-26T07:57:59Z</time>
      </trkpt>
      <trkpt lat="44.95144" lon="0.35873">
        <ele>133.1</ele>
        <time>2023-08-26T07:58:05Z</time>
      </trkpt>
      <trkpt lat="44.95121" lon="0.35883">
        <ele>133</ele>
        <time>2023-08-26T07:58:11Z</time>
      </trkpt>
      <trkpt lat="44.95097" lon="0.35891">
        <ele>132.6</ele>
        <time>2023-08-26T07:58:17Z</time>
      </trkpt>
      <trkpt lat="44.95093" lon="0.35892">
        <ele>132.5</ele>
        <time>2023-08-26T07:58:18Z</time>
      </trkpt>
      <trkpt lat="44.95064" lon="0.35897">
        <ele>131.6</ele>
        <time>2023-08-26T07:58:24Z</time>
      </trkpt>
      <trkpt lat="44.95057" lon="0.35902">
        <ele>131.4</ele>
        <time>2023-08-26T07:58:26Z</time>
      </trkpt>
      <trkpt lat="44.95055" lon="0.35917">
        <ele>131.2</ele>
        <time>2023-08-26T07:58:29Z</time>
      </trkpt>
      <trkpt lat="44.9505" lon="0.35916">
        <ele>130.9</ele>
        <time>2023-08-26T07:58:30Z</time>
      </trkpt>
      <trkpt lat="44.95028" lon="0.35905">
        <ele>129.6</ele>
        <time>2023-08-26T07:58:33Z</time>
      </trkpt>
      <trkpt lat="44.95014" lon="0.35893">
        <ele>128.6</ele>
        <time>2023-08-26T07:58:35Z</time>
      </trkpt>
      <trkpt lat="44.95007" lon="0.35887">
        <ele>128.3</ele>
        <time>2023-08-26T07:58:36Z</time>
      </trkpt>
      <trkpt lat="44.94994" lon="0.35876">
        <ele>127.5</ele>
        <time>2023-08-26T07:58:38Z</time>
      </trkpt>
      <trkpt lat="44.94983" lon="0.35862">
        <ele>126.9</ele>
        <time>2023-08-26T07:58:40Z</time>
      </trkpt>
      <trkpt lat="44.94976" lon="0.35844">
        <ele>126.4</ele>
        <time>2023-08-26T07:58:43Z</time>
      </trkpt>
      <trkpt lat="44.94968" lon="0.35833">
        <ele>125.9</ele>
        <time>2023-08-26T07:58:45Z</time>
      </trkpt>
      <trkpt lat="44.94962" lon="0.35827">
        <ele>125.4</ele>
        <time>2023-08-26T07:58:47Z</time>
      </trkpt>
      <trkpt lat="44.94956" lon="0.35823">
        <ele>125</ele>
        <time>2023-08-26T07:58:48Z</time>
      </trkpt>
      <trkpt lat="44.94951" lon="0.3582">
        <ele>124.5</ele>
        <time>2023-08-26T07:58:49Z</time>
      </trkpt>
      <trkpt lat="44.94937" lon="0.35821">
        <ele>123.5</ele>
        <time>2023-08-26T07:58:51Z</time>
      </trkpt>
      <trkpt lat="44.9492" lon="0.35825">
        <ele>122.2</ele>
        <time>2023-08-26T07:58:54Z</time>
      </trkpt>
      <trkpt lat="44.94914" lon="0.3583">
        <ele>121.7</ele>
        <time>2023-08-26T07:58:56Z</time>
      </trkpt>
      <trkpt lat="44.94912" lon="0.35835">
        <ele>121.3</ele>
        <time>2023-08-26T07:58:57Z</time>
      </trkpt>
      <trkpt lat="44.94904" lon="0.35856">
        <ele>119.5</ele>
        <time>2023-08-26T07:59:00Z</time>
      </trkpt>
      <trkpt lat="44.94905" lon="0.35887">
        <ele>117.4</ele>
        <time>2023-08-26T07:59:03Z</time>
      </trkpt>
      <trkpt lat="44.94904" lon="0.35904">
        <ele>116.6</ele>
        <time>2023-08-26T07:59:05Z</time>
      </trkpt>
      <trkpt lat="44.94905" lon="0.3591">
        <ele>116.4</ele>
        <time>2023-08-26T07:59:06Z</time>
      </trkpt>
      <trkpt lat="44.94906" lon="0.35915">
        <ele>116.3</ele>
        <time>2023-08-26T07:59:07Z</time>
      </trkpt>
      <trkpt lat="44.94905" lon="0.35919">
        <ele>116.2</ele>
        <time>2023-08-26T07:59:08Z</time>
      </trkpt>
      <trkpt lat="44.94903" lon="0.35924">
        <ele>116.1</ele>
        <time>2023-08-26T07:59:09Z</time>
      </trkpt>
      <trkpt lat="44.949" lon="0.35936">
        <ele>116.1</ele>
        <time>2023-08-26T07:59:11Z</time>
      </trkpt>
      <trkpt lat="44.94897" lon="0.3594">
        <ele>116.1</ele>
        <time>2023-08-26T07:59:12Z</time>
      </trkpt>
      <trkpt lat="44.9489" lon="0.35949">
        <ele>116.2</ele>
        <time>2023-08-26T07:59:14Z</time>
      </trkpt>
      <trkpt lat="44.94884" lon="0.3596">
        <ele>116.5</ele>
        <time>2023-08-26T07:59:16Z</time>
      </trkpt>
      <trkpt lat="44.94878" lon="0.35969">
        <ele>116.9</ele>
        <time>2023-08-26T07:59:18Z</time>
      </trkpt>
      <trkpt lat="44.94871" lon="0.35987">
        <ele>118</ele>
        <time>2023-08-26T07:59:21Z</time>
      </trkpt>
      <trkpt lat="44.94868" lon="0.35989">
        <ele>118.3</ele>
        <time>2023-08-26T07:59:22Z</time>
      </trkpt>
      <trkpt lat="44.94862" lon="0.35988">
        <ele>118.8</ele>
        <time>2023-08-26T07:59:24Z</time>
      </trkpt>
      <trkpt lat="44.94859" lon="0.35989">
        <ele>119</ele>
        <time>2023-08-26T07:59:25Z</time>
      </trkpt>
      <trkpt lat="44.94854" lon="0.36006">
        <ele>119.7</ele>
        <time>2023-08-26T07:59:29Z</time>
      </trkpt>
      <trkpt lat="44.94846" lon="0.36024">
        <ele>120.4</ele>
        <time>2023-08-26T07:59:33Z</time>
      </trkpt>
      <trkpt lat="44.94835" lon="0.36039">
        <ele>120.8</ele>
        <time>2023-08-26T07:59:37Z</time>
      </trkpt>
      <trkpt lat="44.94821" lon="0.36057">
        <ele>121.1</ele>
        <time>2023-08-26T07:59:42Z</time>
      </trkpt>
      <trkpt lat="44.94809" lon="0.36072">
        <ele>121.5</ele>
        <time>2023-08-26T07:59:47Z</time>
      </trkpt>
      <trkpt lat="44.94798" lon="0.36091">
        <ele>121.8</ele>
        <time>2023-08-26T07:59:52Z</time>
      </trkpt>
      <trkpt lat="44.94791" lon="0.36108">
        <ele>121.8</ele>
        <time>2023-08-26T07:59:56Z</time>
      </trkpt>
      <trkpt lat="44.94789" lon="0.36112">
        <ele>121.8</ele>
        <time>2023-08-26T07:59:57Z</time>
      </trkpt>
      <trkpt lat="44.94782" lon="0.36114">
        <ele>121.8</ele>
        <time>2023-08-26T07:59:59Z</time>
      </trkpt>
      <trkpt lat="44.94777" lon="0.36106">
        <ele>121</ele>
        <time>2023-08-26T08:00:02Z</time>
      </trkpt>
      <trkpt lat="44.94772" lon="0.36099">
        <ele>119.8</ele>
        <time>2023-08-26T08:00:04Z</time>
      </trkpt>
      <trkpt lat="44.94768" lon="0.36097">
        <ele>119.6</ele>
        <time>2023-08-26T08:00:05Z</time>
      </trkpt>
      <trkpt lat="44.94747" lon="0.36089">
        <ele>117.2</ele>
        <time>2023-08-26T08:00:09Z</time>
      </trkpt>
      <trkpt lat="44.94742" lon="0.36084">
        <ele>116.4</ele>
        <time>2023-08-26T08:00:10Z</time>
      </trkpt>
      <trkpt lat="44.94713" lon="0.36056">
        <ele>114.6</ele>
        <time>2023-08-26T08:00:15Z</time>
      </trkpt>
      <trkpt lat="44.94693" lon="0.36034">
        <ele>114.2</ele>
        <time>2023-08-26T08:00:18Z</time>
      </trkpt>
      <trkpt lat="44.94686" lon="0.36029">
        <ele>114.1</ele>
        <time>2023-08-26T08:00:19Z</time>
      </trkpt>
      <trkpt lat="44.9468" lon="0.36025">
        <ele>113.9</ele>
        <time>2023-08-26T08:00:20Z</time>
      </trkpt>
      <trkpt lat="44.94674" lon="0.36014">
        <ele>113.2</ele>
        <time>2023-08-26T08:00:22Z</time>
      </trkpt>
      <trkpt lat="44.94665" lon="0.35992">
        <ele>111.9</ele>
        <time>2023-08-26T08:00:25Z</time>
      </trkpt>
      <trkpt lat="44.94661" lon="0.35983">
        <ele>111.2</ele>
        <time>2023-08-26T08:00:26Z</time>
      </trkpt>
      <trkpt lat="44.9465" lon="0.35958">
        <ele>109.1</ele>
        <time>2023-08-26T08:00:29Z</time>
      </trkpt>
      <trkpt lat="44.94645" lon="0.3595">
        <ele>108.8</ele>
        <time>2023-08-26T08:00:30Z</time>
      </trkpt>
      <trkpt lat="44.94639" lon="0.35943">
        <ele>108.1</ele>
        <time>2023-08-26T08:00:31Z</time>
      </trkpt>
      <trkpt lat="44.94627" lon="0.35933">
        <ele>107.3</ele>
        <time>2023-08-26T08:00:33Z</time>
      </trkpt>
      <trkpt lat="44.94611" lon="0.3592">
        <ele>106.7</ele>
        <time>2023-08-26T08:00:35Z</time>
      </trkpt>
      <trkpt lat="44.94598" lon="0.3591">
        <ele>106.2</ele>
        <time>2023-08-26T08:00:37Z</time>
      </trkpt>
      <trkpt lat="44.94594" lon="0.35904">
        <ele>105.8</ele>
        <time>2023-08-26T08:00:38Z</time>
      </trkpt>
      <trkpt lat="44.94591" lon="0.35899">
        <ele>105.4</ele>
        <time>2023-08-26T08:00:39Z</time>
      </trkpt>
      <trkpt lat="44.94583" lon="0.35888">
        <ele>104.6</ele>
        <time>2023-08-26T08:00:41Z</time>
      </trkpt>
      <trkpt lat="44.94578" lon="0.35882">
        <ele>104.2</ele>
        <time>2023-08-26T08:00:42Z</time>
      </trkpt>
      <trkpt lat="44.94571" lon="0.35877">
        <ele>103.7</ele>
        <time>2023-08-26T08:00:43Z</time>
      </trkpt>
      <trkpt lat="44.94559" lon="0.35869">
        <ele>103.3</ele>
        <time>2023-08-26T08:00:45Z</time>
      </trkpt>
      <trkpt lat="44.94552" lon="0.35866">
        <ele>103</ele>
        <time>2023-08-26T08:00:46Z</time>
      </trkpt>
      <trkpt lat="44.94538" lon="0.35861">
        <ele>102.6</ele>
        <time>2023-08-26T08:00:48Z</time>
      </trkpt>
      <trkpt lat="44.9452" lon="0.35856">
        <ele>102.2</ele>
        <time>2023-08-26T08:00:51Z</time>
      </trkpt>
      <trkpt lat="44.94514" lon="0.35856">
        <ele>102</ele>
        <time>2023-08-26T08:00:52Z</time>
      </trkpt>
      <trkpt lat="44.94508" lon="0.35857">
        <ele>101.8</ele>
        <time>2023-08-26T08:00:53Z</time>
      </trkpt>
      <trkpt lat="44.94491" lon="0.35859">
        <ele>101.4</ele>
        <time>2023-08-26T08:00:56Z</time>
      </trkpt>
      <trkpt lat="44.94481" lon="0.35862">
        <ele>101.2</ele>
        <time>2023-08-26T08:00:58Z</time>
      </trkpt>
      <trkpt lat="44.94476" lon="0.35866">
        <ele>101</ele>
        <time>2023-08-26T08:00:59Z</time>
      </trkpt>
      <trkpt lat="44.94465" lon="0.35873">
        <ele>100.6</ele>
        <time>2023-08-26T08:01:01Z</time>
      </trkpt>
      <trkpt lat="44.94454" lon="0.35878">
        <ele>100.3</ele>
        <time>2023-08-26T08:01:03Z</time>
      </trkpt>
      <trkpt lat="44.94442" lon="0.35889">
        <ele>100</ele>
        <time>2023-08-26T08:01:07Z</time>
      </trkpt>
      <trkpt lat="44.94427" lon="0.3589">
        <ele>99.6</ele>
        <time>2023-08-26T08:01:11Z</time>
      </trkpt>
      <trkpt lat="44.94414" lon="0.35894">
        <ele>99.1</ele>
        <time>2023-08-26T08:01:14Z</time>
      </trkpt>
      <trkpt lat="44.94398" lon="0.35903">
        <ele>98.7</ele>
        <time>2023-08-26T08:01:18Z</time>
      </trkpt>
      <trkpt lat="44.94392" lon="0.35909">
        <ele>98.5</ele>
        <time>2023-08-26T08:01:20Z</time>
      </trkpt>
      <trkpt lat="44.94391" lon="0.35914">
        <ele>98.4</ele>
        <time>2023-08-26T08:01:21Z</time>
      </trkpt>
      <trkpt lat="44.94386" lon="0.35919">
        <ele>98.2</ele>
        <time>2023-08-26T08:01:23Z</time>
      </trkpt>
      <trkpt lat="44.94378" lon="0.35924">
        <ele>97.9</ele>
        <time>2023-08-26T08:01:26Z</time>
      </trkpt>
      <trkpt lat="44.94375" lon="0.35925">
        <ele>97.8</ele>
        <time>2023-08-26T08:01:27Z</time>
      </trkpt>
      <trkpt lat="44.94372" lon="0.35926">
        <ele>97.5</ele>
        <time>2023-08-26T08:01:28Z</time>
      </trkpt>
      <trkpt lat="44.94364" lon="0.35928">
        <ele>97.1</ele>
        <time>2023-08-26T08:01:30Z</time>
      </trkpt>
      <trkpt lat="44.94356" lon="0.35941">
        <ele>96.8</ele>
        <time>2023-08-26T08:01:33Z</time>
      </trkpt>
      <trkpt lat="44.94349" lon="0.35943">
        <ele>96.6</ele>
        <time>2023-08-26T08:01:35Z</time>
      </trkpt>
      <trkpt lat="44.94344" lon="0.35944">
        <ele>96.2</ele>
        <time>2023-08-26T08:01:36Z</time>
      </trkpt>
      <trkpt lat="44.94336" lon="0.35947">
        <ele>95.9</ele>
        <time>2023-08-26T08:01:38Z</time>
      </trkpt>
      <trkpt lat="44.94326" lon="0.35954">
        <ele>95.5</ele>
        <time>2023-08-26T08:01:40Z</time>
      </trkpt>
      <trkpt lat="44.94321" lon="0.35958">
        <ele>95.4</ele>
        <time>2023-08-26T08:01:41Z</time>
      </trkpt>
      <trkpt lat="44.9431" lon="0.35967">
        <ele>95.2</ele>
        <time>2023-08-26T08:01:43Z</time>
      </trkpt>
      <trkpt lat="44.943" lon="0.35977">
        <ele>95.1</ele>
        <time>2023-08-26T08:01:45Z</time>
      </trkpt>
      <trkpt lat="44.94294" lon="0.35983">
        <ele>94.8</ele>
        <time>2023-08-26T08:01:46Z</time>
      </trkpt>
      <trkpt lat="44.94285" lon="0.35998">
        <ele>94.7</ele>
        <time>2023-08-26T08:01:48Z</time>
      </trkpt>
      <trkpt lat="44.94274" lon="0.36006">
        <ele>94.2</ele>
        <time>2023-08-26T08:01:50Z</time>
      </trkpt>
      <trkpt lat="44.9427" lon="0.36006">
        <ele>94.1</ele>
        <time>2023-08-26T08:01:51Z</time>
      </trkpt>
      <trkpt lat="44.94261" lon="0.36003">
        <ele>94.1</ele>
        <time>2023-08-26T08:01:53Z</time>
      </trkpt>
      <trkpt lat="44.94256" lon="0.36002">
        <ele>94.2</ele>
        <time>2023-08-26T08:01:54Z</time>
      </trkpt>
      <trkpt lat="44.94239" lon="0.36">
        <ele>94.7</ele>
        <time>2023-08-26T08:01:58Z</time>
      </trkpt>
      <trkpt lat="44.94215" lon="0.36003">
        <ele>95.9</ele>
        <time>2023-08-26T08:02:04Z</time>
      </trkpt>
      <trkpt lat="44.94205" lon="0.36005">
        <ele>96.6</ele>
        <time>2023-08-26T08:02:07Z</time>
      </trkpt>
      <trkpt lat="44.94199" lon="0.36006">
        <ele>97.1</ele>
        <time>2023-08-26T08:02:09Z</time>
      </trkpt>
      <trkpt lat="44.94186" lon="0.3601">
        <ele>98.1</ele>
        <time>2023-08-26T08:02:14Z</time>
      </trkpt>
      <trkpt lat="44.94173" lon="0.36015">
        <ele>99.2</ele>
        <time>2023-08-26T08:02:19Z</time>
      </trkpt>
      <trkpt lat="44.94159" lon="0.3602">
        <ele>100.2</ele>
        <time>2023-08-26T08:02:25Z</time>
      </trkpt>
      <trkpt lat="44.94142" lon="0.36024">
        <ele>101.5</ele>
        <time>2023-08-26T08:02:32Z</time>
      </trkpt>
      <trkpt lat="44.94124" lon="0.3603">
        <ele>102.8</ele>
        <time>2023-08-26T08:02:39Z</time>
      </trkpt>
      <trkpt lat="44.94114" lon="0.36032">
        <ele>103.5</ele>
        <time>2023-08-26T08:02:43Z</time>
      </trkpt>
      <trkpt lat="44.94111" lon="0.36033">
        <ele>103.6</ele>
        <time>2023-08-26T08:02:44Z</time>
      </trkpt>
      <trkpt lat="44.94103" lon="0.36035">
        <ele>103.9</ele>
        <time>2023-08-26T08:02:47Z</time>
      </trkpt>
      <trkpt lat="44.94098" lon="0.36037">
        <ele>103.9</ele>
        <time>2023-08-26T08:02:49Z</time>
      </trkpt>
      <trkpt lat="44.94083" lon="0.36045">
        <ele>103.7</ele>
        <time>2023-08-26T08:02:54Z</time>
      </trkpt>
      <trkpt lat="44.94079" lon="0.36044">
        <ele>103.6</ele>
        <time>2023-08-26T08:02:55Z</time>
      </trkpt>
      <trkpt lat="44.94073" lon="0.36039">
        <ele>103.5</ele>
        <time>2023-08-26T08:02:56Z</time>
      </trkpt>
      <trkpt lat="44.94068" lon="0.36038">
        <ele>103.5</ele>
        <time>2023-08-26T08:02:57Z</time>
      </trkpt>
      <trkpt lat="44.94066" lon="0.36042">
        <ele>103.4</ele>
        <time>2023-08-26T08:02:58Z</time>
      </trkpt>
      <trkpt lat="44.94059" lon="0.36049">
        <ele>103.4</ele>
        <time>2023-08-26T08:03:00Z</time>
      </trkpt>
      <trkpt lat="44.94051" lon="0.36054">
        <ele>103.4</ele>
        <time>2023-08-26T08:03:02Z</time>
      </trkpt>
      <trkpt lat="44.94026" lon="0.36071">
        <ele>103.9</ele>
        <time>2023-08-26T08:03:09Z</time>
      </trkpt>
      <trkpt lat="44.94022" lon="0.36072">
        <ele>104</ele>
        <time>2023-08-26T08:03:10Z</time>
      </trkpt>
      <trkpt lat="44.94013" lon="0.36075">
        <ele>104.2</ele>
        <time>2023-08-26T08:03:12Z</time>
      </trkpt>
      <trkpt lat="44.94003" lon="0.36082">
        <ele>104.6</ele>
        <time>2023-08-26T08:03:15Z</time>
      </trkpt>
      <trkpt lat="44.94" lon="0.36084">
        <ele>104.7</ele>
        <time>2023-08-26T08:03:16Z</time>
      </trkpt>
      <trkpt lat="44.93981" lon="0.36094">
        <ele>105.4</ele>
        <time>2023-08-26T08:03:21Z</time>
      </trkpt>
      <trkpt lat="44.93959" lon="0.36116">
        <ele>106.7</ele>
        <time>2023-08-26T08:03:28Z</time>
      </trkpt>
      <trkpt lat="44.93941" lon="0.36127">
        <ele>107.7</ele>
        <time>2023-08-26T08:03:34Z</time>
      </trkpt>
      <trkpt lat="44.93924" lon="0.36129">
        <ele>108.6</ele>
        <time>2023-08-26T08:03:39Z</time>
      </trkpt>
      <trkpt lat="44.93908" lon="0.36129">
        <ele>109.4</ele>
        <time>2023-08-26T08:03:44Z</time>
      </trkpt>
      <trkpt lat="44.939" lon="0.36129">
        <ele>109.9</ele>
        <time>2023-08-26T08:03:47Z</time>
      </trkpt>
      <trkpt lat="44.93882" lon="0.36135">
        <ele>110.7</ele>
        <time>2023-08-26T08:03:53Z</time>
      </trkpt>
      <trkpt lat="44.93876" lon="0.36137">
        <ele>110.9</ele>
        <time>2023-08-26T08:03:55Z</time>
      </trkpt>
      <trkpt lat="44.9387" lon="0.36138">
        <ele>110.9</ele>
        <time>2023-08-26T08:03:57Z</time>
      </trkpt>
      <trkpt lat="44.93848" lon="0.36147">
        <ele>110</ele>
        <time>2023-08-26T08:04:04Z</time>
      </trkpt>
      <trkpt lat="44.9384" lon="0.36149">
        <ele>109.4</ele>
        <time>2023-08-26T08:04:06Z</time>
      </trkpt>
      <trkpt lat="44.93832" lon="0.36153">
        <ele>108.8</ele>
        <time>2023-08-26T08:04:08Z</time>
      </trkpt>
      <trkpt lat="44.93802" lon="0.36164">
        <ele>106.6</ele>
        <time>2023-08-26T08:04:13Z</time>
      </trkpt>
      <trkpt lat="44.93788" lon="0.36167">
        <ele>105.7</ele>
        <time>2023-08-26T08:04:15Z</time>
      </trkpt>
      <trkpt lat="44.93773" lon="0.36171">
        <ele>104.8</ele>
        <time>2023-08-26T08:04:17Z</time>
      </trkpt>
      <trkpt lat="44.93765" lon="0.36173">
        <ele>104.4</ele>
        <time>2023-08-26T08:04:18Z</time>
      </trkpt>
      <trkpt lat="44.9375" lon="0.36176">
        <ele>103.6</ele>
        <time>2023-08-26T08:04:20Z</time>
      </trkpt>
      <trkpt lat="44.93742" lon="0.36177">
        <ele>103.2</ele>
        <time>2023-08-26T08:04:21Z</time>
      </trkpt>
      <trkpt lat="44.93693" lon="0.36188">
        <ele>101.1</ele>
        <time>2023-08-26T08:04:27Z</time>
      </trkpt>
      <trkpt lat="44.93647" lon="0.36201">
        <ele>99.5</ele>
        <time>2023-08-26T08:04:33Z</time>
      </trkpt>
      <trkpt lat="44.93617" lon="0.36213">
        <ele>99</ele>
        <time>2023-08-26T08:04:37Z</time>
      </trkpt>
      <trkpt lat="44.93609" lon="0.36215">
        <ele>99</ele>
        <time>2023-08-26T08:04:38Z</time>
      </trkpt>
      <trkpt lat="44.93588" lon="0.36219">
        <ele>98.8</ele>
        <time>2023-08-26T08:04:41Z</time>
      </trkpt>
      <trkpt lat="44.93574" lon="0.36222">
        <ele>98.3</ele>
        <time>2023-08-26T08:04:43Z</time>
      </trkpt>
      <trkpt lat="44.93532" lon="0.36235">
        <ele>96.2</ele>
        <time>2023-08-26T08:04:49Z</time>
      </trkpt>
      <trkpt lat="44.93496" lon="0.36247">
        <ele>94.8</ele>
        <time>2023-08-26T08:04:54Z</time>
      </trkpt>
      <trkpt lat="44.93456" lon="0.36265">
        <ele>94</ele>
        <time>2023-08-26T08:05:00Z</time>
      </trkpt>
      <trkpt lat="44.93427" lon="0.36283">
        <ele>94.2</ele>
        <time>2023-08-26T08:05:05Z</time>
      </trkpt>
      <trkpt lat="44.93422" lon="0.36287">
        <ele>94.2</ele>
        <time>2023-08-26T08:05:06Z</time>
      </trkpt>
      <trkpt lat="44.93418" lon="0.36292">
        <ele>94.3</ele>
        <time>2023-08-26T08:05:07Z</time>
      </trkpt>
      <trkpt lat="44.9341" lon="0.36302">
        <ele>94.4</ele>
        <time>2023-08-26T08:05:09Z</time>
      </trkpt>
      <trkpt lat="44.93405" lon="0.36307">
        <ele>94.5</ele>
        <time>2023-08-26T08:05:10Z</time>
      </trkpt>
      <trkpt lat="44.93385" lon="0.3633">
        <ele>95.1</ele>
        <time>2023-08-26T08:05:15Z</time>
      </trkpt>
      <trkpt lat="44.9336" lon="0.36355">
        <ele>96.4</ele>
        <time>2023-08-26T08:05:22Z</time>
      </trkpt>
      <trkpt lat="44.93345" lon="0.3637">
        <ele>97.2</ele>
        <time>2023-08-26T08:05:27Z</time>
      </trkpt>
      <trkpt lat="44.93323" lon="0.36383">
        <ele>98.4</ele>
        <time>2023-08-26T08:05:33Z</time>
      </trkpt>
      <trkpt lat="44.93298" lon="0.36399">
        <ele>100.7</ele>
        <time>2023-08-26T08:05:40Z</time>
      </trkpt>
      <trkpt lat="44.93288" lon="0.36406">
        <ele>101.4</ele>
        <time>2023-08-26T08:05:43Z</time>
      </trkpt>
      <trkpt lat="44.93279" lon="0.36412">
        <ele>101.8</ele>
        <time>2023-08-26T08:05:46Z</time>
      </trkpt>
      <trkpt lat="44.93264" lon="0.3643">
        <ele>101.7</ele>
        <time>2023-08-26T08:05:51Z</time>
      </trkpt>
      <trkpt lat="44.9325" lon="0.36455">
        <ele>99.7</ele>
        <time>2023-08-26T08:05:55Z</time>
      </trkpt>
      <trkpt lat="44.93245" lon="0.36476">
        <ele>97.9</ele>
        <time>2023-08-26T08:05:57Z</time>
      </trkpt>
      <trkpt lat="44.93241" lon="0.36487">
        <ele>97</ele>
        <time>2023-08-26T08:05:58Z</time>
      </trkpt>
      <trkpt lat="44.93237" lon="0.36497">
        <ele>96.1</ele>
        <time>2023-08-26T08:05:59Z</time>
      </trkpt>
      <trkpt lat="44.93224" lon="0.36516">
        <ele>94.4</ele>
        <time>2023-08-26T08:06:01Z</time>
      </trkpt>
      <trkpt lat="44.93208" lon="0.36528">
        <ele>93.2</ele>
        <time>2023-08-26T08:06:03Z</time>
      </trkpt>
      <trkpt lat="44.93199" lon="0.36531">
        <ele>92.8</ele>
        <time>2023-08-26T08:06:04Z</time>
      </trkpt>
      <trkpt lat="44.93165" lon="0.36538">
        <ele>91.8</ele>
        <time>2023-08-26T08:06:08Z</time>
      </trkpt>
      <trkpt lat="44.93123" lon="0.36544">
        <ele>91.8</ele>
        <time>2023-08-26T08:06:14Z</time>
      </trkpt>
      <trkpt lat="44.93081" lon="0.3654">
        <ele>92.7</ele>
        <time>2023-08-26T08:06:21Z</time>
      </trkpt>
      <trkpt lat="44.93043" lon="0.36535">
        <ele>93.6</ele>
        <time>2023-08-26T08:06:28Z</time>
      </trkpt>
      <trkpt lat="44.93031" lon="0.36533">
        <ele>94.1</ele>
        <time>2023-08-26T08:06:30Z</time>
      </trkpt>
      <trkpt lat="44.93026" lon="0.36533">
        <ele>94.3</ele>
        <time>2023-08-26T08:06:31Z</time>
      </trkpt>
      <trkpt lat="44.93021" lon="0.36533">
        <ele>94.6</ele>
        <time>2023-08-26T08:06:32Z</time>
      </trkpt>
      <trkpt lat="44.93013" lon="0.36538">
        <ele>95.1</ele>
        <time>2023-08-26T08:06:34Z</time>
      </trkpt>
      <trkpt lat="44.92993" lon="0.3656">
        <ele>96.5</ele>
        <time>2023-08-26T08:06:40Z</time>
      </trkpt>
      <trkpt lat="44.92974" lon="0.3658">
        <ele>96.9</ele>
        <time>2023-08-26T08:06:46Z</time>
      </trkpt>
      <trkpt lat="44.92971" lon="0.36583">
        <ele>96.8</ele>
        <time>2023-08-26T08:06:47Z</time>
      </trkpt>
      <trkpt lat="44.92949" lon="0.36599">
        <ele>95.8</ele>
        <time>2023-08-26T08:06:52Z</time>
      </trkpt>
      <trkpt lat="44.92924" lon="0.36621">
        <ele>94.9</ele>
        <time>2023-08-26T08:06:57Z</time>
      </trkpt>
      <trkpt lat="44.92914" lon="0.36632">
        <ele>94.7</ele>
        <time>2023-08-26T08:06:59Z</time>
      </trkpt>
      <trkpt lat="44.92882" lon="0.3667">
        <ele>93.9</ele>
        <time>2023-08-26T08:07:06Z</time>
      </trkpt>
      <trkpt lat="44.92854" lon="0.36702">
        <ele>93.5</ele>
        <time>2023-08-26T08:07:12Z</time>
      </trkpt>
      <trkpt lat="44.92849" lon="0.36707">
        <ele>93.3</ele>
        <time>2023-08-26T08:07:13Z</time>
      </trkpt>
      <trkpt lat="44.92837" lon="0.36713">
        <ele>93.1</ele>
        <time>2023-08-26T08:07:15Z</time>
      </trkpt>
      <trkpt lat="44.92824" lon="0.36715">
        <ele>92.9</ele>
        <time>2023-08-26T08:07:17Z</time>
      </trkpt>
      <trkpt lat="44.92811" lon="0.36715">
        <ele>92.7</ele>
        <time>2023-08-26T08:07:19Z</time>
      </trkpt>
      <trkpt lat="44.92778" lon="0.36715">
        <ele>92.7</ele>
        <time>2023-08-26T08:07:24Z</time>
      </trkpt>
      <trkpt lat="44.92772" lon="0.36715">
        <ele>92.7</ele>
        <time>2023-08-26T08:07:25Z</time>
      </trkpt>
      <trkpt lat="44.92759" lon="0.36715">
        <ele>92.7</ele>
        <time>2023-08-26T08:07:27Z</time>
      </trkpt>
      <trkpt lat="44.92747" lon="0.36718">
        <ele>92.7</ele>
        <time>2023-08-26T08:07:29Z</time>
      </trkpt>
      <trkpt lat="44.92723" lon="0.36725">
        <ele>92.5</ele>
        <time>2023-08-26T08:07:33Z</time>
      </trkpt>
      <trkpt lat="44.92699" lon="0.36732">
        <ele>92.5</ele>
        <time>2023-08-26T08:07:37Z</time>
      </trkpt>
      <trkpt lat="44.9265" lon="0.36752">
        <ele>91.4</ele>
        <time>2023-08-26T08:07:45Z</time>
      </trkpt>
      <trkpt lat="44.92636" lon="0.3676">
        <ele>90.3</ele>
        <time>2023-08-26T08:07:47Z</time>
      </trkpt>
      <trkpt lat="44.92622" lon="0.36771">
        <ele>88.9</ele>
        <time>2023-08-26T08:07:49Z</time>
      </trkpt>
      <trkpt lat="44.92576" lon="0.36801">
        <ele>86.4</ele>
        <time>2023-08-26T08:07:55Z</time>
      </trkpt>
      <trkpt lat="44.9254" lon="0.36815">
        <ele>86</ele>
        <time>2023-08-26T08:08:00Z</time>
      </trkpt>
      <trkpt lat="44.92534" lon="0.36818">
        <ele>85.9</ele>
        <time>2023-08-26T08:08:01Z</time>
      </trkpt>
      <trkpt lat="44.92519" lon="0.36831">
        <ele>86.1</ele>
        <time>2023-08-26T08:08:04Z</time>
      </trkpt>
      <trkpt lat="44.92496" lon="0.36852">
        <ele>86.6</ele>
        <time>2023-08-26T08:08:09Z</time>
      </trkpt>
      <trkpt lat="44.92479" lon="0.36866">
        <ele>87.1</ele>
        <time>2023-08-26T08:08:13Z</time>
      </trkpt>
      <trkpt lat="44.92471" lon="0.36872">
        <ele>87.3</ele>
        <time>2023-08-26T08:08:15Z</time>
      </trkpt>
      <trkpt lat="44.92452" lon="0.36887">
        <ele>88.1</ele>
        <time>2023-08-26T08:08:20Z</time>
      </trkpt>
      <trkpt lat="44.92446" lon="0.36894">
        <ele>88.4</ele>
        <time>2023-08-26T08:08:22Z</time>
      </trkpt>
      <trkpt lat="44.92439" lon="0.36902">
        <ele>88.6</ele>
        <time>2023-08-26T08:08:24Z</time>
      </trkpt>
      <trkpt lat="44.92426" lon="0.36917">
        <ele>89</ele>
        <time>2023-08-26T08:08:28Z</time>
      </trkpt>
      <trkpt lat="44.92402" lon="0.36949">
        <ele>89.9</ele>
        <time>2023-08-26T08:08:36Z</time>
      </trkpt>
      <trkpt lat="44.92397" lon="0.36958">
        <ele>90.2</ele>
        <time>2023-08-26T08:08:38Z</time>
      </trkpt>
      <trkpt lat="44.92389" lon="0.36977">
        <ele>90.7</ele>
        <time>2023-08-26T08:08:42Z</time>
      </trkpt>
      <trkpt lat="44.92386" lon="0.36988">
        <ele>91</ele>
        <time>2023-08-26T08:08:44Z</time>
      </trkpt>
      <trkpt lat="44.92383" lon="0.36999">
        <ele>91.2</ele>
        <time>2023-08-26T08:08:46Z</time>
      </trkpt>
      <trkpt lat="44.92374" lon="0.37042">
        <ele>92.3</ele>
        <time>2023-08-26T08:08:54Z</time>
      </trkpt>
      <trkpt lat="44.92372" lon="0.37064">
        <ele>93.2</ele>
        <time>2023-08-26T08:08:59Z</time>
      </trkpt>
      <trkpt lat="44.92369" lon="0.37086">
        <ele>94.3</ele>
        <time>2023-08-26T08:09:04Z</time>
      </trkpt>
      <trkpt lat="44.92368" lon="0.37089">
        <ele>94.5</ele>
        <time>2023-08-26T08:09:05Z</time>
      </trkpt>
      <trkpt lat="44.9237" lon="0.37112">
        <ele>95.4</ele>
        <time>2023-08-26T08:09:10Z</time>
      </trkpt>
      <trkpt lat="44.9237" lon="0.37137">
        <ele>95.4</ele>
        <time>2023-08-26T08:09:16Z</time>
      </trkpt>
      <trkpt lat="44.92377" lon="0.37164">
        <ele>94.7</ele>
        <time>2023-08-26T08:09:21Z</time>
      </trkpt>
      <trkpt lat="44.92384" lon="0.37185">
        <ele>93.9</ele>
        <time>2023-08-26T08:09:24Z</time>
      </trkpt>
      <trkpt lat="44.92388" lon="0.37202">
        <ele>93.2</ele>
        <time>2023-08-26T08:09:26Z</time>
      </trkpt>
      <trkpt lat="44.92399" lon="0.37247">
        <ele>91.3</ele>
        <time>2023-08-26T08:09:31Z</time>
      </trkpt>
      <trkpt lat="44.92401" lon="0.37257">
        <ele>90.8</ele>
        <time>2023-08-26T08:09:32Z</time>
      </trkpt>
      <trkpt lat="44.92409" lon="0.37301">
        <ele>88.7</ele>
        <time>2023-08-26T08:09:36Z</time>
      </trkpt>
      <trkpt lat="44.92414" lon="0.37362">
        <ele>86.2</ele>
        <time>2023-08-26T08:09:41Z</time>
      </trkpt>
      <trkpt lat="44.92412" lon="0.37375">
        <ele>85.8</ele>
        <time>2023-08-26T08:09:42Z</time>
      </trkpt>
      <trkpt lat="44.9241" lon="0.37387">
        <ele>85.2</ele>
        <time>2023-08-26T08:09:43Z</time>
      </trkpt>
      <trkpt lat="44.92401" lon="0.3741">
        <ele>84.1</ele>
        <time>2023-08-26T08:09:45Z</time>
      </trkpt>
      <trkpt lat="44.92382" lon="0.37469">
        <ele>81.7</ele>
        <time>2023-08-26T08:09:50Z</time>
      </trkpt>
      <trkpt lat="44.92375" lon="0.37507">
        <ele>80</ele>
        <time>2023-08-26T08:09:53Z</time>
      </trkpt>
      <trkpt lat="44.9237" lon="0.37533">
        <ele>78.9</ele>
        <time>2023-08-26T08:09:55Z</time>
      </trkpt>
      <trkpt lat="44.92356" lon="0.37582">
        <ele>76.9</ele>
        <time>2023-08-26T08:09:59Z</time>
      </trkpt>
      <trkpt lat="44.92352" lon="0.37594">
        <ele>76.4</ele>
        <time>2023-08-26T08:10:00Z</time>
      </trkpt>
      <trkpt lat="44.92346" lon="0.37618">
        <ele>75.3</ele>
        <time>2023-08-26T08:10:02Z</time>
      </trkpt>
      <trkpt lat="44.9234" lon="0.37657">
        <ele>74</ele>
        <time>2023-08-26T08:10:05Z</time>
      </trkpt>
      <trkpt lat="44.92335" lon="0.37707">
        <ele>72.5</ele>
        <time>2023-08-26T08:10:09Z</time>
      </trkpt>
      <trkpt lat="44.92332" lon="0.3773">
        <ele>72.1</ele>
        <time>2023-08-26T08:10:11Z</time>
      </trkpt>
      <trkpt lat="44.92326" lon="0.37752">
        <ele>71.7</ele>
        <time>2023-08-26T08:10:13Z</time>
      </trkpt>
      <trkpt lat="44.9232" lon="0.37774">
        <ele>71.3</ele>
        <time>2023-08-26T08:10:15Z</time>
      </trkpt>
      <trkpt lat="44.92316" lon="0.37796">
        <ele>70.9</ele>
        <time>2023-08-26T08:10:17Z</time>
      </trkpt>
      <trkpt lat="44.92315" lon="0.37807">
        <ele>70.7</ele>
        <time>2023-08-26T08:10:18Z</time>
      </trkpt>
      <trkpt lat="44.92313" lon="0.37841">
        <ele>69.6</ele>
        <time>2023-08-26T08:10:21Z</time>
      </trkpt>
      <trkpt lat="44.9231" lon="0.37879">
        <ele>68</ele>
        <time>2023-08-26T08:10:24Z</time>
      </trkpt>
      <trkpt lat="44.92305" lon="0.37904">
        <ele>67</ele>
        <time>2023-08-26T08:10:26Z</time>
      </trkpt>
      <trkpt lat="44.92288" lon="0.37965">
        <ele>64.9</ele>
        <time>2023-08-26T08:10:31Z</time>
      </trkpt>
      <trkpt lat="44.92281" lon="0.37991">
        <ele>64.1</ele>
        <time>2023-08-26T08:10:33Z</time>
      </trkpt>
      <trkpt lat="44.92278" lon="0.38017">
        <ele>63.8</ele>
        <time>2023-08-26T08:10:35Z</time>
      </trkpt>
      <trkpt lat="44.92276" lon="0.38042">
        <ele>63.9</ele>
        <time>2023-08-26T08:10:37Z</time>
      </trkpt>
      <trkpt lat="44.92275" lon="0.38065">
        <ele>64.3</ele>
        <time>2023-08-26T08:10:39Z</time>
      </trkpt>
      <trkpt lat="44.92275" lon="0.38075">
        <ele>64.6</ele>
        <time>2023-08-26T08:10:40Z</time>
      </trkpt>
      <trkpt lat="44.92277" lon="0.38092">
        <ele>65</ele>
        <time>2023-08-26T08:10:42Z</time>
      </trkpt>
      <trkpt lat="44.92279" lon="0.38099">
        <ele>65.2</ele>
        <time>2023-08-26T08:10:43Z</time>
      </trkpt>
      <trkpt lat="44.9228" lon="0.38104">
        <ele>65.4</ele>
        <time>2023-08-26T08:10:44Z</time>
      </trkpt>
      <trkpt lat="44.92285" lon="0.38122">
        <ele>65.9</ele>
        <time>2023-08-26T08:10:48Z</time>
      </trkpt>
      <trkpt lat="44.9229" lon="0.38134">
        <ele>66.4</ele>
        <time>2023-08-26T08:10:51Z</time>
      </trkpt>
      <trkpt lat="44.92291" lon="0.38138">
        <ele>66.5</ele>
        <time>2023-08-26T08:10:52Z</time>
      </trkpt>
      <trkpt lat="44.92299" lon="0.38148">
        <ele>67.1</ele>
        <time>2023-08-26T08:10:56Z</time>
      </trkpt>
      <trkpt lat="44.92301" lon="0.3815">
        <ele>67</ele>
        <time>2023-08-26T08:10:57Z</time>
      </trkpt>
      <trkpt lat="44.92304" lon="0.38151">
        <ele>67</ele>
        <time>2023-08-26T08:10:59Z</time>
      </trkpt>
      <trkpt lat="44.92305" lon="0.38152">
        <ele>67</ele>
        <time>2023-08-26T08:11:00Z</time>
      </trkpt>
      <trkpt lat="44.92306" lon="0.38153">
        <ele>67.1</ele>
        <time>2023-08-26T08:11:01Z</time>
      </trkpt>
      <trkpt lat="44.92311" lon="0.38129">
        <ele>66.1</ele>
        <time>2023-08-26T08:17:07Z</time>
      </trkpt>
      <trkpt lat="44.92311" lon="0.38123">
        <ele>65.5</ele>
        <time>2023-08-26T08:17:09Z</time>
      </trkpt>
      <trkpt lat="44.92313" lon="0.38117">
        <ele>63.9</ele>
        <time>2023-08-26T08:17:11Z</time>
      </trkpt>
      <trkpt lat="44.92315" lon="0.38114">
        <ele>63.9</ele>
        <time>2023-08-26T08:17:12Z</time>
      </trkpt>
      <trkpt lat="44.92322" lon="0.381">
        <ele>62.1</ele>
        <time>2023-08-26T08:17:15Z</time>
      </trkpt>
      <trkpt lat="44.92325" lon="0.38095">
        <ele>61.6</ele>
        <time>2023-08-26T08:17:16Z</time>
      </trkpt>
      <trkpt lat="44.92341" lon="0.38074">
        <ele>61.3</ele>
        <time>2023-08-26T08:17:20Z</time>
      </trkpt>
      <trkpt lat="44.92353" lon="0.38063">
        <ele>60.8</ele>
        <time>2023-08-26T08:17:23Z</time>
      </trkpt>
      <trkpt lat="44.92357" lon="0.3806">
        <ele>60.7</ele>
        <time>2023-08-26T08:17:24Z</time>
      </trkpt>
      <trkpt lat="44.92361" lon="0.38057">
        <ele>60.7</ele>
        <time>2023-08-26T08:17:25Z</time>
      </trkpt>
      <trkpt lat="44.92369" lon="0.38053">
        <ele>60.8</ele>
        <time>2023-08-26T08:17:27Z</time>
      </trkpt>
      <trkpt lat="44.92376" lon="0.38047">
        <ele>60.9</ele>
        <time>2023-08-26T08:17:29Z</time>
      </trkpt>
      <trkpt lat="44.9238" lon="0.38044">
        <ele>61</ele>
        <time>2023-08-26T08:17:30Z</time>
      </trkpt>
      <trkpt lat="44.92387" lon="0.38039">
        <ele>61.1</ele>
        <time>2023-08-26T08:17:32Z</time>
      </trkpt>
      <trkpt lat="44.92395" lon="0.38038">
        <ele>61.1</ele>
        <time>2023-08-26T08:17:34Z</time>
      </trkpt>
      <trkpt lat="44.92403" lon="0.38038">
        <ele>61.1</ele>
        <time>2023-08-26T08:17:36Z</time>
      </trkpt>
      <trkpt lat="44.92407" lon="0.38037">
        <ele>61.1</ele>
        <time>2023-08-26T08:17:37Z</time>
      </trkpt>
      <trkpt lat="44.92411" lon="0.38038">
        <ele>61.1</ele>
        <time>2023-08-26T08:17:39Z</time>
      </trkpt>
      <trkpt lat="44.92417" lon="0.38041">
        <ele>61</ele>
        <time>2023-08-26T08:17:41Z</time>
      </trkpt>
      <trkpt lat="44.92426" lon="0.38045">
        <ele>60.9</ele>
        <time>2023-08-26T08:17:43Z</time>
      </trkpt>
      <trkpt lat="44.92442" lon="0.38053">
        <ele>60.3</ele>
        <time>2023-08-26T08:17:47Z</time>
      </trkpt>
      <trkpt lat="44.92461" lon="0.3806">
        <ele>60.6</ele>
        <time>2023-08-26T08:17:52Z</time>
      </trkpt>
      <trkpt lat="44.92465" lon="0.38059">
        <ele>60.9</ele>
        <time>2023-08-26T08:17:53Z</time>
      </trkpt>
      <trkpt lat="44.92473" lon="0.38057">
        <ele>61.3</ele>
        <time>2023-08-26T08:17:55Z</time>
      </trkpt>
      <trkpt lat="44.92487" lon="0.38049">
        <ele>62.1</ele>
        <time>2023-08-26T08:17:59Z</time>
      </trkpt>
      <trkpt lat="44.92491" lon="0.38048">
        <ele>61.8</ele>
        <time>2023-08-26T08:18:00Z</time>
      </trkpt>
      <trkpt lat="44.925" lon="0.38049">
        <ele>63</ele>
        <time>2023-08-26T08:18:02Z</time>
      </trkpt>
      <trkpt lat="44.92503" lon="0.3805">
        <ele>63.9</ele>
        <time>2023-08-26T08:18:03Z</time>
      </trkpt>
      <trkpt lat="44.92509" lon="0.38052">
        <ele>64.6</ele>
        <time>2023-08-26T08:18:05Z</time>
      </trkpt>
      <trkpt lat="44.92512" lon="0.38052">
        <ele>64.9</ele>
        <time>2023-08-26T08:18:06Z</time>
      </trkpt>
      <trkpt lat="44.92523" lon="0.38051">
        <ele>65.8</ele>
        <time>2023-08-26T08:18:10Z</time>
      </trkpt>
      <trkpt lat="44.92529" lon="0.38048">
        <ele>66</ele>
        <time>2023-08-26T08:18:13Z</time>
      </trkpt>
      <trkpt lat="44.92532" lon="0.38044">
        <ele>66</ele>
        <time>2023-08-26T08:18:15Z</time>
      </trkpt>
      <trkpt lat="44.92533" lon="0.38038">
        <ele>65.8</ele>
        <time>2023-08-26T08:18:18Z</time>
      </trkpt>
      <trkpt lat="44.92533" lon="0.38035">
        <ele>65.6</ele>
        <time>2023-08-26T08:18:19Z</time>
      </trkpt>
      <trkpt lat="44.92535" lon="0.38033">
        <ele>65.7</ele>
        <time>2023-08-26T08:18:22Z</time>
      </trkpt>
      <trkpt lat="44.92536" lon="0.38029">
        <ele>65.5</ele>
        <time>2023-08-26T08:18:23Z</time>
      </trkpt>
      <trkpt lat="44.9254" lon="0.38024">
        <ele>65.5</ele>
        <time>2023-08-26T08:18:25Z</time>
      </trkpt>
      <trkpt lat="44.92543" lon="0.38016">
        <ele>65.2</ele>
        <time>2023-08-26T08:18:27Z</time>
      </trkpt>
      <trkpt lat="44.92546" lon="0.3801">
        <ele>65</ele>
        <time>2023-08-26T08:18:29Z</time>
      </trkpt>
      <trkpt lat="44.92551" lon="0.38002">
        <ele>65.1</ele>
        <time>2023-08-26T08:18:32Z</time>
      </trkpt>
      <trkpt lat="44.92556" lon="0.37994">
        <ele>65.3</ele>
        <time>2023-08-26T08:18:35Z</time>
      </trkpt>
      <trkpt lat="44.92558" lon="0.37991">
        <ele>65.2</ele>
        <time>2023-08-26T08:18:36Z</time>
      </trkpt>
      <trkpt lat="44.92559" lon="0.37987">
        <ele>65.3</ele>
        <time>2023-08-26T08:18:37Z</time>
      </trkpt>
      <trkpt lat="44.92563" lon="0.37981">
        <ele>65.4</ele>
        <time>2023-08-26T08:18:39Z</time>
      </trkpt>
      <trkpt lat="44.92574" lon="0.37969">
        <ele>66</ele>
        <time>2023-08-26T08:18:44Z</time>
      </trkpt>
      <trkpt lat="44.92577" lon="0.37966">
        <ele>66.1</ele>
        <time>2023-08-26T08:18:45Z</time>
      </trkpt>
      <trkpt lat="44.92587" lon="0.37957">
        <ele>66.5</ele>
        <time>2023-08-26T08:18:49Z</time>
      </trkpt>
      <trkpt lat="44.92604" lon="0.37945">
        <ele>67.1</ele>
        <time>2023-08-26T08:18:55Z</time>
      </trkpt>
      <trkpt lat="44.92612" lon="0.3793">
        <ele>67.3</ele>
        <time>2023-08-26T08:18:59Z</time>
      </trkpt>
      <trkpt lat="44.92616" lon="0.37912">
        <ele>67.3</ele>
        <time>2023-08-26T08:19:03Z</time>
      </trkpt>
      <trkpt lat="44.92625" lon="0.37906">
        <ele>67.3</ele>
        <time>2023-08-26T08:19:06Z</time>
      </trkpt>
      <trkpt lat="44.92629" lon="0.37898">
        <ele>67.2</ele>
        <time>2023-08-26T08:19:08Z</time>
      </trkpt>
      <trkpt lat="44.92633" lon="0.3789">
        <ele>67.2</ele>
        <time>2023-08-26T08:19:10Z</time>
      </trkpt>
      <trkpt lat="44.92644" lon="0.37879">
        <ele>67.1</ele>
        <time>2023-08-26T08:19:14Z</time>
      </trkpt>
      <trkpt lat="44.92655" lon="0.37869">
        <ele>67.2</ele>
        <time>2023-08-26T08:19:18Z</time>
      </trkpt>
      <trkpt lat="44.92658" lon="0.37866">
        <ele>67.2</ele>
        <time>2023-08-26T08:19:19Z</time>
      </trkpt>
      <trkpt lat="44.92668" lon="0.37852">
        <ele>67.6</ele>
        <time>2023-08-26T08:19:22Z</time>
      </trkpt>
      <trkpt lat="44.9267" lon="0.37838">
        <ele>68.4</ele>
        <time>2023-08-26T08:19:24Z</time>
      </trkpt>
      <trkpt lat="44.92673" lon="0.37834">
        <ele>68.6</ele>
        <time>2023-08-26T08:19:25Z</time>
      </trkpt>
      <trkpt lat="44.92682" lon="0.37826">
        <ele>68.7</ele>
        <time>2023-08-26T08:19:28Z</time>
      </trkpt>
      <trkpt lat="44.92686" lon="0.37822">
        <ele>68.8</ele>
        <time>2023-08-26T08:19:30Z</time>
      </trkpt>
      <trkpt lat="44.92691" lon="0.37819">
        <ele>68.9</ele>
        <time>2023-08-26T08:19:31Z</time>
      </trkpt>
      <trkpt lat="44.92695" lon="0.37818">
        <ele>68.9</ele>
        <time>2023-08-26T08:19:32Z</time>
      </trkpt>
      <trkpt lat="44.92698" lon="0.37816">
        <ele>69</ele>
        <time>2023-08-26T08:19:33Z</time>
      </trkpt>
      <trkpt lat="44.92701" lon="0.37815">
        <ele>68.9</ele>
        <time>2023-08-26T08:19:34Z</time>
      </trkpt>
      <trkpt lat="44.92704" lon="0.37812">
        <ele>68.9</ele>
        <time>2023-08-26T08:19:35Z</time>
      </trkpt>
      <trkpt lat="44.92709" lon="0.37812">
        <ele>68.8</ele>
        <time>2023-08-26T08:19:36Z</time>
      </trkpt>
      <trkpt lat="44.92713" lon="0.37811">
        <ele>68.7</ele>
        <time>2023-08-26T08:19:37Z</time>
      </trkpt>
      <trkpt lat="44.92719" lon="0.37809">
        <ele>68.5</ele>
        <time>2023-08-26T08:19:39Z</time>
      </trkpt>
      <trkpt lat="44.92722" lon="0.37808">
        <ele>68.5</ele>
        <time>2023-08-26T08:19:40Z</time>
      </trkpt>
      <trkpt lat="44.92726" lon="0.37804">
        <ele>68.4</ele>
        <time>2023-08-26T08:19:43Z</time>
      </trkpt>
      <trkpt lat="44.92728" lon="0.37801">
        <ele>68.4</ele>
        <time>2023-08-26T08:19:44Z</time>
      </trkpt>
      <trkpt lat="44.9273" lon="0.37798">
        <ele>68.4</ele>
        <time>2023-08-26T08:19:45Z</time>
      </trkpt>
      <trkpt lat="44.92731" lon="0.37797">
        <ele>68.3</ele>
        <time>2023-08-26T08:19:46Z</time>
      </trkpt>
      <trkpt lat="44.92737" lon="0.37792">
        <ele>68.2</ele>
        <time>2023-08-26T08:19:50Z</time>
      </trkpt>
      <trkpt lat="44.92738" lon="0.37789">
        <ele>68</ele>
        <time>2023-08-26T08:19:51Z</time>
      </trkpt>
      <trkpt lat="44.92741" lon="0.37779">
        <ele>67.8</ele>
        <time>2023-08-26T08:19:54Z</time>
      </trkpt>
      <trkpt lat="44.92746" lon="0.37768">
        <ele>67.5</ele>
        <time>2023-08-26T08:19:58Z</time>
      </trkpt>
      <trkpt lat="44.92746" lon="0.37756">
        <ele>67.5</ele>
        <time>2023-08-26T08:20:02Z</time>
      </trkpt>
      <trkpt lat="44.92746" lon="0.37754">
        <ele>67.5</ele>
        <time>2023-08-26T08:20:03Z</time>
      </trkpt>
      <trkpt lat="44.9275" lon="0.37747">
        <ele>67.4</ele>
        <time>2023-08-26T08:20:07Z</time>
      </trkpt>
      <trkpt lat="44.92753" lon="0.37743">
        <ele>67.5</ele>
        <time>2023-08-26T08:20:09Z</time>
      </trkpt>
      <trkpt lat="44.9276" lon="0.37733">
        <ele>67.8</ele>
        <time>2023-08-26T08:20:15Z</time>
      </trkpt>
      <trkpt lat="44.92765" lon="0.3773">
        <ele>68</ele>
        <time>2023-08-26T08:20:20Z</time>
      </trkpt>
      <trkpt lat="44.92766" lon="0.37729">
        <ele>67.9</ele>
        <time>2023-08-26T08:20:21Z</time>
      </trkpt>
      <trkpt lat="44.92769" lon="0.37724">
        <ele>68.1</ele>
        <time>2023-08-26T08:20:23Z</time>
      </trkpt>
      <trkpt lat="44.92772" lon="0.3772">
        <ele>68.3</ele>
        <time>2023-08-26T08:20:26Z</time>
      </trkpt>
      <trkpt lat="44.92775" lon="0.3772">
        <ele>68.2</ele>
        <time>2023-08-26T08:20:28Z</time>
      </trkpt>
      <trkpt lat="44.92778" lon="0.37717">
        <ele>68.4</ele>
        <time>2023-08-26T08:20:30Z</time>
      </trkpt>
      <trkpt lat="44.9278" lon="0.37712">
        <ele>68.7</ele>
        <time>2023-08-26T08:20:32Z</time>
      </trkpt>
      <trkpt lat="44.92783" lon="0.37705">
        <ele>69.4</ele>
        <time>2023-08-26T08:20:35Z</time>
      </trkpt>
      <trkpt lat="44.92784" lon="0.37694">
        <ele>70.2</ele>
        <time>2023-08-26T08:20:41Z</time>
      </trkpt>
      <trkpt lat="44.92787" lon="0.37686">
        <ele>71</ele>
        <time>2023-08-26T08:20:47Z</time>
      </trkpt>
      <trkpt lat="44.92788" lon="0.37684">
        <ele>71</ele>
        <time>2023-08-26T08:20:48Z</time>
      </trkpt>
      <trkpt lat="44.92791" lon="0.37675">
        <ele>72.1</ele>
        <time>2023-08-26T08:20:53Z</time>
      </trkpt>
      <trkpt lat="44.92793" lon="0.37672">
        <ele>72.1</ele>
        <time>2023-08-26T08:20:55Z</time>
      </trkpt>
      <trkpt lat="44.92797" lon="0.37666">
        <ele>72.9</ele>
        <time>2023-08-26T08:20:59Z</time>
      </trkpt>
      <trkpt lat="44.92797" lon="0.37664">
        <ele>72.9</ele>
        <time>2023-08-26T08:21:00Z</time>
      </trkpt>
      <trkpt lat="44.92801" lon="0.37657">
        <ele>73.9</ele>
        <time>2023-08-26T08:21:04Z</time>
      </trkpt>
      <trkpt lat="44.92804" lon="0.37649">
        <ele>75</ele>
        <time>2023-08-26T08:21:09Z</time>
      </trkpt>
      <trkpt lat="44.92805" lon="0.37646">
        <ele>75.2</ele>
        <time>2023-08-26T08:21:11Z</time>
      </trkpt>
      <trkpt lat="44.92808" lon="0.37644">
        <ele>75.8</ele>
        <time>2023-08-26T08:21:14Z</time>
      </trkpt>
      <trkpt lat="44.9281" lon="0.37645">
        <ele>75.8</ele>
        <time>2023-08-26T08:21:15Z</time>
      </trkpt>
      <trkpt lat="44.92812" lon="0.37645">
        <ele>75.4</ele>
        <time>2023-08-26T08:21:16Z</time>
      </trkpt>
      <trkpt lat="44.92815" lon="0.37644">
        <ele>76.1</ele>
        <time>2023-08-26T08:21:18Z</time>
      </trkpt>
      <trkpt lat="44.92818" lon="0.37638">
        <ele>76.7</ele>
        <time>2023-08-26T08:21:22Z</time>
      </trkpt>
      <trkpt lat="44.9282" lon="0.37635">
        <ele>77.1</ele>
        <time>2023-08-26T08:21:24Z</time>
      </trkpt>
      <trkpt lat="44.92819" lon="0.3763">
        <ele>77.6</ele>
        <time>2023-08-26T08:21:26Z</time>
      </trkpt>
      <trkpt lat="44.92818" lon="0.37629">
        <ele>77.6</ele>
        <time>2023-08-26T08:21:27Z</time>
      </trkpt>
      <trkpt lat="44.92811" lon="0.37629">
        <ele>77.4</ele>
        <time>2023-08-26T08:21:31Z</time>
      </trkpt>
      <trkpt lat="44.92808" lon="0.37628">
        <ele>77.8</ele>
        <time>2023-08-26T08:21:32Z</time>
      </trkpt>
      <trkpt lat="44.928" lon="0.37624">
        <ele>77.5</ele>
        <time>2023-08-26T08:21:35Z</time>
      </trkpt>
      <trkpt lat="44.92788" lon="0.3762">
        <ele>77.9</ele>
        <time>2023-08-26T08:21:40Z</time>
      </trkpt>
      <trkpt lat="44.92768" lon="0.37614">
        <ele>79.2</ele>
        <time>2023-08-26T08:21:48Z</time>
      </trkpt>
      <trkpt lat="44.92755" lon="0.3761">
        <ele>80.5</ele>
        <time>2023-08-26T08:21:54Z</time>
      </trkpt>
      <trkpt lat="44.92737" lon="0.37604">
        <ele>82.4</ele>
        <time>2023-08-26T08:22:02Z</time>
      </trkpt>
      <trkpt lat="44.92731" lon="0.37599">
        <ele>83.2</ele>
        <time>2023-08-26T08:22:05Z</time>
      </trkpt>
      <trkpt lat="44.92731" lon="0.37592">
        <ele>84.1</ele>
        <time>2023-08-26T08:22:07Z</time>
      </trkpt>
      <trkpt lat="44.92731" lon="0.37589">
        <ele>84.5</ele>
        <time>2023-08-26T08:22:08Z</time>
      </trkpt>
      <trkpt lat="44.92732" lon="0.37587">
        <ele>84.3</ele>
        <time>2023-08-26T08:22:09Z</time>
      </trkpt>
      <trkpt lat="44.92733" lon="0.37583">
        <ele>84.7</ele>
        <time>2023-08-26T08:22:10Z</time>
      </trkpt>
      <trkpt lat="44.92737" lon="0.37571">
        <ele>85.5</ele>
        <time>2023-08-26T08:22:14Z</time>
      </trkpt>
      <trkpt lat="44.92738" lon="0.37566">
        <ele>85.7</ele>
        <time>2023-08-26T08:22:16Z</time>
      </trkpt>
      <trkpt lat="44.92739" lon="0.37563">
        <ele>85.9</ele>
        <time>2023-08-26T08:22:17Z</time>
      </trkpt>
      <trkpt lat="44.92741" lon="0.37552">
        <ele>86.4</ele>
        <time>2023-08-26T08:22:21Z</time>
      </trkpt>
      <trkpt lat="44.92743" lon="0.37542">
        <ele>86.8</ele>
        <time>2023-08-26T08:22:26Z</time>
      </trkpt>
      <trkpt lat="44.92748" lon="0.37528">
        <ele>87</ele>
        <time>2023-08-26T08:22:33Z</time>
      </trkpt>
      <trkpt lat="44.92748" lon="0.37527">
        <ele>87</ele>
        <time>2023-08-26T08:22:34Z</time>
      </trkpt>
      <trkpt lat="44.92749" lon="0.37522">
        <ele>87.2</ele>
        <time>2023-08-26T08:22:37Z</time>
      </trkpt>
      <trkpt lat="44.9275" lon="0.37518">
        <ele>87.3</ele>
        <time>2023-08-26T08:22:39Z</time>
      </trkpt>
      <trkpt lat="44.92751" lon="0.37516">
        <ele>87.5</ele>
        <time>2023-08-26T08:22:41Z</time>
      </trkpt>
      <trkpt lat="44.92751" lon="0.37513">
        <ele>87.4</ele>
        <time>2023-08-26T08:22:42Z</time>
      </trkpt>
      <trkpt lat="44.92756" lon="0.37502">
        <ele>87.9</ele>
        <time>2023-08-26T08:22:48Z</time>
      </trkpt>
      <trkpt lat="44.92757" lon="0.37497">
        <ele>88</ele>
        <time>2023-08-26T08:22:50Z</time>
      </trkpt>
      <trkpt lat="44.92758" lon="0.37494">
        <ele>88.2</ele>
        <time>2023-08-26T08:22:51Z</time>
      </trkpt>
      <trkpt lat="44.92759" lon="0.37492">
        <ele>88.2</ele>
        <time>2023-08-26T08:22:52Z</time>
      </trkpt>
      <trkpt lat="44.92761" lon="0.37481">
        <ele>88.7</ele>
        <time>2023-08-26T08:22:55Z</time>
      </trkpt>
      <trkpt lat="44.92765" lon="0.37466">
        <ele>89.4</ele>
        <time>2023-08-26T08:22:59Z</time>
      </trkpt>
      <trkpt lat="44.92769" lon="0.37451">
        <ele>90.1</ele>
        <time>2023-08-26T08:23:03Z</time>
      </trkpt>
      <trkpt lat="44.9277" lon="0.37444">
        <ele>90.3</ele>
        <time>2023-08-26T08:23:05Z</time>
      </trkpt>
      <trkpt lat="44.9277" lon="0.37419">
        <ele>91.1</ele>
        <time>2023-08-26T08:23:12Z</time>
      </trkpt>
      <trkpt lat="44.9277" lon="0.37402">
        <ele>91.6</ele>
        <time>2023-08-26T08:23:17Z</time>
      </trkpt>
      <trkpt lat="44.9277" lon="0.37398">
        <ele>91.7</ele>
        <time>2023-08-26T08:23:18Z</time>
      </trkpt>
      <trkpt lat="44.9277" lon="0.37385">
        <ele>92.2</ele>
        <time>2023-08-26T08:23:23Z</time>
      </trkpt>
      <trkpt lat="44.9277" lon="0.37381">
        <ele>92.4</ele>
        <time>2023-08-26T08:23:24Z</time>
      </trkpt>
      <trkpt lat="44.92771" lon="0.37378">
        <ele>92.6</ele>
        <time>2023-08-26T08:23:25Z</time>
      </trkpt>
      <trkpt lat="44.92772" lon="0.37369">
        <ele>92.9</ele>
        <time>2023-08-26T08:23:28Z</time>
      </trkpt>
      <trkpt lat="44.92774" lon="0.37357">
        <ele>93.4</ele>
        <time>2023-08-26T08:23:34Z</time>
      </trkpt>
      <trkpt lat="44.92775" lon="0.37355">
        <ele>93.4</ele>
        <time>2023-08-26T08:23:35Z</time>
      </trkpt>
      <trkpt lat="44.92779" lon="0.37346">
        <ele>93.9</ele>
        <time>2023-08-26T08:23:40Z</time>
      </trkpt>
      <trkpt lat="44.9278" lon="0.37344">
        <ele>94</ele>
        <time>2023-08-26T08:23:41Z</time>
      </trkpt>
      <trkpt lat="44.92782" lon="0.37338">
        <ele>94.3</ele>
        <time>2023-08-26T08:23:45Z</time>
      </trkpt>
      <trkpt lat="44.92783" lon="0.37323">
        <ele>95</ele>
        <time>2023-08-26T08:23:51Z</time>
      </trkpt>
      <trkpt lat="44.92788" lon="0.37311">
        <ele>95.5</ele>
        <time>2023-08-26T08:23:58Z</time>
      </trkpt>
      <trkpt lat="44.92788" lon="0.37307">
        <ele>95.7</ele>
        <time>2023-08-26T08:24:00Z</time>
      </trkpt>
      <trkpt lat="44.92791" lon="0.37303">
        <ele>95.9</ele>
        <time>2023-08-26T08:24:02Z</time>
      </trkpt>
      <trkpt lat="44.92795" lon="0.37292">
        <ele>96.6</ele>
        <time>2023-08-26T08:24:07Z</time>
      </trkpt>
      <trkpt lat="44.92796" lon="0.3729">
        <ele>96.6</ele>
        <time>2023-08-26T08:24:08Z</time>
      </trkpt>
      <trkpt lat="44.92797" lon="0.37285">
        <ele>97</ele>
        <time>2023-08-26T08:24:10Z</time>
      </trkpt>
      <trkpt lat="44.92798" lon="0.37282">
        <ele>97</ele>
        <time>2023-08-26T08:24:11Z</time>
      </trkpt>
      <trkpt lat="44.92801" lon="0.37278">
        <ele>97.1</ele>
        <time>2023-08-26T08:24:13Z</time>
      </trkpt>
      <trkpt lat="44.92802" lon="0.37275">
        <ele>97.3</ele>
        <time>2023-08-26T08:24:14Z</time>
      </trkpt>
      <trkpt lat="44.92804" lon="0.3727">
        <ele>97.4</ele>
        <time>2023-08-26T08:24:16Z</time>
      </trkpt>
      <trkpt lat="44.92806" lon="0.37263">
        <ele>97.7</ele>
        <time>2023-08-26T08:24:18Z</time>
      </trkpt>
      <trkpt lat="44.92808" lon="0.37251">
        <ele>98</ele>
        <time>2023-08-26T08:24:22Z</time>
      </trkpt>
      <trkpt lat="44.92808" lon="0.37248">
        <ele>98.1</ele>
        <time>2023-08-26T08:24:23Z</time>
      </trkpt>
      <trkpt lat="44.92809" lon="0.37246">
        <ele>98.3</ele>
        <time>2023-08-26T08:24:24Z</time>
      </trkpt>
      <trkpt lat="44.9281" lon="0.3724">
        <ele>98.4</ele>
        <time>2023-08-26T08:24:26Z</time>
      </trkpt>
      <trkpt lat="44.92813" lon="0.37221">
        <ele>98.9</ele>
        <time>2023-08-26T08:24:32Z</time>
      </trkpt>
      <trkpt lat="44.92816" lon="0.37201">
        <ele>99.5</ele>
        <time>2023-08-26T08:24:37Z</time>
      </trkpt>
      <trkpt lat="44.92817" lon="0.37189">
        <ele>99.8</ele>
        <time>2023-08-26T08:24:40Z</time>
      </trkpt>
      <trkpt lat="44.9282" lon="0.3718">
        <ele>100.2</ele>
        <time>2023-08-26T08:24:43Z</time>
      </trkpt>
      <trkpt lat="44.9282" lon="0.37173">
        <ele>100.2</ele>
        <time>2023-08-26T08:24:45Z</time>
      </trkpt>
      <trkpt lat="44.9282" lon="0.37171">
        <ele>100.4</ele>
        <time>2023-08-26T08:24:46Z</time>
      </trkpt>
      <trkpt lat="44.92821" lon="0.37162">
        <ele>100.8</ele>
        <time>2023-08-26T08:24:49Z</time>
      </trkpt>
      <trkpt lat="44.92821" lon="0.37157">
        <ele>100.9</ele>
        <time>2023-08-26T08:24:51Z</time>
      </trkpt>
      <trkpt lat="44.92822" lon="0.3715">
        <ele>101.3</ele>
        <time>2023-08-26T08:24:53Z</time>
      </trkpt>
      <trkpt lat="44.92823" lon="0.37134">
        <ele>101.7</ele>
        <time>2023-08-26T08:24:57Z</time>
      </trkpt>
      <trkpt lat="44.92824" lon="0.37127">
        <ele>101.8</ele>
        <time>2023-08-26T08:24:59Z</time>
      </trkpt>
      <trkpt lat="44.92822" lon="0.3712">
        <ele>102.1</ele>
        <time>2023-08-26T08:25:01Z</time>
      </trkpt>
      <trkpt lat="44.92816" lon="0.37108">
        <ele>102.4</ele>
        <time>2023-08-26T08:25:04Z</time>
      </trkpt>
      <trkpt lat="44.92816" lon="0.37107">
        <ele>102.4</ele>
        <time>2023-08-26T08:25:05Z</time>
      </trkpt>
      <trkpt lat="44.9282" lon="0.37094">
        <ele>102.7</ele>
        <time>2023-08-26T08:25:10Z</time>
      </trkpt>
      <trkpt lat="44.92823" lon="0.37086">
        <ele>102.9</ele>
        <time>2023-08-26T08:25:12Z</time>
      </trkpt>
      <trkpt lat="44.92825" lon="0.3708">
        <ele>103</ele>
        <time>2023-08-26T08:25:14Z</time>
      </trkpt>
      <trkpt lat="44.92828" lon="0.37072">
        <ele>103.3</ele>
        <time>2023-08-26T08:25:17Z</time>
      </trkpt>
      <trkpt lat="44.92831" lon="0.37065">
        <ele>103.5</ele>
        <time>2023-08-26T08:25:20Z</time>
      </trkpt>
      <trkpt lat="44.92832" lon="0.37039">
        <ele>104.4</ele>
        <time>2023-08-26T08:25:24Z</time>
      </trkpt>
      <trkpt lat="44.9283" lon="0.37036">
        <ele>104.4</ele>
        <time>2023-08-26T08:25:25Z</time>
      </trkpt>
      <trkpt lat="44.92825" lon="0.37031">
        <ele>104.7</ele>
        <time>2023-08-26T08:25:27Z</time>
      </trkpt>
      <trkpt lat="44.92818" lon="0.37027">
        <ele>104.7</ele>
        <time>2023-08-26T08:25:29Z</time>
      </trkpt>
      <trkpt lat="44.92802" lon="0.37022">
        <ele>104.4</ele>
        <time>2023-08-26T08:25:34Z</time>
      </trkpt>
      <trkpt lat="44.9279" lon="0.37024">
        <ele>104</ele>
        <time>2023-08-26T08:25:38Z</time>
      </trkpt>
      <trkpt lat="44.92787" lon="0.37025">
        <ele>104</ele>
        <time>2023-08-26T08:25:39Z</time>
      </trkpt>
      <trkpt lat="44.92777" lon="0.37024">
        <ele>103.6</ele>
        <time>2023-08-26T08:25:42Z</time>
      </trkpt>
      <trkpt lat="44.92762" lon="0.37032">
        <ele>102.9</ele>
        <time>2023-08-26T08:25:46Z</time>
      </trkpt>
      <trkpt lat="44.92742" lon="0.37041">
        <ele>102</ele>
        <time>2023-08-26T08:25:50Z</time>
      </trkpt>
      <trkpt lat="44.92736" lon="0.37042">
        <ele>101.8</ele>
        <time>2023-08-26T08:25:51Z</time>
      </trkpt>
      <trkpt lat="44.92729" lon="0.37042">
        <ele>101.6</ele>
        <time>2023-08-26T08:25:52Z</time>
      </trkpt>
      <trkpt lat="44.9271" lon="0.37041">
        <ele>100.5</ele>
        <time>2023-08-26T08:25:55Z</time>
      </trkpt>
      <trkpt lat="44.92673" lon="0.37039">
        <ele>97.9</ele>
        <time>2023-08-26T08:26:00Z</time>
      </trkpt>
      <trkpt lat="44.92628" lon="0.37036">
        <ele>96</ele>
        <time>2023-08-26T08:26:06Z</time>
      </trkpt>
      <trkpt lat="44.92623" lon="0.37035">
        <ele>95.9</ele>
        <time>2023-08-26T08:26:07Z</time>
      </trkpt>
      <trkpt lat="44.9262" lon="0.37032">
        <ele>95.8</ele>
        <time>2023-08-26T08:26:08Z</time>
      </trkpt>
      <trkpt lat="44.92618" lon="0.37027">
        <ele>95.6</ele>
        <time>2023-08-26T08:26:09Z</time>
      </trkpt>
      <trkpt lat="44.92616" lon="0.37017">
        <ele>95.4</ele>
        <time>2023-08-26T08:26:11Z</time>
      </trkpt>
      <trkpt lat="44.92609" lon="0.3701">
        <ele>95.1</ele>
        <time>2023-08-26T08:26:13Z</time>
      </trkpt>
      <trkpt lat="44.92605" lon="0.37007">
        <ele>95</ele>
        <time>2023-08-26T08:26:14Z</time>
      </trkpt>
      <trkpt lat="44.92601" lon="0.37005">
        <ele>94.7</ele>
        <time>2023-08-26T08:26:15Z</time>
      </trkpt>
      <trkpt lat="44.92598" lon="0.37002">
        <ele>94.6</ele>
        <time>2023-08-26T08:26:16Z</time>
      </trkpt>
      <trkpt lat="44.9259" lon="0.36998">
        <ele>94.2</ele>
        <time>2023-08-26T08:26:18Z</time>
      </trkpt>
      <trkpt lat="44.92574" lon="0.36997">
        <ele>93.7</ele>
        <time>2023-08-26T08:26:22Z</time>
      </trkpt>
      <trkpt lat="44.92549" lon="0.37">
        <ele>93.7</ele>
        <time>2023-08-26T08:26:28Z</time>
      </trkpt>
      <trkpt lat="44.9254" lon="0.37001">
        <ele>93.7</ele>
        <time>2023-08-26T08:26:30Z</time>
      </trkpt>
      <trkpt lat="44.92526" lon="0.37005">
        <ele>93.9</ele>
        <time>2023-08-26T08:26:33Z</time>
      </trkpt>
      <trkpt lat="44.92517" lon="0.37009">
        <ele>94.1</ele>
        <time>2023-08-26T08:26:35Z</time>
      </trkpt>
      <trkpt lat="44.9251" lon="0.37014">
        <ele>94.2</ele>
        <time>2023-08-26T08:26:37Z</time>
      </trkpt>
      <trkpt lat="44.92492" lon="0.37021">
        <ele>94.4</ele>
        <time>2023-08-26T08:26:41Z</time>
      </trkpt>
      <trkpt lat="44.92477" lon="0.37021">
        <ele>94.2</ele>
        <time>2023-08-26T08:26:44Z</time>
      </trkpt>
      <trkpt lat="44.92472" lon="0.37023">
        <ele>94</ele>
        <time>2023-08-26T08:26:45Z</time>
      </trkpt>
      <trkpt lat="44.92466" lon="0.37028">
        <ele>94.2</ele>
        <time>2023-08-26T08:26:47Z</time>
      </trkpt>
      <trkpt lat="44.92462" lon="0.37034">
        <ele>94.3</ele>
        <time>2023-08-26T08:26:49Z</time>
      </trkpt>
      <trkpt lat="44.9245" lon="0.37043">
        <ele>94.2</ele>
        <time>2023-08-26T08:26:53Z</time>
      </trkpt>
      <trkpt lat="44.92435" lon="0.37061">
        <ele>94.5</ele>
        <time>2023-08-26T08:26:58Z</time>
      </trkpt>
      <trkpt lat="44.92431" lon="0.37063">
        <ele>94.6</ele>
        <time>2023-08-26T08:26:59Z</time>
      </trkpt>
      <trkpt lat="44.92422" lon="0.37066">
        <ele>94.6</ele>
        <time>2023-08-26T08:27:01Z</time>
      </trkpt>
      <trkpt lat="44.92403" lon="0.37072">
        <ele>94.4</ele>
        <time>2023-08-26T08:27:05Z</time>
      </trkpt>
      <trkpt lat="44.92377" lon="0.3708">
        <ele>93.9</ele>
        <time>2023-08-26T08:27:10Z</time>
      </trkpt>
      <trkpt lat="44.92374" lon="0.37076">
        <ele>93.6</ele>
        <time>2023-08-26T08:27:12Z</time>
      </trkpt>
      <trkpt lat="44.92373" lon="0.37073">
        <ele>93.4</ele>
        <time>2023-08-26T08:27:13Z</time>
      </trkpt>
      <trkpt lat="44.92375" lon="0.37057">
        <ele>92.8</ele>
        <time>2023-08-26T08:27:16Z</time>
      </trkpt>
      <trkpt lat="44.92382" lon="0.37019">
        <ele>91.6</ele>
        <time>2023-08-26T08:27:21Z</time>
      </trkpt>
      <trkpt lat="44.92391" lon="0.36985">
        <ele>90.9</ele>
        <time>2023-08-26T08:27:25Z</time>
      </trkpt>
      <trkpt lat="44.92394" lon="0.36977">
        <ele>90.7</ele>
        <time>2023-08-26T08:27:26Z</time>
      </trkpt>
      <trkpt lat="44.92412" lon="0.36941">
        <ele>89.6</ele>
        <time>2023-08-26T08:27:31Z</time>
      </trkpt>
      <trkpt lat="44.92417" lon="0.36935">
        <ele>89.4</ele>
        <time>2023-08-26T08:27:32Z</time>
      </trkpt>
      <trkpt lat="44.92455" lon="0.36893">
        <ele>88.1</ele>
        <time>2023-08-26T08:27:39Z</time>
      </trkpt>
      <trkpt lat="44.92466" lon="0.36882">
        <ele>87.6</ele>
        <time>2023-08-26T08:27:41Z</time>
      </trkpt>
      <trkpt lat="44.92484" lon="0.36867">
        <ele>87</ele>
        <time>2023-08-26T08:27:44Z</time>
      </trkpt>
      <trkpt lat="44.92519" lon="0.36838">
        <ele>86.2</ele>
        <time>2023-08-26T08:27:50Z</time>
      </trkpt>
      <trkpt lat="44.92538" lon="0.36818">
        <ele>85.9</ele>
        <time>2023-08-26T08:27:54Z</time>
      </trkpt>
      <trkpt lat="44.92541" lon="0.36811">
        <ele>85.8</ele>
        <time>2023-08-26T08:27:55Z</time>
      </trkpt>
      <trkpt lat="44.92557" lon="0.36772">
        <ele>85.2</ele>
        <time>2023-08-26T08:28:00Z</time>
      </trkpt>
      <trkpt lat="44.9256" lon="0.36764">
        <ele>85.1</ele>
        <time>2023-08-26T08:28:01Z</time>
      </trkpt>
      <trkpt lat="44.92572" lon="0.36731">
        <ele>85</ele>
        <time>2023-08-26T08:28:05Z</time>
      </trkpt>
      <trkpt lat="44.92574" lon="0.36722">
        <ele>85</ele>
        <time>2023-08-26T08:28:06Z</time>
      </trkpt>
      <trkpt lat="44.92582" lon="0.36698">
        <ele>84.9</ele>
        <time>2023-08-26T08:28:09Z</time>
      </trkpt>
      <trkpt lat="44.92586" lon="0.36691">
        <ele>84.7</ele>
        <time>2023-08-26T08:28:10Z</time>
      </trkpt>
      <trkpt lat="44.92589" lon="0.36684">
        <ele>84.5</ele>
        <time>2023-08-26T08:28:11Z</time>
      </trkpt>
      <trkpt lat="44.92597" lon="0.36669">
        <ele>84.1</ele>
        <time>2023-08-26T08:28:13Z</time>
      </trkpt>
      <trkpt lat="44.92602" lon="0.36662">
        <ele>83.8</ele>
        <time>2023-08-26T08:28:14Z</time>
      </trkpt>
      <trkpt lat="44.92634" lon="0.36622">
        <ele>83.7</ele>
        <time>2023-08-26T08:28:20Z</time>
      </trkpt>
      <trkpt lat="44.92639" lon="0.36616">
        <ele>83.9</ele>
        <time>2023-08-26T08:28:21Z</time>
      </trkpt>
      <trkpt lat="44.92656" lon="0.36596">
        <ele>85.3</ele>
        <time>2023-08-26T08:28:25Z</time>
      </trkpt>
      <trkpt lat="44.92664" lon="0.36583">
        <ele>86.3</ele>
        <time>2023-08-26T08:28:29Z</time>
      </trkpt>
      <trkpt lat="44.92668" lon="0.36579">
        <ele>86.6</ele>
        <time>2023-08-26T08:28:31Z</time>
      </trkpt>
      <trkpt lat="44.92675" lon="0.36576">
        <ele>87.2</ele>
        <time>2023-08-26T08:28:34Z</time>
      </trkpt>
      <trkpt lat="44.92684" lon="0.36569">
        <ele>88</ele>
        <time>2023-08-26T08:28:38Z</time>
      </trkpt>
      <trkpt lat="44.92698" lon="0.3656">
        <ele>89.1</ele>
        <time>2023-08-26T08:28:44Z</time>
      </trkpt>
      <trkpt lat="44.92706" lon="0.36557">
        <ele>89.6</ele>
        <time>2023-08-26T08:28:47Z</time>
      </trkpt>
      <trkpt lat="44.92715" lon="0.36551">
        <ele>90.4</ele>
        <time>2023-08-26T08:28:51Z</time>
      </trkpt>
      <trkpt lat="44.92725" lon="0.36545">
        <ele>91.1</ele>
        <time>2023-08-26T08:28:55Z</time>
      </trkpt>
      <trkpt lat="44.92727" lon="0.36546">
        <ele>91.3</ele>
        <time>2023-08-26T08:28:56Z</time>
      </trkpt>
      <trkpt lat="44.92734" lon="0.36549">
        <ele>91.7</ele>
        <time>2023-08-26T08:28:59Z</time>
      </trkpt>
      <trkpt lat="44.92739" lon="0.36549">
        <ele>91.9</ele>
        <time>2023-08-26T08:29:01Z</time>
      </trkpt>
      <trkpt lat="44.92752" lon="0.36548">
        <ele>92.5</ele>
        <time>2023-08-26T08:29:06Z</time>
      </trkpt>
      <trkpt lat="44.92764" lon="0.3655">
        <ele>93.2</ele>
        <time>2023-08-26T08:29:11Z</time>
      </trkpt>
      <trkpt lat="44.92772" lon="0.36546">
        <ele>93.7</ele>
        <time>2023-08-26T08:29:15Z</time>
      </trkpt>
      <trkpt lat="44.92776" lon="0.36535">
        <ele>94.2</ele>
        <time>2023-08-26T08:29:19Z</time>
      </trkpt>
      <trkpt lat="44.92776" lon="0.36532">
        <ele>94.4</ele>
        <time>2023-08-26T08:29:20Z</time>
      </trkpt>
      <trkpt lat="44.92777" lon="0.36522">
        <ele>94.7</ele>
        <time>2023-08-26T08:29:23Z</time>
      </trkpt>
      <trkpt lat="44.92778" lon="0.36511">
        <ele>95</ele>
        <time>2023-08-26T08:29:26Z</time>
      </trkpt>
      <trkpt lat="44.92778" lon="0.36508">
        <ele>95</ele>
        <time>2023-08-26T08:29:27Z</time>
      </trkpt>
      <trkpt lat="44.92772" lon="0.3649">
        <ele>95</ele>
        <time>2023-08-26T08:29:31Z</time>
      </trkpt>
      <trkpt lat="44.92772" lon="0.36487">
        <ele>94.9</ele>
        <time>2023-08-26T08:29:32Z</time>
      </trkpt>
      <trkpt lat="44.92773" lon="0.36478">
        <ele>94.7</ele>
        <time>2023-08-26T08:29:34Z</time>
      </trkpt>
      <trkpt lat="44.92775" lon="0.36466">
        <ele>94.3</ele>
        <time>2023-08-26T08:29:36Z</time>
      </trkpt>
      <trkpt lat="44.92777" lon="0.36452">
        <ele>93.9</ele>
        <time>2023-08-26T08:29:38Z</time>
      </trkpt>
      <trkpt lat="44.92781" lon="0.36422">
        <ele>92.6</ele>
        <time>2023-08-26T08:29:42Z</time>
      </trkpt>
      <trkpt lat="44.92781" lon="0.36413">
        <ele>92.2</ele>
        <time>2023-08-26T08:29:43Z</time>
      </trkpt>
      <trkpt lat="44.9278" lon="0.36403">
        <ele>91.8</ele>
        <time>2023-08-26T08:29:44Z</time>
      </trkpt>
      <trkpt lat="44.92777" lon="0.36386">
        <ele>91.1</ele>
        <time>2023-08-26T08:29:46Z</time>
      </trkpt>
      <trkpt lat="44.92777" lon="0.36368">
        <ele>90.4</ele>
        <time>2023-08-26T08:29:48Z</time>
      </trkpt>
      <trkpt lat="44.9278" lon="0.36359">
        <ele>90</ele>
        <time>2023-08-26T08:29:49Z</time>
      </trkpt>
      <trkpt lat="44.92787" lon="0.36342">
        <ele>89.1</ele>
        <time>2023-08-26T08:29:51Z</time>
      </trkpt>
      <trkpt lat="44.92791" lon="0.36323">
        <ele>88.1</ele>
        <time>2023-08-26T08:29:53Z</time>
      </trkpt>
      <trkpt lat="44.92791" lon="0.36304">
        <ele>87.1</ele>
        <time>2023-08-26T08:29:55Z</time>
      </trkpt>
      <trkpt lat="44.9279" lon="0.36295">
        <ele>86.6</ele>
        <time>2023-08-26T08:29:56Z</time>
      </trkpt>
      <trkpt lat="44.92789" lon="0.36264">
        <ele>85.1</ele>
        <time>2023-08-26T08:29:59Z</time>
      </trkpt>
      <trkpt lat="44.92787" lon="0.36243">
        <ele>84.1</ele>
        <time>2023-08-26T08:30:01Z</time>
      </trkpt>
      <trkpt lat="44.92785" lon="0.36199">
        <ele>82.4</ele>
        <time>2023-08-26T08:30:05Z</time>
      </trkpt>
      <trkpt lat="44.92788" lon="0.36191">
        <ele>82.1</ele>
        <time>2023-08-26T08:30:06Z</time>
      </trkpt>
      <trkpt lat="44.92792" lon="0.36183">
        <ele>81.7</ele>
        <time>2023-08-26T08:30:07Z</time>
      </trkpt>
      <trkpt lat="44.92803" lon="0.36162">
        <ele>80.3</ele>
        <time>2023-08-26T08:30:10Z</time>
      </trkpt>
      <trkpt lat="44.92811" lon="0.36148">
        <ele>79.2</ele>
        <time>2023-08-26T08:30:12Z</time>
      </trkpt>
      <trkpt lat="44.92816" lon="0.3614">
        <ele>78.5</ele>
        <time>2023-08-26T08:30:13Z</time>
      </trkpt>
      <trkpt lat="44.92823" lon="0.36134">
        <ele>77.9</ele>
        <time>2023-08-26T08:30:14Z</time>
      </trkpt>
      <trkpt lat="44.92834" lon="0.36124">
        <ele>76.8</ele>
        <time>2023-08-26T08:30:16Z</time>
      </trkpt>
      <trkpt lat="44.92839" lon="0.36117">
        <ele>76.5</ele>
        <time>2023-08-26T08:30:17Z</time>
      </trkpt>
      <trkpt lat="44.92848" lon="0.36105">
        <ele>76.3</ele>
        <time>2023-08-26T08:30:19Z</time>
      </trkpt>
      <trkpt lat="44.9286" lon="0.36094">
        <ele>76.2</ele>
        <time>2023-08-26T08:30:22Z</time>
      </trkpt>
      <trkpt lat="44.92869" lon="0.36085">
        <ele>75.9</ele>
        <time>2023-08-26T08:30:25Z</time>
      </trkpt>
      <trkpt lat="44.92871" lon="0.36082">
        <ele>75.7</ele>
        <time>2023-08-26T08:30:26Z</time>
      </trkpt>
      <trkpt lat="44.92874" lon="0.36079">
        <ele>75.5</ele>
        <time>2023-08-26T08:30:27Z</time>
      </trkpt>
      <trkpt lat="44.92879" lon="0.3607">
        <ele>74.9</ele>
        <time>2023-08-26T08:30:29Z</time>
      </trkpt>
      <trkpt lat="44.9288" lon="0.36064">
        <ele>74.6</ele>
        <time>2023-08-26T08:30:30Z</time>
      </trkpt>
      <trkpt lat="44.92891" lon="0.36057">
        <ele>73.7</ele>
        <time>2023-08-26T08:30:32Z</time>
      </trkpt>
      <trkpt lat="44.92896" lon="0.36052">
        <ele>73.3</ele>
        <time>2023-08-26T08:30:33Z</time>
      </trkpt>
      <trkpt lat="44.92902" lon="0.36041">
        <ele>72.5</ele>
        <time>2023-08-26T08:30:35Z</time>
      </trkpt>
      <trkpt lat="44.92913" lon="0.36029">
        <ele>71.4</ele>
        <time>2023-08-26T08:30:38Z</time>
      </trkpt>
      <trkpt lat="44.92923" lon="0.36024">
        <ele>70.7</ele>
        <time>2023-08-26T08:30:40Z</time>
      </trkpt>
      <trkpt lat="44.92929" lon="0.36016">
        <ele>70.2</ele>
        <time>2023-08-26T08:30:42Z</time>
      </trkpt>
      <trkpt lat="44.92934" lon="0.35999">
        <ele>69.7</ele>
        <time>2023-08-26T08:30:47Z</time>
      </trkpt>
      <trkpt lat="44.9294" lon="0.35988">
        <ele>69.6</ele>
        <time>2023-08-26T08:30:51Z</time>
      </trkpt>
      <trkpt lat="44.9294" lon="0.35984">
        <ele>69.6</ele>
        <time>2023-08-26T08:30:52Z</time>
      </trkpt>
      <trkpt lat="44.92939" lon="0.35973">
        <ele>69.7</ele>
        <time>2023-08-26T08:30:56Z</time>
      </trkpt>
      <trkpt lat="44.92938" lon="0.35968">
        <ele>69.8</ele>
        <time>2023-08-26T08:30:58Z</time>
      </trkpt>
      <trkpt lat="44.92937" lon="0.35963">
        <ele>70</ele>
        <time>2023-08-26T08:31:00Z</time>
      </trkpt>
      <trkpt lat="44.92936" lon="0.3596">
        <ele>70.1</ele>
        <time>2023-08-26T08:31:01Z</time>
      </trkpt>
      <trkpt lat="44.92939" lon="0.35947">
        <ele>70.8</ele>
        <time>2023-08-26T08:31:06Z</time>
      </trkpt>
      <trkpt lat="44.92941" lon="0.35942">
        <ele>71.1</ele>
        <time>2023-08-26T08:31:08Z</time>
      </trkpt>
      <trkpt lat="44.92943" lon="0.3594">
        <ele>71.4</ele>
        <time>2023-08-26T08:31:10Z</time>
      </trkpt>
      <trkpt lat="44.92944" lon="0.35938">
        <ele>71.6</ele>
        <time>2023-08-26T08:31:12Z</time>
      </trkpt>
      <trkpt lat="44.92948" lon="0.35927">
        <ele>72.5</ele>
        <time>2023-08-26T08:31:17Z</time>
      </trkpt>
      <trkpt lat="44.92949" lon="0.35925">
        <ele>72.7</ele>
        <time>2023-08-26T08:31:18Z</time>
      </trkpt>
      <trkpt lat="44.9295" lon="0.35922">
        <ele>72.9</ele>
        <time>2023-08-26T08:31:19Z</time>
      </trkpt>
      <trkpt lat="44.92955" lon="0.35916">
        <ele>73.5</ele>
        <time>2023-08-26T08:31:23Z</time>
      </trkpt>
      <trkpt lat="44.92957" lon="0.35914">
        <ele>73.8</ele>
        <time>2023-08-26T08:31:24Z</time>
      </trkpt>
      <trkpt lat="44.92959" lon="0.35909">
        <ele>73.9</ele>
        <time>2023-08-26T08:31:26Z</time>
      </trkpt>
      <trkpt lat="44.92961" lon="0.35908">
        <ele>73.9</ele>
        <time>2023-08-26T08:31:27Z</time>
      </trkpt>
      <trkpt lat="44.92973" lon="0.35904">
        <ele>74.2</ele>
        <time>2023-08-26T08:31:33Z</time>
      </trkpt>
      <trkpt lat="44.92985" lon="0.35901">
        <ele>74.4</ele>
        <time>2023-08-26T08:31:39Z</time>
      </trkpt>
      <trkpt lat="44.92992" lon="0.35894">
        <ele>74.9</ele>
        <time>2023-08-26T08:31:43Z</time>
      </trkpt>
      <trkpt lat="44.92998" lon="0.35882">
        <ele>76.2</ele>
        <time>2023-08-26T08:31:50Z</time>
      </trkpt>
      <trkpt lat="44.92999" lon="0.35872">
        <ele>77.4</ele>
        <time>2023-08-26T08:31:55Z</time>
      </trkpt>
      <trkpt lat="44.93005" lon="0.35856">
        <ele>79.3</ele>
        <time>2023-08-26T08:32:04Z</time>
      </trkpt>
      <trkpt lat="44.93008" lon="0.35846">
        <ele>80.4</ele>
        <time>2023-08-26T08:32:09Z</time>
      </trkpt>
      <trkpt lat="44.93011" lon="0.35839">
        <ele>81.2</ele>
        <time>2023-08-26T08:32:13Z</time>
      </trkpt>
      <trkpt lat="44.93013" lon="0.35828">
        <ele>82.3</ele>
        <time>2023-08-26T08:32:19Z</time>
      </trkpt>
      <trkpt lat="44.93018" lon="0.35813">
        <ele>83.7</ele>
        <time>2023-08-26T08:32:27Z</time>
      </trkpt>
      <trkpt lat="44.93022" lon="0.35804">
        <ele>84.4</ele>
        <time>2023-08-26T08:32:32Z</time>
      </trkpt>
      <trkpt lat="44.93027" lon="0.35792">
        <ele>85.4</ele>
        <time>2023-08-26T08:32:38Z</time>
      </trkpt>
      <trkpt lat="44.9303" lon="0.35781">
        <ele>86.1</ele>
        <time>2023-08-26T08:32:43Z</time>
      </trkpt>
      <trkpt lat="44.93034" lon="0.35765">
        <ele>87</ele>
        <time>2023-08-26T08:32:49Z</time>
      </trkpt>
      <trkpt lat="44.93039" lon="0.35752">
        <ele>87.9</ele>
        <time>2023-08-26T08:32:55Z</time>
      </trkpt>
      <trkpt lat="44.9304" lon="0.35747">
        <ele>88.2</ele>
        <time>2023-08-26T08:32:57Z</time>
      </trkpt>
      <trkpt lat="44.93043" lon="0.35739">
        <ele>88.8</ele>
        <time>2023-08-26T08:33:00Z</time>
      </trkpt>
      <trkpt lat="44.93048" lon="0.35725">
        <ele>89.8</ele>
        <time>2023-08-26T08:33:06Z</time>
      </trkpt>
      <trkpt lat="44.93053" lon="0.35711">
        <ele>90.9</ele>
        <time>2023-08-26T08:33:12Z</time>
      </trkpt>
      <trkpt lat="44.93057" lon="0.357">
        <ele>91.8</ele>
        <time>2023-08-26T08:33:17Z</time>
      </trkpt>
      <trkpt lat="44.9306" lon="0.35687">
        <ele>92.8</ele>
        <time>2023-08-26T08:33:22Z</time>
      </trkpt>
      <trkpt lat="44.93066" lon="0.35673">
        <ele>93.9</ele>
        <time>2023-08-26T08:33:28Z</time>
      </trkpt>
      <trkpt lat="44.9307" lon="0.35664">
        <ele>94.6</ele>
        <time>2023-08-26T08:33:32Z</time>
      </trkpt>
      <trkpt lat="44.93072" lon="0.35662">
        <ele>94.8</ele>
        <time>2023-08-26T08:33:33Z</time>
      </trkpt>
      <trkpt lat="44.93078" lon="0.35649">
        <ele>95.7</ele>
        <time>2023-08-26T08:33:39Z</time>
      </trkpt>
      <trkpt lat="44.9308" lon="0.35643">
        <ele>96.1</ele>
        <time>2023-08-26T08:33:41Z</time>
      </trkpt>
      <trkpt lat="44.93084" lon="0.35638">
        <ele>96.5</ele>
        <time>2023-08-26T08:33:44Z</time>
      </trkpt>
      <trkpt lat="44.93086" lon="0.35637">
        <ele>96.6</ele>
        <time>2023-08-26T08:33:45Z</time>
      </trkpt>
      <trkpt lat="44.9309" lon="0.35631">
        <ele>97</ele>
        <time>2023-08-26T08:33:48Z</time>
      </trkpt>
      <trkpt lat="44.93096" lon="0.3562">
        <ele>97.7</ele>
        <time>2023-08-26T08:33:53Z</time>
      </trkpt>
      <trkpt lat="44.93104" lon="0.35606">
        <ele>98.4</ele>
        <time>2023-08-26T08:34:00Z</time>
      </trkpt>
      <trkpt lat="44.93106" lon="0.35605">
        <ele>98.4</ele>
        <time>2023-08-26T08:34:01Z</time>
      </trkpt>
      <trkpt lat="44.9311" lon="0.35599">
        <ele>98.7</ele>
        <time>2023-08-26T08:34:04Z</time>
      </trkpt>
      <trkpt lat="44.93118" lon="0.35587">
        <ele>99.2</ele>
        <time>2023-08-26T08:34:09Z</time>
      </trkpt>
      <trkpt lat="44.93119" lon="0.35585">
        <ele>99.2</ele>
        <time>2023-08-26T08:34:10Z</time>
      </trkpt>
      <trkpt lat="44.93121" lon="0.3558">
        <ele>99.4</ele>
        <time>2023-08-26T08:34:12Z</time>
      </trkpt>
      <trkpt lat="44.93122" lon="0.35578">
        <ele>99.4</ele>
        <time>2023-08-26T08:34:13Z</time>
      </trkpt>
      <trkpt lat="44.93123" lon="0.35575">
        <ele>99.7</ele>
        <time>2023-08-26T08:34:14Z</time>
      </trkpt>
      <trkpt lat="44.9312" lon="0.35568">
        <ele>99.8</ele>
        <time>2023-08-26T08:34:17Z</time>
      </trkpt>
      <trkpt lat="44.93109" lon="0.35561">
        <ele>99.5</ele>
        <time>2023-08-26T08:34:22Z</time>
      </trkpt>
      <trkpt lat="44.93085" lon="0.35544">
        <ele>97.7</ele>
        <time>2023-08-26T08:34:29Z</time>
      </trkpt>
      <trkpt lat="44.93072" lon="0.35534">
        <ele>96</ele>
        <time>2023-08-26T08:34:32Z</time>
      </trkpt>
      <trkpt lat="44.93065" lon="0.35533">
        <ele>95.2</ele>
        <time>2023-08-26T08:34:34Z</time>
      </trkpt>
      <trkpt lat="44.93056" lon="0.35547">
        <ele>93.7</ele>
        <time>2023-08-26T08:34:37Z</time>
      </trkpt>
      <trkpt lat="44.93052" lon="0.3556">
        <ele>92.6</ele>
        <time>2023-08-26T08:34:39Z</time>
      </trkpt>
      <trkpt lat="44.93047" lon="0.35567">
        <ele>91.9</ele>
        <time>2023-08-26T08:34:41Z</time>
      </trkpt>
      <trkpt lat="44.93044" lon="0.35569">
        <ele>91.6</ele>
        <time>2023-08-26T08:34:42Z</time>
      </trkpt>
      <trkpt lat="44.93035" lon="0.35566">
        <ele>91.1</ele>
        <time>2023-08-26T08:34:44Z</time>
      </trkpt>
      <trkpt lat="44.93031" lon="0.35563">
        <ele>90.8</ele>
        <time>2023-08-26T08:34:45Z</time>
      </trkpt>
      <trkpt lat="44.93013" lon="0.35549">
        <ele>89.8</ele>
        <time>2023-08-26T08:34:49Z</time>
      </trkpt>
      <trkpt lat="44.93002" lon="0.35543">
        <ele>89.3</ele>
        <time>2023-08-26T08:34:51Z</time>
      </trkpt>
      <trkpt lat="44.92987" lon="0.35531">
        <ele>88.9</ele>
        <time>2023-08-26T08:34:54Z</time>
      </trkpt>
      <trkpt lat="44.92982" lon="0.35527">
        <ele>88.8</ele>
        <time>2023-08-26T08:34:55Z</time>
      </trkpt>
      <trkpt lat="44.92974" lon="0.35518">
        <ele>88.8</ele>
        <time>2023-08-26T08:34:57Z</time>
      </trkpt>
      <trkpt lat="44.92969" lon="0.35515">
        <ele>88.8</ele>
        <time>2023-08-26T08:34:58Z</time>
      </trkpt>
      <trkpt lat="44.92964" lon="0.35513">
        <ele>88.8</ele>
        <time>2023-08-26T08:34:59Z</time>
      </trkpt>
      <trkpt lat="44.92948" lon="0.35498">
        <ele>88.3</ele>
        <time>2023-08-26T08:35:03Z</time>
      </trkpt>
      <trkpt lat="44.92924" lon="0.3548">
        <ele>88.2</ele>
        <time>2023-08-26T08:35:08Z</time>
      </trkpt>
      <trkpt lat="44.9292" lon="0.35476">
        <ele>88.3</ele>
        <time>2023-08-26T08:35:09Z</time>
      </trkpt>
      <trkpt lat="44.92916" lon="0.35472">
        <ele>88.3</ele>
        <time>2023-08-26T08:35:10Z</time>
      </trkpt>
      <trkpt lat="44.92913" lon="0.35467">
        <ele>88.4</ele>
        <time>2023-08-26T08:35:11Z</time>
      </trkpt>
      <trkpt lat="44.92905" lon="0.35454">
        <ele>88.5</ele>
        <time>2023-08-26T08:35:14Z</time>
      </trkpt>
      <trkpt lat="44.92904" lon="0.35449">
        <ele>88.5</ele>
        <time>2023-08-26T08:35:15Z</time>
      </trkpt>
      <trkpt lat="44.929" lon="0.35432">
        <ele>88.2</ele>
        <time>2023-08-26T08:35:18Z</time>
      </trkpt>
      <trkpt lat="44.92897" lon="0.35426">
        <ele>88.1</ele>
        <time>2023-08-26T08:35:19Z</time>
      </trkpt>
      <trkpt lat="44.92891" lon="0.35417">
        <ele>87.8</ele>
        <time>2023-08-26T08:35:21Z</time>
      </trkpt>
      <trkpt lat="44.92889" lon="0.35413">
        <ele>87.6</ele>
        <time>2023-08-26T08:35:22Z</time>
      </trkpt>
      <trkpt lat="44.92885" lon="0.35408">
        <ele>87.4</ele>
        <time>2023-08-26T08:35:23Z</time>
      </trkpt>
      <trkpt lat="44.92874" lon="0.3539">
        <ele>86.4</ele>
        <time>2023-08-26T08:35:26Z</time>
      </trkpt>
      <trkpt lat="44.92859" lon="0.3537">
        <ele>84.6</ele>
        <time>2023-08-26T08:35:29Z</time>
      </trkpt>
      <trkpt lat="44.92848" lon="0.35359">
        <ele>82.8</ele>
        <time>2023-08-26T08:35:31Z</time>
      </trkpt>
      <trkpt lat="44.92827" lon="0.35339">
        <ele>78.8</ele>
        <time>2023-08-26T08:35:34Z</time>
      </trkpt>
      <trkpt lat="44.92819" lon="0.35331">
        <ele>77.5</ele>
        <time>2023-08-26T08:35:35Z</time>
      </trkpt>
      <trkpt lat="44.92813" lon="0.35321">
        <ele>76.4</ele>
        <time>2023-08-26T08:35:36Z</time>
      </trkpt>
      <trkpt lat="44.92805" lon="0.35307">
        <ele>74.9</ele>
        <time>2023-08-26T08:35:38Z</time>
      </trkpt>
      <trkpt lat="44.92802" lon="0.35284">
        <ele>72.9</ele>
        <time>2023-08-26T08:35:41Z</time>
      </trkpt>
      <trkpt lat="44.928" lon="0.35277">
        <ele>72.1</ele>
        <time>2023-08-26T08:35:42Z</time>
      </trkpt>
      <trkpt lat="44.92796" lon="0.35271">
        <ele>71.5</ele>
        <time>2023-08-26T08:35:43Z</time>
      </trkpt>
      <trkpt lat="44.92787" lon="0.3526">
        <ele>70</ele>
        <time>2023-08-26T08:35:45Z</time>
      </trkpt>
      <trkpt lat="44.92766" lon="0.35245">
        <ele>67.4</ele>
        <time>2023-08-26T08:35:49Z</time>
      </trkpt>
      <trkpt lat="44.92749" lon="0.35239">
        <ele>66.3</ele>
        <time>2023-08-26T08:35:52Z</time>
      </trkpt>
      <trkpt lat="44.9274" lon="0.35238">
        <ele>66</ele>
        <time>2023-08-26T08:35:55Z</time>
      </trkpt>
      <trkpt lat="44.92738" lon="0.35236">
        <ele>66</ele>
        <time>2023-08-26T08:35:56Z</time>
      </trkpt>
      <trkpt lat="44.9273" lon="0.3523">
        <ele>65.9</ele>
        <time>2023-08-26T08:36:01Z</time>
      </trkpt>
      <trkpt lat="44.92727" lon="0.35232">
        <ele>65.9</ele>
        <time>2023-08-26T08:36:04Z</time>
      </trkpt>
      <trkpt lat="44.92721" lon="0.35236">
        <ele>66.1</ele>
        <time>2023-08-26T08:36:06Z</time>
      </trkpt>
      <trkpt lat="44.92709" lon="0.35244">
        <ele>66.9</ele>
        <time>2023-08-26T08:36:11Z</time>
      </trkpt>
      <trkpt lat="44.92701" lon="0.35243">
        <ele>67.7</ele>
        <time>2023-08-26T08:36:15Z</time>
      </trkpt>
      <trkpt lat="44.92699" lon="0.35243">
        <ele>67.9</ele>
        <time>2023-08-26T08:36:16Z</time>
      </trkpt>
      <trkpt lat="44.92692" lon="0.35237">
        <ele>68.8</ele>
        <time>2023-08-26T08:36:21Z</time>
      </trkpt>
      <trkpt lat="44.92688" lon="0.35234">
        <ele>69.3</ele>
        <time>2023-08-26T08:36:23Z</time>
      </trkpt>
      <trkpt lat="44.92684" lon="0.3523">
        <ele>69.7</ele>
        <time>2023-08-26T08:36:25Z</time>
      </trkpt>
      <trkpt lat="44.92681" lon="0.35225">
        <ele>70.1</ele>
        <time>2023-08-26T08:36:27Z</time>
      </trkpt>
      <trkpt lat="44.92679" lon="0.35221">
        <ele>70.4</ele>
        <time>2023-08-26T08:36:28Z</time>
      </trkpt>
      <trkpt lat="44.92675" lon="0.35216">
        <ele>70.9</ele>
        <time>2023-08-26T08:36:30Z</time>
      </trkpt>
      <trkpt lat="44.92672" lon="0.35211">
        <ele>71.2</ele>
        <time>2023-08-26T08:36:32Z</time>
      </trkpt>
      <trkpt lat="44.92669" lon="0.35207">
        <ele>71.7</ele>
        <time>2023-08-26T08:36:35Z</time>
      </trkpt>
      <trkpt lat="44.92666" lon="0.35201">
        <ele>72.2</ele>
        <time>2023-08-26T08:36:37Z</time>
      </trkpt>
      <trkpt lat="44.92655" lon="0.35196">
        <ele>73.5</ele>
        <time>2023-08-26T08:36:43Z</time>
      </trkpt>
      <trkpt lat="44.92652" lon="0.35192">
        <ele>74</ele>
        <time>2023-08-26T08:36:45Z</time>
      </trkpt>
      <trkpt lat="44.9265" lon="0.35189">
        <ele>74.4</ele>
        <time>2023-08-26T08:36:47Z</time>
      </trkpt>
      <trkpt lat="44.92647" lon="0.35187">
        <ele>74.7</ele>
        <time>2023-08-26T08:36:49Z</time>
      </trkpt>
      <trkpt lat="44.92641" lon="0.35182">
        <ele>75.4</ele>
        <time>2023-08-26T08:36:53Z</time>
      </trkpt>
      <trkpt lat="44.92634" lon="0.35177">
        <ele>76</ele>
        <time>2023-08-26T08:36:58Z</time>
      </trkpt>
      <trkpt lat="44.9263" lon="0.35174">
        <ele>76.4</ele>
        <time>2023-08-26T08:37:00Z</time>
      </trkpt>
      <trkpt lat="44.92628" lon="0.35171">
        <ele>76.7</ele>
        <time>2023-08-26T08:37:01Z</time>
      </trkpt>
      <trkpt lat="44.92626" lon="0.35171">
        <ele>76.8</ele>
        <time>2023-08-26T08:37:02Z</time>
      </trkpt>
      <trkpt lat="44.92621" lon="0.35169">
        <ele>77.2</ele>
        <time>2023-08-26T08:37:04Z</time>
      </trkpt>
      <trkpt lat="44.92617" lon="0.35169">
        <ele>77.5</ele>
        <time>2023-08-26T08:37:06Z</time>
      </trkpt>
      <trkpt lat="44.92614" lon="0.35168">
        <ele>77.8</ele>
        <time>2023-08-26T08:37:07Z</time>
      </trkpt>
      <trkpt lat="44.92606" lon="0.35167">
        <ele>78.4</ele>
        <time>2023-08-26T08:37:10Z</time>
      </trkpt>
      <trkpt lat="44.92604" lon="0.35166">
        <ele>78.7</ele>
        <time>2023-08-26T08:37:11Z</time>
      </trkpt>
      <trkpt lat="44.92593" lon="0.35164">
        <ele>79.7</ele>
        <time>2023-08-26T08:37:16Z</time>
      </trkpt>
      <trkpt lat="44.92586" lon="0.3516">
        <ele>80.3</ele>
        <time>2023-08-26T08:37:19Z</time>
      </trkpt>
      <trkpt lat="44.92584" lon="0.35159">
        <ele>80.5</ele>
        <time>2023-08-26T08:37:20Z</time>
      </trkpt>
      <trkpt lat="44.92576" lon="0.35156">
        <ele>81.4</ele>
        <time>2023-08-26T08:37:25Z</time>
      </trkpt>
      <trkpt lat="44.92566" lon="0.35148">
        <ele>82.5</ele>
        <time>2023-08-26T08:37:30Z</time>
      </trkpt>
      <trkpt lat="44.92558" lon="0.35144">
        <ele>83.3</ele>
        <time>2023-08-26T08:37:34Z</time>
      </trkpt>
      <trkpt lat="44.92556" lon="0.35142">
        <ele>83.5</ele>
        <time>2023-08-26T08:37:35Z</time>
      </trkpt>
      <trkpt lat="44.9255" lon="0.35142">
        <ele>84.1</ele>
        <time>2023-08-26T08:37:38Z</time>
      </trkpt>
      <trkpt lat="44.92545" lon="0.35142">
        <ele>84.5</ele>
        <time>2023-08-26T08:37:40Z</time>
      </trkpt>
      <trkpt lat="44.92543" lon="0.35142">
        <ele>84.7</ele>
        <time>2023-08-26T08:37:41Z</time>
      </trkpt>
      <trkpt lat="44.92536" lon="0.35141">
        <ele>85.3</ele>
        <time>2023-08-26T08:37:44Z</time>
      </trkpt>
      <trkpt lat="44.92528" lon="0.35141">
        <ele>86.1</ele>
        <time>2023-08-26T08:37:48Z</time>
      </trkpt>
      <trkpt lat="44.92518" lon="0.35139">
        <ele>86.7</ele>
        <time>2023-08-26T08:37:53Z</time>
      </trkpt>
      <trkpt lat="44.92509" lon="0.35139">
        <ele>87.1</ele>
        <time>2023-08-26T08:37:57Z</time>
      </trkpt>
      <trkpt lat="44.92507" lon="0.35139">
        <ele>87.2</ele>
        <time>2023-08-26T08:37:58Z</time>
      </trkpt>
      <trkpt lat="44.92497" lon="0.35138">
        <ele>87.5</ele>
        <time>2023-08-26T08:38:03Z</time>
      </trkpt>
      <trkpt lat="44.92494" lon="0.35138">
        <ele>87.6</ele>
        <time>2023-08-26T08:38:04Z</time>
      </trkpt>
      <trkpt lat="44.92482" lon="0.35138">
        <ele>87.8</ele>
        <time>2023-08-26T08:38:10Z</time>
      </trkpt>
      <trkpt lat="44.92466" lon="0.35129">
        <ele>88</ele>
        <time>2023-08-26T08:38:17Z</time>
      </trkpt>
      <trkpt lat="44.92447" lon="0.35113">
        <ele>88.1</ele>
        <time>2023-08-26T08:38:26Z</time>
      </trkpt>
      <trkpt lat="44.9243" lon="0.35097">
        <ele>88.3</ele>
        <time>2023-08-26T08:38:33Z</time>
      </trkpt>
      <trkpt lat="44.92425" lon="0.35092">
        <ele>88.4</ele>
        <time>2023-08-26T08:38:35Z</time>
      </trkpt>
      <trkpt lat="44.92406" lon="0.3507">
        <ele>89.1</ele>
        <time>2023-08-26T08:38:44Z</time>
      </trkpt>
      <trkpt lat="44.9239" lon="0.35051">
        <ele>89.6</ele>
        <time>2023-08-26T08:38:52Z</time>
      </trkpt>
      <trkpt lat="44.92376" lon="0.35035">
        <ele>90</ele>
        <time>2023-08-26T08:38:59Z</time>
      </trkpt>
      <trkpt lat="44.92354" lon="0.35012">
        <ele>90.6</ele>
        <time>2023-08-26T08:39:09Z</time>
      </trkpt>
      <trkpt lat="44.92336" lon="0.34994">
        <ele>91.4</ele>
        <time>2023-08-26T08:39:17Z</time>
      </trkpt>
      <trkpt lat="44.92318" lon="0.34976">
        <ele>92.2</ele>
        <time>2023-08-26T08:39:25Z</time>
      </trkpt>
      <trkpt lat="44.92302" lon="0.3496">
        <ele>93.1</ele>
        <time>2023-08-26T08:39:33Z</time>
      </trkpt>
      <trkpt lat="44.9229" lon="0.34949">
        <ele>93.9</ele>
        <time>2023-08-26T08:39:39Z</time>
      </trkpt>
      <trkpt lat="44.92286" lon="0.34945">
        <ele>94.2</ele>
        <time>2023-08-26T08:39:41Z</time>
      </trkpt>
      <trkpt lat="44.9227" lon="0.34927">
        <ele>95.6</ele>
        <time>2023-08-26T08:39:50Z</time>
      </trkpt>
      <trkpt lat="44.92255" lon="0.34909">
        <ele>96.8</ele>
        <time>2023-08-26T08:39:58Z</time>
      </trkpt>
      <trkpt lat="44.92241" lon="0.34899">
        <ele>97.9</ele>
        <time>2023-08-26T08:40:05Z</time>
      </trkpt>
      <trkpt lat="44.92225" lon="0.34901">
        <ele>99</ele>
        <time>2023-08-26T08:40:12Z</time>
      </trkpt>
      <trkpt lat="44.92213" lon="0.34906">
        <ele>100</ele>
        <time>2023-08-26T08:40:19Z</time>
      </trkpt>
      <trkpt lat="44.922" lon="0.34904">
        <ele>100.5</ele>
        <time>2023-08-26T08:40:26Z</time>
      </trkpt>
      <trkpt lat="44.92188" lon="0.34906">
        <ele>100.5</ele>
        <time>2023-08-26T08:40:32Z</time>
      </trkpt>
      <trkpt lat="44.92176" lon="0.3491">
        <ele>100.5</ele>
        <time>2023-08-26T08:40:39Z</time>
      </trkpt>
      <trkpt lat="44.92161" lon="0.34916">
        <ele>100.6</ele>
        <time>2023-08-26T08:40:46Z</time>
      </trkpt>
      <trkpt lat="44.92139" lon="0.34927">
        <ele>100.8</ele>
        <time>2023-08-26T08:40:55Z</time>
      </trkpt>
      <trkpt lat="44.92116" lon="0.34935">
        <ele>101.2</ele>
        <time>2023-08-26T08:41:03Z</time>
      </trkpt>
      <trkpt lat="44.92104" lon="0.34942">
        <ele>101.4</ele>
        <time>2023-08-26T08:41:07Z</time>
      </trkpt>
      <trkpt lat="44.92096" lon="0.34945">
        <ele>101.5</ele>
        <time>2023-08-26T08:41:10Z</time>
      </trkpt>
      <trkpt lat="44.92076" lon="0.34947">
        <ele>101.7</ele>
        <time>2023-08-26T08:41:16Z</time>
      </trkpt>
      <trkpt lat="44.92058" lon="0.34949">
        <ele>101.6</ele>
        <time>2023-08-26T08:41:21Z</time>
      </trkpt>
      <trkpt lat="44.92054" lon="0.34949">
        <ele>101.5</ele>
        <time>2023-08-26T08:41:22Z</time>
      </trkpt>
      <trkpt lat="44.92023" lon="0.34951">
        <ele>101.6</ele>
        <time>2023-08-26T08:41:29Z</time>
      </trkpt>
      <trkpt lat="44.92019" lon="0.34952">
        <ele>101.6</ele>
        <time>2023-08-26T08:41:30Z</time>
      </trkpt>
      <trkpt lat="44.92002" lon="0.34957">
        <ele>101.6</ele>
        <time>2023-08-26T08:41:34Z</time>
      </trkpt>
      <trkpt lat="44.91989" lon="0.3496">
        <ele>101.2</ele>
        <time>2023-08-26T08:41:37Z</time>
      </trkpt>
      <trkpt lat="44.9198" lon="0.34963">
        <ele>100.7</ele>
        <time>2023-08-26T08:41:39Z</time>
      </trkpt>
      <trkpt lat="44.91959" lon="0.34971">
        <ele>99</ele>
        <time>2023-08-26T08:41:43Z</time>
      </trkpt>
      <trkpt lat="44.91924" lon="0.34987">
        <ele>94.7</ele>
        <time>2023-08-26T08:41:48Z</time>
      </trkpt>
      <trkpt lat="44.91896" lon="0.35004">
        <ele>90.2</ele>
        <time>2023-08-26T08:41:52Z</time>
      </trkpt>
      <trkpt lat="44.91881" lon="0.35005">
        <ele>88.1</ele>
        <time>2023-08-26T08:41:54Z</time>
      </trkpt>
      <trkpt lat="44.91873" lon="0.35003">
        <ele>86.8</ele>
        <time>2023-08-26T08:41:55Z</time>
      </trkpt>
      <trkpt lat="44.91832" lon="0.34991">
        <ele>81.2</ele>
        <time>2023-08-26T08:42:00Z</time>
      </trkpt>
      <trkpt lat="44.91798" lon="0.34993">
        <ele>76.7</ele>
        <time>2023-08-26T08:42:04Z</time>
      </trkpt>
      <trkpt lat="44.91789" lon="0.34995">
        <ele>75.6</ele>
        <time>2023-08-26T08:42:05Z</time>
      </trkpt>
      <trkpt lat="44.91743" lon="0.35004">
        <ele>73.5</ele>
        <time>2023-08-26T08:42:10Z</time>
      </trkpt>
      <trkpt lat="44.91727" lon="0.35009">
        <ele>75.4</ele>
        <time>2023-08-26T08:42:12Z</time>
      </trkpt>
      <trkpt lat="44.91722" lon="0.35011">
        <ele>76.2</ele>
        <time>2023-08-26T08:42:13Z</time>
      </trkpt>
      <trkpt lat="44.91714" lon="0.35015">
        <ele>77.4</ele>
        <time>2023-08-26T08:42:15Z</time>
      </trkpt>
      <trkpt lat="44.91711" lon="0.35017">
        <ele>77.8</ele>
        <time>2023-08-26T08:42:16Z</time>
      </trkpt>
      <trkpt lat="44.91708" lon="0.35017">
        <ele>78.2</ele>
        <time>2023-08-26T08:42:17Z</time>
      </trkpt>
      <trkpt lat="44.91703" lon="0.35019">
        <ele>78.9</ele>
        <time>2023-08-26T08:42:19Z</time>
      </trkpt>
      <trkpt lat="44.91694" lon="0.35024">
        <ele>80</ele>
        <time>2023-08-26T08:42:23Z</time>
      </trkpt>
      <trkpt lat="44.91677" lon="0.35034">
        <ele>81</ele>
        <time>2023-08-26T08:42:30Z</time>
      </trkpt>
      <trkpt lat="44.91664" lon="0.35041">
        <ele>81.5</ele>
        <time>2023-08-26T08:42:35Z</time>
      </trkpt>
      <trkpt lat="44.91659" lon="0.35044">
        <ele>81.8</ele>
        <time>2023-08-26T08:42:37Z</time>
      </trkpt>
      <trkpt lat="44.91654" lon="0.35047">
        <ele>82</ele>
        <time>2023-08-26T08:42:39Z</time>
      </trkpt>
      <trkpt lat="44.9165" lon="0.3505">
        <ele>82.3</ele>
        <time>2023-08-26T08:42:41Z</time>
      </trkpt>
      <trkpt lat="44.9164" lon="0.35057">
        <ele>82.8</ele>
        <time>2023-08-26T08:42:45Z</time>
      </trkpt>
      <trkpt lat="44.91631" lon="0.35065">
        <ele>83.4</ele>
        <time>2023-08-26T08:42:49Z</time>
      </trkpt>
      <trkpt lat="44.91613" lon="0.35082">
        <ele>84.4</ele>
        <time>2023-08-26T08:42:57Z</time>
      </trkpt>
      <trkpt lat="44.916" lon="0.35094">
        <ele>85.1</ele>
        <time>2023-08-26T08:43:03Z</time>
      </trkpt>
      <trkpt lat="44.91596" lon="0.35098">
        <ele>85.3</ele>
        <time>2023-08-26T08:43:05Z</time>
      </trkpt>
      <trkpt lat="44.91582" lon="0.35108">
        <ele>86</ele>
        <time>2023-08-26T08:43:11Z</time>
      </trkpt>
      <trkpt lat="44.91559" lon="0.35112">
        <ele>87</ele>
        <time>2023-08-26T08:43:19Z</time>
      </trkpt>
      <trkpt lat="44.9153" lon="0.35114">
        <ele>87.2</ele>
        <time>2023-08-26T08:43:29Z</time>
      </trkpt>
      <trkpt lat="44.9151" lon="0.35119">
        <ele>86.2</ele>
        <time>2023-08-26T08:43:35Z</time>
      </trkpt>
      <trkpt lat="44.91484" lon="0.35124">
        <ele>83.9</ele>
        <time>2023-08-26T08:43:40Z</time>
      </trkpt>
      <trkpt lat="44.91447" lon="0.35126">
        <ele>80.2</ele>
        <time>2023-08-26T08:43:45Z</time>
      </trkpt>
      <trkpt lat="44.91413" lon="0.3512">
        <ele>76.4</ele>
        <time>2023-08-26T08:43:49Z</time>
      </trkpt>
      <trkpt lat="44.91376" lon="0.3511">
        <ele>71.9</ele>
        <time>2023-08-26T08:43:54Z</time>
      </trkpt>
      <trkpt lat="44.91368" lon="0.35107">
        <ele>70.8</ele>
        <time>2023-08-26T08:43:55Z</time>
      </trkpt>
      <trkpt lat="44.91329" lon="0.35088">
        <ele>66.6</ele>
        <time>2023-08-26T08:43:59Z</time>
      </trkpt>
      <trkpt lat="44.9131" lon="0.3508">
        <ele>67</ele>
        <time>2023-08-26T08:44:01Z</time>
      </trkpt>
      <trkpt lat="44.91302" lon="0.35077">
        <ele>67.8</ele>
        <time>2023-08-26T08:44:02Z</time>
      </trkpt>
      <trkpt lat="44.91289" lon="0.3507">
        <ele>69.8</ele>
        <time>2023-08-26T08:44:05Z</time>
      </trkpt>
      <trkpt lat="44.91283" lon="0.35067">
        <ele>70.8</ele>
        <time>2023-08-26T08:44:09Z</time>
      </trkpt>
      <trkpt lat="44.91282" lon="0.35066">
        <ele>71.1</ele>
        <time>2023-08-26T08:44:10Z</time>
      </trkpt>
      <trkpt lat="44.91277" lon="0.35062">
        <ele>71.9</ele>
        <time>2023-08-26T08:44:13Z</time>
      </trkpt>
      <trkpt lat="44.91274" lon="0.35059">
        <ele>72.5</ele>
        <time>2023-08-26T08:44:15Z</time>
      </trkpt>
      <trkpt lat="44.91273" lon="0.35058">
        <ele>72.7</ele>
        <time>2023-08-26T08:44:16Z</time>
      </trkpt>
      <trkpt lat="44.91261" lon="0.3505">
        <ele>74.5</ele>
        <time>2023-08-26T08:44:23Z</time>
      </trkpt>
      <trkpt lat="44.9125" lon="0.35044">
        <ele>76.2</ele>
        <time>2023-08-26T08:44:29Z</time>
      </trkpt>
      <trkpt lat="44.91237" lon="0.35046">
        <ele>77.9</ele>
        <time>2023-08-26T08:44:36Z</time>
      </trkpt>
      <trkpt lat="44.91224" lon="0.35048">
        <ele>79.4</ele>
        <time>2023-08-26T08:44:43Z</time>
      </trkpt>
      <trkpt lat="44.9121" lon="0.35053">
        <ele>80.9</ele>
        <time>2023-08-26T08:44:52Z</time>
      </trkpt>
      <trkpt lat="44.91196" lon="0.35053">
        <ele>82.1</ele>
        <time>2023-08-26T08:44:59Z</time>
      </trkpt>
      <trkpt lat="44.91183" lon="0.3505">
        <ele>83.2</ele>
        <time>2023-08-26T08:45:06Z</time>
      </trkpt>
      <trkpt lat="44.91173" lon="0.35047">
        <ele>83.9</ele>
        <time>2023-08-26T08:45:11Z</time>
      </trkpt>
      <trkpt lat="44.91171" lon="0.35047">
        <ele>84</ele>
        <time>2023-08-26T08:45:12Z</time>
      </trkpt>
      <trkpt lat="44.91156" lon="0.35045">
        <ele>84.9</ele>
        <time>2023-08-26T08:45:19Z</time>
      </trkpt>
      <trkpt lat="44.91137" lon="0.3504">
        <ele>85.7</ele>
        <time>2023-08-26T08:45:27Z</time>
      </trkpt>
      <trkpt lat="44.91121" lon="0.35034">
        <ele>86.5</ele>
        <time>2023-08-26T08:45:35Z</time>
      </trkpt>
      <trkpt lat="44.91108" lon="0.3503">
        <ele>87.2</ele>
        <time>2023-08-26T08:45:41Z</time>
      </trkpt>
      <trkpt lat="44.911" lon="0.35033">
        <ele>88.1</ele>
        <time>2023-08-26T08:45:45Z</time>
      </trkpt>
      <trkpt lat="44.91094" lon="0.35049">
        <ele>89</ele>
        <time>2023-08-26T08:45:51Z</time>
      </trkpt>
      <trkpt lat="44.91086" lon="0.35069">
        <ele>90.4</ele>
        <time>2023-08-26T08:45:58Z</time>
      </trkpt>
      <trkpt lat="44.91082" lon="0.35082">
        <ele>91</ele>
        <time>2023-08-26T08:46:03Z</time>
      </trkpt>
      <trkpt lat="44.91079" lon="0.35092">
        <ele>91.3</ele>
        <time>2023-08-26T08:46:06Z</time>
      </trkpt>
      <trkpt lat="44.91071" lon="0.35118">
        <ele>90.5</ele>
        <time>2023-08-26T08:46:13Z</time>
      </trkpt>
      <trkpt lat="44.91062" lon="0.35143">
        <ele>88.1</ele>
        <time>2023-08-26T08:46:17Z</time>
      </trkpt>
      <trkpt lat="44.91057" lon="0.35161">
        <ele>86.3</ele>
        <time>2023-08-26T08:46:19Z</time>
      </trkpt>
      <trkpt lat="44.91051" lon="0.35181">
        <ele>84.3</ele>
        <time>2023-08-26T08:46:21Z</time>
      </trkpt>
      <trkpt lat="44.91036" lon="0.35224">
        <ele>75.4</ele>
        <time>2023-08-26T08:46:25Z</time>
      </trkpt>
      <trkpt lat="44.91024" lon="0.35246">
        <ele>71.8</ele>
        <time>2023-08-26T08:46:27Z</time>
      </trkpt>
      <trkpt lat="44.91017" lon="0.35257">
        <ele>71.7</ele>
        <time>2023-08-26T08:46:28Z</time>
      </trkpt>
      <trkpt lat="44.91004" lon="0.35276">
        <ele>73.6</ele>
        <time>2023-08-26T08:46:30Z</time>
      </trkpt>
      <trkpt lat="44.90999" lon="0.35285">
        <ele>74.8</ele>
        <time>2023-08-26T08:46:31Z</time>
      </trkpt>
      <trkpt lat="44.90991" lon="0.35304">
        <ele>77.1</ele>
        <time>2023-08-26T08:46:34Z</time>
      </trkpt>
      <trkpt lat="44.90982" lon="0.35322">
        <ele>78.9</ele>
        <time>2023-08-26T08:46:39Z</time>
      </trkpt>
      <trkpt lat="44.9098" lon="0.35325">
        <ele>79.1</ele>
        <time>2023-08-26T08:46:40Z</time>
      </trkpt>
      <trkpt lat="44.90976" lon="0.35335">
        <ele>79.8</ele>
        <time>2023-08-26T08:46:43Z</time>
      </trkpt>
      <trkpt lat="44.90974" lon="0.35339">
        <ele>79.9</ele>
        <time>2023-08-26T08:46:44Z</time>
      </trkpt>
      <trkpt lat="44.90971" lon="0.35363">
        <ele>80.6</ele>
        <time>2023-08-26T08:46:49Z</time>
      </trkpt>
      <trkpt lat="44.9097" lon="0.35373">
        <ele>80.9</ele>
        <time>2023-08-26T08:46:51Z</time>
      </trkpt>
      <trkpt lat="44.90967" lon="0.35406">
        <ele>81.8</ele>
        <time>2023-08-26T08:46:58Z</time>
      </trkpt>
      <trkpt lat="44.90962" lon="0.35447">
        <ele>83.7</ele>
        <time>2023-08-26T08:47:07Z</time>
      </trkpt>
      <trkpt lat="44.90959" lon="0.35476">
        <ele>85.3</ele>
        <time>2023-08-26T08:47:14Z</time>
      </trkpt>
      <trkpt lat="44.90954" lon="0.35505">
        <ele>87</ele>
        <time>2023-08-26T08:47:21Z</time>
      </trkpt>
      <trkpt lat="44.9095" lon="0.35539">
        <ele>88.6</ele>
        <time>2023-08-26T08:47:30Z</time>
      </trkpt>
      <trkpt lat="44.90946" lon="0.35561">
        <ele>89.1</ele>
        <time>2023-08-26T08:47:35Z</time>
      </trkpt>
      <trkpt lat="44.90945" lon="0.35574">
        <ele>89.1</ele>
        <time>2023-08-26T08:47:38Z</time>
      </trkpt>
      <trkpt lat="44.90939" lon="0.35609">
        <ele>88.7</ele>
        <time>2023-08-26T08:47:45Z</time>
      </trkpt>
      <trkpt lat="44.90936" lon="0.35642">
        <ele>87.7</ele>
        <time>2023-08-26T08:47:50Z</time>
      </trkpt>
      <trkpt lat="44.9093" lon="0.35688">
        <ele>86</ele>
        <time>2023-08-26T08:47:56Z</time>
      </trkpt>
      <trkpt lat="44.90924" lon="0.35742">
        <ele>84.2</ele>
        <time>2023-08-26T08:48:03Z</time>
      </trkpt>
      <trkpt lat="44.90922" lon="0.35761">
        <ele>84</ele>
        <time>2023-08-26T08:48:06Z</time>
      </trkpt>
      <trkpt lat="44.90921" lon="0.35767">
        <ele>84</ele>
        <time>2023-08-26T08:48:07Z</time>
      </trkpt>
      <trkpt lat="44.90919" lon="0.35794">
        <ele>84.3</ele>
        <time>2023-08-26T08:48:11Z</time>
      </trkpt>
      <trkpt lat="44.90918" lon="0.35809">
        <ele>84.5</ele>
        <time>2023-08-26T08:48:13Z</time>
      </trkpt>
      <trkpt lat="44.90917" lon="0.35839">
        <ele>85.5</ele>
        <time>2023-08-26T08:48:17Z</time>
      </trkpt>
      <trkpt lat="44.90917" lon="0.35845">
        <ele>85.8</ele>
        <time>2023-08-26T08:48:18Z</time>
      </trkpt>
      <trkpt lat="44.90914" lon="0.3588">
        <ele>87.9</ele>
        <time>2023-08-26T08:48:24Z</time>
      </trkpt>
      <trkpt lat="44.90911" lon="0.3591">
        <ele>89.4</ele>
        <time>2023-08-26T08:48:30Z</time>
      </trkpt>
      <trkpt lat="44.9091" lon="0.35925">
        <ele>89.8</ele>
        <time>2023-08-26T08:48:33Z</time>
      </trkpt>
      <trkpt lat="44.90909" lon="0.35936">
        <ele>90</ele>
        <time>2023-08-26T08:48:35Z</time>
      </trkpt>
      <trkpt lat="44.90908" lon="0.35947">
        <ele>90</ele>
        <time>2023-08-26T08:48:37Z</time>
      </trkpt>
      <trkpt lat="44.90907" lon="0.35963">
        <ele>89.9</ele>
        <time>2023-08-26T08:48:40Z</time>
      </trkpt>
      <trkpt lat="44.90907" lon="0.35982">
        <ele>89.7</ele>
        <time>2023-08-26T08:48:43Z</time>
      </trkpt>
      <trkpt lat="44.90907" lon="0.36003">
        <ele>89.3</ele>
        <time>2023-08-26T08:48:46Z</time>
      </trkpt>
      <trkpt lat="44.90906" lon="0.36027">
        <ele>88.9</ele>
        <time>2023-08-26T08:48:49Z</time>
      </trkpt>
      <trkpt lat="44.90905" lon="0.3605">
        <ele>88.4</ele>
        <time>2023-08-26T08:48:52Z</time>
      </trkpt>
      <trkpt lat="44.90901" lon="0.36099">
        <ele>87.9</ele>
        <time>2023-08-26T08:48:58Z</time>
      </trkpt>
      <trkpt lat="44.90896" lon="0.36149">
        <ele>87.1</ele>
        <time>2023-08-26T08:49:04Z</time>
      </trkpt>
      <trkpt lat="44.90896" lon="0.36158">
        <ele>86.9</ele>
        <time>2023-08-26T08:49:05Z</time>
      </trkpt>
      <trkpt lat="44.90893" lon="0.36215">
        <ele>85.7</ele>
        <time>2023-08-26T08:49:11Z</time>
      </trkpt>
      <trkpt lat="44.90891" lon="0.36278">
        <ele>83.5</ele>
        <time>2023-08-26T08:49:17Z</time>
      </trkpt>
      <trkpt lat="44.90891" lon="0.36289">
        <ele>83.1</ele>
        <time>2023-08-26T08:49:18Z</time>
      </trkpt>
      <trkpt lat="44.90889" lon="0.36341">
        <ele>81.7</ele>
        <time>2023-08-26T08:49:23Z</time>
      </trkpt>
      <trkpt lat="44.90888" lon="0.36348">
        <ele>81.5</ele>
        <time>2023-08-26T08:49:24Z</time>
      </trkpt>
      <trkpt lat="44.90882" lon="0.36361">
        <ele>80.8</ele>
        <time>2023-08-26T08:49:26Z</time>
      </trkpt>
      <trkpt lat="44.9087" lon="0.36371">
        <ele>79.7</ele>
        <time>2023-08-26T08:49:28Z</time>
      </trkpt>
      <trkpt lat="44.90864" lon="0.36374">
        <ele>79.1</ele>
        <time>2023-08-26T08:49:29Z</time>
      </trkpt>
      <trkpt lat="44.90835" lon="0.36386">
        <ele>76.9</ele>
        <time>2023-08-26T08:49:33Z</time>
      </trkpt>
      <trkpt lat="44.9082" lon="0.36393">
        <ele>75.7</ele>
        <time>2023-08-26T08:49:35Z</time>
      </trkpt>
      <trkpt lat="44.90803" lon="0.36399">
        <ele>74</ele>
        <time>2023-08-26T08:49:37Z</time>
      </trkpt>
      <trkpt lat="44.90784" lon="0.36405">
        <ele>71.5</ele>
        <time>2023-08-26T08:49:39Z</time>
      </trkpt>
      <trkpt lat="44.90743" lon="0.36422">
        <ele>67</ele>
        <time>2023-08-26T08:49:43Z</time>
      </trkpt>
      <trkpt lat="44.90719" lon="0.36434">
        <ele>66.6</ele>
        <time>2023-08-26T08:49:46Z</time>
      </trkpt>
      <trkpt lat="44.90709" lon="0.3644">
        <ele>67</ele>
        <time>2023-08-26T08:49:48Z</time>
      </trkpt>
      <trkpt lat="44.90706" lon="0.36439">
        <ele>67.1</ele>
        <time>2023-08-26T08:49:49Z</time>
      </trkpt>
      <trkpt lat="44.90702" lon="0.36432">
        <ele>67.3</ele>
        <time>2023-08-26T08:49:51Z</time>
      </trkpt>
      <trkpt lat="44.90702" lon="0.36427">
        <ele>67.4</ele>
        <time>2023-08-26T08:49:52Z</time>
      </trkpt>
      <trkpt lat="44.907" lon="0.36415">
        <ele>67.8</ele>
        <time>2023-08-26T08:49:55Z</time>
      </trkpt>
      <trkpt lat="44.90697" lon="0.36406">
        <ele>68.1</ele>
        <time>2023-08-26T08:49:57Z</time>
      </trkpt>
      <trkpt lat="44.90683" lon="0.36374">
        <ele>69.2</ele>
        <time>2023-08-26T08:50:05Z</time>
      </trkpt>
      <trkpt lat="44.90672" lon="0.36364">
        <ele>69.8</ele>
        <time>2023-08-26T08:50:10Z</time>
      </trkpt>
      <trkpt lat="44.90662" lon="0.36353">
        <ele>70.4</ele>
        <time>2023-08-26T08:50:15Z</time>
      </trkpt>
      <trkpt lat="44.90654" lon="0.3633">
        <ele>71.2</ele>
        <time>2023-08-26T08:50:22Z</time>
      </trkpt>
      <trkpt lat="44.90645" lon="0.36303">
        <ele>72</ele>
        <time>2023-08-26T08:50:30Z</time>
      </trkpt>
      <trkpt lat="44.90636" lon="0.3627">
        <ele>73</ele>
        <time>2023-08-26T08:50:39Z</time>
      </trkpt>
      <trkpt lat="44.90632" lon="0.36255">
        <ele>73.5</ele>
        <time>2023-08-26T08:50:43Z</time>
      </trkpt>
      <trkpt lat="44.90631" lon="0.36247">
        <ele>73.7</ele>
        <time>2023-08-26T08:50:45Z</time>
      </trkpt>
      <trkpt lat="44.9063" lon="0.36244">
        <ele>73.8</ele>
        <time>2023-08-26T08:50:46Z</time>
      </trkpt>
      <trkpt lat="44.9063" lon="0.3624">
        <ele>73.9</ele>
        <time>2023-08-26T08:50:47Z</time>
      </trkpt>
      <trkpt lat="44.90629" lon="0.3623">
        <ele>74.2</ele>
        <time>2023-08-26T08:50:50Z</time>
      </trkpt>
      <trkpt lat="44.90629" lon="0.362">
        <ele>75.2</ele>
        <time>2023-08-26T08:50:57Z</time>
      </trkpt>
      <trkpt lat="44.90631" lon="0.36161">
        <ele>76.8</ele>
        <time>2023-08-26T08:51:06Z</time>
      </trkpt>
      <trkpt lat="44.90631" lon="0.3612">
        <ele>78.6</ele>
        <time>2023-08-26T08:51:16Z</time>
      </trkpt>
      <trkpt lat="44.9063" lon="0.36112">
        <ele>79</ele>
        <time>2023-08-26T08:51:18Z</time>
      </trkpt>
      <trkpt lat="44.90627" lon="0.36091">
        <ele>80</ele>
        <time>2023-08-26T08:51:23Z</time>
      </trkpt>
      <trkpt lat="44.90626" lon="0.36068">
        <ele>81</ele>
        <time>2023-08-26T08:51:29Z</time>
      </trkpt>
      <trkpt lat="44.90628" lon="0.36045">
        <ele>82.1</ele>
        <time>2023-08-26T08:51:35Z</time>
      </trkpt>
      <trkpt lat="44.90631" lon="0.36024">
        <ele>83</ele>
        <time>2023-08-26T08:51:41Z</time>
      </trkpt>
      <trkpt lat="44.90629" lon="0.36003">
        <ele>84</ele>
        <time>2023-08-26T08:51:47Z</time>
      </trkpt>
      <trkpt lat="44.90621" lon="0.35991">
        <ele>84.7</ele>
        <time>2023-08-26T08:51:52Z</time>
      </trkpt>
      <trkpt lat="44.90606" lon="0.3598">
        <ele>85.6</ele>
        <time>2023-08-26T08:51:59Z</time>
      </trkpt>
      <trkpt lat="44.90597" lon="0.35975">
        <ele>86.2</ele>
        <time>2023-08-26T08:52:03Z</time>
      </trkpt>
      <trkpt lat="44.90594" lon="0.35974">
        <ele>86.3</ele>
        <time>2023-08-26T08:52:04Z</time>
      </trkpt>
      <trkpt lat="44.90581" lon="0.35971">
        <ele>87</ele>
        <time>2023-08-26T08:52:09Z</time>
      </trkpt>
      <trkpt lat="44.90563" lon="0.35963">
        <ele>88</ele>
        <time>2023-08-26T08:52:17Z</time>
      </trkpt>
      <trkpt lat="44.90547" lon="0.35957">
        <ele>89</ele>
        <time>2023-08-26T08:52:24Z</time>
      </trkpt>
      <trkpt lat="44.90533" lon="0.35946">
        <ele>89.9</ele>
        <time>2023-08-26T08:52:30Z</time>
      </trkpt>
      <trkpt lat="44.90519" lon="0.35926">
        <ele>91</ele>
        <time>2023-08-26T08:52:37Z</time>
      </trkpt>
      <trkpt lat="44.90505" lon="0.35897">
        <ele>92.4</ele>
        <time>2023-08-26T08:52:47Z</time>
      </trkpt>
      <trkpt lat="44.90499" lon="0.35877">
        <ele>93.3</ele>
        <time>2023-08-26T08:52:53Z</time>
      </trkpt>
      <trkpt lat="44.90498" lon="0.35872">
        <ele>93.5</ele>
        <time>2023-08-26T08:52:55Z</time>
      </trkpt>
      <trkpt lat="44.90496" lon="0.35854">
        <ele>94.2</ele>
        <time>2023-08-26T08:53:00Z</time>
      </trkpt>
      <trkpt lat="44.90495" lon="0.35842">
        <ele>94.8</ele>
        <time>2023-08-26T08:53:04Z</time>
      </trkpt>
      <trkpt lat="44.90492" lon="0.35838">
        <ele>95.4</ele>
        <time>2023-08-26T08:53:06Z</time>
      </trkpt>
      <trkpt lat="44.90482" lon="0.35835">
        <ele>97.1</ele>
        <time>2023-08-26T08:53:12Z</time>
      </trkpt>
      <trkpt lat="44.90471" lon="0.35831">
        <ele>99</ele>
        <time>2023-08-26T08:53:20Z</time>
      </trkpt>
      <trkpt lat="44.90464" lon="0.35828">
        <ele>100.4</ele>
        <time>2023-08-26T08:53:25Z</time>
      </trkpt>
      <trkpt lat="44.90463" lon="0.35827">
        <ele>100.6</ele>
        <time>2023-08-26T08:53:26Z</time>
      </trkpt>
      <trkpt lat="44.90462" lon="0.35827">
        <ele>100.8</ele>
        <time>2023-08-26T08:53:27Z</time>
      </trkpt>
      <trkpt lat="44.90461" lon="0.35826">
        <ele>101</ele>
        <time>2023-08-26T08:53:28Z</time>
      </trkpt>
      <trkpt lat="44.90453" lon="0.3582">
        <ele>102.6</ele>
        <time>2023-08-26T08:53:34Z</time>
      </trkpt>
      <trkpt lat="44.9045" lon="0.35818">
        <ele>103.2</ele>
        <time>2023-08-26T08:53:37Z</time>
      </trkpt>
      <trkpt lat="44.90447" lon="0.35816">
        <ele>103.8</ele>
        <time>2023-08-26T08:53:39Z</time>
      </trkpt>
      <trkpt lat="44.90445" lon="0.35815">
        <ele>104.2</ele>
        <time>2023-08-26T08:53:41Z</time>
      </trkpt>
      <trkpt lat="44.90439" lon="0.35811">
        <ele>105.3</ele>
        <time>2023-08-26T08:53:45Z</time>
      </trkpt>
      <trkpt lat="44.9043" lon="0.35804">
        <ele>106.8</ele>
        <time>2023-08-26T08:53:52Z</time>
      </trkpt>
      <trkpt lat="44.90426" lon="0.35801">
        <ele>107.1</ele>
        <time>2023-08-26T08:53:55Z</time>
      </trkpt>
      <trkpt lat="44.90423" lon="0.35799">
        <ele>107.2</ele>
        <time>2023-08-26T08:53:57Z</time>
      </trkpt>
      <trkpt lat="44.9042" lon="0.35795">
        <ele>107.2</ele>
        <time>2023-08-26T08:54:00Z</time>
      </trkpt>
      <trkpt lat="44.90412" lon="0.35787">
        <ele>107.2</ele>
        <time>2023-08-26T08:54:06Z</time>
      </trkpt>
      <trkpt lat="44.90399" lon="0.35776">
        <ele>106.6</ele>
        <time>2023-08-26T08:54:12Z</time>
      </trkpt>
      <trkpt lat="44.9039" lon="0.3577">
        <ele>106.1</ele>
        <time>2023-08-26T08:54:15Z</time>
      </trkpt>
      <trkpt lat="44.90377" lon="0.35762">
        <ele>105.6</ele>
        <time>2023-08-26T08:54:18Z</time>
      </trkpt>
      <trkpt lat="44.90373" lon="0.3576">
        <ele>105.4</ele>
        <time>2023-08-26T08:54:19Z</time>
      </trkpt>
      <trkpt lat="44.90358" lon="0.35751">
        <ele>104.9</ele>
        <time>2023-08-26T08:54:22Z</time>
      </trkpt>
      <trkpt lat="44.90353" lon="0.35748">
        <ele>104.8</ele>
        <time>2023-08-26T08:54:23Z</time>
      </trkpt>
      <trkpt lat="44.90334" lon="0.35732">
        <ele>104.4</ele>
        <time>2023-08-26T08:54:27Z</time>
      </trkpt>
      <trkpt lat="44.90329" lon="0.3573">
        <ele>104.4</ele>
        <time>2023-08-26T08:54:28Z</time>
      </trkpt>
      <trkpt lat="44.90324" lon="0.35729">
        <ele>104.4</ele>
        <time>2023-08-26T08:54:29Z</time>
      </trkpt>
      <trkpt lat="44.90315" lon="0.35732">
        <ele>104.4</ele>
        <time>2023-08-26T08:54:31Z</time>
      </trkpt>
      <trkpt lat="44.90302" lon="0.35745">
        <ele>104.4</ele>
        <time>2023-08-26T08:54:35Z</time>
      </trkpt>
      <trkpt lat="44.90291" lon="0.35764">
        <ele>104</ele>
        <time>2023-08-26T08:54:40Z</time>
      </trkpt>
      <trkpt lat="44.90288" lon="0.35768">
        <ele>103.9</ele>
        <time>2023-08-26T08:54:41Z</time>
      </trkpt>
      <trkpt lat="44.90282" lon="0.35779">
        <ele>103.6</ele>
        <time>2023-08-26T08:54:43Z</time>
      </trkpt>
      <trkpt lat="44.90265" lon="0.35807">
        <ele>102.6</ele>
        <time>2023-08-26T08:54:48Z</time>
      </trkpt>
      <trkpt lat="44.90262" lon="0.35813">
        <ele>102.4</ele>
        <time>2023-08-26T08:54:49Z</time>
      </trkpt>
      <trkpt lat="44.90255" lon="0.35828">
        <ele>102</ele>
        <time>2023-08-26T08:54:51Z</time>
      </trkpt>
      <trkpt lat="44.90251" lon="0.35835">
        <ele>101.8</ele>
        <time>2023-08-26T08:54:52Z</time>
      </trkpt>
      <trkpt lat="44.90248" lon="0.35843">
        <ele>101.6</ele>
        <time>2023-08-26T08:54:53Z</time>
      </trkpt>
      <trkpt lat="44.90238" lon="0.35866">
        <ele>101.1</ele>
        <time>2023-08-26T08:54:56Z</time>
      </trkpt>
      <trkpt lat="44.90229" lon="0.35882">
        <ele>100.6</ele>
        <time>2023-08-26T08:54:58Z</time>
      </trkpt>
      <trkpt lat="44.90209" lon="0.35908">
        <ele>98.9</ele>
        <time>2023-08-26T08:55:02Z</time>
      </trkpt>
      <trkpt lat="44.90204" lon="0.35913">
        <ele>98.4</ele>
        <time>2023-08-26T08:55:03Z</time>
      </trkpt>
      <trkpt lat="44.90193" lon="0.35926">
        <ele>97.5</ele>
        <time>2023-08-26T08:55:05Z</time>
      </trkpt>
      <trkpt lat="44.90182" lon="0.35939">
        <ele>96.7</ele>
        <time>2023-08-26T08:55:07Z</time>
      </trkpt>
      <trkpt lat="44.90164" lon="0.35959">
        <ele>95.8</ele>
        <time>2023-08-26T08:55:10Z</time>
      </trkpt>
      <trkpt lat="44.90145" lon="0.35975">
        <ele>95.4</ele>
        <time>2023-08-26T08:55:13Z</time>
      </trkpt>
      <trkpt lat="44.90111" lon="0.35996">
        <ele>95.2</ele>
        <time>2023-08-26T08:55:19Z</time>
      </trkpt>
      <trkpt lat="44.90077" lon="0.36017">
        <ele>93.9</ele>
        <time>2023-08-26T08:55:25Z</time>
      </trkpt>
      <trkpt lat="44.90071" lon="0.36021">
        <ele>93.6</ele>
        <time>2023-08-26T08:55:26Z</time>
      </trkpt>
      <trkpt lat="44.90039" lon="0.36044">
        <ele>92</ele>
        <time>2023-08-26T08:55:31Z</time>
      </trkpt>
      <trkpt lat="44.90034" lon="0.3605">
        <ele>91.7</ele>
        <time>2023-08-26T08:55:32Z</time>
      </trkpt>
      <trkpt lat="44.9003" lon="0.36058">
        <ele>91.3</ele>
        <time>2023-08-26T08:55:33Z</time>
      </trkpt>
      <trkpt lat="44.90022" lon="0.3607">
        <ele>91.2</ele>
        <time>2023-08-26T08:55:35Z</time>
      </trkpt>
      <trkpt lat="44.90009" lon="0.36087">
        <ele>90.9</ele>
        <time>2023-08-26T08:55:38Z</time>
      </trkpt>
      <trkpt lat="44.90005" lon="0.3609">
        <ele>90.7</ele>
        <time>2023-08-26T08:55:39Z</time>
      </trkpt>
      <trkpt lat="44.89994" lon="0.36096">
        <ele>90.4</ele>
        <time>2023-08-26T08:55:41Z</time>
      </trkpt>
      <trkpt lat="44.89983" lon="0.36104">
        <ele>90.3</ele>
        <time>2023-08-26T08:55:43Z</time>
      </trkpt>
      <trkpt lat="44.89963" lon="0.36121">
        <ele>90.5</ele>
        <time>2023-08-26T08:55:47Z</time>
      </trkpt>
      <trkpt lat="44.89958" lon="0.36125">
        <ele>90.5</ele>
        <time>2023-08-26T08:55:48Z</time>
      </trkpt>
      <trkpt lat="44.89949" lon="0.36137">
        <ele>90.4</ele>
        <time>2023-08-26T08:55:50Z</time>
      </trkpt>
      <trkpt lat="44.89944" lon="0.36143">
        <ele>90.4</ele>
        <time>2023-08-26T08:55:51Z</time>
      </trkpt>
      <trkpt lat="44.8993" lon="0.3615">
        <ele>90.4</ele>
        <time>2023-08-26T08:55:53Z</time>
      </trkpt>
      <trkpt lat="44.89915" lon="0.36155">
        <ele>90.2</ele>
        <time>2023-08-26T08:55:55Z</time>
      </trkpt>
      <trkpt lat="44.89909" lon="0.3616">
        <ele>90.1</ele>
        <time>2023-08-26T08:55:56Z</time>
      </trkpt>
      <trkpt lat="44.89899" lon="0.36167">
        <ele>89.8</ele>
        <time>2023-08-26T08:55:58Z</time>
      </trkpt>
      <trkpt lat="44.89889" lon="0.36168">
        <ele>88.5</ele>
        <time>2023-08-26T08:56:00Z</time>
      </trkpt>
      <trkpt lat="44.89875" lon="0.36168">
        <ele>86.6</ele>
        <time>2023-08-26T08:56:02Z</time>
      </trkpt>
      <trkpt lat="44.8986" lon="0.36171">
        <ele>84.3</ele>
        <time>2023-08-26T08:56:04Z</time>
      </trkpt>
      <trkpt lat="44.89846" lon="0.3618">
        <ele>82.4</ele>
        <time>2023-08-26T08:56:06Z</time>
      </trkpt>
      <trkpt lat="44.89841" lon="0.36186">
        <ele>81.9</ele>
        <time>2023-08-26T08:56:07Z</time>
      </trkpt>
      <trkpt lat="44.89825" lon="0.36209">
        <ele>81.1</ele>
        <time>2023-08-26T08:56:10Z</time>
      </trkpt>
      <trkpt lat="44.89819" lon="0.36216">
        <ele>80.4</ele>
        <time>2023-08-26T08:56:11Z</time>
      </trkpt>
      <trkpt lat="44.89814" lon="0.36224">
        <ele>79.9</ele>
        <time>2023-08-26T08:56:12Z</time>
      </trkpt>
      <trkpt lat="44.89811" lon="0.36233">
        <ele>80.1</ele>
        <time>2023-08-26T08:56:13Z</time>
      </trkpt>
      <trkpt lat="44.89807" lon="0.36264">
        <ele>79.4</ele>
        <time>2023-08-26T08:56:16Z</time>
      </trkpt>
      <trkpt lat="44.89797" lon="0.36284">
        <ele>78.3</ele>
        <time>2023-08-26T08:56:19Z</time>
      </trkpt>
      <trkpt lat="44.89794" lon="0.36292">
        <ele>77.9</ele>
        <time>2023-08-26T08:56:20Z</time>
      </trkpt>
      <trkpt lat="44.89791" lon="0.363">
        <ele>77.4</ele>
        <time>2023-08-26T08:56:21Z</time>
      </trkpt>
      <trkpt lat="44.8978" lon="0.36322">
        <ele>74.6</ele>
        <time>2023-08-26T08:56:24Z</time>
      </trkpt>
      <trkpt lat="44.89769" lon="0.36338">
        <ele>72.1</ele>
        <time>2023-08-26T08:56:26Z</time>
      </trkpt>
      <trkpt lat="44.8976" lon="0.36358">
        <ele>69.3</ele>
        <time>2023-08-26T08:56:28Z</time>
      </trkpt>
      <trkpt lat="44.89757" lon="0.36369">
        <ele>68.3</ele>
        <time>2023-08-26T08:56:29Z</time>
      </trkpt>
      <trkpt lat="44.89745" lon="0.364">
        <ele>64.9</ele>
        <time>2023-08-26T08:56:32Z</time>
      </trkpt>
      <trkpt lat="44.89733" lon="0.36413">
        <ele>62.7</ele>
        <time>2023-08-26T08:56:34Z</time>
      </trkpt>
      <trkpt lat="44.89729" lon="0.36421">
        <ele>62.1</ele>
        <time>2023-08-26T08:56:35Z</time>
      </trkpt>
      <trkpt lat="44.89726" lon="0.36428">
        <ele>61.5</ele>
        <time>2023-08-26T08:56:36Z</time>
      </trkpt>
      <trkpt lat="44.89718" lon="0.36457">
        <ele>59.3</ele>
        <time>2023-08-26T08:56:39Z</time>
      </trkpt>
      <trkpt lat="44.897" lon="0.3648">
        <ele>57.3</ele>
        <time>2023-08-26T08:56:42Z</time>
      </trkpt>
      <trkpt lat="44.89689" lon="0.36499">
        <ele>56.7</ele>
        <time>2023-08-26T08:56:44Z</time>
      </trkpt>
      <trkpt lat="44.89677" lon="0.36518">
        <ele>56.2</ele>
        <time>2023-08-26T08:56:46Z</time>
      </trkpt>
      <trkpt lat="44.89668" lon="0.36547">
        <ele>55.6</ele>
        <time>2023-08-26T08:56:49Z</time>
      </trkpt>
      <trkpt lat="44.89662" lon="0.36566">
        <ele>55</ele>
        <time>2023-08-26T08:56:51Z</time>
      </trkpt>
      <trkpt lat="44.8966" lon="0.36575">
        <ele>54.7</ele>
        <time>2023-08-26T08:56:52Z</time>
      </trkpt>
      <trkpt lat="44.8966" lon="0.36587">
        <ele>54.2</ele>
        <time>2023-08-26T08:56:53Z</time>
      </trkpt>
      <trkpt lat="44.89655" lon="0.3661">
        <ele>53.4</ele>
        <time>2023-08-26T08:56:55Z</time>
      </trkpt>
      <trkpt lat="44.89653" lon="0.36619">
        <ele>53</ele>
        <time>2023-08-26T08:56:56Z</time>
      </trkpt>
      <trkpt lat="44.89653" lon="0.36628">
        <ele>52.6</ele>
        <time>2023-08-26T08:56:57Z</time>
      </trkpt>
      <trkpt lat="44.89655" lon="0.36635">
        <ele>52.3</ele>
        <time>2023-08-26T08:56:58Z</time>
      </trkpt>
      <trkpt lat="44.89659" lon="0.3665">
        <ele>51.9</ele>
        <time>2023-08-26T08:57:00Z</time>
      </trkpt>
      <trkpt lat="44.89662" lon="0.36658">
        <ele>51.6</ele>
        <time>2023-08-26T08:57:01Z</time>
      </trkpt>
      <trkpt lat="44.89663" lon="0.36671">
        <ele>51.3</ele>
        <time>2023-08-26T08:57:03Z</time>
      </trkpt>
      <trkpt lat="44.89663" lon="0.3668">
        <ele>50.9</ele>
        <time>2023-08-26T08:57:05Z</time>
      </trkpt>
      <trkpt lat="44.89662" lon="0.36688">
        <ele>50.7</ele>
        <time>2023-08-26T08:57:07Z</time>
      </trkpt>
      <trkpt lat="44.89657" lon="0.367">
        <ele>50.2</ele>
        <time>2023-08-26T08:57:10Z</time>
      </trkpt>
      <trkpt lat="44.89646" lon="0.36722">
        <ele>49.7</ele>
        <time>2023-08-26T08:57:14Z</time>
      </trkpt>
      <trkpt lat="44.89644" lon="0.36728">
        <ele>49.5</ele>
        <time>2023-08-26T08:57:15Z</time>
      </trkpt>
      <trkpt lat="44.89645" lon="0.36741">
        <ele>49.3</ele>
        <time>2023-08-26T08:57:17Z</time>
      </trkpt>
      <trkpt lat="44.89645" lon="0.36748">
        <ele>49.2</ele>
        <time>2023-08-26T08:57:18Z</time>
      </trkpt>
      <trkpt lat="44.89644" lon="0.36754">
        <ele>49</ele>
        <time>2023-08-26T08:57:19Z</time>
      </trkpt>
      <trkpt lat="44.89638" lon="0.36766">
        <ele>48.9</ele>
        <time>2023-08-26T08:57:21Z</time>
      </trkpt>
      <trkpt lat="44.89635" lon="0.36779">
        <ele>48.9</ele>
        <time>2023-08-26T08:57:23Z</time>
      </trkpt>
      <trkpt lat="44.89633" lon="0.36786">
        <ele>48.9</ele>
        <time>2023-08-26T08:57:24Z</time>
      </trkpt>
      <trkpt lat="44.89632" lon="0.36793">
        <ele>48.9</ele>
        <time>2023-08-26T08:57:25Z</time>
      </trkpt>
      <trkpt lat="44.89631" lon="0.36814">
        <ele>49.1</ele>
        <time>2023-08-26T08:57:28Z</time>
      </trkpt>
      <trkpt lat="44.89632" lon="0.36851">
        <ele>49.9</ele>
        <time>2023-08-26T08:57:33Z</time>
      </trkpt>
      <trkpt lat="44.89637" lon="0.3688">
        <ele>50.6</ele>
        <time>2023-08-26T08:57:37Z</time>
      </trkpt>
      <trkpt lat="44.89634" lon="0.36905">
        <ele>50.6</ele>
        <time>2023-08-26T08:57:40Z</time>
      </trkpt>
      <trkpt lat="44.89612" lon="0.36944">
        <ele>48.6</ele>
        <time>2023-08-26T08:57:45Z</time>
      </trkpt>
      <trkpt lat="44.896" lon="0.36963">
        <ele>47.3</ele>
        <time>2023-08-26T08:57:48Z</time>
      </trkpt>
      <trkpt lat="44.89588" lon="0.36985">
        <ele>46.2</ele>
        <time>2023-08-26T08:57:51Z</time>
      </trkpt>
      <trkpt lat="44.89584" lon="0.36991">
        <ele>46</ele>
        <time>2023-08-26T08:57:52Z</time>
      </trkpt>
      <trkpt lat="44.8958" lon="0.36997">
        <ele>45.8</ele>
        <time>2023-08-26T08:57:53Z</time>
      </trkpt>
      <trkpt lat="44.89569" lon="0.37018">
        <ele>45</ele>
        <time>2023-08-26T08:57:56Z</time>
      </trkpt>
      <trkpt lat="44.89547" lon="0.37054">
        <ele>43.3</ele>
        <time>2023-08-26T08:58:01Z</time>
      </trkpt>
      <trkpt lat="44.89539" lon="0.37071">
        <ele>42.8</ele>
        <time>2023-08-26T08:58:03Z</time>
      </trkpt>
      <trkpt lat="44.89525" lon="0.37096">
        <ele>42.1</ele>
        <time>2023-08-26T08:58:06Z</time>
      </trkpt>
      <trkpt lat="44.8952" lon="0.37103">
        <ele>41.8</ele>
        <time>2023-08-26T08:58:07Z</time>
      </trkpt>
      <trkpt lat="44.89512" lon="0.37116">
        <ele>41.3</ele>
        <time>2023-08-26T08:58:09Z</time>
      </trkpt>
      <trkpt lat="44.89496" lon="0.3712">
        <ele>40.4</ele>
        <time>2023-08-26T08:58:12Z</time>
      </trkpt>
      <trkpt lat="44.89485" lon="0.37115">
        <ele>40.3</ele>
        <time>2023-08-26T08:58:16Z</time>
      </trkpt>
      <trkpt lat="44.89485" lon="0.37116">
        <ele>40.3</ele>
        <time>2023-08-26T08:58:17Z</time>
      </trkpt>
      <trkpt lat="44.89483" lon="0.37115">
        <ele>40.3</ele>
        <time>2023-08-26T08:58:41Z</time>
      </trkpt>
      <trkpt lat="44.89481" lon="0.3711">
        <ele>40.2</ele>
        <time>2023-08-26T08:58:43Z</time>
      </trkpt>
      <trkpt lat="44.89472" lon="0.37083">
        <ele>40.1</ele>
        <time>2023-08-26T08:58:49Z</time>
      </trkpt>
      <trkpt lat="44.89466" lon="0.37065">
        <ele>40</ele>
        <time>2023-08-26T08:58:52Z</time>
      </trkpt>
      <trkpt lat="44.89463" lon="0.37054">
        <ele>40</ele>
        <time>2023-08-26T08:58:54Z</time>
      </trkpt>
      <trkpt lat="44.89453" lon="0.37015">
        <ele>40.6</ele>
        <time>2023-08-26T08:59:01Z</time>
      </trkpt>
      <trkpt lat="44.89444" lon="0.36989">
        <ele>41.4</ele>
        <time>2023-08-26T08:59:07Z</time>
      </trkpt>
      <trkpt lat="44.89433" lon="0.36978">
        <ele>41.9</ele>
        <time>2023-08-26T08:59:12Z</time>
      </trkpt>
      <trkpt lat="44.89415" lon="0.36969">
        <ele>42.8</ele>
        <time>2023-08-26T08:59:19Z</time>
      </trkpt>
      <trkpt lat="44.89395" lon="0.36963">
        <ele>43.8</ele>
        <time>2023-08-26T08:59:27Z</time>
      </trkpt>
      <trkpt lat="44.89374" lon="0.36952">
        <ele>44.5</ele>
        <time>2023-08-26T08:59:35Z</time>
      </trkpt>
      <trkpt lat="44.89364" lon="0.36941">
        <ele>44.7</ele>
        <time>2023-08-26T08:59:39Z</time>
      </trkpt>
      <trkpt lat="44.89344" lon="0.36921">
        <ele>44.9</ele>
        <time>2023-08-26T08:59:45Z</time>
      </trkpt>
      <trkpt lat="44.89321" lon="0.36897">
        <ele>44.9</ele>
        <time>2023-08-26T08:59:52Z</time>
      </trkpt>
      <trkpt lat="44.89297" lon="0.36873">
        <ele>44.7</ele>
        <time>2023-08-26T08:59:59Z</time>
      </trkpt>
      <trkpt lat="44.89282" lon="0.36856">
        <ele>44.4</ele>
        <time>2023-08-26T09:00:03Z</time>
      </trkpt>
      <trkpt lat="44.89273" lon="0.36848">
        <ele>44.2</ele>
        <time>2023-08-26T09:00:05Z</time>
      </trkpt>
      <trkpt lat="44.89268" lon="0.36844">
        <ele>44</ele>
        <time>2023-08-26T09:00:06Z</time>
      </trkpt>
      <trkpt lat="44.89259" lon="0.36836">
        <ele>43.7</ele>
        <time>2023-08-26T09:00:08Z</time>
      </trkpt>
      <trkpt lat="44.89245" lon="0.36823">
        <ele>43</ele>
        <time>2023-08-26T09:00:11Z</time>
      </trkpt>
      <trkpt lat="44.89235" lon="0.36813">
        <ele>42.6</ele>
        <time>2023-08-26T09:00:13Z</time>
      </trkpt>
      <trkpt lat="44.89226" lon="0.36803">
        <ele>42.3</ele>
        <time>2023-08-26T09:00:15Z</time>
      </trkpt>
      <trkpt lat="44.89218" lon="0.36792">
        <ele>41.9</ele>
        <time>2023-08-26T09:00:17Z</time>
      </trkpt>
      <trkpt lat="44.89204" lon="0.36775">
        <ele>41.3</ele>
        <time>2023-08-26T09:00:20Z</time>
      </trkpt>
      <trkpt lat="44.89199" lon="0.3677">
        <ele>41.2</ele>
        <time>2023-08-26T09:00:21Z</time>
      </trkpt>
      <trkpt lat="44.89189" lon="0.3676">
        <ele>40.9</ele>
        <time>2023-08-26T09:00:23Z</time>
      </trkpt>
      <trkpt lat="44.89179" lon="0.36752">
        <ele>40.7</ele>
        <time>2023-08-26T09:00:25Z</time>
      </trkpt>
      <trkpt lat="44.89173" lon="0.36748">
        <ele>40.5</ele>
        <time>2023-08-26T09:00:26Z</time>
      </trkpt>
      <trkpt lat="44.89169" lon="0.36746">
        <ele>40.4</ele>
        <time>2023-08-26T09:00:27Z</time>
      </trkpt>
      <trkpt lat="44.89165" lon="0.36746">
        <ele>40.2</ele>
        <time>2023-08-26T09:00:28Z</time>
      </trkpt>
      <trkpt lat="44.89162" lon="0.36749">
        <ele>39.6</ele>
        <time>2023-08-26T09:00:29Z</time>
      </trkpt>
      <trkpt lat="44.8916" lon="0.36754">
        <ele>39.1</ele>
        <time>2023-08-26T09:00:30Z</time>
      </trkpt>
      <trkpt lat="44.89157" lon="0.36759">
        <ele>38.6</ele>
        <time>2023-08-26T09:00:31Z</time>
      </trkpt>
      <trkpt lat="44.89149" lon="0.36765">
        <ele>38</ele>
        <time>2023-08-26T09:00:33Z</time>
      </trkpt>
      <trkpt lat="44.89138" lon="0.36775">
        <ele>36.9</ele>
        <time>2023-08-26T09:00:36Z</time>
      </trkpt>
      <trkpt lat="44.89124" lon="0.36795">
        <ele>36.2</ele>
        <time>2023-08-26T09:00:41Z</time>
      </trkpt>
      <trkpt lat="44.89115" lon="0.368">
        <ele>36</ele>
        <time>2023-08-26T09:00:44Z</time>
      </trkpt>
      <trkpt lat="44.89101" lon="0.36799">
        <ele>36.3</ele>
        <time>2023-08-26T09:00:48Z</time>
      </trkpt>
      <trkpt lat="44.89094" lon="0.36798">
        <ele>36.3</ele>
        <time>2023-08-26T09:00:50Z</time>
      </trkpt>
      <trkpt lat="44.8909" lon="0.36798">
        <ele>36.4</ele>
        <time>2023-08-26T09:00:51Z</time>
      </trkpt>
      <trkpt lat="44.89073" lon="0.36795">
        <ele>36.5</ele>
        <time>2023-08-26T09:00:55Z</time>
      </trkpt>
      <trkpt lat="44.89068" lon="0.36795">
        <ele>36.6</ele>
        <time>2023-08-26T09:00:56Z</time>
      </trkpt>
      <trkpt lat="44.89065" lon="0.36795">
        <ele>36.6</ele>
        <time>2023-08-26T09:00:57Z</time>
      </trkpt>
      <trkpt lat="44.89058" lon="0.3679">
        <ele>36.7</ele>
        <time>2023-08-26T09:00:59Z</time>
      </trkpt>
      <trkpt lat="44.89057" lon="0.36789">
        <ele>36.7</ele>
        <time>2023-08-26T09:01:00Z</time>
      </trkpt>
      <trkpt lat="44.89057" lon="0.36784">
        <ele>36.8</ele>
        <time>2023-08-26T09:01:02Z</time>
      </trkpt>
      <trkpt lat="44.89059" lon="0.36781">
        <ele>36.9</ele>
        <time>2023-08-26T09:01:04Z</time>
      </trkpt>
      <trkpt lat="44.89055" lon="0.36771">
        <ele>37</ele>
        <time>2023-08-26T09:01:07Z</time>
      </trkpt>
      <trkpt lat="44.89053" lon="0.36767">
        <ele>37.1</ele>
        <time>2023-08-26T09:01:08Z</time>
      </trkpt>
      <trkpt lat="44.89051" lon="0.36764">
        <ele>37.2</ele>
        <time>2023-08-26T09:01:09Z</time>
      </trkpt>
      <trkpt lat="44.89045" lon="0.36757">
        <ele>37.2</ele>
        <time>2023-08-26T09:01:11Z</time>
      </trkpt>
      <trkpt lat="44.8904" lon="0.36751">
        <ele>37.3</ele>
        <time>2023-08-26T09:01:13Z</time>
      </trkpt>
      <trkpt lat="44.89036" lon="0.36749">
        <ele>37.2</ele>
        <time>2023-08-26T09:01:15Z</time>
      </trkpt>
      <trkpt lat="44.89024" lon="0.3674">
        <ele>37</ele>
        <time>2023-08-26T09:01:27Z</time>
      </trkpt>
      <trkpt lat="44.89023" lon="0.36738">
        <ele>36.9</ele>
        <time>2023-08-26T09:01:28Z</time>
      </trkpt>
      <trkpt lat="44.89013" lon="0.36729">
        <ele>36.6</ele>
        <time>2023-08-26T09:01:32Z</time>
      </trkpt>
      <trkpt lat="44.89008" lon="0.36724">
        <ele>36.4</ele>
        <time>2023-08-26T09:01:34Z</time>
      </trkpt>
      <trkpt lat="44.89005" lon="0.36722">
        <ele>36.2</ele>
        <time>2023-08-26T09:01:35Z</time>
      </trkpt>
      <trkpt lat="44.88996" lon="0.36705">
        <ele>35.6</ele>
        <time>2023-08-26T09:01:39Z</time>
      </trkpt>
      <trkpt lat="44.88994" lon="0.367">
        <ele>35.6</ele>
        <time>2023-08-26T09:01:40Z</time>
      </trkpt>
      <trkpt lat="44.88992" lon="0.36694">
        <ele>35.4</ele>
        <time>2023-08-26T09:01:42Z</time>
      </trkpt>
      <trkpt lat="44.88987" lon="0.36686">
        <ele>35.1</ele>
        <time>2023-08-26T09:01:47Z</time>
      </trkpt>
      <trkpt lat="44.88977" lon="0.36674">
        <ele>34.8</ele>
        <time>2023-08-26T09:01:51Z</time>
      </trkpt>
      <trkpt lat="44.88973" lon="0.36667">
        <ele>34.7</ele>
        <time>2023-08-26T09:01:53Z</time>
      </trkpt>
      <trkpt lat="44.88971" lon="0.36665">
        <ele>34.6</ele>
        <time>2023-08-26T09:01:55Z</time>
      </trkpt>
      <trkpt lat="44.88976" lon="0.36651">
        <ele>35</ele>
        <time>2023-08-26T09:01:59Z</time>
      </trkpt>
      <trkpt lat="44.88977" lon="0.36648">
        <ele>35.1</ele>
        <time>2023-08-26T09:02:00Z</time>
      </trkpt>
      <trkpt lat="44.88976" lon="0.3664">
        <ele>35.2</ele>
        <time>2023-08-26T09:02:02Z</time>
      </trkpt>
      <trkpt lat="44.88976" lon="0.36633">
        <ele>35.3</ele>
        <time>2023-08-26T09:02:04Z</time>
      </trkpt>
      <trkpt lat="44.88975" lon="0.3663">
        <ele>35.4</ele>
        <time>2023-08-26T09:02:05Z</time>
      </trkpt>
      <trkpt lat="44.88977" lon="0.36624">
        <ele>35.5</ele>
        <time>2023-08-26T09:02:07Z</time>
      </trkpt>
      <trkpt lat="44.88983" lon="0.36605">
        <ele>36.2</ele>
        <time>2023-08-26T09:02:14Z</time>
      </trkpt>
      <trkpt lat="44.88985" lon="0.36601">
        <ele>36.5</ele>
        <time>2023-08-26T09:02:15Z</time>
      </trkpt>
      <trkpt lat="44.88987" lon="0.36594">
        <ele>36.6</ele>
        <time>2023-08-26T09:02:17Z</time>
      </trkpt>
      <trkpt lat="44.8899" lon="0.36587">
        <ele>37.1</ele>
        <time>2023-08-26T09:02:19Z</time>
      </trkpt>
      <trkpt lat="44.88992" lon="0.36578">
        <ele>37.4</ele>
        <time>2023-08-26T09:02:21Z</time>
      </trkpt>
      <trkpt lat="44.88991" lon="0.36571">
        <ele>37.7</ele>
        <time>2023-08-26T09:02:23Z</time>
      </trkpt>
      <trkpt lat="44.88982" lon="0.36558">
        <ele>37.5</ele>
        <time>2023-08-26T09:02:28Z</time>
      </trkpt>
      <trkpt lat="44.88979" lon="0.36552">
        <ele>37.5</ele>
        <time>2023-08-26T09:02:30Z</time>
      </trkpt>
      <trkpt lat="44.88979" lon="0.36547">
        <ele>37.7</ele>
        <time>2023-08-26T09:02:32Z</time>
      </trkpt>
      <trkpt lat="44.88983" lon="0.36543">
        <ele>37.9</ele>
        <time>2023-08-26T09:02:35Z</time>
      </trkpt>
      <trkpt lat="44.88988" lon="0.36536">
        <ele>38.4</ele>
        <time>2023-08-26T09:02:38Z</time>
      </trkpt>
      <trkpt lat="44.88989" lon="0.36533">
        <ele>38.6</ele>
        <time>2023-08-26T09:02:39Z</time>
      </trkpt>
      <trkpt lat="44.8899" lon="0.36529">
        <ele>38.7</ele>
        <time>2023-08-26T09:02:40Z</time>
      </trkpt>
      <trkpt lat="44.88992" lon="0.36522">
        <ele>39</ele>
        <time>2023-08-26T09:02:42Z</time>
      </trkpt>
      <trkpt lat="44.88994" lon="0.3652">
        <ele>39.2</ele>
        <time>2023-08-26T09:02:43Z</time>
      </trkpt>
      <trkpt lat="44.88992" lon="0.36517">
        <ele>39.1</ele>
        <time>2023-08-26T09:02:45Z</time>
      </trkpt>
      <trkpt lat="44.88996" lon="0.36509">
        <ele>39.4</ele>
        <time>2023-08-26T09:02:49Z</time>
      </trkpt>
      <trkpt lat="44.88997" lon="0.36506">
        <ele>39.6</ele>
        <time>2023-08-26T09:02:50Z</time>
      </trkpt>
      <trkpt lat="44.88999" lon="0.365">
        <ele>39.7</ele>
        <time>2023-08-26T09:02:52Z</time>
      </trkpt>
      <trkpt lat="44.89002" lon="0.36493">
        <ele>40.1</ele>
        <time>2023-08-26T09:02:54Z</time>
      </trkpt>
      <trkpt lat="44.89008" lon="0.36482">
        <ele>40.7</ele>
        <time>2023-08-26T09:02:57Z</time>
      </trkpt>
      <trkpt lat="44.89017" lon="0.36461">
        <ele>41.7</ele>
        <time>2023-08-26T09:03:02Z</time>
      </trkpt>
      <trkpt lat="44.89018" lon="0.36457">
        <ele>41.9</ele>
        <time>2023-08-26T09:03:03Z</time>
      </trkpt>
      <trkpt lat="44.89021" lon="0.36451">
        <ele>42.3</ele>
        <time>2023-08-26T09:03:06Z</time>
      </trkpt>
      <trkpt lat="44.89022" lon="0.36448">
        <ele>42.5</ele>
        <time>2023-08-26T09:03:07Z</time>
      </trkpt>
      <trkpt lat="44.89023" lon="0.36434">
        <ele>42.9</ele>
        <time>2023-08-26T09:03:11Z</time>
      </trkpt>
      <trkpt lat="44.89026" lon="0.36418">
        <ele>43.6</ele>
        <time>2023-08-26T09:03:17Z</time>
      </trkpt>
      <trkpt lat="44.89026" lon="0.36416">
        <ele>43.7</ele>
        <time>2023-08-26T09:03:18Z</time>
      </trkpt>
      <trkpt lat="44.89029" lon="0.36407">
        <ele>44.2</ele>
        <time>2023-08-26T09:03:21Z</time>
      </trkpt>
      <trkpt lat="44.89033" lon="0.364">
        <ele>44.8</ele>
        <time>2023-08-26T09:03:24Z</time>
      </trkpt>
      <trkpt lat="44.89037" lon="0.36387">
        <ele>45.5</ele>
        <time>2023-08-26T09:03:28Z</time>
      </trkpt>
      <trkpt lat="44.89039" lon="0.3638">
        <ele>45.8</ele>
        <time>2023-08-26T09:03:31Z</time>
      </trkpt>
      <trkpt lat="44.89041" lon="0.36365">
        <ele>46.5</ele>
        <time>2023-08-26T09:03:37Z</time>
      </trkpt>
      <trkpt lat="44.89044" lon="0.36346">
        <ele>47.2</ele>
        <time>2023-08-26T09:03:45Z</time>
      </trkpt>
      <trkpt lat="44.8905" lon="0.36332">
        <ele>47.5</ele>
        <time>2023-08-26T09:03:51Z</time>
      </trkpt>
      <trkpt lat="44.89061" lon="0.36321">
        <ele>47.4</ele>
        <time>2023-08-26T09:03:56Z</time>
      </trkpt>
      <trkpt lat="44.89068" lon="0.36312">
        <ele>47.5</ele>
        <time>2023-08-26T09:03:59Z</time>
      </trkpt>
      <trkpt lat="44.89074" lon="0.36305">
        <ele>47.6</ele>
        <time>2023-08-26T09:04:02Z</time>
      </trkpt>
      <trkpt lat="44.89079" lon="0.3629">
        <ele>47.7</ele>
        <time>2023-08-26T09:04:07Z</time>
      </trkpt>
      <trkpt lat="44.8908" lon="0.3628">
        <ele>47.9</ele>
        <time>2023-08-26T09:04:11Z</time>
      </trkpt>
      <trkpt lat="44.89079" lon="0.36277">
        <ele>47.9</ele>
        <time>2023-08-26T09:04:12Z</time>
      </trkpt>
      <trkpt lat="44.8908" lon="0.36271">
        <ele>48</ele>
        <time>2023-08-26T09:04:16Z</time>
      </trkpt>
      <trkpt lat="44.89083" lon="0.36261">
        <ele>48.3</ele>
        <time>2023-08-26T09:04:21Z</time>
      </trkpt>
      <trkpt lat="44.89087" lon="0.36248">
        <ele>48.9</ele>
        <time>2023-08-26T09:04:26Z</time>
      </trkpt>
      <trkpt lat="44.89087" lon="0.36242">
        <ele>49.3</ele>
        <time>2023-08-26T09:04:28Z</time>
      </trkpt>
      <trkpt lat="44.89085" lon="0.3624">
        <ele>49.3</ele>
        <time>2023-08-26T09:04:30Z</time>
      </trkpt>
      <trkpt lat="44.89084" lon="0.36239">
        <ele>49.3</ele>
        <time>2023-08-26T09:04:31Z</time>
      </trkpt>
      <trkpt lat="44.89078" lon="0.36236">
        <ele>49.3</ele>
        <time>2023-08-26T09:04:35Z</time>
      </trkpt>
      <trkpt lat="44.89076" lon="0.36229">
        <ele>49.5</ele>
        <time>2023-08-26T09:04:37Z</time>
      </trkpt>
      <trkpt lat="44.89078" lon="0.36223">
        <ele>50</ele>
        <time>2023-08-26T09:04:39Z</time>
      </trkpt>
      <trkpt lat="44.8908" lon="0.36221">
        <ele>50</ele>
        <time>2023-08-26T09:04:41Z</time>
      </trkpt>
      <trkpt lat="44.89082" lon="0.3622">
        <ele>50.4</ele>
        <time>2023-08-26T09:04:43Z</time>
      </trkpt>
      <trkpt lat="44.89084" lon="0.36217">
        <ele>50.5</ele>
        <time>2023-08-26T09:04:45Z</time>
      </trkpt>
      <trkpt lat="44.89087" lon="0.36214">
        <ele>50.8</ele>
        <time>2023-08-26T09:04:47Z</time>
      </trkpt>
      <trkpt lat="44.89087" lon="0.36211">
        <ele>51</ele>
        <time>2023-08-26T09:04:48Z</time>
      </trkpt>
      <trkpt lat="44.89092" lon="0.36207">
        <ele>51.6</ele>
        <time>2023-08-26T09:04:51Z</time>
      </trkpt>
      <trkpt lat="44.89092" lon="0.36206">
        <ele>51.6</ele>
        <time>2023-08-26T09:04:52Z</time>
      </trkpt>
      <trkpt lat="44.89099" lon="0.36201">
        <ele>52.1</ele>
        <time>2023-08-26T09:04:54Z</time>
      </trkpt>
      <trkpt lat="44.89105" lon="0.36191">
        <ele>53</ele>
        <time>2023-08-26T09:04:58Z</time>
      </trkpt>
      <trkpt lat="44.89104" lon="0.36188">
        <ele>53.3</ele>
        <time>2023-08-26T09:04:59Z</time>
      </trkpt>
      <trkpt lat="44.891" lon="0.36184">
        <ele>53.5</ele>
        <time>2023-08-26T09:05:02Z</time>
      </trkpt>
      <trkpt lat="44.89099" lon="0.36182">
        <ele>53.4</ele>
        <time>2023-08-26T09:05:03Z</time>
      </trkpt>
      <trkpt lat="44.89092" lon="0.36173">
        <ele>54.3</ele>
        <time>2023-08-26T09:05:08Z</time>
      </trkpt>
      <trkpt lat="44.89089" lon="0.36173">
        <ele>54.3</ele>
        <time>2023-08-26T09:05:10Z</time>
      </trkpt>
      <trkpt lat="44.89088" lon="0.36172">
        <ele>54.3</ele>
        <time>2023-08-26T09:05:11Z</time>
      </trkpt>
      <trkpt lat="44.89086" lon="0.36172">
        <ele>54.2</ele>
        <time>2023-08-26T09:05:12Z</time>
      </trkpt>
      <trkpt lat="44.89081" lon="0.36165">
        <ele>54.6</ele>
        <time>2023-08-26T09:05:16Z</time>
      </trkpt>
      <trkpt lat="44.89077" lon="0.36162">
        <ele>55.1</ele>
        <time>2023-08-26T09:05:19Z</time>
      </trkpt>
      <trkpt lat="44.89074" lon="0.36157">
        <ele>55.5</ele>
        <time>2023-08-26T09:05:21Z</time>
      </trkpt>
      <trkpt lat="44.89072" lon="0.36147">
        <ele>56.8</ele>
        <time>2023-08-26T09:05:26Z</time>
      </trkpt>
      <trkpt lat="44.89072" lon="0.36144">
        <ele>56.8</ele>
        <time>2023-08-26T09:05:28Z</time>
      </trkpt>
      <trkpt lat="44.89074" lon="0.36138">
        <ele>57.8</ele>
        <time>2023-08-26T09:05:31Z</time>
      </trkpt>
      <trkpt lat="44.89074" lon="0.36136">
        <ele>57.8</ele>
        <time>2023-08-26T09:05:32Z</time>
      </trkpt>
      <trkpt lat="44.89078" lon="0.36135">
        <ele>57.8</ele>
        <time>2023-08-26T09:05:36Z</time>
      </trkpt>
      <trkpt lat="44.8908" lon="0.36135">
        <ele>57.8</ele>
        <time>2023-08-26T09:05:37Z</time>
      </trkpt>
      <trkpt lat="44.89085" lon="0.36134">
        <ele>58.3</ele>
        <time>2023-08-26T09:05:40Z</time>
      </trkpt>
      <trkpt lat="44.89087" lon="0.36133">
        <ele>58.3</ele>
        <time>2023-08-26T09:05:41Z</time>
      </trkpt>
      <trkpt lat="44.89094" lon="0.36132">
        <ele>58.3</ele>
        <time>2023-08-26T09:05:45Z</time>
      </trkpt>
      <trkpt lat="44.89097" lon="0.36131">
        <ele>58.3</ele>
        <time>2023-08-26T09:05:46Z</time>
      </trkpt>
      <trkpt lat="44.891" lon="0.36126">
        <ele>59.3</ele>
        <time>2023-08-26T09:05:48Z</time>
      </trkpt>
      <trkpt lat="44.89107" lon="0.36114">
        <ele>60.2</ele>
        <time>2023-08-26T09:05:54Z</time>
      </trkpt>
      <trkpt lat="44.89108" lon="0.3611">
        <ele>60.7</ele>
        <time>2023-08-26T09:05:56Z</time>
      </trkpt>
      <trkpt lat="44.89107" lon="0.36106">
        <ele>61.2</ele>
        <time>2023-08-26T09:05:58Z</time>
      </trkpt>
      <trkpt lat="44.89104" lon="0.36098">
        <ele>62.2</ele>
        <time>2023-08-26T09:06:03Z</time>
      </trkpt>
      <trkpt lat="44.89102" lon="0.36099">
        <ele>62.3</ele>
        <time>2023-08-26T09:06:04Z</time>
      </trkpt>
      <trkpt lat="44.89099" lon="0.36101">
        <ele>61.8</ele>
        <time>2023-08-26T09:06:06Z</time>
      </trkpt>
      <trkpt lat="44.89097" lon="0.361">
        <ele>62.3</ele>
        <time>2023-08-26T09:06:08Z</time>
      </trkpt>
      <trkpt lat="44.89094" lon="0.36099">
        <ele>62.4</ele>
        <time>2023-08-26T09:06:10Z</time>
      </trkpt>
      <trkpt lat="44.8909" lon="0.36102">
        <ele>61.8</ele>
        <time>2023-08-26T09:06:12Z</time>
      </trkpt>
      <trkpt lat="44.89087" lon="0.36105">
        <ele>61.3</ele>
        <time>2023-08-26T09:06:14Z</time>
      </trkpt>
      <trkpt lat="44.89085" lon="0.36105">
        <ele>61.8</ele>
        <time>2023-08-26T09:06:15Z</time>
      </trkpt>
      <trkpt lat="44.89081" lon="0.36103">
        <ele>61.8</ele>
        <time>2023-08-26T09:06:18Z</time>
      </trkpt>
      <trkpt lat="44.89081" lon="0.36102">
        <ele>61.8</ele>
        <time>2023-08-26T09:06:19Z</time>
      </trkpt>
      <trkpt lat="44.89082" lon="0.36101">
        <ele>61.8</ele>
        <time>2023-08-26T09:06:22Z</time>
      </trkpt>
      <trkpt lat="44.89084" lon="0.36099">
        <ele>62.3</ele>
        <time>2023-08-26T09:06:23Z</time>
      </trkpt>
      <trkpt lat="44.89089" lon="0.36089">
        <ele>63.5</ele>
        <time>2023-08-26T09:06:27Z</time>
      </trkpt>
      <trkpt lat="44.89089" lon="0.36086">
        <ele>64.1</ele>
        <time>2023-08-26T09:06:28Z</time>
      </trkpt>
      <trkpt lat="44.8909" lon="0.36083">
        <ele>64.7</ele>
        <time>2023-08-26T09:06:29Z</time>
      </trkpt>
      <trkpt lat="44.89094" lon="0.36081">
        <ele>64.7</ele>
        <time>2023-08-26T09:06:32Z</time>
      </trkpt>
      <trkpt lat="44.891" lon="0.36077">
        <ele>65.1</ele>
        <time>2023-08-26T09:06:36Z</time>
      </trkpt>
      <trkpt lat="44.89101" lon="0.36072">
        <ele>65.6</ele>
        <time>2023-08-26T09:06:38Z</time>
      </trkpt>
      <trkpt lat="44.89093" lon="0.36074">
        <ele>65.9</ele>
        <time>2023-08-26T09:06:42Z</time>
      </trkpt>
      <trkpt lat="44.89087" lon="0.36077">
        <ele>65.4</ele>
        <time>2023-08-26T09:06:44Z</time>
      </trkpt>
      <trkpt lat="44.89083" lon="0.36075">
        <ele>66</ele>
        <time>2023-08-26T09:06:46Z</time>
      </trkpt>
      <trkpt lat="44.89086" lon="0.3607">
        <ele>66.5</ele>
        <time>2023-08-26T09:06:49Z</time>
      </trkpt>
      <trkpt lat="44.89091" lon="0.36069">
        <ele>66.4</ele>
        <time>2023-08-26T09:06:52Z</time>
      </trkpt>
      <trkpt lat="44.89093" lon="0.36064">
        <ele>66.9</ele>
        <time>2023-08-26T09:06:54Z</time>
      </trkpt>
      <trkpt lat="44.89094" lon="0.3606">
        <ele>67.2</ele>
        <time>2023-08-26T09:06:58Z</time>
      </trkpt>
      <trkpt lat="44.89099" lon="0.36055">
        <ele>67.6</ele>
        <time>2023-08-26T09:07:01Z</time>
      </trkpt>
      <trkpt lat="44.89102" lon="0.36054">
        <ele>67.4</ele>
        <time>2023-08-26T09:07:03Z</time>
      </trkpt>
      <trkpt lat="44.89109" lon="0.36055">
        <ele>67.1</ele>
        <time>2023-08-26T09:07:06Z</time>
      </trkpt>
      <trkpt lat="44.89118" lon="0.36056">
        <ele>66.7</ele>
        <time>2023-08-26T09:07:10Z</time>
      </trkpt>
      <trkpt lat="44.8912" lon="0.36056">
        <ele>66.7</ele>
        <time>2023-08-26T09:07:12Z</time>
      </trkpt>
      <trkpt lat="44.89119" lon="0.36049">
        <ele>67.2</ele>
        <time>2023-08-26T09:07:15Z</time>
      </trkpt>
      <trkpt lat="44.89118" lon="0.36043">
        <ele>68</ele>
        <time>2023-08-26T09:07:18Z</time>
      </trkpt>
      <trkpt lat="44.89119" lon="0.36041">
        <ele>68</ele>
        <time>2023-08-26T09:07:19Z</time>
      </trkpt>
      <trkpt lat="44.89125" lon="0.36034">
        <ele>68.6</ele>
        <time>2023-08-26T09:07:24Z</time>
      </trkpt>
      <trkpt lat="44.89126" lon="0.36026">
        <ele>69.3</ele>
        <time>2023-08-26T09:07:28Z</time>
      </trkpt>
      <trkpt lat="44.89124" lon="0.36024">
        <ele>69.3</ele>
        <time>2023-08-26T09:07:29Z</time>
      </trkpt>
      <trkpt lat="44.89123" lon="0.36023">
        <ele>69.4</ele>
        <time>2023-08-26T09:07:30Z</time>
      </trkpt>
      <trkpt lat="44.89116" lon="0.36025">
        <ele>69.6</ele>
        <time>2023-08-26T09:07:33Z</time>
      </trkpt>
      <trkpt lat="44.89105" lon="0.36021">
        <ele>70.2</ele>
        <time>2023-08-26T09:07:39Z</time>
      </trkpt>
      <trkpt lat="44.89102" lon="0.36019">
        <ele>70.5</ele>
        <time>2023-08-26T09:07:41Z</time>
      </trkpt>
      <trkpt lat="44.89097" lon="0.3602">
        <ele>70.4</ele>
        <time>2023-08-26T09:07:43Z</time>
      </trkpt>
      <trkpt lat="44.89089" lon="0.3602">
        <ele>70.7</ele>
        <time>2023-08-26T09:07:47Z</time>
      </trkpt>
      <trkpt lat="44.89088" lon="0.36018">
        <ele>70.9</ele>
        <time>2023-08-26T09:07:48Z</time>
      </trkpt>
      <trkpt lat="44.89086" lon="0.36014">
        <ele>71.1</ele>
        <time>2023-08-26T09:07:50Z</time>
      </trkpt>
      <trkpt lat="44.89082" lon="0.3601">
        <ele>71.3</ele>
        <time>2023-08-26T09:07:53Z</time>
      </trkpt>
      <trkpt lat="44.89081" lon="0.36008">
        <ele>71.4</ele>
        <time>2023-08-26T09:07:54Z</time>
      </trkpt>
      <trkpt lat="44.89081" lon="0.36002">
        <ele>71.5</ele>
        <time>2023-08-26T09:07:57Z</time>
      </trkpt>
      <trkpt lat="44.89081" lon="0.35998">
        <ele>71.7</ele>
        <time>2023-08-26T09:08:00Z</time>
      </trkpt>
      <trkpt lat="44.89083" lon="0.35994">
        <ele>71.8</ele>
        <time>2023-08-26T09:08:02Z</time>
      </trkpt>
      <trkpt lat="44.89085" lon="0.35993">
        <ele>71.8</ele>
        <time>2023-08-26T09:08:03Z</time>
      </trkpt>
      <trkpt lat="44.8909" lon="0.35988">
        <ele>72.1</ele>
        <time>2023-08-26T09:08:08Z</time>
      </trkpt>
      <trkpt lat="44.89098" lon="0.35991">
        <ele>71.8</ele>
        <time>2023-08-26T09:08:11Z</time>
      </trkpt>
      <trkpt lat="44.89101" lon="0.35986">
        <ele>71.9</ele>
        <time>2023-08-26T09:08:13Z</time>
      </trkpt>
      <trkpt lat="44.89103" lon="0.35975">
        <ele>72.2</ele>
        <time>2023-08-26T09:08:18Z</time>
      </trkpt>
      <trkpt lat="44.89102" lon="0.35973">
        <ele>72.3</ele>
        <time>2023-08-26T09:08:20Z</time>
      </trkpt>
      <trkpt lat="44.89099" lon="0.35972">
        <ele>72.4</ele>
        <time>2023-08-26T09:08:22Z</time>
      </trkpt>
      <trkpt lat="44.89097" lon="0.35972">
        <ele>72.4</ele>
        <time>2023-08-26T09:08:23Z</time>
      </trkpt>
      <trkpt lat="44.89096" lon="0.35971">
        <ele>72.6</ele>
        <time>2023-08-26T09:08:24Z</time>
      </trkpt>
      <trkpt lat="44.89095" lon="0.35968">
        <ele>72.6</ele>
        <time>2023-08-26T09:08:26Z</time>
      </trkpt>
      <trkpt lat="44.89095" lon="0.35967">
        <ele>72.7</ele>
        <time>2023-08-26T09:08:27Z</time>
      </trkpt>
      <trkpt lat="44.89096" lon="0.35964">
        <ele>72.7</ele>
        <time>2023-08-26T09:08:29Z</time>
      </trkpt>
      <trkpt lat="44.89096" lon="0.35956">
        <ele>73</ele>
        <time>2023-08-26T09:08:33Z</time>
      </trkpt>
      <trkpt lat="44.89095" lon="0.35952">
        <ele>73.1</ele>
        <time>2023-08-26T09:08:35Z</time>
      </trkpt>
      <trkpt lat="44.89094" lon="0.35948">
        <ele>73.2</ele>
        <time>2023-08-26T09:08:37Z</time>
      </trkpt>
      <trkpt lat="44.89099" lon="0.35938">
        <ele>73.3</ele>
        <time>2023-08-26T09:08:42Z</time>
      </trkpt>
      <trkpt lat="44.89107" lon="0.3593">
        <ele>73.6</ele>
        <time>2023-08-26T09:08:47Z</time>
      </trkpt>
      <trkpt lat="44.89119" lon="0.35926">
        <ele>73.8</ele>
        <time>2023-08-26T09:08:53Z</time>
      </trkpt>
      <trkpt lat="44.89131" lon="0.35923">
        <ele>73.8</ele>
        <time>2023-08-26T09:08:58Z</time>
      </trkpt>
      <trkpt lat="44.89142" lon="0.35919">
        <ele>73.8</ele>
        <time>2023-08-26T09:09:03Z</time>
      </trkpt>
      <trkpt lat="44.89154" lon="0.35916">
        <ele>73.6</ele>
        <time>2023-08-26T09:09:08Z</time>
      </trkpt>
      <trkpt lat="44.89159" lon="0.35916">
        <ele>73.5</ele>
        <time>2023-08-26T09:09:10Z</time>
      </trkpt>
      <trkpt lat="44.89162" lon="0.3592">
        <ele>73.3</ele>
        <time>2023-08-26T09:09:12Z</time>
      </trkpt>
      <trkpt lat="44.8917" lon="0.35937">
        <ele>72.7</ele>
        <time>2023-08-26T09:09:18Z</time>
      </trkpt>
      <trkpt lat="44.89175" lon="0.35948">
        <ele>71.8</ele>
        <time>2023-08-26T09:09:22Z</time>
      </trkpt>
      <trkpt lat="44.89174" lon="0.35952">
        <ele>71.5</ele>
        <time>2023-08-26T09:09:23Z</time>
      </trkpt>
      <trkpt lat="44.89173" lon="0.35957">
        <ele>71.2</ele>
        <time>2023-08-26T09:09:24Z</time>
      </trkpt>
      <trkpt lat="44.89167" lon="0.35967">
        <ele>70.7</ele>
        <time>2023-08-26T09:09:26Z</time>
      </trkpt>
      <trkpt lat="44.89163" lon="0.35971">
        <ele>70.5</ele>
        <time>2023-08-26T09:09:27Z</time>
      </trkpt>
      <trkpt lat="44.89159" lon="0.35973">
        <ele>70.5</ele>
        <time>2023-08-26T09:09:28Z</time>
      </trkpt>
      <trkpt lat="44.89154" lon="0.35971">
        <ele>70.8</ele>
        <time>2023-08-26T09:09:30Z</time>
      </trkpt>
      <trkpt lat="44.89145" lon="0.3597">
        <ele>71.2</ele>
        <time>2023-08-26T09:09:33Z</time>
      </trkpt>
      <trkpt lat="44.89142" lon="0.35972">
        <ele>71.1</ele>
        <time>2023-08-26T09:09:34Z</time>
      </trkpt>
      <trkpt lat="44.89138" lon="0.35974">
        <ele>71.2</ele>
        <time>2023-08-26T09:09:35Z</time>
      </trkpt>
      <trkpt lat="44.89125" lon="0.35978">
        <ele>71.6</ele>
        <time>2023-08-26T09:09:38Z</time>
      </trkpt>
      <trkpt lat="44.89122" lon="0.35987">
        <ele>71.4</ele>
        <time>2023-08-26T09:09:40Z</time>
      </trkpt>
      <trkpt lat="44.89126" lon="0.35993">
        <ele>71.2</ele>
        <time>2023-08-26T09:09:42Z</time>
      </trkpt>
      <trkpt lat="44.8913" lon="0.35993">
        <ele>71.1</ele>
        <time>2023-08-26T09:09:43Z</time>
      </trkpt>
      <trkpt lat="44.89148" lon="0.36001">
        <ele>70.1</ele>
        <time>2023-08-26T09:09:48Z</time>
      </trkpt>
      <trkpt lat="44.89156" lon="0.36003">
        <ele>69.7</ele>
        <time>2023-08-26T09:09:51Z</time>
      </trkpt>
      <trkpt lat="44.89158" lon="0.36006">
        <ele>69.7</ele>
        <time>2023-08-26T09:09:52Z</time>
      </trkpt>
      <trkpt lat="44.89171" lon="0.36018">
        <ele>69.2</ele>
        <time>2023-08-26T09:09:57Z</time>
      </trkpt>
      <trkpt lat="44.89166" lon="0.36024">
        <ele>68.8</ele>
        <time>2023-08-26T09:10:00Z</time>
      </trkpt>
      <trkpt lat="44.89152" lon="0.3602">
        <ele>69.2</ele>
        <time>2023-08-26T09:10:04Z</time>
      </trkpt>
      <trkpt lat="44.89144" lon="0.3602">
        <ele>69.5</ele>
        <time>2023-08-26T09:10:06Z</time>
      </trkpt>
      <trkpt lat="44.89133" lon="0.36023">
        <ele>69.6</ele>
        <time>2023-08-26T09:10:08Z</time>
      </trkpt>
      <trkpt lat="44.89129" lon="0.36024">
        <ele>69.8</ele>
        <time>2023-08-26T09:10:09Z</time>
      </trkpt>
      <trkpt lat="44.89127" lon="0.36026">
        <ele>69.9</ele>
        <time>2023-08-26T09:10:10Z</time>
      </trkpt>
      <trkpt lat="44.89126" lon="0.36028">
        <ele>69.6</ele>
        <time>2023-08-26T09:10:11Z</time>
      </trkpt>
      <trkpt lat="44.89128" lon="0.36032">
        <ele>69.5</ele>
        <time>2023-08-26T09:10:13Z</time>
      </trkpt>
      <trkpt lat="44.89133" lon="0.36035">
        <ele>69.1</ele>
        <time>2023-08-26T09:10:15Z</time>
      </trkpt>
      <trkpt lat="44.89146" lon="0.36044">
        <ele>68.2</ele>
        <time>2023-08-26T09:10:19Z</time>
      </trkpt>
      <trkpt lat="44.89159" lon="0.36055">
        <ele>67.3</ele>
        <time>2023-08-26T09:10:23Z</time>
      </trkpt>
      <trkpt lat="44.89157" lon="0.36059">
        <ele>67</ele>
        <time>2023-08-26T09:10:25Z</time>
      </trkpt>
      <trkpt lat="44.89145" lon="0.36062">
        <ele>66.7</ele>
        <time>2023-08-26T09:10:28Z</time>
      </trkpt>
      <trkpt lat="44.8914" lon="0.36063">
        <ele>66.5</ele>
        <time>2023-08-26T09:10:29Z</time>
      </trkpt>
      <trkpt lat="44.89135" lon="0.36063">
        <ele>66.5</ele>
        <time>2023-08-26T09:10:30Z</time>
      </trkpt>
      <trkpt lat="44.89127" lon="0.36064">
        <ele>66.5</ele>
        <time>2023-08-26T09:10:32Z</time>
      </trkpt>
      <trkpt lat="44.89124" lon="0.36065">
        <ele>66.5</ele>
        <time>2023-08-26T09:10:33Z</time>
      </trkpt>
      <trkpt lat="44.89123" lon="0.36068">
        <ele>66.1</ele>
        <time>2023-08-26T09:10:35Z</time>
      </trkpt>
      <trkpt lat="44.89121" lon="0.36069">
        <ele>66.1</ele>
        <time>2023-08-26T09:10:36Z</time>
      </trkpt>
      <trkpt lat="44.89117" lon="0.36067">
        <ele>66.3</ele>
        <time>2023-08-26T09:10:38Z</time>
      </trkpt>
      <trkpt lat="44.89115" lon="0.36067">
        <ele>66.3</ele>
        <time>2023-08-26T09:10:39Z</time>
      </trkpt>
      <trkpt lat="44.89111" lon="0.36071">
        <ele>66.1</ele>
        <time>2023-08-26T09:10:41Z</time>
      </trkpt>
      <trkpt lat="44.8911" lon="0.36077">
        <ele>65.7</ele>
        <time>2023-08-26T09:10:43Z</time>
      </trkpt>
      <trkpt lat="44.89112" lon="0.36079">
        <ele>65.7</ele>
        <time>2023-08-26T09:10:44Z</time>
      </trkpt>
      <trkpt lat="44.89113" lon="0.36081">
        <ele>65.1</ele>
        <time>2023-08-26T09:10:45Z</time>
      </trkpt>
      <trkpt lat="44.89113" lon="0.36087">
        <ele>64.6</ele>
        <time>2023-08-26T09:10:47Z</time>
      </trkpt>
      <trkpt lat="44.89113" lon="0.36104">
        <ele>62.7</ele>
        <time>2023-08-26T09:10:52Z</time>
      </trkpt>
      <trkpt lat="44.89113" lon="0.36106">
        <ele>62.2</ele>
        <time>2023-08-26T09:10:53Z</time>
      </trkpt>
      <trkpt lat="44.89118" lon="0.36111">
        <ele>61.7</ele>
        <time>2023-08-26T09:10:56Z</time>
      </trkpt>
      <trkpt lat="44.8912" lon="0.36115">
        <ele>61.3</ele>
        <time>2023-08-26T09:10:58Z</time>
      </trkpt>
      <trkpt lat="44.89118" lon="0.36121">
        <ele>60.8</ele>
        <time>2023-08-26T09:11:00Z</time>
      </trkpt>
      <trkpt lat="44.89114" lon="0.36127">
        <ele>59.9</ele>
        <time>2023-08-26T09:11:03Z</time>
      </trkpt>
      <trkpt lat="44.89115" lon="0.3613">
        <ele>59.9</ele>
        <time>2023-08-26T09:11:04Z</time>
      </trkpt>
      <trkpt lat="44.89117" lon="0.36132">
        <ele>59.5</ele>
        <time>2023-08-26T09:11:05Z</time>
      </trkpt>
      <trkpt lat="44.8912" lon="0.36135">
        <ele>59.2</ele>
        <time>2023-08-26T09:11:07Z</time>
      </trkpt>
      <trkpt lat="44.89121" lon="0.3614">
        <ele>58.9</ele>
        <time>2023-08-26T09:11:09Z</time>
      </trkpt>
      <trkpt lat="44.8912" lon="0.36144">
        <ele>58.5</ele>
        <time>2023-08-26T09:11:11Z</time>
      </trkpt>
      <trkpt lat="44.89117" lon="0.3616">
        <ele>57.5</ele>
        <time>2023-08-26T09:11:15Z</time>
      </trkpt>
      <trkpt lat="44.89118" lon="0.36163">
        <ele>57.2</ele>
        <time>2023-08-26T09:11:16Z</time>
      </trkpt>
      <trkpt lat="44.89117" lon="0.36168">
        <ele>56.9</ele>
        <time>2023-08-26T09:11:17Z</time>
      </trkpt>
      <trkpt lat="44.89115" lon="0.36178">
        <ele>55.8</ele>
        <time>2023-08-26T09:11:19Z</time>
      </trkpt>
      <trkpt lat="44.89108" lon="0.36206">
        <ele>53.7</ele>
        <time>2023-08-26T09:11:23Z</time>
      </trkpt>
      <trkpt lat="44.89101" lon="0.36229">
        <ele>52.1</ele>
        <time>2023-08-26T09:11:27Z</time>
      </trkpt>
      <trkpt lat="44.89093" lon="0.36237">
        <ele>51.4</ele>
        <time>2023-08-26T09:11:31Z</time>
      </trkpt>
      <trkpt lat="44.89091" lon="0.36241">
        <ele>51.2</ele>
        <time>2023-08-26T09:11:32Z</time>
      </trkpt>
      <trkpt lat="44.89084" lon="0.3626">
        <ele>50</ele>
        <time>2023-08-26T09:11:36Z</time>
      </trkpt>
      <trkpt lat="44.89083" lon="0.36262">
        <ele>50</ele>
        <time>2023-08-26T09:11:37Z</time>
      </trkpt>
      <trkpt lat="44.89081" lon="0.36268">
        <ele>49.8</ele>
        <time>2023-08-26T09:11:39Z</time>
      </trkpt>
      <trkpt lat="44.89081" lon="0.36271">
        <ele>49.7</ele>
        <time>2023-08-26T09:11:40Z</time>
      </trkpt>
      <trkpt lat="44.8908" lon="0.36279">
        <ele>49.6</ele>
        <time>2023-08-26T09:11:41Z</time>
      </trkpt>
      <trkpt lat="44.89077" lon="0.36292">
        <ele>49.5</ele>
        <time>2023-08-26T09:11:43Z</time>
      </trkpt>
      <trkpt lat="44.89067" lon="0.36311">
        <ele>49.3</ele>
        <time>2023-08-26T09:11:47Z</time>
      </trkpt>
      <trkpt lat="44.8905" lon="0.36336">
        <ele>49.3</ele>
        <time>2023-08-26T09:11:54Z</time>
      </trkpt>
      <trkpt lat="44.89046" lon="0.36354">
        <ele>48.7</ele>
        <time>2023-08-26T09:11:57Z</time>
      </trkpt>
      <trkpt lat="44.89045" lon="0.36361">
        <ele>48.6</ele>
        <time>2023-08-26T09:11:58Z</time>
      </trkpt>
      <trkpt lat="44.8904" lon="0.36377">
        <ele>47.8</ele>
        <time>2023-08-26T09:12:00Z</time>
      </trkpt>
      <trkpt lat="44.89036" lon="0.36387">
        <ele>47.4</ele>
        <time>2023-08-26T09:12:01Z</time>
      </trkpt>
      <trkpt lat="44.89026" lon="0.36413">
        <ele>45.7</ele>
        <time>2023-08-26T09:12:04Z</time>
      </trkpt>
      <trkpt lat="44.89024" lon="0.36422">
        <ele>45.5</ele>
        <time>2023-08-26T09:12:05Z</time>
      </trkpt>
      <trkpt lat="44.8902" lon="0.36443">
        <ele>44.4</ele>
        <time>2023-08-26T09:12:07Z</time>
      </trkpt>
      <trkpt lat="44.89011" lon="0.36463">
        <ele>43.4</ele>
        <time>2023-08-26T09:12:09Z</time>
      </trkpt>
      <trkpt lat="44.89" lon="0.36478">
        <ele>42.6</ele>
        <time>2023-08-26T09:12:11Z</time>
      </trkpt>
      <trkpt lat="44.88996" lon="0.36484">
        <ele>42.1</ele>
        <time>2023-08-26T09:12:12Z</time>
      </trkpt>
      <trkpt lat="44.88993" lon="0.36492">
        <ele>41.7</ele>
        <time>2023-08-26T09:12:13Z</time>
      </trkpt>
      <trkpt lat="44.88986" lon="0.36508">
        <ele>41.1</ele>
        <time>2023-08-26T09:12:15Z</time>
      </trkpt>
      <trkpt lat="44.88981" lon="0.36518">
        <ele>40.7</ele>
        <time>2023-08-26T09:12:17Z</time>
      </trkpt>
      <trkpt lat="44.88973" lon="0.36527">
        <ele>40.1</ele>
        <time>2023-08-26T09:12:21Z</time>
      </trkpt>
      <trkpt lat="44.88971" lon="0.36528">
        <ele>40</ele>
        <time>2023-08-26T09:12:22Z</time>
      </trkpt>
      <trkpt lat="44.88964" lon="0.36533">
        <ele>39.5</ele>
        <time>2023-08-26T09:12:24Z</time>
      </trkpt>
      <trkpt lat="44.88949" lon="0.3653">
        <ele>39.8</ele>
        <time>2023-08-26T09:12:28Z</time>
      </trkpt>
      <trkpt lat="44.8894" lon="0.36528">
        <ele>39.9</ele>
        <time>2023-08-26T09:12:30Z</time>
      </trkpt>
      <trkpt lat="44.88935" lon="0.36528">
        <ele>40</ele>
        <time>2023-08-26T09:12:31Z</time>
      </trkpt>
      <trkpt lat="44.88924" lon="0.36524">
        <ele>40.2</ele>
        <time>2023-08-26T09:12:35Z</time>
      </trkpt>
      <trkpt lat="44.88909" lon="0.36514">
        <ele>40.2</ele>
        <time>2023-08-26T09:12:40Z</time>
      </trkpt>
      <trkpt lat="44.88891" lon="0.36506">
        <ele>40.1</ele>
        <time>2023-08-26T09:12:45Z</time>
      </trkpt>
      <trkpt lat="44.88887" lon="0.36505">
        <ele>40.1</ele>
        <time>2023-08-26T09:12:46Z</time>
      </trkpt>
      <trkpt lat="44.88879" lon="0.36503">
        <ele>40</ele>
        <time>2023-08-26T09:12:48Z</time>
      </trkpt>
      <trkpt lat="44.88877" lon="0.365">
        <ele>40</ele>
        <time>2023-08-26T09:12:49Z</time>
      </trkpt>
      <trkpt lat="44.8887" lon="0.36495">
        <ele>39.9</ele>
        <time>2023-08-26T09:12:51Z</time>
      </trkpt>
      <trkpt lat="44.88853" lon="0.36481">
        <ele>39.9</ele>
        <time>2023-08-26T09:12:56Z</time>
      </trkpt>
      <trkpt lat="44.88843" lon="0.36475">
        <ele>39.9</ele>
        <time>2023-08-26T09:12:59Z</time>
      </trkpt>
      <trkpt lat="44.88841" lon="0.36473">
        <ele>39.9</ele>
        <time>2023-08-26T09:13:00Z</time>
      </trkpt>
      <trkpt lat="44.88837" lon="0.36471">
        <ele>39.9</ele>
        <time>2023-08-26T09:13:01Z</time>
      </trkpt>
      <trkpt lat="44.88827" lon="0.36472">
        <ele>40</ele>
        <time>2023-08-26T09:13:03Z</time>
      </trkpt>
      <trkpt lat="44.88815" lon="0.36477">
        <ele>40.1</ele>
        <time>2023-08-26T09:13:06Z</time>
      </trkpt>
      <trkpt lat="44.88812" lon="0.36479">
        <ele>40.1</ele>
        <time>2023-08-26T09:13:07Z</time>
      </trkpt>
      <trkpt lat="44.88804" lon="0.36484">
        <ele>40.1</ele>
        <time>2023-08-26T09:13:10Z</time>
      </trkpt>
      <trkpt lat="44.88801" lon="0.36485">
        <ele>40.1</ele>
        <time>2023-08-26T09:13:11Z</time>
      </trkpt>
      <trkpt lat="44.88798" lon="0.36486">
        <ele>40.1</ele>
        <time>2023-08-26T09:13:12Z</time>
      </trkpt>
      <trkpt lat="44.88797" lon="0.36488">
        <ele>40.1</ele>
        <time>2023-08-26T09:13:15Z</time>
      </trkpt>
      <trkpt lat="44.88797" lon="0.3649">
        <ele>40.1</ele>
        <time>2023-08-26T09:13:16Z</time>
      </trkpt>
      <trkpt lat="44.88799" lon="0.36502">
        <ele>40</ele>
        <time>2023-08-26T09:13:20Z</time>
      </trkpt>
      <trkpt lat="44.888" lon="0.36506">
        <ele>40</ele>
        <time>2023-08-26T09:13:21Z</time>
      </trkpt>
      <trkpt lat="44.88802" lon="0.36509">
        <ele>40</ele>
        <time>2023-08-26T09:13:23Z</time>
      </trkpt>
      <trkpt lat="44.88806" lon="0.36511">
        <ele>39.9</ele>
        <time>2023-08-26T09:13:25Z</time>
      </trkpt>
      <trkpt lat="44.88808" lon="0.36514">
        <ele>39.9</ele>
        <time>2023-08-26T09:13:26Z</time>
      </trkpt>
      <trkpt lat="44.8881" lon="0.36515">
        <ele>39.9</ele>
        <time>2023-08-26T09:13:27Z</time>
      </trkpt>
      <trkpt lat="44.88814" lon="0.3652">
        <ele>39.9</ele>
        <time>2023-08-26T09:13:29Z</time>
      </trkpt>
      <trkpt lat="44.88817" lon="0.36526">
        <ele>39.9</ele>
        <time>2023-08-26T09:13:31Z</time>
      </trkpt>
      <trkpt lat="44.88822" lon="0.36529">
        <ele>39.9</ele>
        <time>2023-08-26T09:13:33Z</time>
      </trkpt>
      <trkpt lat="44.88825" lon="0.36529">
        <ele>39.9</ele>
        <time>2023-08-26T09:13:34Z</time>
      </trkpt>
      <trkpt lat="44.88833" lon="0.36531">
        <ele>39.9</ele>
        <time>2023-08-26T09:13:36Z</time>
      </trkpt>
      <trkpt lat="44.88837" lon="0.36533">
        <ele>39.9</ele>
        <time>2023-08-26T09:13:37Z</time>
      </trkpt>
      <trkpt lat="44.88852" lon="0.36536">
        <ele>40</ele>
        <time>2023-08-26T09:13:41Z</time>
      </trkpt>
      <trkpt lat="44.88856" lon="0.36539">
        <ele>40</ele>
        <time>2023-08-26T09:13:42Z</time>
      </trkpt>
      <trkpt lat="44.88877" lon="0.3655">
        <ele>40.2</ele>
        <time>2023-08-26T09:13:47Z</time>
      </trkpt>
      <trkpt lat="44.88889" lon="0.36552">
        <ele>40.2</ele>
        <time>2023-08-26T09:13:50Z</time>
      </trkpt>
      <trkpt lat="44.889" lon="0.36553">
        <ele>40.2</ele>
        <time>2023-08-26T09:13:54Z</time>
      </trkpt>
      <trkpt lat="44.88905" lon="0.3655">
        <ele>40.2</ele>
        <time>2023-08-26T09:13:56Z</time>
      </trkpt>
      <trkpt lat="44.88908" lon="0.3655">
        <ele>40.2</ele>
        <time>2023-08-26T09:13:57Z</time>
      </trkpt>
      <trkpt lat="44.88917" lon="0.3655">
        <ele>40.1</ele>
        <time>2023-08-26T09:14:00Z</time>
      </trkpt>
      <trkpt lat="44.88924" lon="0.36551">
        <ele>40</ele>
        <time>2023-08-26T09:14:02Z</time>
      </trkpt>
      <trkpt lat="44.88929" lon="0.36556">
        <ele>39.9</ele>
        <time>2023-08-26T09:14:04Z</time>
      </trkpt>
      <trkpt lat="44.88945" lon="0.36561">
        <ele>39.7</ele>
        <time>2023-08-26T09:14:08Z</time>
      </trkpt>
      <trkpt lat="44.88958" lon="0.36569">
        <ele>39.4</ele>
        <time>2023-08-26T09:14:12Z</time>
      </trkpt>
      <trkpt lat="44.8896" lon="0.36574">
        <ele>39.4</ele>
        <time>2023-08-26T09:14:13Z</time>
      </trkpt>
      <trkpt lat="44.88965" lon="0.36585">
        <ele>39.2</ele>
        <time>2023-08-26T09:14:16Z</time>
      </trkpt>
      <trkpt lat="44.88966" lon="0.3659">
        <ele>39.1</ele>
        <time>2023-08-26T09:14:17Z</time>
      </trkpt>
      <trkpt lat="44.88966" lon="0.366">
        <ele>38.9</ele>
        <time>2023-08-26T09:14:19Z</time>
      </trkpt>
      <trkpt lat="44.88965" lon="0.36608">
        <ele>38.6</ele>
        <time>2023-08-26T09:14:21Z</time>
      </trkpt>
      <trkpt lat="44.8896" lon="0.36618">
        <ele>38.2</ele>
        <time>2023-08-26T09:14:24Z</time>
      </trkpt>
      <trkpt lat="44.88958" lon="0.36622">
        <ele>38</ele>
        <time>2023-08-26T09:14:25Z</time>
      </trkpt>
      <trkpt lat="44.88957" lon="0.36625">
        <ele>37.9</ele>
        <time>2023-08-26T09:14:26Z</time>
      </trkpt>
      <trkpt lat="44.88955" lon="0.3663">
        <ele>37.7</ele>
        <time>2023-08-26T09:14:27Z</time>
      </trkpt>
      <trkpt lat="44.88951" lon="0.3664">
        <ele>37.5</ele>
        <time>2023-08-26T09:14:29Z</time>
      </trkpt>
      <trkpt lat="44.88951" lon="0.36644">
        <ele>37.4</ele>
        <time>2023-08-26T09:14:30Z</time>
      </trkpt>
      <trkpt lat="44.88955" lon="0.36665">
        <ele>37.2</ele>
        <time>2023-08-26T09:14:35Z</time>
      </trkpt>
      <trkpt lat="44.88959" lon="0.36675">
        <ele>37.2</ele>
        <time>2023-08-26T09:14:38Z</time>
      </trkpt>
      <trkpt lat="44.88961" lon="0.3668">
        <ele>37.2</ele>
        <time>2023-08-26T09:14:39Z</time>
      </trkpt>
      <trkpt lat="44.88964" lon="0.36688">
        <ele>37.3</ele>
        <time>2023-08-26T09:14:41Z</time>
      </trkpt>
      <trkpt lat="44.88966" lon="0.36693">
        <ele>37.4</ele>
        <time>2023-08-26T09:14:42Z</time>
      </trkpt>
      <trkpt lat="44.88968" lon="0.36698">
        <ele>37.4</ele>
        <time>2023-08-26T09:14:43Z</time>
      </trkpt>
      <trkpt lat="44.88975" lon="0.36706">
        <ele>37.8</ele>
        <time>2023-08-26T09:14:45Z</time>
      </trkpt>
      <trkpt lat="44.88982" lon="0.3672">
        <ele>38.4</ele>
        <time>2023-08-26T09:14:48Z</time>
      </trkpt>
      <trkpt lat="44.88992" lon="0.36737">
        <ele>39.1</ele>
        <time>2023-08-26T09:14:52Z</time>
      </trkpt>
      <trkpt lat="44.89009" lon="0.36754">
        <ele>39.9</ele>
        <time>2023-08-26T09:14:56Z</time>
      </trkpt>
      <trkpt lat="44.89016" lon="0.36762">
        <ele>40</ele>
        <time>2023-08-26T09:14:58Z</time>
      </trkpt>
      <trkpt lat="44.89021" lon="0.36772">
        <ele>40</ele>
        <time>2023-08-26T09:15:00Z</time>
      </trkpt>
      <trkpt lat="44.89025" lon="0.3679">
        <ele>39.8</ele>
        <time>2023-08-26T09:15:03Z</time>
      </trkpt>
      <trkpt lat="44.89026" lon="0.36796">
        <ele>39.6</ele>
        <time>2023-08-26T09:15:04Z</time>
      </trkpt>
      <trkpt lat="44.89036" lon="0.3682">
        <ele>39.2</ele>
        <time>2023-08-26T09:15:09Z</time>
      </trkpt>
      <trkpt lat="44.89049" lon="0.36834">
        <ele>39.1</ele>
        <time>2023-08-26T09:15:13Z</time>
      </trkpt>
      <trkpt lat="44.89061" lon="0.36846">
        <ele>38.9</ele>
        <time>2023-08-26T09:15:17Z</time>
      </trkpt>
      <trkpt lat="44.89069" lon="0.36853">
        <ele>38.7</ele>
        <time>2023-08-26T09:15:21Z</time>
      </trkpt>
      <trkpt lat="44.89072" lon="0.36855">
        <ele>38.6</ele>
        <time>2023-08-26T09:15:22Z</time>
      </trkpt>
      <trkpt lat="44.89085" lon="0.36858">
        <ele>38.3</ele>
        <time>2023-08-26T09:15:25Z</time>
      </trkpt>
      <trkpt lat="44.89106" lon="0.36854">
        <ele>38.1</ele>
        <time>2023-08-26T09:15:29Z</time>
      </trkpt>
      <trkpt lat="44.89122" lon="0.36859">
        <ele>37.7</ele>
        <time>2023-08-26T09:15:33Z</time>
      </trkpt>
      <trkpt lat="44.8913" lon="0.36866">
        <ele>37.5</ele>
        <time>2023-08-26T09:15:36Z</time>
      </trkpt>
      <trkpt lat="44.89133" lon="0.36868">
        <ele>37.4</ele>
        <time>2023-08-26T09:15:37Z</time>
      </trkpt>
      <trkpt lat="44.89136" lon="0.36871">
        <ele>37.3</ele>
        <time>2023-08-26T09:15:38Z</time>
      </trkpt>
      <trkpt lat="44.89138" lon="0.3688">
        <ele>37.1</ele>
        <time>2023-08-26T09:15:40Z</time>
      </trkpt>
      <trkpt lat="44.89141" lon="0.36893">
        <ele>37</ele>
        <time>2023-08-26T09:15:42Z</time>
      </trkpt>
      <trkpt lat="44.89145" lon="0.36898">
        <ele>37</ele>
        <time>2023-08-26T09:15:43Z</time>
      </trkpt>
      <trkpt lat="44.89155" lon="0.36907">
        <ele>37</ele>
        <time>2023-08-26T09:15:46Z</time>
      </trkpt>
      <trkpt lat="44.89159" lon="0.3691">
        <ele>36.9</ele>
        <time>2023-08-26T09:15:47Z</time>
      </trkpt>
      <trkpt lat="44.89171" lon="0.36921">
        <ele>36.8</ele>
        <time>2023-08-26T09:15:51Z</time>
      </trkpt>
      <trkpt lat="44.89183" lon="0.36932">
        <ele>36.6</ele>
        <time>2023-08-26T09:15:54Z</time>
      </trkpt>
      <trkpt lat="44.89186" lon="0.36937">
        <ele>36.5</ele>
        <time>2023-08-26T09:15:55Z</time>
      </trkpt>
      <trkpt lat="44.8919" lon="0.36945">
        <ele>36.4</ele>
        <time>2023-08-26T09:15:57Z</time>
      </trkpt>
      <trkpt lat="44.89206" lon="0.3695">
        <ele>36.2</ele>
        <time>2023-08-26T09:15:59Z</time>
      </trkpt>
      <trkpt lat="44.8922" lon="0.36958">
        <ele>36.2</ele>
        <time>2023-08-26T09:16:02Z</time>
      </trkpt>
      <trkpt lat="44.89223" lon="0.36961">
        <ele>36.3</ele>
        <time>2023-08-26T09:16:03Z</time>
      </trkpt>
      <trkpt lat="44.89238" lon="0.3698">
        <ele>36.4</ele>
        <time>2023-08-26T09:16:08Z</time>
      </trkpt>
      <trkpt lat="44.89251" lon="0.36989">
        <ele>36.3</ele>
        <time>2023-08-26T09:16:12Z</time>
      </trkpt>
      <trkpt lat="44.89257" lon="0.36992">
        <ele>36.2</ele>
        <time>2023-08-26T09:16:13Z</time>
      </trkpt>
      <trkpt lat="44.89265" lon="0.36999">
        <ele>35.9</ele>
        <time>2023-08-26T09:16:15Z</time>
      </trkpt>
      <trkpt lat="44.89268" lon="0.37002">
        <ele>35.7</ele>
        <time>2023-08-26T09:16:16Z</time>
      </trkpt>
      <trkpt lat="44.89275" lon="0.3701">
        <ele>35.6</ele>
        <time>2023-08-26T09:16:18Z</time>
      </trkpt>
      <trkpt lat="44.89284" lon="0.3703">
        <ele>34.7</ele>
        <time>2023-08-26T09:16:22Z</time>
      </trkpt>
      <trkpt lat="44.89293" lon="0.37049">
        <ele>33.7</ele>
        <time>2023-08-26T09:16:26Z</time>
      </trkpt>
      <trkpt lat="44.89303" lon="0.37065">
        <ele>33.2</ele>
        <time>2023-08-26T09:16:30Z</time>
      </trkpt>
      <trkpt lat="44.89306" lon="0.37069">
        <ele>33.1</ele>
        <time>2023-08-26T09:16:31Z</time>
      </trkpt>
      <trkpt lat="44.89315" lon="0.3708">
        <ele>33</ele>
        <time>2023-08-26T09:16:34Z</time>
      </trkpt>
      <trkpt lat="44.89323" lon="0.371">
        <ele>33.2</ele>
        <time>2023-08-26T09:16:38Z</time>
      </trkpt>
      <trkpt lat="44.89324" lon="0.37111">
        <ele>33.1</ele>
        <time>2023-08-26T09:16:41Z</time>
      </trkpt>
      <trkpt lat="44.89325" lon="0.37115">
        <ele>33.3</ele>
        <time>2023-08-26T09:16:42Z</time>
      </trkpt>
      <trkpt lat="44.89325" lon="0.37119">
        <ele>33.3</ele>
        <time>2023-08-26T09:16:43Z</time>
      </trkpt>
      <trkpt lat="44.89329" lon="0.37129">
        <ele>33.5</ele>
        <time>2023-08-26T09:16:45Z</time>
      </trkpt>
      <trkpt lat="44.89333" lon="0.3714">
        <ele>33.7</ele>
        <time>2023-08-26T09:16:47Z</time>
      </trkpt>
      <trkpt lat="44.89336" lon="0.37144">
        <ele>33.8</ele>
        <time>2023-08-26T09:16:48Z</time>
      </trkpt>
      <trkpt lat="44.89338" lon="0.37149">
        <ele>33.8</ele>
        <time>2023-08-26T09:16:49Z</time>
      </trkpt>
      <trkpt lat="44.89344" lon="0.37162">
        <ele>33.7</ele>
        <time>2023-08-26T09:16:52Z</time>
      </trkpt>
      <trkpt lat="44.89348" lon="0.37181">
        <ele>33.6</ele>
        <time>2023-08-26T09:16:56Z</time>
      </trkpt>
      <trkpt lat="44.89349" lon="0.37186">
        <ele>33.6</ele>
        <time>2023-08-26T09:16:57Z</time>
      </trkpt>
      <trkpt lat="44.89355" lon="0.37196">
        <ele>33.3</ele>
        <time>2023-08-26T09:16:59Z</time>
      </trkpt>
      <trkpt lat="44.89369" lon="0.37214">
        <ele>33.1</ele>
        <time>2023-08-26T09:17:03Z</time>
      </trkpt>
      <trkpt lat="44.89379" lon="0.37231">
        <ele>33.2</ele>
        <time>2023-08-26T09:17:07Z</time>
      </trkpt>
      <trkpt lat="44.89382" lon="0.37235">
        <ele>33.3</ele>
        <time>2023-08-26T09:17:08Z</time>
      </trkpt>
      <trkpt lat="44.89387" lon="0.37245">
        <ele>33.6</ele>
        <time>2023-08-26T09:17:10Z</time>
      </trkpt>
      <trkpt lat="44.89392" lon="0.37253">
        <ele>34</ele>
        <time>2023-08-26T09:17:12Z</time>
      </trkpt>
      <trkpt lat="44.89392" lon="0.37257">
        <ele>34.3</ele>
        <time>2023-08-26T09:17:13Z</time>
      </trkpt>
      <trkpt lat="44.89401" lon="0.37264">
        <ele>34.9</ele>
        <time>2023-08-26T09:17:16Z</time>
      </trkpt>
      <trkpt lat="44.89416" lon="0.37275">
        <ele>35.6</ele>
        <time>2023-08-26T09:17:21Z</time>
      </trkpt>
      <trkpt lat="44.89423" lon="0.37289">
        <ele>36.7</ele>
        <time>2023-08-26T09:17:25Z</time>
      </trkpt>
      <trkpt lat="44.89426" lon="0.37299">
        <ele>37.8</ele>
        <time>2023-08-26T09:17:28Z</time>
      </trkpt>
      <trkpt lat="44.89429" lon="0.37302">
        <ele>37.8</ele>
        <time>2023-08-26T09:17:29Z</time>
      </trkpt>
      <trkpt lat="44.89437" lon="0.37313">
        <ele>38.8</ele>
        <time>2023-08-26T09:17:32Z</time>
      </trkpt>
      <trkpt lat="44.89439" lon="0.37318">
        <ele>39</ele>
        <time>2023-08-26T09:17:33Z</time>
      </trkpt>
      <trkpt lat="44.89439" lon="0.37323">
        <ele>39.2</ele>
        <time>2023-08-26T09:17:34Z</time>
      </trkpt>
      <trkpt lat="44.89442" lon="0.37336">
        <ele>39.9</ele>
        <time>2023-08-26T09:17:38Z</time>
      </trkpt>
      <trkpt lat="44.89443" lon="0.37338">
        <ele>40.1</ele>
        <time>2023-08-26T09:17:39Z</time>
      </trkpt>
      <trkpt lat="44.8945" lon="0.37347">
        <ele>40.3</ele>
        <time>2023-08-26T09:17:41Z</time>
      </trkpt>
      <trkpt lat="44.89452" lon="0.37351">
        <ele>40.4</ele>
        <time>2023-08-26T09:17:42Z</time>
      </trkpt>
      <trkpt lat="44.89452" lon="0.37356">
        <ele>40.7</ele>
        <time>2023-08-26T09:17:44Z</time>
      </trkpt>
      <trkpt lat="44.89451" lon="0.37358">
        <ele>40.7</ele>
        <time>2023-08-26T09:17:45Z</time>
      </trkpt>
      <trkpt lat="44.89447" lon="0.37362">
        <ele>41</ele>
        <time>2023-08-26T09:17:47Z</time>
      </trkpt>
      <trkpt lat="44.89446" lon="0.37364">
        <ele>41.1</ele>
        <time>2023-08-26T09:17:48Z</time>
      </trkpt>
      <trkpt lat="44.89446" lon="0.3737">
        <ele>41.2</ele>
        <time>2023-08-26T09:17:50Z</time>
      </trkpt>
      <trkpt lat="44.89446" lon="0.37375">
        <ele>41.3</ele>
        <time>2023-08-26T09:17:51Z</time>
      </trkpt>
      <trkpt lat="44.8945" lon="0.37385">
        <ele>41.3</ele>
        <time>2023-08-26T09:17:53Z</time>
      </trkpt>
      <trkpt lat="44.89457" lon="0.37397">
        <ele>41.2</ele>
        <time>2023-08-26T09:17:56Z</time>
      </trkpt>
      <trkpt lat="44.89457" lon="0.37416">
        <ele>41.2</ele>
        <time>2023-08-26T09:18:00Z</time>
      </trkpt>
      <trkpt lat="44.89465" lon="0.37415">
        <ele>40.8</ele>
        <time>2023-08-26T09:18:03Z</time>
      </trkpt>
      <trkpt lat="44.89473" lon="0.37413">
        <ele>40.5</ele>
        <time>2023-08-26T09:18:05Z</time>
      </trkpt>
      <trkpt lat="44.89477" lon="0.37415">
        <ele>40.5</ele>
        <time>2023-08-26T09:18:06Z</time>
      </trkpt>
      <trkpt lat="44.89484" lon="0.3742">
        <ele>40.6</ele>
        <time>2023-08-26T09:18:08Z</time>
      </trkpt>
      <trkpt lat="44.89486" lon="0.37423">
        <ele>40.7</ele>
        <time>2023-08-26T09:18:09Z</time>
      </trkpt>
      <trkpt lat="44.89494" lon="0.37441">
        <ele>40.8</ele>
        <time>2023-08-26T09:18:13Z</time>
      </trkpt>
      <trkpt lat="44.89496" lon="0.37453">
        <ele>41</ele>
        <time>2023-08-26T09:18:16Z</time>
      </trkpt>
      <trkpt lat="44.89496" lon="0.37457">
        <ele>41</ele>
        <time>2023-08-26T09:18:17Z</time>
      </trkpt>
      <trkpt lat="44.89496" lon="0.37477">
        <ele>41.2</ele>
        <time>2023-08-26T09:18:21Z</time>
      </trkpt>
      <trkpt lat="44.89497" lon="0.3748">
        <ele>41.2</ele>
        <time>2023-08-26T09:18:22Z</time>
      </trkpt>
      <trkpt lat="44.89498" lon="0.37484">
        <ele>41.2</ele>
        <time>2023-08-26T09:18:23Z</time>
      </trkpt>
      <trkpt lat="44.89499" lon="0.37492">
        <ele>41.3</ele>
        <time>2023-08-26T09:18:25Z</time>
      </trkpt>
      <trkpt lat="44.895" lon="0.37507">
        <ele>41.4</ele>
        <time>2023-08-26T09:18:28Z</time>
      </trkpt>
      <trkpt lat="44.89506" lon="0.37526">
        <ele>41.7</ele>
        <time>2023-08-26T09:18:33Z</time>
      </trkpt>
      <trkpt lat="44.89506" lon="0.37535">
        <ele>41.8</ele>
        <time>2023-08-26T09:18:35Z</time>
      </trkpt>
      <trkpt lat="44.89504" lon="0.37538">
        <ele>41.9</ele>
        <time>2023-08-26T09:18:36Z</time>
      </trkpt>
      <trkpt lat="44.89501" lon="0.37542">
        <ele>42</ele>
        <time>2023-08-26T09:18:37Z</time>
      </trkpt>
      <trkpt lat="44.895" lon="0.37549">
        <ele>42.2</ele>
        <time>2023-08-26T09:18:39Z</time>
      </trkpt>
      <trkpt lat="44.89502" lon="0.37563">
        <ele>42.5</ele>
        <time>2023-08-26T09:18:42Z</time>
      </trkpt>
      <trkpt lat="44.89502" lon="0.3757">
        <ele>42.6</ele>
        <time>2023-08-26T09:18:43Z</time>
      </trkpt>
      <trkpt lat="44.89504" lon="0.37594">
        <ele>43</ele>
        <time>2023-08-26T09:18:48Z</time>
      </trkpt>
      <trkpt lat="44.8951" lon="0.37611">
        <ele>43.4</ele>
        <time>2023-08-26T09:18:52Z</time>
      </trkpt>
      <trkpt lat="44.89516" lon="0.37625">
        <ele>43.8</ele>
        <time>2023-08-26T09:18:55Z</time>
      </trkpt>
      <trkpt lat="44.89517" lon="0.37629">
        <ele>43.8</ele>
        <time>2023-08-26T09:18:56Z</time>
      </trkpt>
      <trkpt lat="44.89524" lon="0.3766">
        <ele>44.3</ele>
        <time>2023-08-26T09:19:02Z</time>
      </trkpt>
      <trkpt lat="44.89527" lon="0.37666">
        <ele>44.4</ele>
        <time>2023-08-26T09:19:04Z</time>
      </trkpt>
      <trkpt lat="44.8953" lon="0.37676">
        <ele>44.5</ele>
        <time>2023-08-26T09:19:07Z</time>
      </trkpt>
      <trkpt lat="44.89536" lon="0.37683">
        <ele>44.6</ele>
        <time>2023-08-26T09:19:10Z</time>
      </trkpt>
      <trkpt lat="44.89538" lon="0.37685">
        <ele>44.7</ele>
        <time>2023-08-26T09:19:11Z</time>
      </trkpt>
      <trkpt lat="44.89541" lon="0.3769">
        <ele>44.8</ele>
        <time>2023-08-26T09:19:14Z</time>
      </trkpt>
      <trkpt lat="44.89551" lon="0.37698">
        <ele>44.9</ele>
        <time>2023-08-26T09:19:18Z</time>
      </trkpt>
      <trkpt lat="44.89554" lon="0.377">
        <ele>45</ele>
        <time>2023-08-26T09:19:19Z</time>
      </trkpt>
      <trkpt lat="44.89558" lon="0.37704">
        <ele>45</ele>
        <time>2023-08-26T09:19:20Z</time>
      </trkpt>
      <trkpt lat="44.89566" lon="0.37709">
        <ele>45.1</ele>
        <time>2023-08-26T09:19:22Z</time>
      </trkpt>
      <trkpt lat="44.8957" lon="0.37722">
        <ele>45.3</ele>
        <time>2023-08-26T09:19:25Z</time>
      </trkpt>
      <trkpt lat="44.89575" lon="0.37732">
        <ele>45.4</ele>
        <time>2023-08-26T09:19:28Z</time>
      </trkpt>
      <trkpt lat="44.8958" lon="0.37737">
        <ele>45.4</ele>
        <time>2023-08-26T09:19:30Z</time>
      </trkpt>
      <trkpt lat="44.89582" lon="0.3774">
        <ele>45.5</ele>
        <time>2023-08-26T09:19:31Z</time>
      </trkpt>
      <trkpt lat="44.89585" lon="0.37747">
        <ele>45.6</ele>
        <time>2023-08-26T09:19:33Z</time>
      </trkpt>
      <trkpt lat="44.89587" lon="0.37751">
        <ele>45.6</ele>
        <time>2023-08-26T09:19:34Z</time>
      </trkpt>
      <trkpt lat="44.89595" lon="0.37766">
        <ele>45.7</ele>
        <time>2023-08-26T09:19:38Z</time>
      </trkpt>
      <trkpt lat="44.89608" lon="0.37776">
        <ele>45.8</ele>
        <time>2023-08-26T09:19:42Z</time>
      </trkpt>
      <trkpt lat="44.89616" lon="0.37787">
        <ele>45.8</ele>
        <time>2023-08-26T09:19:47Z</time>
      </trkpt>
      <trkpt lat="44.8962" lon="0.37796">
        <ele>45.8</ele>
        <time>2023-08-26T09:19:52Z</time>
      </trkpt>
      <trkpt lat="44.89629" lon="0.37795">
        <ele>45.8</ele>
        <time>2023-08-26T09:19:56Z</time>
      </trkpt>
      <trkpt lat="44.89634" lon="0.37791">
        <ele>45.9</ele>
        <time>2023-08-26T09:19:58Z</time>
      </trkpt>
      <trkpt lat="44.89646" lon="0.37785">
        <ele>45.8</ele>
        <time>2023-08-26T09:20:02Z</time>
      </trkpt>
      <trkpt lat="44.8965" lon="0.37782">
        <ele>45.9</ele>
        <time>2023-08-26T09:20:05Z</time>
      </trkpt>
      <trkpt lat="44.8966" lon="0.37782">
        <ele>46</ele>
        <time>2023-08-26T09:20:09Z</time>
      </trkpt>
      <trkpt lat="44.89663" lon="0.37788">
        <ele>45.7</ele>
        <time>2023-08-26T09:20:11Z</time>
      </trkpt>
      <trkpt lat="44.89663" lon="0.37791">
        <ele>45.7</ele>
        <time>2023-08-26T09:20:12Z</time>
      </trkpt>
      <trkpt lat="44.89668" lon="0.37793">
        <ele>45.6</ele>
        <time>2023-08-26T09:20:13Z</time>
      </trkpt>
      <trkpt lat="44.89669" lon="0.37796">
        <ele>45.5</ele>
        <time>2023-08-26T09:20:16Z</time>
      </trkpt>
      <trkpt lat="44.89677" lon="0.378">
        <ele>45.4</ele>
        <time>2023-08-26T09:20:19Z</time>
      </trkpt>
      <trkpt lat="44.89683" lon="0.37801">
        <ele>45.4</ele>
        <time>2023-08-26T09:20:21Z</time>
      </trkpt>
      <trkpt lat="44.89686" lon="0.37803">
        <ele>45.4</ele>
        <time>2023-08-26T09:20:22Z</time>
      </trkpt>
      <trkpt lat="44.89687" lon="0.37805">
        <ele>45.3</ele>
        <time>2023-08-26T09:20:23Z</time>
      </trkpt>
      <trkpt lat="44.89693" lon="0.37807">
        <ele>45.2</ele>
        <time>2023-08-26T09:20:25Z</time>
      </trkpt>
      <trkpt lat="44.89693" lon="0.37812">
        <ele>45.1</ele>
        <time>2023-08-26T09:20:27Z</time>
      </trkpt>
      <trkpt lat="44.89693" lon="0.37819">
        <ele>44.9</ele>
        <time>2023-08-26T09:20:30Z</time>
      </trkpt>
      <trkpt lat="44.89694" lon="0.37822">
        <ele>44.7</ele>
        <time>2023-08-26T09:20:31Z</time>
      </trkpt>
      <trkpt lat="44.89701" lon="0.37837">
        <ele>44.3</ele>
        <time>2023-08-26T09:20:35Z</time>
      </trkpt>
      <trkpt lat="44.89708" lon="0.37842">
        <ele>44.1</ele>
        <time>2023-08-26T09:20:37Z</time>
      </trkpt>
      <trkpt lat="44.89713" lon="0.37849">
        <ele>43.8</ele>
        <time>2023-08-26T09:20:39Z</time>
      </trkpt>
      <trkpt lat="44.89714" lon="0.37852">
        <ele>43.7</ele>
        <time>2023-08-26T09:20:40Z</time>
      </trkpt>
      <trkpt lat="44.89719" lon="0.37856">
        <ele>43.6</ele>
        <time>2023-08-26T09:20:42Z</time>
      </trkpt>
      <trkpt lat="44.89722" lon="0.37858">
        <ele>43.6</ele>
        <time>2023-08-26T09:20:43Z</time>
      </trkpt>
      <trkpt lat="44.89727" lon="0.37863">
        <ele>43.6</ele>
        <time>2023-08-26T09:20:45Z</time>
      </trkpt>
      <trkpt lat="44.8973" lon="0.37867">
        <ele>43.5</ele>
        <time>2023-08-26T09:20:46Z</time>
      </trkpt>
      <trkpt lat="44.89732" lon="0.37871">
        <ele>43.5</ele>
        <time>2023-08-26T09:20:47Z</time>
      </trkpt>
      <trkpt lat="44.89736" lon="0.37875">
        <ele>43.4</ele>
        <time>2023-08-26T09:20:49Z</time>
      </trkpt>
      <trkpt lat="44.89749" lon="0.37895">
        <ele>43.4</ele>
        <time>2023-08-26T09:20:58Z</time>
      </trkpt>
      <trkpt lat="44.89756" lon="0.37892">
        <ele>43.4</ele>
        <time>2023-08-26T09:21:01Z</time>
      </trkpt>
      <trkpt lat="44.89755" lon="0.37891">
        <ele>43.4</ele>
        <time>2023-08-26T09:21:02Z</time>
      </trkpt>
      <trkpt lat="44.89754" lon="0.37882">
        <ele>43.4</ele>
        <time>2023-08-26T09:21:05Z</time>
      </trkpt>
      <trkpt lat="44.89756" lon="0.37877">
        <ele>43.4</ele>
        <time>2023-08-26T09:21:06Z</time>
      </trkpt>
      <trkpt lat="44.89765" lon="0.37867">
        <ele>43.4</ele>
        <time>2023-08-26T09:21:08Z</time>
      </trkpt>
      <trkpt lat="44.89768" lon="0.37864">
        <ele>43.4</ele>
        <time>2023-08-26T09:21:09Z</time>
      </trkpt>
      <trkpt lat="44.89773" lon="0.37858">
        <ele>43.3</ele>
        <time>2023-08-26T09:21:12Z</time>
      </trkpt>
      <trkpt lat="44.89777" lon="0.37854">
        <ele>43.2</ele>
        <time>2023-08-26T09:21:14Z</time>
      </trkpt>
      <trkpt lat="44.89779" lon="0.37852">
        <ele>43.2</ele>
        <time>2023-08-26T09:21:15Z</time>
      </trkpt>
      <trkpt lat="44.89778" lon="0.37856">
        <ele>43.2</ele>
        <time>2023-08-26T09:21:17Z</time>
      </trkpt>
      <trkpt lat="44.89781" lon="0.37862">
        <ele>43.1</ele>
        <time>2023-08-26T09:21:19Z</time>
      </trkpt>
      <trkpt lat="44.89783" lon="0.37866">
        <ele>43.1</ele>
        <time>2023-08-26T09:21:20Z</time>
      </trkpt>
      <trkpt lat="44.89784" lon="0.37869">
        <ele>43</ele>
        <time>2023-08-26T09:21:21Z</time>
      </trkpt>
      <trkpt lat="44.89785" lon="0.37877">
        <ele>43</ele>
        <time>2023-08-26T09:21:23Z</time>
      </trkpt>
      <trkpt lat="44.89784" lon="0.37882">
        <ele>43</ele>
        <time>2023-08-26T09:21:24Z</time>
      </trkpt>
      <trkpt lat="44.89784" lon="0.37891">
        <ele>43</ele>
        <time>2023-08-26T09:21:26Z</time>
      </trkpt>
      <trkpt lat="44.89784" lon="0.37895">
        <ele>42.9</ele>
        <time>2023-08-26T09:21:27Z</time>
      </trkpt>
      <trkpt lat="44.89791" lon="0.37905">
        <ele>42.9</ele>
        <time>2023-08-26T09:21:30Z</time>
      </trkpt>
      <trkpt lat="44.89793" lon="0.37914">
        <ele>43</ele>
        <time>2023-08-26T09:21:32Z</time>
      </trkpt>
      <trkpt lat="44.89793" lon="0.37927">
        <ele>43</ele>
        <time>2023-08-26T09:21:34Z</time>
      </trkpt>
      <trkpt lat="44.89795" lon="0.3793">
        <ele>43</ele>
        <time>2023-08-26T09:21:35Z</time>
      </trkpt>
      <trkpt lat="44.89803" lon="0.37929">
        <ele>43</ele>
        <time>2023-08-26T09:21:38Z</time>
      </trkpt>
      <trkpt lat="44.89814" lon="0.37928">
        <ele>42.9</ele>
        <time>2023-08-26T09:21:41Z</time>
      </trkpt>
      <trkpt lat="44.89819" lon="0.37929">
        <ele>42.9</ele>
        <time>2023-08-26T09:21:42Z</time>
      </trkpt>
      <trkpt lat="44.89823" lon="0.37929">
        <ele>42.9</ele>
        <time>2023-08-26T09:21:43Z</time>
      </trkpt>
      <trkpt lat="44.89829" lon="0.37942">
        <ele>43</ele>
        <time>2023-08-26T09:21:47Z</time>
      </trkpt>
      <trkpt lat="44.89835" lon="0.3795">
        <ele>43</ele>
        <time>2023-08-26T09:21:49Z</time>
      </trkpt>
      <trkpt lat="44.8984" lon="0.37961">
        <ele>43.1</ele>
        <time>2023-08-26T09:21:51Z</time>
      </trkpt>
      <trkpt lat="44.89848" lon="0.37975">
        <ele>43.2</ele>
        <time>2023-08-26T09:21:54Z</time>
      </trkpt>
      <trkpt lat="44.8986" lon="0.37991">
        <ele>43.5</ele>
        <time>2023-08-26T09:21:59Z</time>
      </trkpt>
      <trkpt lat="44.89863" lon="0.37993">
        <ele>43.5</ele>
        <time>2023-08-26T09:22:00Z</time>
      </trkpt>
      <trkpt lat="44.89869" lon="0.37995">
        <ele>43.6</ele>
        <time>2023-08-26T09:22:02Z</time>
      </trkpt>
      <trkpt lat="44.89883" lon="0.38001">
        <ele>43.7</ele>
        <time>2023-08-26T09:22:06Z</time>
      </trkpt>
      <trkpt lat="44.8989" lon="0.38007">
        <ele>43.8</ele>
        <time>2023-08-26T09:22:08Z</time>
      </trkpt>
      <trkpt lat="44.89896" lon="0.38012">
        <ele>43.9</ele>
        <time>2023-08-26T09:22:10Z</time>
      </trkpt>
      <trkpt lat="44.89906" lon="0.38029">
        <ele>44.3</ele>
        <time>2023-08-26T09:22:14Z</time>
      </trkpt>
      <trkpt lat="44.89913" lon="0.38042">
        <ele>44.5</ele>
        <time>2023-08-26T09:22:17Z</time>
      </trkpt>
      <trkpt lat="44.89916" lon="0.3805">
        <ele>44.7</ele>
        <time>2023-08-26T09:22:19Z</time>
      </trkpt>
      <trkpt lat="44.89917" lon="0.38054">
        <ele>44.8</ele>
        <time>2023-08-26T09:22:20Z</time>
      </trkpt>
      <trkpt lat="44.89925" lon="0.38075">
        <ele>45.3</ele>
        <time>2023-08-26T09:22:24Z</time>
      </trkpt>
      <trkpt lat="44.8993" lon="0.38086">
        <ele>45.5</ele>
        <time>2023-08-26T09:22:26Z</time>
      </trkpt>
      <trkpt lat="44.8993" lon="0.3809">
        <ele>45.5</ele>
        <time>2023-08-26T09:22:27Z</time>
      </trkpt>
      <trkpt lat="44.8993" lon="0.38102">
        <ele>45.5</ele>
        <time>2023-08-26T09:22:30Z</time>
      </trkpt>
      <trkpt lat="44.89929" lon="0.38106">
        <ele>45.4</ele>
        <time>2023-08-26T09:22:31Z</time>
      </trkpt>
      <trkpt lat="44.89928" lon="0.38111">
        <ele>45.4</ele>
        <time>2023-08-26T09:22:32Z</time>
      </trkpt>
      <trkpt lat="44.89927" lon="0.3812">
        <ele>45.2</ele>
        <time>2023-08-26T09:22:34Z</time>
      </trkpt>
      <trkpt lat="44.89925" lon="0.3813">
        <ele>45</ele>
        <time>2023-08-26T09:22:36Z</time>
      </trkpt>
      <trkpt lat="44.89924" lon="0.38141">
        <ele>44.7</ele>
        <time>2023-08-26T09:22:38Z</time>
      </trkpt>
      <trkpt lat="44.89926" lon="0.38163">
        <ele>44.2</ele>
        <time>2023-08-26T09:22:42Z</time>
      </trkpt>
      <trkpt lat="44.89928" lon="0.38186">
        <ele>43.8</ele>
        <time>2023-08-26T09:22:46Z</time>
      </trkpt>
      <trkpt lat="44.8993" lon="0.38199">
        <ele>43.7</ele>
        <time>2023-08-26T09:22:49Z</time>
      </trkpt>
      <trkpt lat="44.89935" lon="0.38206">
        <ele>43.6</ele>
        <time>2023-08-26T09:22:52Z</time>
      </trkpt>
      <trkpt lat="44.89934" lon="0.38214">
        <ele>43.4</ele>
        <time>2023-08-26T09:22:54Z</time>
      </trkpt>
      <trkpt lat="44.89935" lon="0.38222">
        <ele>43.2</ele>
        <time>2023-08-26T09:22:56Z</time>
      </trkpt>
      <trkpt lat="44.89942" lon="0.38237">
        <ele>43.5</ele>
        <time>2023-08-26T09:23:00Z</time>
      </trkpt>
      <trkpt lat="44.89948" lon="0.38251">
        <ele>43.6</ele>
        <time>2023-08-26T09:23:03Z</time>
      </trkpt>
      <trkpt lat="44.8995" lon="0.38254">
        <ele>43.6</ele>
        <time>2023-08-26T09:23:04Z</time>
      </trkpt>
      <trkpt lat="44.89953" lon="0.38259">
        <ele>43.5</ele>
        <time>2023-08-26T09:23:06Z</time>
      </trkpt>
      <trkpt lat="44.89955" lon="0.38265">
        <ele>43.5</ele>
        <time>2023-08-26T09:23:08Z</time>
      </trkpt>
      <trkpt lat="44.89959" lon="0.38272">
        <ele>43.4</ele>
        <time>2023-08-26T09:23:10Z</time>
      </trkpt>
      <trkpt lat="44.89968" lon="0.38292">
        <ele>42.8</ele>
        <time>2023-08-26T09:23:14Z</time>
      </trkpt>
      <trkpt lat="44.89971" lon="0.38299">
        <ele>42.3</ele>
        <time>2023-08-26T09:23:16Z</time>
      </trkpt>
      <trkpt lat="44.89973" lon="0.38302">
        <ele>42</ele>
        <time>2023-08-26T09:23:17Z</time>
      </trkpt>
      <trkpt lat="44.89981" lon="0.38307">
        <ele>41.7</ele>
        <time>2023-08-26T09:23:20Z</time>
      </trkpt>
      <trkpt lat="44.89983" lon="0.3831">
        <ele>41.8</ele>
        <time>2023-08-26T09:23:21Z</time>
      </trkpt>
      <trkpt lat="44.89986" lon="0.38312">
        <ele>41.4</ele>
        <time>2023-08-26T09:23:22Z</time>
      </trkpt>
      <trkpt lat="44.89992" lon="0.38322">
        <ele>40.9</ele>
        <time>2023-08-26T09:23:25Z</time>
      </trkpt>
      <trkpt lat="44.90002" lon="0.38329">
        <ele>40.4</ele>
        <time>2023-08-26T09:23:28Z</time>
      </trkpt>
      <trkpt lat="44.9001" lon="0.38328">
        <ele>40.6</ele>
        <time>2023-08-26T09:23:30Z</time>
      </trkpt>
      <trkpt lat="44.90013" lon="0.38326">
        <ele>40.9</ele>
        <time>2023-08-26T09:23:31Z</time>
      </trkpt>
      <trkpt lat="44.9002" lon="0.3832">
        <ele>41.2</ele>
        <time>2023-08-26T09:23:33Z</time>
      </trkpt>
      <trkpt lat="44.90026" lon="0.38316">
        <ele>41.6</ele>
        <time>2023-08-26T09:23:36Z</time>
      </trkpt>
      <trkpt lat="44.90035" lon="0.38309">
        <ele>42.4</ele>
        <time>2023-08-26T09:23:39Z</time>
      </trkpt>
      <trkpt lat="44.90041" lon="0.38309">
        <ele>42.5</ele>
        <time>2023-08-26T09:23:42Z</time>
      </trkpt>
      <trkpt lat="44.9004" lon="0.38321">
        <ele>41.7</ele>
        <time>2023-08-26T09:23:47Z</time>
      </trkpt>
      <trkpt lat="44.9004" lon="0.38327">
        <ele>41.4</ele>
        <time>2023-08-26T09:23:49Z</time>
      </trkpt>
      <trkpt lat="44.90038" lon="0.38342">
        <ele>40.6</ele>
        <time>2023-08-26T09:23:53Z</time>
      </trkpt>
      <trkpt lat="44.90037" lon="0.38344">
        <ele>40.5</ele>
        <time>2023-08-26T09:23:54Z</time>
      </trkpt>
      <trkpt lat="44.90038" lon="0.38344">
        <ele>40.5</ele>
        <time>2023-08-26T09:23:56Z</time>
      </trkpt>
      <trkpt lat="44.90037" lon="0.38348">
        <ele>40.3</ele>
        <time>2023-08-26T09:23:57Z</time>
      </trkpt>
      <trkpt lat="44.90039" lon="0.38355">
        <ele>40.1</ele>
        <time>2023-08-26T09:23:59Z</time>
      </trkpt>
      <trkpt lat="44.90037" lon="0.38373">
        <ele>39.8</ele>
        <time>2023-08-26T09:24:03Z</time>
      </trkpt>
      <trkpt lat="44.90038" lon="0.3838">
        <ele>39.7</ele>
        <time>2023-08-26T09:24:05Z</time>
      </trkpt>
      <trkpt lat="44.90038" lon="0.38382">
        <ele>39.7</ele>
        <time>2023-08-26T09:24:06Z</time>
      </trkpt>
      <trkpt lat="44.90036" lon="0.38402">
        <ele>39.8</ele>
        <time>2023-08-26T09:24:10Z</time>
      </trkpt>
      <trkpt lat="44.90034" lon="0.38407">
        <ele>39.7</ele>
        <time>2023-08-26T09:24:11Z</time>
      </trkpt>
      <trkpt lat="44.90026" lon="0.38416">
        <ele>39.6</ele>
        <time>2023-08-26T09:24:14Z</time>
      </trkpt>
      <trkpt lat="44.90021" lon="0.38427">
        <ele>39.7</ele>
        <time>2023-08-26T09:24:17Z</time>
      </trkpt>
      <trkpt lat="44.90014" lon="0.38439">
        <ele>39.5</ele>
        <time>2023-08-26T09:24:21Z</time>
      </trkpt>
      <trkpt lat="44.90013" lon="0.3844">
        <ele>39.5</ele>
        <time>2023-08-26T09:24:22Z</time>
      </trkpt>
      <trkpt lat="44.90005" lon="0.38443">
        <ele>39.3</ele>
        <time>2023-08-26T09:24:24Z</time>
      </trkpt>
      <trkpt lat="44.89997" lon="0.38448">
        <ele>39.1</ele>
        <time>2023-08-26T09:24:27Z</time>
      </trkpt>
      <trkpt lat="44.89992" lon="0.38451">
        <ele>39</ele>
        <time>2023-08-26T09:24:28Z</time>
      </trkpt>
      <trkpt lat="44.89989" lon="0.38455">
        <ele>38.9</ele>
        <time>2023-08-26T09:24:29Z</time>
      </trkpt>
      <trkpt lat="44.89985" lon="0.38462">
        <ele>38.8</ele>
        <time>2023-08-26T09:24:31Z</time>
      </trkpt>
      <trkpt lat="44.89978" lon="0.38475">
        <ele>38.5</ele>
        <time>2023-08-26T09:24:34Z</time>
      </trkpt>
      <trkpt lat="44.89965" lon="0.38483">
        <ele>38.3</ele>
        <time>2023-08-26T09:24:38Z</time>
      </trkpt>
      <trkpt lat="44.89955" lon="0.38489">
        <ele>38.3</ele>
        <time>2023-08-26T09:24:41Z</time>
      </trkpt>
      <trkpt lat="44.89952" lon="0.38491">
        <ele>38.3</ele>
        <time>2023-08-26T09:24:42Z</time>
      </trkpt>
      <trkpt lat="44.89946" lon="0.38497">
        <ele>38.3</ele>
        <time>2023-08-26T09:24:45Z</time>
      </trkpt>
      <trkpt lat="44.89942" lon="0.385">
        <ele>38.4</ele>
        <time>2023-08-26T09:24:47Z</time>
      </trkpt>
      <trkpt lat="44.89937" lon="0.38504">
        <ele>38.6</ele>
        <time>2023-08-26T09:24:49Z</time>
      </trkpt>
      <trkpt lat="44.89933" lon="0.38514">
        <ele>38.9</ele>
        <time>2023-08-26T09:24:52Z</time>
      </trkpt>
      <trkpt lat="44.89931" lon="0.3853">
        <ele>39.5</ele>
        <time>2023-08-26T09:24:56Z</time>
      </trkpt>
      <trkpt lat="44.89933" lon="0.38532">
        <ele>39.3</ele>
        <time>2023-08-26T09:24:57Z</time>
      </trkpt>
      <trkpt lat="44.89934" lon="0.38537">
        <ele>39.4</ele>
        <time>2023-08-26T09:24:58Z</time>
      </trkpt>
      <trkpt lat="44.89932" lon="0.38545">
        <ele>40.1</ele>
        <time>2023-08-26T09:25:00Z</time>
      </trkpt>
      <trkpt lat="44.89931" lon="0.38551">
        <ele>40.7</ele>
        <time>2023-08-26T09:25:01Z</time>
      </trkpt>
      <trkpt lat="44.89934" lon="0.3856">
        <ele>41.3</ele>
        <time>2023-08-26T09:25:03Z</time>
      </trkpt>
      <trkpt lat="44.89943" lon="0.38573">
        <ele>41.8</ele>
        <time>2023-08-26T09:25:07Z</time>
      </trkpt>
      <trkpt lat="44.89946" lon="0.3858">
        <ele>42</ele>
        <time>2023-08-26T09:25:09Z</time>
      </trkpt>
      <trkpt lat="44.89949" lon="0.38588">
        <ele>42.9</ele>
        <time>2023-08-26T09:25:11Z</time>
      </trkpt>
      <trkpt lat="44.89958" lon="0.38607">
        <ele>46.2</ele>
        <time>2023-08-26T09:25:16Z</time>
      </trkpt>
      <trkpt lat="44.89961" lon="0.38615">
        <ele>47.7</ele>
        <time>2023-08-26T09:25:18Z</time>
      </trkpt>
      <trkpt lat="44.89965" lon="0.38624">
        <ele>48.1</ele>
        <time>2023-08-26T09:25:20Z</time>
      </trkpt>
      <trkpt lat="44.89968" lon="0.38626">
        <ele>48.4</ele>
        <time>2023-08-26T09:25:23Z</time>
      </trkpt>
      <trkpt lat="44.89978" lon="0.38619">
        <ele>45.5</ele>
        <time>2023-08-26T09:25:25Z</time>
      </trkpt>
      <trkpt lat="44.89987" lon="0.38616">
        <ele>44.3</ele>
        <time>2023-08-26T09:25:27Z</time>
      </trkpt>
      <trkpt lat="44.89996" lon="0.38627">
        <ele>44.5</ele>
        <time>2023-08-26T09:25:30Z</time>
      </trkpt>
      <trkpt lat="44.90005" lon="0.38647">
        <ele>47.3</ele>
        <time>2023-08-26T09:25:35Z</time>
      </trkpt>
      <trkpt lat="44.90007" lon="0.38652">
        <ele>47.5</ele>
        <time>2023-08-26T09:25:36Z</time>
      </trkpt>
      <trkpt lat="44.90011" lon="0.38661">
        <ele>48.2</ele>
        <time>2023-08-26T09:25:38Z</time>
      </trkpt>
      <trkpt lat="44.90016" lon="0.38681">
        <ele>49.4</ele>
        <time>2023-08-26T09:25:42Z</time>
      </trkpt>
      <trkpt lat="44.90023" lon="0.387">
        <ele>49.9</ele>
        <time>2023-08-26T09:25:46Z</time>
      </trkpt>
      <trkpt lat="44.90026" lon="0.38711">
        <ele>50</ele>
        <time>2023-08-26T09:25:48Z</time>
      </trkpt>
      <trkpt lat="44.90028" lon="0.38723">
        <ele>50</ele>
        <time>2023-08-26T09:25:50Z</time>
      </trkpt>
      <trkpt lat="44.90029" lon="0.38741">
        <ele>50.3</ele>
        <time>2023-08-26T09:25:54Z</time>
      </trkpt>
      <trkpt lat="44.9003" lon="0.38768">
        <ele>50.3</ele>
        <time>2023-08-26T09:25:59Z</time>
      </trkpt>
      <trkpt lat="44.9003" lon="0.38771">
        <ele>50.3</ele>
        <time>2023-08-26T09:26:00Z</time>
      </trkpt>
      <trkpt lat="44.90028" lon="0.38777">
        <ele>50.2</ele>
        <time>2023-08-26T09:26:02Z</time>
      </trkpt>
      <trkpt lat="44.90023" lon="0.38797">
        <ele>50.1</ele>
        <time>2023-08-26T09:26:06Z</time>
      </trkpt>
      <trkpt lat="44.90021" lon="0.38808">
        <ele>50</ele>
        <time>2023-08-26T09:26:08Z</time>
      </trkpt>
      <trkpt lat="44.90023" lon="0.38822">
        <ele>49.6</ele>
        <time>2023-08-26T09:26:11Z</time>
      </trkpt>
      <trkpt lat="44.90027" lon="0.38839">
        <ele>49.1</ele>
        <time>2023-08-26T09:26:14Z</time>
      </trkpt>
      <trkpt lat="44.90034" lon="0.38863">
        <ele>48.8</ele>
        <time>2023-08-26T09:26:18Z</time>
      </trkpt>
      <trkpt lat="44.90036" lon="0.38876">
        <ele>48.7</ele>
        <time>2023-08-26T09:26:20Z</time>
      </trkpt>
      <trkpt lat="44.90041" lon="0.38885">
        <ele>48.5</ele>
        <time>2023-08-26T09:26:22Z</time>
      </trkpt>
      <trkpt lat="44.90052" lon="0.389">
        <ele>48.1</ele>
        <time>2023-08-26T09:26:26Z</time>
      </trkpt>
      <trkpt lat="44.90055" lon="0.38903">
        <ele>48</ele>
        <time>2023-08-26T09:26:27Z</time>
      </trkpt>
      <trkpt lat="44.90063" lon="0.38907">
        <ele>47.9</ele>
        <time>2023-08-26T09:26:29Z</time>
      </trkpt>
      <trkpt lat="44.90072" lon="0.38922">
        <ele>47.7</ele>
        <time>2023-08-26T09:26:33Z</time>
      </trkpt>
      <trkpt lat="44.90073" lon="0.38932">
        <ele>47.6</ele>
        <time>2023-08-26T09:26:35Z</time>
      </trkpt>
      <trkpt lat="44.90075" lon="0.38936">
        <ele>47.6</ele>
        <time>2023-08-26T09:26:36Z</time>
      </trkpt>
      <trkpt lat="44.90075" lon="0.3895">
        <ele>47.5</ele>
        <time>2023-08-26T09:26:39Z</time>
      </trkpt>
      <trkpt lat="44.90078" lon="0.38973">
        <ele>47.5</ele>
        <time>2023-08-26T09:26:44Z</time>
      </trkpt>
      <trkpt lat="44.90079" lon="0.38977">
        <ele>47.5</ele>
        <time>2023-08-26T09:26:45Z</time>
      </trkpt>
      <trkpt lat="44.9008" lon="0.38986">
        <ele>47.4</ele>
        <time>2023-08-26T09:26:47Z</time>
      </trkpt>
      <trkpt lat="44.9008" lon="0.38991">
        <ele>47.4</ele>
        <time>2023-08-26T09:26:48Z</time>
      </trkpt>
      <trkpt lat="44.9008" lon="0.39005">
        <ele>47.4</ele>
        <time>2023-08-26T09:26:51Z</time>
      </trkpt>
      <trkpt lat="44.90082" lon="0.39008">
        <ele>47.4</ele>
        <time>2023-08-26T09:26:52Z</time>
      </trkpt>
      <trkpt lat="44.90088" lon="0.3901">
        <ele>47.5</ele>
        <time>2023-08-26T09:26:54Z</time>
      </trkpt>
      <trkpt lat="44.90099" lon="0.39008">
        <ele>47.8</ele>
        <time>2023-08-26T09:26:59Z</time>
      </trkpt>
      <trkpt lat="44.90107" lon="0.39001">
        <ele>48</ele>
        <time>2023-08-26T09:27:04Z</time>
      </trkpt>
      <trkpt lat="44.90113" lon="0.38995">
        <ele>48.2</ele>
        <time>2023-08-26T09:27:08Z</time>
      </trkpt>
      <trkpt lat="44.90114" lon="0.38993">
        <ele>48.2</ele>
        <time>2023-08-26T09:27:09Z</time>
      </trkpt>
      <trkpt lat="44.90114" lon="0.38988">
        <ele>48.1</ele>
        <time>2023-08-26T09:27:11Z</time>
      </trkpt>
      <trkpt lat="44.90113" lon="0.38985">
        <ele>48.1</ele>
        <time>2023-08-26T09:27:12Z</time>
      </trkpt>
      <trkpt lat="44.90112" lon="0.38976">
        <ele>48</ele>
        <time>2023-08-26T09:27:15Z</time>
      </trkpt>
      <trkpt lat="44.90113" lon="0.38973">
        <ele>47.9</ele>
        <time>2023-08-26T09:27:16Z</time>
      </trkpt>
      <trkpt lat="44.90116" lon="0.38957">
        <ele>47.9</ele>
        <time>2023-08-26T09:27:21Z</time>
      </trkpt>
      <trkpt lat="44.90117" lon="0.38939">
        <ele>47.8</ele>
        <time>2023-08-26T09:27:26Z</time>
      </trkpt>
      <trkpt lat="44.90115" lon="0.38936">
        <ele>47.7</ele>
        <time>2023-08-26T09:27:27Z</time>
      </trkpt>
      <trkpt lat="44.90114" lon="0.38928">
        <ele>47.6</ele>
        <time>2023-08-26T09:27:29Z</time>
      </trkpt>
      <trkpt lat="44.90114" lon="0.3891">
        <ele>47.5</ele>
        <time>2023-08-26T09:27:34Z</time>
      </trkpt>
      <trkpt lat="44.90114" lon="0.38901">
        <ele>47.4</ele>
        <time>2023-08-26T09:27:38Z</time>
      </trkpt>
      <trkpt lat="44.90116" lon="0.3889">
        <ele>47.5</ele>
        <time>2023-08-26T09:27:41Z</time>
      </trkpt>
      <trkpt lat="44.9012" lon="0.38882">
        <ele>47.4</ele>
        <time>2023-08-26T09:27:44Z</time>
      </trkpt>
      <trkpt lat="44.90122" lon="0.38881">
        <ele>47.4</ele>
        <time>2023-08-26T09:27:45Z</time>
      </trkpt>
      <trkpt lat="44.90124" lon="0.38879">
        <ele>47.4</ele>
        <time>2023-08-26T09:27:46Z</time>
      </trkpt>
      <trkpt lat="44.90127" lon="0.38873">
        <ele>47.3</ele>
        <time>2023-08-26T09:27:48Z</time>
      </trkpt>
      <trkpt lat="44.90128" lon="0.38868">
        <ele>47.1</ele>
        <time>2023-08-26T09:27:50Z</time>
      </trkpt>
      <trkpt lat="44.90131" lon="0.38863">
        <ele>46.8</ele>
        <time>2023-08-26T09:27:51Z</time>
      </trkpt>
      <trkpt lat="44.90138" lon="0.38844">
        <ele>45.9</ele>
        <time>2023-08-26T09:27:54Z</time>
      </trkpt>
      <trkpt lat="44.90138" lon="0.38831">
        <ele>45.4</ele>
        <time>2023-08-26T09:27:56Z</time>
      </trkpt>
      <trkpt lat="44.90135" lon="0.38804">
        <ele>44.6</ele>
        <time>2023-08-26T09:27:59Z</time>
      </trkpt>
      <trkpt lat="44.90135" lon="0.38795">
        <ele>44.2</ele>
        <time>2023-08-26T09:28:00Z</time>
      </trkpt>
      <trkpt lat="44.90133" lon="0.38779">
        <ele>43.9</ele>
        <time>2023-08-26T09:28:02Z</time>
      </trkpt>
      <trkpt lat="44.90133" lon="0.38772">
        <ele>44</ele>
        <time>2023-08-26T09:28:03Z</time>
      </trkpt>
      <trkpt lat="44.90134" lon="0.3876">
        <ele>43.6</ele>
        <time>2023-08-26T09:28:05Z</time>
      </trkpt>
      <trkpt lat="44.90135" lon="0.38758">
        <ele>43.6</ele>
        <time>2023-08-26T09:28:06Z</time>
      </trkpt>
      <trkpt lat="44.90136" lon="0.38757">
        <ele>43.6</ele>
        <time>2023-08-26T09:28:07Z</time>
      </trkpt>
      <trkpt lat="44.90139" lon="0.38761">
        <ele>43.3</ele>
        <time>2023-08-26T09:28:09Z</time>
      </trkpt>
      <trkpt lat="44.90141" lon="0.38767">
        <ele>43</ele>
        <time>2023-08-26T09:28:11Z</time>
      </trkpt>
      <trkpt lat="44.90145" lon="0.38776">
        <ele>42.8</ele>
        <time>2023-08-26T09:28:14Z</time>
      </trkpt>
      <trkpt lat="44.90146" lon="0.38782">
        <ele>42.4</ele>
        <time>2023-08-26T09:28:16Z</time>
      </trkpt>
      <trkpt lat="44.90147" lon="0.38786">
        <ele>42.5</ele>
        <time>2023-08-26T09:28:17Z</time>
      </trkpt>
      <trkpt lat="44.90151" lon="0.38814">
        <ele>43</ele>
        <time>2023-08-26T09:28:22Z</time>
      </trkpt>
      <trkpt lat="44.90152" lon="0.38819">
        <ele>42.8</ele>
        <time>2023-08-26T09:28:23Z</time>
      </trkpt>
      <trkpt lat="44.90154" lon="0.38828">
        <ele>43.2</ele>
        <time>2023-08-26T09:28:25Z</time>
      </trkpt>
      <trkpt lat="44.90154" lon="0.3885">
        <ele>44.2</ele>
        <time>2023-08-26T09:28:29Z</time>
      </trkpt>
      <trkpt lat="44.90156" lon="0.38858">
        <ele>44.4</ele>
        <time>2023-08-26T09:28:30Z</time>
      </trkpt>
      <trkpt lat="44.90159" lon="0.38865">
        <ele>44.6</ele>
        <time>2023-08-26T09:28:31Z</time>
      </trkpt>
      <trkpt lat="44.90164" lon="0.38877">
        <ele>44.6</ele>
        <time>2023-08-26T09:28:33Z</time>
      </trkpt>
      <trkpt lat="44.9017" lon="0.38899">
        <ele>45.6</ele>
        <time>2023-08-26T09:28:37Z</time>
      </trkpt>
      <trkpt lat="44.90181" lon="0.38915">
        <ele>46</ele>
        <time>2023-08-26T09:28:40Z</time>
      </trkpt>
      <trkpt lat="44.90184" lon="0.38928">
        <ele>46.4</ele>
        <time>2023-08-26T09:28:42Z</time>
      </trkpt>
      <trkpt lat="44.90188" lon="0.38934">
        <ele>46.5</ele>
        <time>2023-08-26T09:28:43Z</time>
      </trkpt>
      <trkpt lat="44.90201" lon="0.38953">
        <ele>46.2</ele>
        <time>2023-08-26T09:28:47Z</time>
      </trkpt>
      <trkpt lat="44.90204" lon="0.3896">
        <ele>45.8</ele>
        <time>2023-08-26T09:28:48Z</time>
      </trkpt>
      <trkpt lat="44.90208" lon="0.3897">
        <ele>45.3</ele>
        <time>2023-08-26T09:28:50Z</time>
      </trkpt>
      <trkpt lat="44.90212" lon="0.38972">
        <ele>45.1</ele>
        <time>2023-08-26T09:28:51Z</time>
      </trkpt>
      <trkpt lat="44.90226" lon="0.38982">
        <ele>44.7</ele>
        <time>2023-08-26T09:28:55Z</time>
      </trkpt>
      <trkpt lat="44.90231" lon="0.38993">
        <ele>44.6</ele>
        <time>2023-08-26T09:28:57Z</time>
      </trkpt>
      <trkpt lat="44.90233" lon="0.38998">
        <ele>44.7</ele>
        <time>2023-08-26T09:28:58Z</time>
      </trkpt>
      <trkpt lat="44.90237" lon="0.39009">
        <ele>44.8</ele>
        <time>2023-08-26T09:29:00Z</time>
      </trkpt>
      <trkpt lat="44.90244" lon="0.39026">
        <ele>45.2</ele>
        <time>2023-08-26T09:29:03Z</time>
      </trkpt>
      <trkpt lat="44.90249" lon="0.39033">
        <ele>45.3</ele>
        <time>2023-08-26T09:29:05Z</time>
      </trkpt>
      <trkpt lat="44.90251" lon="0.39038">
        <ele>45.5</ele>
        <time>2023-08-26T09:29:06Z</time>
      </trkpt>
      <trkpt lat="44.90257" lon="0.39064">
        <ele>46.6</ele>
        <time>2023-08-26T09:29:11Z</time>
      </trkpt>
      <trkpt lat="44.90259" lon="0.39084">
        <ele>47.4</ele>
        <time>2023-08-26T09:29:15Z</time>
      </trkpt>
      <trkpt lat="44.9026" lon="0.39103">
        <ele>48.1</ele>
        <time>2023-08-26T09:29:18Z</time>
      </trkpt>
      <trkpt lat="44.90263" lon="0.3912">
        <ele>48.5</ele>
        <time>2023-08-26T09:29:21Z</time>
      </trkpt>
      <trkpt lat="44.90264" lon="0.39144">
        <ele>48.6</ele>
        <time>2023-08-26T09:29:25Z</time>
      </trkpt>
      <trkpt lat="44.90264" lon="0.3915">
        <ele>48.6</ele>
        <time>2023-08-26T09:29:26Z</time>
      </trkpt>
      <trkpt lat="44.90269" lon="0.39179">
        <ele>48.7</ele>
        <time>2023-08-26T09:29:31Z</time>
      </trkpt>
      <trkpt lat="44.90272" lon="0.39184">
        <ele>48.7</ele>
        <time>2023-08-26T09:29:32Z</time>
      </trkpt>
      <trkpt lat="44.90277" lon="0.39193">
        <ele>48.6</ele>
        <time>2023-08-26T09:29:34Z</time>
      </trkpt>
      <trkpt lat="44.90283" lon="0.39207">
        <ele>48.5</ele>
        <time>2023-08-26T09:29:37Z</time>
      </trkpt>
      <trkpt lat="44.90287" lon="0.39211">
        <ele>48.4</ele>
        <time>2023-08-26T09:29:38Z</time>
      </trkpt>
      <trkpt lat="44.90291" lon="0.39219">
        <ele>48.3</ele>
        <time>2023-08-26T09:29:40Z</time>
      </trkpt>
      <trkpt lat="44.90301" lon="0.39231">
        <ele>48.2</ele>
        <time>2023-08-26T09:29:43Z</time>
      </trkpt>
      <trkpt lat="44.90304" lon="0.39234">
        <ele>48.2</ele>
        <time>2023-08-26T09:29:44Z</time>
      </trkpt>
      <trkpt lat="44.90311" lon="0.39243">
        <ele>48.2</ele>
        <time>2023-08-26T09:29:46Z</time>
      </trkpt>
      <trkpt lat="44.90321" lon="0.39257">
        <ele>48.4</ele>
        <time>2023-08-26T09:29:49Z</time>
      </trkpt>
      <trkpt lat="44.90324" lon="0.3926">
        <ele>48.5</ele>
        <time>2023-08-26T09:29:50Z</time>
      </trkpt>
      <trkpt lat="44.90332" lon="0.3927">
        <ele>48.6</ele>
        <time>2023-08-26T09:29:52Z</time>
      </trkpt>
      <trkpt lat="44.90338" lon="0.39281">
        <ele>48.8</ele>
        <time>2023-08-26T09:29:54Z</time>
      </trkpt>
      <trkpt lat="44.90347" lon="0.39294">
        <ele>48.8</ele>
        <time>2023-08-26T09:29:57Z</time>
      </trkpt>
      <trkpt lat="44.90351" lon="0.39298">
        <ele>48.8</ele>
        <time>2023-08-26T09:29:58Z</time>
      </trkpt>
      <trkpt lat="44.90367" lon="0.39316">
        <ele>48.7</ele>
        <time>2023-08-26T09:30:02Z</time>
      </trkpt>
      <trkpt lat="44.90378" lon="0.39331">
        <ele>48.9</ele>
        <time>2023-08-26T09:30:05Z</time>
      </trkpt>
      <trkpt lat="44.90383" lon="0.39341">
        <ele>49.7</ele>
        <time>2023-08-26T09:30:07Z</time>
      </trkpt>
      <trkpt lat="44.90385" lon="0.3935">
        <ele>50.4</ele>
        <time>2023-08-26T09:30:09Z</time>
      </trkpt>
      <trkpt lat="44.9039" lon="0.39364">
        <ele>51.1</ele>
        <time>2023-08-26T09:30:13Z</time>
      </trkpt>
      <trkpt lat="44.90395" lon="0.39369">
        <ele>51.3</ele>
        <time>2023-08-26T09:30:15Z</time>
      </trkpt>
      <trkpt lat="44.90398" lon="0.39372">
        <ele>51.4</ele>
        <time>2023-08-26T09:30:17Z</time>
      </trkpt>
      <trkpt lat="44.90401" lon="0.39374">
        <ele>51.4</ele>
        <time>2023-08-26T09:30:18Z</time>
      </trkpt>
      <trkpt lat="44.90412" lon="0.39383">
        <ele>51.7</ele>
        <time>2023-08-26T09:30:22Z</time>
      </trkpt>
      <trkpt lat="44.90414" lon="0.39385">
        <ele>51.8</ele>
        <time>2023-08-26T09:30:23Z</time>
      </trkpt>
      <trkpt lat="44.90416" lon="0.39387">
        <ele>51.8</ele>
        <time>2023-08-26T09:30:24Z</time>
      </trkpt>
      <trkpt lat="44.90425" lon="0.39393">
        <ele>52</ele>
        <time>2023-08-26T09:30:27Z</time>
      </trkpt>
      <trkpt lat="44.90432" lon="0.39399">
        <ele>52.1</ele>
        <time>2023-08-26T09:30:29Z</time>
      </trkpt>
      <trkpt lat="44.90436" lon="0.39401">
        <ele>52.2</ele>
        <time>2023-08-26T09:30:30Z</time>
      </trkpt>
      <trkpt lat="44.90442" lon="0.39408">
        <ele>52.2</ele>
        <time>2023-08-26T09:30:33Z</time>
      </trkpt>
      <trkpt lat="44.90445" lon="0.3941">
        <ele>52.2</ele>
        <time>2023-08-26T09:30:34Z</time>
      </trkpt>
      <trkpt lat="44.90446" lon="0.39412">
        <ele>52.2</ele>
        <time>2023-08-26T09:30:35Z</time>
      </trkpt>
      <trkpt lat="44.90447" lon="0.39416">
        <ele>52.2</ele>
        <time>2023-08-26T09:30:36Z</time>
      </trkpt>
      <trkpt lat="44.9045" lon="0.3942">
        <ele>52.2</ele>
        <time>2023-08-26T09:30:37Z</time>
      </trkpt>
      <trkpt lat="44.90457" lon="0.3943">
        <ele>52</ele>
        <time>2023-08-26T09:30:40Z</time>
      </trkpt>
      <trkpt lat="44.90463" lon="0.39438">
        <ele>51.9</ele>
        <time>2023-08-26T09:30:42Z</time>
      </trkpt>
      <trkpt lat="44.90481" lon="0.39451">
        <ele>51.5</ele>
        <time>2023-08-26T09:30:47Z</time>
      </trkpt>
      <trkpt lat="44.90484" lon="0.39453">
        <ele>51.5</ele>
        <time>2023-08-26T09:30:48Z</time>
      </trkpt>
      <trkpt lat="44.90489" lon="0.39459">
        <ele>51.4</ele>
        <time>2023-08-26T09:30:50Z</time>
      </trkpt>
      <trkpt lat="44.9049" lon="0.39463">
        <ele>51.3</ele>
        <time>2023-08-26T09:30:51Z</time>
      </trkpt>
      <trkpt lat="44.90492" lon="0.3947">
        <ele>51.4</ele>
        <time>2023-08-26T09:30:53Z</time>
      </trkpt>
      <trkpt lat="44.90492" lon="0.39473">
        <ele>51.5</ele>
        <time>2023-08-26T09:30:54Z</time>
      </trkpt>
      <trkpt lat="44.90492" lon="0.39475">
        <ele>51.5</ele>
        <time>2023-08-26T09:30:56Z</time>
      </trkpt>
      <trkpt lat="44.90487" lon="0.39473">
        <ele>51.6</ele>
        <time>2023-08-26T09:30:58Z</time>
      </trkpt>
      <trkpt lat="44.90486" lon="0.39471">
        <ele>51.6</ele>
        <time>2023-08-26T09:30:59Z</time>
      </trkpt>
      <trkpt lat="44.90484" lon="0.3947">
        <ele>51.6</ele>
        <time>2023-08-26T09:31:00Z</time>
      </trkpt>
      <trkpt lat="44.90483" lon="0.39468">
        <ele>51.6</ele>
        <time>2023-08-26T09:31:01Z</time>
      </trkpt>
      <trkpt lat="44.90481" lon="0.39465">
        <ele>51.7</ele>
        <time>2023-08-26T09:31:02Z</time>
      </trkpt>
      <trkpt lat="44.9048" lon="0.39463">
        <ele>51.7</ele>
        <time>2023-08-26T09:31:03Z</time>
      </trkpt>
      <trkpt lat="44.90474" lon="0.39457">
        <ele>51.8</ele>
        <time>2023-08-26T09:31:06Z</time>
      </trkpt>
      <trkpt lat="44.90464" lon="0.39448">
        <ele>52</ele>
        <time>2023-08-26T09:31:11Z</time>
      </trkpt>
      <trkpt lat="44.90448" lon="0.39436">
        <ele>52.2</ele>
        <time>2023-08-26T09:31:18Z</time>
      </trkpt>
      <trkpt lat="44.90437" lon="0.39427">
        <ele>52.1</ele>
        <time>2023-08-26T09:31:23Z</time>
      </trkpt>
      <trkpt lat="44.90426" lon="0.3942">
        <ele>51.9</ele>
        <time>2023-08-26T09:31:27Z</time>
      </trkpt>
      <trkpt lat="44.90411" lon="0.39411">
        <ele>51.6</ele>
        <time>2023-08-26T09:31:31Z</time>
      </trkpt>
      <trkpt lat="44.90407" lon="0.39409">
        <ele>51.5</ele>
        <time>2023-08-26T09:31:32Z</time>
      </trkpt>
      <trkpt lat="44.90382" lon="0.39401">
        <ele>51</ele>
        <time>2023-08-26T09:31:37Z</time>
      </trkpt>
      <trkpt lat="44.90356" lon="0.39392">
        <ele>50.8</ele>
        <time>2023-08-26T09:31:42Z</time>
      </trkpt>
      <trkpt lat="44.90347" lon="0.39387">
        <ele>50.8</ele>
        <time>2023-08-26T09:31:44Z</time>
      </trkpt>
      <trkpt lat="44.9033" lon="0.39376">
        <ele>50.8</ele>
        <time>2023-08-26T09:31:48Z</time>
      </trkpt>
      <trkpt lat="44.90313" lon="0.39363">
        <ele>50.9</ele>
        <time>2023-08-26T09:31:52Z</time>
      </trkpt>
      <trkpt lat="44.90286" lon="0.39343">
        <ele>51.1</ele>
        <time>2023-08-26T09:31:58Z</time>
      </trkpt>
      <trkpt lat="44.90261" lon="0.39323">
        <ele>51.7</ele>
        <time>2023-08-26T09:32:04Z</time>
      </trkpt>
      <trkpt lat="44.90252" lon="0.39317">
        <ele>52</ele>
        <time>2023-08-26T09:32:06Z</time>
      </trkpt>
      <trkpt lat="44.9024" lon="0.39309">
        <ele>52.5</ele>
        <time>2023-08-26T09:32:09Z</time>
      </trkpt>
      <trkpt lat="44.90222" lon="0.39294">
        <ele>53.3</ele>
        <time>2023-08-26T09:32:14Z</time>
      </trkpt>
      <trkpt lat="44.90202" lon="0.39282">
        <ele>54.2</ele>
        <time>2023-08-26T09:32:20Z</time>
      </trkpt>
      <trkpt lat="44.90199" lon="0.39283">
        <ele>54.4</ele>
        <time>2023-08-26T09:32:21Z</time>
      </trkpt>
      <trkpt lat="44.90191" lon="0.39292">
        <ele>54.6</ele>
        <time>2023-08-26T09:32:24Z</time>
      </trkpt>
      <trkpt lat="44.90189" lon="0.39295">
        <ele>54.6</ele>
        <time>2023-08-26T09:32:25Z</time>
      </trkpt>
      <trkpt lat="44.90189" lon="0.39297">
        <ele>54.6</ele>
        <time>2023-08-26T09:32:26Z</time>
      </trkpt>
      <trkpt lat="44.90189" lon="0.39302">
        <ele>54.6</ele>
        <time>2023-08-26T09:32:29Z</time>
      </trkpt>
      <trkpt lat="44.9019" lon="0.39306">
        <ele>54.7</ele>
        <time>2023-08-26T09:39:40Z</time>
      </trkpt>
      <trkpt lat="44.9019" lon="0.39308">
        <ele>54.7</ele>
        <time>2023-08-26T09:39:41Z</time>
      </trkpt>
      <trkpt lat="44.9019" lon="0.39311">
        <ele>54.7</ele>
        <time>2023-08-26T09:39:42Z</time>
      </trkpt>
      <trkpt lat="44.90191" lon="0.39315">
        <ele>54.8</ele>
        <time>2023-08-26T09:39:44Z</time>
      </trkpt>
      <trkpt lat="44.9019" lon="0.39319">
        <ele>54.8</ele>
        <time>2023-08-26T09:39:46Z</time>
      </trkpt>
      <trkpt lat="44.9019" lon="0.39323">
        <ele>54.9</ele>
        <time>2023-08-26T09:39:48Z</time>
      </trkpt>
      <trkpt lat="44.90189" lon="0.39327">
        <ele>54.9</ele>
        <time>2023-08-26T09:39:50Z</time>
      </trkpt>
      <trkpt lat="44.90189" lon="0.39331">
        <ele>55</ele>
        <time>2023-08-26T09:39:52Z</time>
      </trkpt>
      <trkpt lat="44.90188" lon="0.39333">
        <ele>55.1</ele>
        <time>2023-08-26T09:39:53Z</time>
      </trkpt>
      <trkpt lat="44.90185" lon="0.3934">
        <ele>55.3</ele>
        <time>2023-08-26T09:39:55Z</time>
      </trkpt>
      <trkpt lat="44.90184" lon="0.39342">
        <ele>55.4</ele>
        <time>2023-08-26T09:39:56Z</time>
      </trkpt>
      <trkpt lat="44.9018" lon="0.3935">
        <ele>55.7</ele>
        <time>2023-08-26T09:39:59Z</time>
      </trkpt>
      <trkpt lat="44.90171" lon="0.39362">
        <ele>56.9</ele>
        <time>2023-08-26T09:40:03Z</time>
      </trkpt>
      <trkpt lat="44.90172" lon="0.39376">
        <ele>57.7</ele>
        <time>2023-08-26T09:40:07Z</time>
      </trkpt>
      <trkpt lat="44.90179" lon="0.39391">
        <ele>58.8</ele>
        <time>2023-08-26T09:40:12Z</time>
      </trkpt>
      <trkpt lat="44.90179" lon="0.39395">
        <ele>59</ele>
        <time>2023-08-26T09:40:13Z</time>
      </trkpt>
      <trkpt lat="44.90179" lon="0.39405">
        <ele>59.6</ele>
        <time>2023-08-26T09:40:16Z</time>
      </trkpt>
      <trkpt lat="44.90179" lon="0.39412">
        <ele>60</ele>
        <time>2023-08-26T09:40:18Z</time>
      </trkpt>
      <trkpt lat="44.9018" lon="0.39433">
        <ele>61.3</ele>
        <time>2023-08-26T09:40:24Z</time>
      </trkpt>
      <trkpt lat="44.90179" lon="0.39451">
        <ele>62.6</ele>
        <time>2023-08-26T09:40:30Z</time>
      </trkpt>
      <trkpt lat="44.90184" lon="0.39466">
        <ele>63.5</ele>
        <time>2023-08-26T09:40:35Z</time>
      </trkpt>
      <trkpt lat="44.90191" lon="0.39475">
        <ele>64.2</ele>
        <time>2023-08-26T09:40:39Z</time>
      </trkpt>
      <trkpt lat="44.90192" lon="0.39477">
        <ele>64.3</ele>
        <time>2023-08-26T09:40:40Z</time>
      </trkpt>
      <trkpt lat="44.90194" lon="0.39481">
        <ele>64.6</ele>
        <time>2023-08-26T09:40:42Z</time>
      </trkpt>
      <trkpt lat="44.90197" lon="0.39486">
        <ele>65</ele>
        <time>2023-08-26T09:40:44Z</time>
      </trkpt>
      <trkpt lat="44.902" lon="0.39489">
        <ele>65.3</ele>
        <time>2023-08-26T09:40:46Z</time>
      </trkpt>
      <trkpt lat="44.90205" lon="0.39493">
        <ele>65.7</ele>
        <time>2023-08-26T09:40:48Z</time>
      </trkpt>
      <trkpt lat="44.90206" lon="0.39495">
        <ele>65.8</ele>
        <time>2023-08-26T09:40:49Z</time>
      </trkpt>
      <trkpt lat="44.90212" lon="0.39501">
        <ele>66.3</ele>
        <time>2023-08-26T09:40:52Z</time>
      </trkpt>
      <trkpt lat="44.90223" lon="0.39508">
        <ele>67.1</ele>
        <time>2023-08-26T09:40:57Z</time>
      </trkpt>
      <trkpt lat="44.90225" lon="0.3951">
        <ele>67.3</ele>
        <time>2023-08-26T09:40:58Z</time>
      </trkpt>
      <trkpt lat="44.9023" lon="0.39515">
        <ele>67.6</ele>
        <time>2023-08-26T09:41:01Z</time>
      </trkpt>
      <trkpt lat="44.90241" lon="0.39526">
        <ele>68.4</ele>
        <time>2023-08-26T09:41:05Z</time>
      </trkpt>
      <trkpt lat="44.90243" lon="0.39529">
        <ele>68.6</ele>
        <time>2023-08-26T09:41:06Z</time>
      </trkpt>
      <trkpt lat="44.90253" lon="0.39541">
        <ele>69.4</ele>
        <time>2023-08-26T09:41:10Z</time>
      </trkpt>
      <trkpt lat="44.90264" lon="0.39553">
        <ele>70.5</ele>
        <time>2023-08-26T09:41:15Z</time>
      </trkpt>
      <trkpt lat="44.90274" lon="0.39567">
        <ele>71.7</ele>
        <time>2023-08-26T09:41:20Z</time>
      </trkpt>
      <trkpt lat="44.90274" lon="0.3957">
        <ele>71.9</ele>
        <time>2023-08-26T09:41:21Z</time>
      </trkpt>
      <trkpt lat="44.90277" lon="0.39578">
        <ele>72.5</ele>
        <time>2023-08-26T09:41:24Z</time>
      </trkpt>
      <trkpt lat="44.90285" lon="0.39588">
        <ele>73.6</ele>
        <time>2023-08-26T09:41:29Z</time>
      </trkpt>
      <trkpt lat="44.90294" lon="0.39595">
        <ele>74.5</ele>
        <time>2023-08-26T09:41:34Z</time>
      </trkpt>
      <trkpt lat="44.90296" lon="0.39596">
        <ele>74.7</ele>
        <time>2023-08-26T09:41:35Z</time>
      </trkpt>
      <trkpt lat="44.903" lon="0.396">
        <ele>75.2</ele>
        <time>2023-08-26T09:41:38Z</time>
      </trkpt>
      <trkpt lat="44.90303" lon="0.39603">
        <ele>75.6</ele>
        <time>2023-08-26T09:41:40Z</time>
      </trkpt>
      <trkpt lat="44.90304" lon="0.39605">
        <ele>75.7</ele>
        <time>2023-08-26T09:41:41Z</time>
      </trkpt>
      <trkpt lat="44.90312" lon="0.39618">
        <ele>76.6</ele>
        <time>2023-08-26T09:41:48Z</time>
      </trkpt>
      <trkpt lat="44.90318" lon="0.39628">
        <ele>77.1</ele>
        <time>2023-08-26T09:41:52Z</time>
      </trkpt>
      <trkpt lat="44.90319" lon="0.39631">
        <ele>77.2</ele>
        <time>2023-08-26T09:41:53Z</time>
      </trkpt>
      <trkpt lat="44.9032" lon="0.39633">
        <ele>77.3</ele>
        <time>2023-08-26T09:41:54Z</time>
      </trkpt>
      <trkpt lat="44.90324" lon="0.39642">
        <ele>77.6</ele>
        <time>2023-08-26T09:41:57Z</time>
      </trkpt>
      <trkpt lat="44.90328" lon="0.3965">
        <ele>77.8</ele>
        <time>2023-08-26T09:42:00Z</time>
      </trkpt>
      <trkpt lat="44.90329" lon="0.39653">
        <ele>77.8</ele>
        <time>2023-08-26T09:42:01Z</time>
      </trkpt>
      <trkpt lat="44.90329" lon="0.39656">
        <ele>77.9</ele>
        <time>2023-08-26T09:42:02Z</time>
      </trkpt>
      <trkpt lat="44.9033" lon="0.3966">
        <ele>78</ele>
        <time>2023-08-26T09:42:03Z</time>
      </trkpt>
      <trkpt lat="44.90329" lon="0.39666">
        <ele>78.2</ele>
        <time>2023-08-26T09:42:05Z</time>
      </trkpt>
      <trkpt lat="44.90328" lon="0.39678">
        <ele>78.4</ele>
        <time>2023-08-26T09:42:08Z</time>
      </trkpt>
      <trkpt lat="44.90326" lon="0.39682">
        <ele>78.5</ele>
        <time>2023-08-26T09:42:09Z</time>
      </trkpt>
      <trkpt lat="44.90325" lon="0.39694">
        <ele>78.8</ele>
        <time>2023-08-26T09:42:12Z</time>
      </trkpt>
      <trkpt lat="44.90327" lon="0.39703">
        <ele>79.1</ele>
        <time>2023-08-26T09:42:14Z</time>
      </trkpt>
      <trkpt lat="44.90328" lon="0.39711">
        <ele>79.3</ele>
        <time>2023-08-26T09:42:16Z</time>
      </trkpt>
      <trkpt lat="44.90328" lon="0.39716">
        <ele>79.5</ele>
        <time>2023-08-26T09:42:17Z</time>
      </trkpt>
      <trkpt lat="44.9033" lon="0.39719">
        <ele>79.7</ele>
        <time>2023-08-26T09:42:18Z</time>
      </trkpt>
      <trkpt lat="44.90331" lon="0.39723">
        <ele>79.8</ele>
        <time>2023-08-26T09:42:19Z</time>
      </trkpt>
      <trkpt lat="44.90331" lon="0.39727">
        <ele>80</ele>
        <time>2023-08-26T09:42:20Z</time>
      </trkpt>
      <trkpt lat="44.90331" lon="0.39731">
        <ele>80.2</ele>
        <time>2023-08-26T09:42:21Z</time>
      </trkpt>
      <trkpt lat="44.90331" lon="0.39735">
        <ele>80.4</ele>
        <time>2023-08-26T09:42:22Z</time>
      </trkpt>
      <trkpt lat="44.90332" lon="0.39737">
        <ele>80.5</ele>
        <time>2023-08-26T09:42:23Z</time>
      </trkpt>
      <trkpt lat="44.90333" lon="0.39741">
        <ele>80.7</ele>
        <time>2023-08-26T09:42:24Z</time>
      </trkpt>
      <trkpt lat="44.90334" lon="0.39748">
        <ele>81</ele>
        <time>2023-08-26T09:42:26Z</time>
      </trkpt>
      <trkpt lat="44.90333" lon="0.39752">
        <ele>81.2</ele>
        <time>2023-08-26T09:42:27Z</time>
      </trkpt>
      <trkpt lat="44.90331" lon="0.39772">
        <ele>82</ele>
        <time>2023-08-26T09:42:32Z</time>
      </trkpt>
      <trkpt lat="44.90331" lon="0.39777">
        <ele>82.1</ele>
        <time>2023-08-26T09:42:33Z</time>
      </trkpt>
      <trkpt lat="44.90333" lon="0.39785">
        <ele>82.3</ele>
        <time>2023-08-26T09:42:35Z</time>
      </trkpt>
      <trkpt lat="44.90335" lon="0.39793">
        <ele>82.4</ele>
        <time>2023-08-26T09:42:37Z</time>
      </trkpt>
      <trkpt lat="44.90338" lon="0.39795">
        <ele>82.4</ele>
        <time>2023-08-26T09:42:38Z</time>
      </trkpt>
      <trkpt lat="44.90337" lon="0.39811">
        <ele>82.3</ele>
        <time>2023-08-26T09:42:41Z</time>
      </trkpt>
      <trkpt lat="44.90338" lon="0.39815">
        <ele>82.3</ele>
        <time>2023-08-26T09:42:42Z</time>
      </trkpt>
      <trkpt lat="44.90336" lon="0.39832">
        <ele>82.1</ele>
        <time>2023-08-26T09:42:45Z</time>
      </trkpt>
      <trkpt lat="44.90337" lon="0.39846">
        <ele>82</ele>
        <time>2023-08-26T09:42:48Z</time>
      </trkpt>
      <trkpt lat="44.90338" lon="0.39851">
        <ele>81.9</ele>
        <time>2023-08-26T09:42:49Z</time>
      </trkpt>
      <trkpt lat="44.90338" lon="0.3988">
        <ele>81.8</ele>
        <time>2023-08-26T09:42:53Z</time>
      </trkpt>
      <trkpt lat="44.90339" lon="0.39885">
        <ele>81.9</ele>
        <time>2023-08-26T09:42:54Z</time>
      </trkpt>
      <trkpt lat="44.90338" lon="0.39891">
        <ele>81.9</ele>
        <time>2023-08-26T09:42:55Z</time>
      </trkpt>
      <trkpt lat="44.90338" lon="0.39904">
        <ele>82</ele>
        <time>2023-08-26T09:42:57Z</time>
      </trkpt>
      <trkpt lat="44.90338" lon="0.39911">
        <ele>82.1</ele>
        <time>2023-08-26T09:42:58Z</time>
      </trkpt>
      <trkpt lat="44.90338" lon="0.39917">
        <ele>82.1</ele>
        <time>2023-08-26T09:42:59Z</time>
      </trkpt>
      <trkpt lat="44.90338" lon="0.39923">
        <ele>82.2</ele>
        <time>2023-08-26T09:43:00Z</time>
      </trkpt>
      <trkpt lat="44.90338" lon="0.39942">
        <ele>82.6</ele>
        <time>2023-08-26T09:43:03Z</time>
      </trkpt>
      <trkpt lat="44.9034" lon="0.39949">
        <ele>82.8</ele>
        <time>2023-08-26T09:43:04Z</time>
      </trkpt>
      <trkpt lat="44.90342" lon="0.39961">
        <ele>83.2</ele>
        <time>2023-08-26T09:43:06Z</time>
      </trkpt>
      <trkpt lat="44.90344" lon="0.39967">
        <ele>83.4</ele>
        <time>2023-08-26T09:43:07Z</time>
      </trkpt>
      <trkpt lat="44.90346" lon="0.39972">
        <ele>83.6</ele>
        <time>2023-08-26T09:43:08Z</time>
      </trkpt>
      <trkpt lat="44.90347" lon="0.39978">
        <ele>83.8</ele>
        <time>2023-08-26T09:43:09Z</time>
      </trkpt>
      <trkpt lat="44.90348" lon="0.39983">
        <ele>84.1</ele>
        <time>2023-08-26T09:43:10Z</time>
      </trkpt>
      <trkpt lat="44.90349" lon="0.39992">
        <ele>84.4</ele>
        <time>2023-08-26T09:43:12Z</time>
      </trkpt>
      <trkpt lat="44.90353" lon="0.40012">
        <ele>85.2</ele>
        <time>2023-08-26T09:43:16Z</time>
      </trkpt>
      <trkpt lat="44.90354" lon="0.40018">
        <ele>85.5</ele>
        <time>2023-08-26T09:43:17Z</time>
      </trkpt>
      <trkpt lat="44.90358" lon="0.40034">
        <ele>86.2</ele>
        <time>2023-08-26T09:43:20Z</time>
      </trkpt>
      <trkpt lat="44.9036" lon="0.40039">
        <ele>86.4</ele>
        <time>2023-08-26T09:43:21Z</time>
      </trkpt>
      <trkpt lat="44.90363" lon="0.40053">
        <ele>87</ele>
        <time>2023-08-26T09:43:24Z</time>
      </trkpt>
      <trkpt lat="44.90368" lon="0.40085">
        <ele>88.2</ele>
        <time>2023-08-26T09:43:30Z</time>
      </trkpt>
      <trkpt lat="44.90373" lon="0.40102">
        <ele>89</ele>
        <time>2023-08-26T09:43:34Z</time>
      </trkpt>
      <trkpt lat="44.90373" lon="0.40112">
        <ele>89.2</ele>
        <time>2023-08-26T09:43:36Z</time>
      </trkpt>
      <trkpt lat="44.90371" lon="0.40123">
        <ele>89.5</ele>
        <time>2023-08-26T09:43:38Z</time>
      </trkpt>
      <trkpt lat="44.90369" lon="0.40133">
        <ele>89.3</ele>
        <time>2023-08-26T09:43:40Z</time>
      </trkpt>
      <trkpt lat="44.90369" lon="0.40144">
        <ele>89.2</ele>
        <time>2023-08-26T09:43:42Z</time>
      </trkpt>
      <trkpt lat="44.90363" lon="0.4017">
        <ele>88.1</ele>
        <time>2023-08-26T09:43:47Z</time>
      </trkpt>
      <trkpt lat="44.9036" lon="0.40183">
        <ele>87.4</ele>
        <time>2023-08-26T09:43:50Z</time>
      </trkpt>
      <trkpt lat="44.90358" lon="0.40187">
        <ele>86.9</ele>
        <time>2023-08-26T09:43:51Z</time>
      </trkpt>
      <trkpt lat="44.90349" lon="0.40201">
        <ele>85.7</ele>
        <time>2023-08-26T09:43:55Z</time>
      </trkpt>
      <trkpt lat="44.90342" lon="0.402">
        <ele>85.2</ele>
        <time>2023-08-26T09:43:57Z</time>
      </trkpt>
      <trkpt lat="44.90334" lon="0.40197">
        <ele>84.6</ele>
        <time>2023-08-26T09:43:59Z</time>
      </trkpt>
      <trkpt lat="44.9033" lon="0.40199">
        <ele>83.9</ele>
        <time>2023-08-26T09:44:00Z</time>
      </trkpt>
      <trkpt lat="44.90316" lon="0.40209">
        <ele>82.7</ele>
        <time>2023-08-26T09:44:03Z</time>
      </trkpt>
      <trkpt lat="44.90304" lon="0.40217">
        <ele>81.5</ele>
        <time>2023-08-26T09:44:05Z</time>
      </trkpt>
      <trkpt lat="44.90294" lon="0.40227">
        <ele>80.3</ele>
        <time>2023-08-26T09:44:07Z</time>
      </trkpt>
      <trkpt lat="44.90286" lon="0.40232">
        <ele>79.6</ele>
        <time>2023-08-26T09:44:09Z</time>
      </trkpt>
      <trkpt lat="44.90284" lon="0.40238">
        <ele>79.1</ele>
        <time>2023-08-26T09:44:10Z</time>
      </trkpt>
      <trkpt lat="44.90281" lon="0.40243">
        <ele>78.6</ele>
        <time>2023-08-26T09:44:11Z</time>
      </trkpt>
      <trkpt lat="44.90278" lon="0.40247">
        <ele>78</ele>
        <time>2023-08-26T09:44:12Z</time>
      </trkpt>
      <trkpt lat="44.90276" lon="0.40255">
        <ele>77.4</ele>
        <time>2023-08-26T09:44:14Z</time>
      </trkpt>
      <trkpt lat="44.90276" lon="0.40259">
        <ele>77.4</ele>
        <time>2023-08-26T09:44:15Z</time>
      </trkpt>
      <trkpt lat="44.90276" lon="0.40268">
        <ele>77.7</ele>
        <time>2023-08-26T09:44:17Z</time>
      </trkpt>
      <trkpt lat="44.90276" lon="0.40273">
        <ele>77.1</ele>
        <time>2023-08-26T09:44:18Z</time>
      </trkpt>
      <trkpt lat="44.90275" lon="0.40278">
        <ele>77</ele>
        <time>2023-08-26T09:44:19Z</time>
      </trkpt>
      <trkpt lat="44.90274" lon="0.40289">
        <ele>76.8</ele>
        <time>2023-08-26T09:44:21Z</time>
      </trkpt>
      <trkpt lat="44.90275" lon="0.40299">
        <ele>76.6</ele>
        <time>2023-08-26T09:44:24Z</time>
      </trkpt>
      <trkpt lat="44.90276" lon="0.40303">
        <ele>76.9</ele>
        <time>2023-08-26T09:44:25Z</time>
      </trkpt>
      <trkpt lat="44.90286" lon="0.40319">
        <ele>77.7</ele>
        <time>2023-08-26T09:44:30Z</time>
      </trkpt>
      <trkpt lat="44.90288" lon="0.40327">
        <ele>77.5</ele>
        <time>2023-08-26T09:44:32Z</time>
      </trkpt>
      <trkpt lat="44.90288" lon="0.40331">
        <ele>77.3</ele>
        <time>2023-08-26T09:44:33Z</time>
      </trkpt>
      <trkpt lat="44.90287" lon="0.40334">
        <ele>77.2</ele>
        <time>2023-08-26T09:44:34Z</time>
      </trkpt>
      <trkpt lat="44.90283" lon="0.40337">
        <ele>76.8</ele>
        <time>2023-08-26T09:44:36Z</time>
      </trkpt>
      <trkpt lat="44.90272" lon="0.40347">
        <ele>74.9</ele>
        <time>2023-08-26T09:44:40Z</time>
      </trkpt>
      <trkpt lat="44.90269" lon="0.40351">
        <ele>74.4</ele>
        <time>2023-08-26T09:44:41Z</time>
      </trkpt>
      <trkpt lat="44.90264" lon="0.40355">
        <ele>73.8</ele>
        <time>2023-08-26T09:44:42Z</time>
      </trkpt>
      <trkpt lat="44.9026" lon="0.40359">
        <ele>72.8</ele>
        <time>2023-08-26T09:44:43Z</time>
      </trkpt>
      <trkpt lat="44.90248" lon="0.40368">
        <ele>70.7</ele>
        <time>2023-08-26T09:44:45Z</time>
      </trkpt>
      <trkpt lat="44.90227" lon="0.40375">
        <ele>68.2</ele>
        <time>2023-08-26T09:44:48Z</time>
      </trkpt>
      <trkpt lat="44.90219" lon="0.40377">
        <ele>67.5</ele>
        <time>2023-08-26T09:44:49Z</time>
      </trkpt>
      <trkpt lat="44.90211" lon="0.4038">
        <ele>67</ele>
        <time>2023-08-26T09:44:50Z</time>
      </trkpt>
      <trkpt lat="44.90196" lon="0.40387">
        <ele>66.8</ele>
        <time>2023-08-26T09:44:52Z</time>
      </trkpt>
      <trkpt lat="44.90173" lon="0.40396">
        <ele>67.7</ele>
        <time>2023-08-26T09:44:55Z</time>
      </trkpt>
      <trkpt lat="44.90166" lon="0.40398">
        <ele>68</ele>
        <time>2023-08-26T09:44:56Z</time>
      </trkpt>
      <trkpt lat="44.90152" lon="0.40401">
        <ele>68.1</ele>
        <time>2023-08-26T09:44:58Z</time>
      </trkpt>
      <trkpt lat="44.90141" lon="0.40402">
        <ele>67.9</ele>
        <time>2023-08-26T09:45:00Z</time>
      </trkpt>
      <trkpt lat="44.90136" lon="0.40405">
        <ele>67.7</ele>
        <time>2023-08-26T09:45:01Z</time>
      </trkpt>
      <trkpt lat="44.90131" lon="0.4041">
        <ele>67.5</ele>
        <time>2023-08-26T09:45:02Z</time>
      </trkpt>
      <trkpt lat="44.90118" lon="0.40417">
        <ele>66.7</ele>
        <time>2023-08-26T09:45:04Z</time>
      </trkpt>
      <trkpt lat="44.90109" lon="0.40422">
        <ele>66.1</ele>
        <time>2023-08-26T09:45:07Z</time>
      </trkpt>
      <trkpt lat="44.90109" lon="0.40422">
        <ele>66.1</ele>
        <time>2023-08-26T09:45:09Z</time>
      </trkpt>
      <trkpt lat="44.90106" lon="0.40428">
        <ele>65.9</ele>
        <time>2023-08-26T09:45:12Z</time>
      </trkpt>
      <trkpt lat="44.90104" lon="0.40432">
        <ele>65.8</ele>
        <time>2023-08-26T09:45:13Z</time>
      </trkpt>
      <trkpt lat="44.90103" lon="0.4044">
        <ele>65.8</ele>
        <time>2023-08-26T09:45:15Z</time>
      </trkpt>
      <trkpt lat="44.90104" lon="0.40444">
        <ele>65.8</ele>
        <time>2023-08-26T09:45:16Z</time>
      </trkpt>
      <trkpt lat="44.90103" lon="0.40451">
        <ele>65.8</ele>
        <time>2023-08-26T09:45:18Z</time>
      </trkpt>
      <trkpt lat="44.90101" lon="0.40455">
        <ele>65.9</ele>
        <time>2023-08-26T09:45:19Z</time>
      </trkpt>
      <trkpt lat="44.90101" lon="0.40459">
        <ele>65.9</ele>
        <time>2023-08-26T09:45:20Z</time>
      </trkpt>
      <trkpt lat="44.90102" lon="0.40474">
        <ele>66.4</ele>
        <time>2023-08-26T09:45:23Z</time>
      </trkpt>
      <trkpt lat="44.90102" lon="0.40485">
        <ele>66.9</ele>
        <time>2023-08-26T09:45:26Z</time>
      </trkpt>
      <trkpt lat="44.90103" lon="0.40489">
        <ele>66.9</ele>
        <time>2023-08-26T09:45:27Z</time>
      </trkpt>
      <trkpt lat="44.90105" lon="0.40501">
        <ele>67.8</ele>
        <time>2023-08-26T09:45:30Z</time>
      </trkpt>
      <trkpt lat="44.90105" lon="0.40505">
        <ele>68.1</ele>
        <time>2023-08-26T09:45:31Z</time>
      </trkpt>
      <trkpt lat="44.90107" lon="0.40514">
        <ele>68.4</ele>
        <time>2023-08-26T09:45:33Z</time>
      </trkpt>
      <trkpt lat="44.90108" lon="0.40518">
        <ele>68.7</ele>
        <time>2023-08-26T09:45:34Z</time>
      </trkpt>
      <trkpt lat="44.90106" lon="0.40529">
        <ele>69.7</ele>
        <time>2023-08-26T09:45:37Z</time>
      </trkpt>
      <trkpt lat="44.90106" lon="0.40533">
        <ele>70</ele>
        <time>2023-08-26T09:45:38Z</time>
      </trkpt>
      <trkpt lat="44.90109" lon="0.40547">
        <ele>70.7</ele>
        <time>2023-08-26T09:45:41Z</time>
      </trkpt>
      <trkpt lat="44.90111" lon="0.40551">
        <ele>71</ele>
        <time>2023-08-26T09:45:42Z</time>
      </trkpt>
      <trkpt lat="44.90114" lon="0.40559">
        <ele>71.3</ele>
        <time>2023-08-26T09:45:44Z</time>
      </trkpt>
      <trkpt lat="44.90118" lon="0.40569">
        <ele>71.6</ele>
        <time>2023-08-26T09:45:46Z</time>
      </trkpt>
      <trkpt lat="44.90121" lon="0.40576">
        <ele>71.6</ele>
        <time>2023-08-26T09:45:48Z</time>
      </trkpt>
      <trkpt lat="44.90124" lon="0.40583">
        <ele>71.6</ele>
        <time>2023-08-26T09:45:50Z</time>
      </trkpt>
      <trkpt lat="44.90127" lon="0.40592">
        <ele>71.8</ele>
        <time>2023-08-26T09:45:52Z</time>
      </trkpt>
      <trkpt lat="44.9013" lon="0.40601">
        <ele>72.1</ele>
        <time>2023-08-26T09:45:54Z</time>
      </trkpt>
      <trkpt lat="44.90134" lon="0.40608">
        <ele>72.4</ele>
        <time>2023-08-26T09:45:56Z</time>
      </trkpt>
      <trkpt lat="44.90135" lon="0.40611">
        <ele>72.4</ele>
        <time>2023-08-26T09:45:57Z</time>
      </trkpt>
      <trkpt lat="44.90136" lon="0.40618">
        <ele>73</ele>
        <time>2023-08-26T09:45:59Z</time>
      </trkpt>
      <trkpt lat="44.90143" lon="0.40643">
        <ele>73.9</ele>
        <time>2023-08-26T09:46:03Z</time>
      </trkpt>
      <trkpt lat="44.9015" lon="0.40667">
        <ele>74.5</ele>
        <time>2023-08-26T09:46:08Z</time>
      </trkpt>
      <trkpt lat="44.90153" lon="0.40679">
        <ele>74.5</ele>
        <time>2023-08-26T09:46:11Z</time>
      </trkpt>
      <trkpt lat="44.90154" lon="0.40685">
        <ele>74.7</ele>
        <time>2023-08-26T09:46:13Z</time>
      </trkpt>
      <trkpt lat="44.90162" lon="0.407">
        <ele>74.5</ele>
        <time>2023-08-26T09:46:18Z</time>
      </trkpt>
      <trkpt lat="44.90166" lon="0.40704">
        <ele>74.5</ele>
        <time>2023-08-26T09:46:20Z</time>
      </trkpt>
      <trkpt lat="44.90171" lon="0.40713">
        <ele>74.3</ele>
        <time>2023-08-26T09:46:22Z</time>
      </trkpt>
      <trkpt lat="44.90177" lon="0.40728">
        <ele>74.1</ele>
        <time>2023-08-26T09:46:26Z</time>
      </trkpt>
      <trkpt lat="44.9018" lon="0.40736">
        <ele>74</ele>
        <time>2023-08-26T09:46:28Z</time>
      </trkpt>
      <trkpt lat="44.90182" lon="0.40741">
        <ele>73.8</ele>
        <time>2023-08-26T09:46:29Z</time>
      </trkpt>
      <trkpt lat="44.90183" lon="0.40749">
        <ele>73.8</ele>
        <time>2023-08-26T09:46:31Z</time>
      </trkpt>
      <trkpt lat="44.90183" lon="0.40757">
        <ele>73.8</ele>
        <time>2023-08-26T09:46:33Z</time>
      </trkpt>
      <trkpt lat="44.90191" lon="0.40761">
        <ele>73.5</ele>
        <time>2023-08-26T09:46:35Z</time>
      </trkpt>
      <trkpt lat="44.90192" lon="0.40767">
        <ele>73.3</ele>
        <time>2023-08-26T09:46:37Z</time>
      </trkpt>
      <trkpt lat="44.90195" lon="0.40771">
        <ele>73.1</ele>
        <time>2023-08-26T09:46:38Z</time>
      </trkpt>
      <trkpt lat="44.90196" lon="0.40775">
        <ele>73.1</ele>
        <time>2023-08-26T09:46:39Z</time>
      </trkpt>
      <trkpt lat="44.90197" lon="0.40779">
        <ele>73.1</ele>
        <time>2023-08-26T09:46:40Z</time>
      </trkpt>
      <trkpt lat="44.90198" lon="0.40784">
        <ele>72.8</ele>
        <time>2023-08-26T09:46:41Z</time>
      </trkpt>
      <trkpt lat="44.90196" lon="0.40791">
        <ele>73</ele>
        <time>2023-08-26T09:46:43Z</time>
      </trkpt>
      <trkpt lat="44.90193" lon="0.40793">
        <ele>73.2</ele>
        <time>2023-08-26T09:46:44Z</time>
      </trkpt>
      <trkpt lat="44.9019" lon="0.40807">
        <ele>73.3</ele>
        <time>2023-08-26T09:46:47Z</time>
      </trkpt>
      <trkpt lat="44.9019" lon="0.40811">
        <ele>73.2</ele>
        <time>2023-08-26T09:46:48Z</time>
      </trkpt>
      <trkpt lat="44.90185" lon="0.40819">
        <ele>73.4</ele>
        <time>2023-08-26T09:46:50Z</time>
      </trkpt>
      <trkpt lat="44.90183" lon="0.40827">
        <ele>73.1</ele>
        <time>2023-08-26T09:46:53Z</time>
      </trkpt>
      <trkpt lat="44.90183" lon="0.4083">
        <ele>73</ele>
        <time>2023-08-26T09:46:54Z</time>
      </trkpt>
      <trkpt lat="44.90179" lon="0.4084">
        <ele>73.2</ele>
        <time>2023-08-26T09:46:58Z</time>
      </trkpt>
      <trkpt lat="44.90177" lon="0.40841">
        <ele>73.1</ele>
        <time>2023-08-26T09:46:59Z</time>
      </trkpt>
      <trkpt lat="44.90173" lon="0.40841">
        <ele>73.3</ele>
        <time>2023-08-26T09:47:00Z</time>
      </trkpt>
      <trkpt lat="44.9017" lon="0.40842">
        <ele>73.5</ele>
        <time>2023-08-26T09:47:01Z</time>
      </trkpt>
      <trkpt lat="44.90164" lon="0.40845">
        <ele>73.8</ele>
        <time>2023-08-26T09:47:04Z</time>
      </trkpt>
      <trkpt lat="44.90164" lon="0.40848">
        <ele>73.7</ele>
        <time>2023-08-26T09:47:05Z</time>
      </trkpt>
      <trkpt lat="44.90164" lon="0.4085">
        <ele>73.7</ele>
        <time>2023-08-26T09:47:06Z</time>
      </trkpt>
      <trkpt lat="44.90164" lon="0.40853">
        <ele>73.8</ele>
        <time>2023-08-26T09:47:07Z</time>
      </trkpt>
      <trkpt lat="44.9016" lon="0.40859">
        <ele>74</ele>
        <time>2023-08-26T09:47:09Z</time>
      </trkpt>
      <trkpt lat="44.90161" lon="0.40862">
        <ele>73.9</ele>
        <time>2023-08-26T09:47:10Z</time>
      </trkpt>
      <trkpt lat="44.90156" lon="0.40871">
        <ele>74</ele>
        <time>2023-08-26T09:47:12Z</time>
      </trkpt>
      <trkpt lat="44.90153" lon="0.40875">
        <ele>74.1</ele>
        <time>2023-08-26T09:47:13Z</time>
      </trkpt>
      <trkpt lat="44.90149" lon="0.40878">
        <ele>74.1</ele>
        <time>2023-08-26T09:47:14Z</time>
      </trkpt>
      <trkpt lat="44.90138" lon="0.40882">
        <ele>74.7</ele>
        <time>2023-08-26T09:47:18Z</time>
      </trkpt>
      <trkpt lat="44.90133" lon="0.40884">
        <ele>75</ele>
        <time>2023-08-26T09:47:20Z</time>
      </trkpt>
      <trkpt lat="44.90126" lon="0.40886">
        <ele>75.2</ele>
        <time>2023-08-26T09:47:23Z</time>
      </trkpt>
      <trkpt lat="44.90123" lon="0.40886">
        <ele>75.4</ele>
        <time>2023-08-26T09:47:26Z</time>
      </trkpt>
      <trkpt lat="44.90098" lon="0.40858">
        <ele>78.5</ele>
        <time>2023-08-26T09:47:57Z</time>
      </trkpt>
      <trkpt lat="44.90094" lon="0.4085">
        <ele>78.9</ele>
        <time>2023-08-26T09:48:00Z</time>
      </trkpt>
      <trkpt lat="44.9009" lon="0.40841">
        <ele>79.3</ele>
        <time>2023-08-26T09:48:04Z</time>
      </trkpt>
      <trkpt lat="44.90088" lon="0.40839">
        <ele>79.3</ele>
        <time>2023-08-26T09:48:05Z</time>
      </trkpt>
      <trkpt lat="44.90085" lon="0.40833">
        <ele>79.4</ele>
        <time>2023-08-26T09:48:08Z</time>
      </trkpt>
      <trkpt lat="44.90081" lon="0.4083">
        <ele>79.7</ele>
        <time>2023-08-26T09:48:10Z</time>
      </trkpt>
      <trkpt lat="44.90074" lon="0.40827">
        <ele>79.8</ele>
        <time>2023-08-26T09:48:14Z</time>
      </trkpt>
      <trkpt lat="44.90072" lon="0.40828">
        <ele>79.9</ele>
        <time>2023-08-26T09:48:15Z</time>
      </trkpt>
      <trkpt lat="44.90071" lon="0.40827">
        <ele>79.9</ele>
        <time>2023-08-26T09:48:16Z</time>
      </trkpt>
      <trkpt lat="44.90066" lon="0.40823">
        <ele>80</ele>
        <time>2023-08-26T09:48:19Z</time>
      </trkpt>
      <trkpt lat="44.90058" lon="0.40816">
        <ele>79.9</ele>
        <time>2023-08-26T09:48:24Z</time>
      </trkpt>
      <trkpt lat="44.90053" lon="0.40813">
        <ele>80</ele>
        <time>2023-08-26T09:48:27Z</time>
      </trkpt>
      <trkpt lat="44.90044" lon="0.40819">
        <ele>80.3</ele>
        <time>2023-08-26T09:48:33Z</time>
      </trkpt>
      <trkpt lat="44.90039" lon="0.40838">
        <ele>80.8</ele>
        <time>2023-08-26T09:48:39Z</time>
      </trkpt>
      <trkpt lat="44.90039" lon="0.40842">
        <ele>80.9</ele>
        <time>2023-08-26T09:48:40Z</time>
      </trkpt>
      <trkpt lat="44.90041" lon="0.40856">
        <ele>81.2</ele>
        <time>2023-08-26T09:48:43Z</time>
      </trkpt>
      <trkpt lat="44.90034" lon="0.40877">
        <ele>81.5</ele>
        <time>2023-08-26T09:48:47Z</time>
      </trkpt>
      <trkpt lat="44.90025" lon="0.40893">
        <ele>82.1</ele>
        <time>2023-08-26T09:48:51Z</time>
      </trkpt>
      <trkpt lat="44.90022" lon="0.40896">
        <ele>82.4</ele>
        <time>2023-08-26T09:48:52Z</time>
      </trkpt>
      <trkpt lat="44.90014" lon="0.40908">
        <ele>83.1</ele>
        <time>2023-08-26T09:48:55Z</time>
      </trkpt>
      <trkpt lat="44.90008" lon="0.40919">
        <ele>83.5</ele>
        <time>2023-08-26T09:48:57Z</time>
      </trkpt>
      <trkpt lat="44.90005" lon="0.40924">
        <ele>83.8</ele>
        <time>2023-08-26T09:48:58Z</time>
      </trkpt>
      <trkpt lat="44.90002" lon="0.40929">
        <ele>83.9</ele>
        <time>2023-08-26T09:48:59Z</time>
      </trkpt>
      <trkpt lat="44.89998" lon="0.40939">
        <ele>84.1</ele>
        <time>2023-08-26T09:49:01Z</time>
      </trkpt>
      <trkpt lat="44.89997" lon="0.40944">
        <ele>84</ele>
        <time>2023-08-26T09:49:02Z</time>
      </trkpt>
      <trkpt lat="44.8999" lon="0.40958">
        <ele>84</ele>
        <time>2023-08-26T09:49:07Z</time>
      </trkpt>
      <trkpt lat="44.89986" lon="0.40969">
        <ele>83.5</ele>
        <time>2023-08-26T09:49:10Z</time>
      </trkpt>
      <trkpt lat="44.89984" lon="0.40975">
        <ele>83.3</ele>
        <time>2023-08-26T09:49:11Z</time>
      </trkpt>
      <trkpt lat="44.89975" lon="0.40995">
        <ele>82.7</ele>
        <time>2023-08-26T09:49:16Z</time>
      </trkpt>
      <trkpt lat="44.89962" lon="0.41012">
        <ele>82.7</ele>
        <time>2023-08-26T09:49:21Z</time>
      </trkpt>
      <trkpt lat="44.89949" lon="0.41028">
        <ele>82.7</ele>
        <time>2023-08-26T09:49:26Z</time>
      </trkpt>
      <trkpt lat="44.89944" lon="0.41033">
        <ele>83</ele>
        <time>2023-08-26T09:49:28Z</time>
      </trkpt>
      <trkpt lat="44.89938" lon="0.41041">
        <ele>83.3</ele>
        <time>2023-08-26T09:49:31Z</time>
      </trkpt>
      <trkpt lat="44.89929" lon="0.41047">
        <ele>83.9</ele>
        <time>2023-08-26T09:49:34Z</time>
      </trkpt>
      <trkpt lat="44.89927" lon="0.4105">
        <ele>83.7</ele>
        <time>2023-08-26T09:49:35Z</time>
      </trkpt>
      <trkpt lat="44.89919" lon="0.41059">
        <ele>84.1</ele>
        <time>2023-08-26T09:49:38Z</time>
      </trkpt>
      <trkpt lat="44.89908" lon="0.41074">
        <ele>84.2</ele>
        <time>2023-08-26T09:49:41Z</time>
      </trkpt>
      <trkpt lat="44.89904" lon="0.4108">
        <ele>84</ele>
        <time>2023-08-26T09:49:42Z</time>
      </trkpt>
      <trkpt lat="44.89897" lon="0.41091">
        <ele>84.1</ele>
        <time>2023-08-26T09:49:44Z</time>
      </trkpt>
      <trkpt lat="44.89889" lon="0.41099">
        <ele>84.5</ele>
        <time>2023-08-26T09:49:46Z</time>
      </trkpt>
      <trkpt lat="44.89875" lon="0.4111">
        <ele>84.5</ele>
        <time>2023-08-26T09:49:50Z</time>
      </trkpt>
      <trkpt lat="44.89868" lon="0.41104">
        <ele>84.2</ele>
        <time>2023-08-26T09:49:52Z</time>
      </trkpt>
      <trkpt lat="44.89865" lon="0.41099">
        <ele>83.9</ele>
        <time>2023-08-26T09:49:53Z</time>
      </trkpt>
      <trkpt lat="44.89862" lon="0.41093">
        <ele>83.7</ele>
        <time>2023-08-26T09:49:54Z</time>
      </trkpt>
      <trkpt lat="44.89858" lon="0.41078">
        <ele>83</ele>
        <time>2023-08-26T09:49:56Z</time>
      </trkpt>
      <trkpt lat="44.89856" lon="0.4107">
        <ele>82.6</ele>
        <time>2023-08-26T09:49:57Z</time>
      </trkpt>
      <trkpt lat="44.89849" lon="0.41033">
        <ele>80.6</ele>
        <time>2023-08-26T09:50:01Z</time>
      </trkpt>
      <trkpt lat="44.89847" lon="0.41023">
        <ele>80.1</ele>
        <time>2023-08-26T09:50:02Z</time>
      </trkpt>
      <trkpt lat="44.89836" lon="0.40968">
        <ele>77.1</ele>
        <time>2023-08-26T09:50:07Z</time>
      </trkpt>
      <trkpt lat="44.89827" lon="0.40925">
        <ele>74.9</ele>
        <time>2023-08-26T09:50:11Z</time>
      </trkpt>
      <trkpt lat="44.89819" lon="0.40884">
        <ele>72.7</ele>
        <time>2023-08-26T09:50:15Z</time>
      </trkpt>
      <trkpt lat="44.89816" lon="0.40873">
        <ele>72.1</ele>
        <time>2023-08-26T09:50:16Z</time>
      </trkpt>
      <trkpt lat="44.8981" lon="0.4084">
        <ele>70.2</ele>
        <time>2023-08-26T09:50:19Z</time>
      </trkpt>
      <trkpt lat="44.89801" lon="0.40795">
        <ele>68</ele>
        <time>2023-08-26T09:50:23Z</time>
      </trkpt>
      <trkpt lat="44.89787" lon="0.40731">
        <ele>65.8</ele>
        <time>2023-08-26T09:50:29Z</time>
      </trkpt>
      <trkpt lat="44.89784" lon="0.40723">
        <ele>65.5</ele>
        <time>2023-08-26T09:50:30Z</time>
      </trkpt>
      <trkpt lat="44.89778" lon="0.40715">
        <ele>65</ele>
        <time>2023-08-26T09:50:32Z</time>
      </trkpt>
      <trkpt lat="44.89773" lon="0.40715">
        <ele>64.8</ele>
        <time>2023-08-26T09:50:33Z</time>
      </trkpt>
      <trkpt lat="44.89768" lon="0.40718">
        <ele>64.5</ele>
        <time>2023-08-26T09:50:34Z</time>
      </trkpt>
      <trkpt lat="44.89755" lon="0.40733">
        <ele>64</ele>
        <time>2023-08-26T09:50:37Z</time>
      </trkpt>
      <trkpt lat="44.89751" lon="0.40738">
        <ele>64</ele>
        <time>2023-08-26T09:50:38Z</time>
      </trkpt>
      <trkpt lat="44.89746" lon="0.40742">
        <ele>64.1</ele>
        <time>2023-08-26T09:50:39Z</time>
      </trkpt>
      <trkpt lat="44.89734" lon="0.40756">
        <ele>64.6</ele>
        <time>2023-08-26T09:50:43Z</time>
      </trkpt>
      <trkpt lat="44.89726" lon="0.40755">
        <ele>64.8</ele>
        <time>2023-08-26T09:50:45Z</time>
      </trkpt>
      <trkpt lat="44.89722" lon="0.40751">
        <ele>64.9</ele>
        <time>2023-08-26T09:50:46Z</time>
      </trkpt>
      <trkpt lat="44.89718" lon="0.40746">
        <ele>64.9</ele>
        <time>2023-08-26T09:50:47Z</time>
      </trkpt>
      <trkpt lat="44.89712" lon="0.40733">
        <ele>65.2</ele>
        <time>2023-08-26T09:50:49Z</time>
      </trkpt>
      <trkpt lat="44.89709" lon="0.40728">
        <ele>65.3</ele>
        <time>2023-08-26T09:50:50Z</time>
      </trkpt>
      <trkpt lat="44.89698" lon="0.40709">
        <ele>66.1</ele>
        <time>2023-08-26T09:50:55Z</time>
      </trkpt>
      <trkpt lat="44.8969" lon="0.40695">
        <ele>66.7</ele>
        <time>2023-08-26T09:51:00Z</time>
      </trkpt>
      <trkpt lat="44.89684" lon="0.40679">
        <ele>67.6</ele>
        <time>2023-08-26T09:51:05Z</time>
      </trkpt>
      <trkpt lat="44.89678" lon="0.40662">
        <ele>68.3</ele>
        <time>2023-08-26T09:51:10Z</time>
      </trkpt>
      <trkpt lat="44.89672" lon="0.40645">
        <ele>69</ele>
        <time>2023-08-26T09:51:15Z</time>
      </trkpt>
      <trkpt lat="44.89664" lon="0.40629">
        <ele>69.9</ele>
        <time>2023-08-26T09:51:20Z</time>
      </trkpt>
      <trkpt lat="44.8966" lon="0.4062">
        <ele>70.5</ele>
        <time>2023-08-26T09:51:22Z</time>
      </trkpt>
      <trkpt lat="44.89658" lon="0.40613">
        <ele>71</ele>
        <time>2023-08-26T09:51:24Z</time>
      </trkpt>
      <trkpt lat="44.89658" lon="0.4061">
        <ele>71.3</ele>
        <time>2023-08-26T09:51:25Z</time>
      </trkpt>
      <trkpt lat="44.89656" lon="0.40607">
        <ele>71.3</ele>
        <time>2023-08-26T09:51:26Z</time>
      </trkpt>
      <trkpt lat="44.89655" lon="0.40605">
        <ele>71.9</ele>
        <time>2023-08-26T09:51:27Z</time>
      </trkpt>
      <trkpt lat="44.89654" lon="0.40604">
        <ele>71.9</ele>
        <time>2023-08-26T09:51:28Z</time>
      </trkpt>
      <trkpt lat="44.89653" lon="0.40606">
        <ele>71.9</ele>
        <time>2023-08-26T09:51:31Z</time>
      </trkpt>
      <trkpt lat="44.89653" lon="0.40608">
        <ele>71.6</ele>
        <time>2023-08-26T09:51:32Z</time>
      </trkpt>
      <trkpt lat="44.89655" lon="0.40611">
        <ele>71.3</ele>
        <time>2023-08-26T09:51:34Z</time>
      </trkpt>
      <trkpt lat="44.89653" lon="0.40616">
        <ele>71</ele>
        <time>2023-08-26T09:51:36Z</time>
      </trkpt>
      <trkpt lat="44.89648" lon="0.40622">
        <ele>71.4</ele>
        <time>2023-08-26T09:51:39Z</time>
      </trkpt>
      <trkpt lat="44.89646" lon="0.40625">
        <ele>71.5</ele>
        <time>2023-08-26T09:51:40Z</time>
      </trkpt>
      <trkpt lat="44.89638" lon="0.40642">
        <ele>71.4</ele>
        <time>2023-08-26T09:51:45Z</time>
      </trkpt>
      <trkpt lat="44.89635" lon="0.40653">
        <ele>71.2</ele>
        <time>2023-08-26T09:51:48Z</time>
      </trkpt>
      <trkpt lat="44.89632" lon="0.40657">
        <ele>71.4</ele>
        <time>2023-08-26T09:51:49Z</time>
      </trkpt>
      <trkpt lat="44.89629" lon="0.40666">
        <ele>71.7</ele>
        <time>2023-08-26T09:51:51Z</time>
      </trkpt>
      <trkpt lat="44.89624" lon="0.4067">
        <ele>71.8</ele>
        <time>2023-08-26T09:51:52Z</time>
      </trkpt>
      <trkpt lat="44.89612" lon="0.40684">
        <ele>72.8</ele>
        <time>2023-08-26T09:51:54Z</time>
      </trkpt>
      <trkpt lat="44.89605" lon="0.4069">
        <ele>73.1</ele>
        <time>2023-08-26T09:51:55Z</time>
      </trkpt>
      <trkpt lat="44.89594" lon="0.407">
        <ele>73.7</ele>
        <time>2023-08-26T09:51:57Z</time>
      </trkpt>
      <trkpt lat="44.89589" lon="0.40704">
        <ele>73.8</ele>
        <time>2023-08-26T09:51:58Z</time>
      </trkpt>
      <trkpt lat="44.89574" lon="0.40712">
        <ele>73.9</ele>
        <time>2023-08-26T09:52:01Z</time>
      </trkpt>
      <trkpt lat="44.89565" lon="0.40715">
        <ele>73.7</ele>
        <time>2023-08-26T09:52:03Z</time>
      </trkpt>
      <trkpt lat="44.89553" lon="0.40717">
        <ele>73.8</ele>
        <time>2023-08-26T09:52:06Z</time>
      </trkpt>
      <trkpt lat="44.89543" lon="0.40716">
        <ele>73.9</ele>
        <time>2023-08-26T09:52:09Z</time>
      </trkpt>
      <trkpt lat="44.89538" lon="0.40711">
        <ele>74.1</ele>
        <time>2023-08-26T09:52:13Z</time>
      </trkpt>
      <trkpt lat="44.89536" lon="0.40699">
        <ele>74.9</ele>
        <time>2023-08-26T09:52:17Z</time>
      </trkpt>
      <trkpt lat="44.89535" lon="0.40697">
        <ele>74.9</ele>
        <time>2023-08-26T09:52:18Z</time>
      </trkpt>
      <trkpt lat="44.89531" lon="0.40691">
        <ele>75.4</ele>
        <time>2023-08-26T09:52:21Z</time>
      </trkpt>
      <trkpt lat="44.8953" lon="0.40684">
        <ele>75.6</ele>
        <time>2023-08-26T09:52:25Z</time>
      </trkpt>
      <trkpt lat="44.89529" lon="0.40682">
        <ele>75.8</ele>
        <time>2023-08-26T09:52:26Z</time>
      </trkpt>
      <trkpt lat="44.89525" lon="0.40673">
        <ele>76.2</ele>
        <time>2023-08-26T09:52:32Z</time>
      </trkpt>
      <trkpt lat="44.89482" lon="0.40666">
        <ele>77.5</ele>
        <time>2023-08-26T09:52:58Z</time>
      </trkpt>
      <trkpt lat="44.8948" lon="0.40666">
        <ele>77.5</ele>
        <time>2023-08-26T09:52:59Z</time>
      </trkpt>
      <trkpt lat="44.89476" lon="0.40666">
        <ele>77.7</ele>
        <time>2023-08-26T09:53:01Z</time>
      </trkpt>
      <trkpt lat="44.89474" lon="0.40667">
        <ele>77.5</ele>
        <time>2023-08-26T09:53:02Z</time>
      </trkpt>
      <trkpt lat="44.89471" lon="0.40669">
        <ele>77.6</ele>
        <time>2023-08-26T09:53:05Z</time>
      </trkpt>
      <trkpt lat="44.89471" lon="0.4067">
        <ele>77.6</ele>
        <time>2023-08-26T09:53:06Z</time>
      </trkpt>
      <trkpt lat="44.89464" lon="0.40672">
        <ele>77.6</ele>
        <time>2023-08-26T09:53:10Z</time>
      </trkpt>
      <trkpt lat="44.89462" lon="0.40674">
        <ele>77.6</ele>
        <time>2023-08-26T09:53:11Z</time>
      </trkpt>
      <trkpt lat="44.89461" lon="0.40676">
        <ele>77.4</ele>
        <time>2023-08-26T09:53:12Z</time>
      </trkpt>
      <trkpt lat="44.8945" lon="0.40682">
        <ele>77.1</ele>
        <time>2023-08-26T09:53:14Z</time>
      </trkpt>
      <trkpt lat="44.89441" lon="0.40685">
        <ele>76.8</ele>
        <time>2023-08-26T09:53:16Z</time>
      </trkpt>
      <trkpt lat="44.89432" lon="0.40686">
        <ele>76.8</ele>
        <time>2023-08-26T09:53:18Z</time>
      </trkpt>
      <trkpt lat="44.89419" lon="0.40684">
        <ele>77.2</ele>
        <time>2023-08-26T09:53:22Z</time>
      </trkpt>
      <trkpt lat="44.89409" lon="0.40681">
        <ele>77.9</ele>
        <time>2023-08-26T09:53:27Z</time>
      </trkpt>
      <trkpt lat="44.89403" lon="0.4068">
        <ele>78.2</ele>
        <time>2023-08-26T09:53:30Z</time>
      </trkpt>
      <trkpt lat="44.89399" lon="0.40679">
        <ele>78.5</ele>
        <time>2023-08-26T09:53:31Z</time>
      </trkpt>
      <trkpt lat="44.8938" lon="0.40672">
        <ele>79.5</ele>
        <time>2023-08-26T09:53:36Z</time>
      </trkpt>
      <trkpt lat="44.89369" lon="0.40664">
        <ele>80.8</ele>
        <time>2023-08-26T09:53:41Z</time>
      </trkpt>
      <trkpt lat="44.89361" lon="0.40654">
        <ele>82.3</ele>
        <time>2023-08-26T09:53:46Z</time>
      </trkpt>
      <trkpt lat="44.89357" lon="0.40646">
        <ele>82.8</ele>
        <time>2023-08-26T09:53:50Z</time>
      </trkpt>
      <trkpt lat="44.89355" lon="0.40633">
        <ele>83.6</ele>
        <time>2023-08-26T09:53:55Z</time>
      </trkpt>
      <trkpt lat="44.89351" lon="0.40616">
        <ele>84.5</ele>
        <time>2023-08-26T09:54:01Z</time>
      </trkpt>
      <trkpt lat="44.89347" lon="0.40609">
        <ele>85.1</ele>
        <time>2023-08-26T09:54:05Z</time>
      </trkpt>
      <trkpt lat="44.89347" lon="0.40608">
        <ele>85.1</ele>
        <time>2023-08-26T09:54:06Z</time>
      </trkpt>
      <trkpt lat="44.8934" lon="0.40611">
        <ele>85.3</ele>
        <time>2023-08-26T09:54:08Z</time>
      </trkpt>
      <trkpt lat="44.89335" lon="0.40615">
        <ele>85.4</ele>
        <time>2023-08-26T09:54:10Z</time>
      </trkpt>
      <trkpt lat="44.89326" lon="0.40623">
        <ele>85.4</ele>
        <time>2023-08-26T09:54:12Z</time>
      </trkpt>
      <trkpt lat="44.89314" lon="0.40631">
        <ele>85.1</ele>
        <time>2023-08-26T09:54:14Z</time>
      </trkpt>
      <trkpt lat="44.893" lon="0.40643">
        <ele>84.2</ele>
        <time>2023-08-26T09:54:17Z</time>
      </trkpt>
      <trkpt lat="44.89291" lon="0.40651">
        <ele>83.5</ele>
        <time>2023-08-26T09:54:19Z</time>
      </trkpt>
      <trkpt lat="44.89284" lon="0.40661">
        <ele>82.9</ele>
        <time>2023-08-26T09:54:21Z</time>
      </trkpt>
      <trkpt lat="44.89279" lon="0.40663">
        <ele>82.7</ele>
        <time>2023-08-26T09:54:22Z</time>
      </trkpt>
      <trkpt lat="44.89272" lon="0.40664">
        <ele>82.8</ele>
        <time>2023-08-26T09:54:23Z</time>
      </trkpt>
      <trkpt lat="44.89263" lon="0.40661">
        <ele>83.5</ele>
        <time>2023-08-26T09:54:25Z</time>
      </trkpt>
      <trkpt lat="44.89253" lon="0.40655">
        <ele>84.1</ele>
        <time>2023-08-26T09:54:28Z</time>
      </trkpt>
      <trkpt lat="44.89252" lon="0.40651">
        <ele>84.4</ele>
        <time>2023-08-26T09:54:30Z</time>
      </trkpt>
      <trkpt lat="44.89251" lon="0.40649">
        <ele>84.9</ele>
        <time>2023-08-26T09:54:31Z</time>
      </trkpt>
      <trkpt lat="44.89251" lon="0.40645">
        <ele>85.1</ele>
        <time>2023-08-26T09:54:33Z</time>
      </trkpt>
      <trkpt lat="44.8925" lon="0.40638">
        <ele>85.3</ele>
        <time>2023-08-26T09:54:36Z</time>
      </trkpt>
      <trkpt lat="44.89248" lon="0.40631">
        <ele>85.8</ele>
        <time>2023-08-26T09:54:39Z</time>
      </trkpt>
      <trkpt lat="44.89247" lon="0.40626">
        <ele>86</ele>
        <time>2023-08-26T09:54:41Z</time>
      </trkpt>
      <trkpt lat="44.89246" lon="0.40624">
        <ele>86</ele>
        <time>2023-08-26T09:54:42Z</time>
      </trkpt>
      <trkpt lat="44.89245" lon="0.4062">
        <ele>86.3</ele>
        <time>2023-08-26T09:54:44Z</time>
      </trkpt>
      <trkpt lat="44.89241" lon="0.40617">
        <ele>86.6</ele>
        <time>2023-08-26T09:54:48Z</time>
      </trkpt>
      <trkpt lat="44.89234" lon="0.40606">
        <ele>87.5</ele>
        <time>2023-08-26T09:54:53Z</time>
      </trkpt>
      <trkpt lat="44.89232" lon="0.40603">
        <ele>87.6</ele>
        <time>2023-08-26T09:54:54Z</time>
      </trkpt>
      <trkpt lat="44.8923" lon="0.40601">
        <ele>87.9</ele>
        <time>2023-08-26T09:54:55Z</time>
      </trkpt>
      <trkpt lat="44.89228" lon="0.406">
        <ele>87.9</ele>
        <time>2023-08-26T09:54:56Z</time>
      </trkpt>
      <trkpt lat="44.89224" lon="0.40596">
        <ele>88.3</ele>
        <time>2023-08-26T09:54:59Z</time>
      </trkpt>
      <trkpt lat="44.89222" lon="0.40594">
        <ele>88.3</ele>
        <time>2023-08-26T09:55:00Z</time>
      </trkpt>
      <trkpt lat="44.89221" lon="0.40592">
        <ele>88.5</ele>
        <time>2023-08-26T09:55:01Z</time>
      </trkpt>
      <trkpt lat="44.8922" lon="0.40587">
        <ele>88.9</ele>
        <time>2023-08-26T09:55:03Z</time>
      </trkpt>
      <trkpt lat="44.89221" lon="0.40585">
        <ele>89.1</ele>
        <time>2023-08-26T09:55:04Z</time>
      </trkpt>
      <trkpt lat="44.89223" lon="0.40583">
        <ele>89</ele>
        <time>2023-08-26T09:55:05Z</time>
      </trkpt>
      <trkpt lat="44.89224" lon="0.40579">
        <ele>89.2</ele>
        <time>2023-08-26T09:55:07Z</time>
      </trkpt>
      <trkpt lat="44.89223" lon="0.40577">
        <ele>89.2</ele>
        <time>2023-08-26T09:55:08Z</time>
      </trkpt>
      <trkpt lat="44.89223" lon="0.40573">
        <ele>89.5</ele>
        <time>2023-08-26T09:55:10Z</time>
      </trkpt>
      <trkpt lat="44.89221" lon="0.40568">
        <ele>89.7</ele>
        <time>2023-08-26T09:55:12Z</time>
      </trkpt>
      <trkpt lat="44.8922" lon="0.40562">
        <ele>90.2</ele>
        <time>2023-08-26T09:55:15Z</time>
      </trkpt>
      <trkpt lat="44.89219" lon="0.40557">
        <ele>90.4</ele>
        <time>2023-08-26T09:55:17Z</time>
      </trkpt>
      <trkpt lat="44.89218" lon="0.40549">
        <ele>90.9</ele>
        <time>2023-08-26T09:55:21Z</time>
      </trkpt>
      <trkpt lat="44.89218" lon="0.40545">
        <ele>91.1</ele>
        <time>2023-08-26T09:55:23Z</time>
      </trkpt>
      <trkpt lat="44.89218" lon="0.40543">
        <ele>91.1</ele>
        <time>2023-08-26T09:55:24Z</time>
      </trkpt>
      <trkpt lat="44.8922" lon="0.40536">
        <ele>91.6</ele>
        <time>2023-08-26T09:55:28Z</time>
      </trkpt>
      <trkpt lat="44.89219" lon="0.40529">
        <ele>92.1</ele>
        <time>2023-08-26T09:55:31Z</time>
      </trkpt>
      <trkpt lat="44.89215" lon="0.40518">
        <ele>92.7</ele>
        <time>2023-08-26T09:55:37Z</time>
      </trkpt>
      <trkpt lat="44.89213" lon="0.40509">
        <ele>93</ele>
        <time>2023-08-26T09:55:42Z</time>
      </trkpt>
      <trkpt lat="44.89211" lon="0.40502">
        <ele>93.5</ele>
        <time>2023-08-26T09:55:45Z</time>
      </trkpt>
      <trkpt lat="44.89211" lon="0.40497">
        <ele>93.6</ele>
        <time>2023-08-26T09:55:47Z</time>
      </trkpt>
      <trkpt lat="44.89211" lon="0.40489">
        <ele>93.9</ele>
        <time>2023-08-26T09:55:51Z</time>
      </trkpt>
      <trkpt lat="44.89206" lon="0.40475">
        <ele>94.4</ele>
        <time>2023-08-26T09:55:57Z</time>
      </trkpt>
      <trkpt lat="44.89198" lon="0.40462">
        <ele>94.9</ele>
        <time>2023-08-26T09:56:03Z</time>
      </trkpt>
      <trkpt lat="44.8919" lon="0.4045">
        <ele>95.6</ele>
        <time>2023-08-26T09:56:09Z</time>
      </trkpt>
      <trkpt lat="44.89187" lon="0.40443">
        <ele>95.9</ele>
        <time>2023-08-26T09:56:12Z</time>
      </trkpt>
      <trkpt lat="44.89187" lon="0.40438">
        <ele>96</ele>
        <time>2023-08-26T09:56:14Z</time>
      </trkpt>
      <trkpt lat="44.89186" lon="0.40434">
        <ele>96.1</ele>
        <time>2023-08-26T09:56:16Z</time>
      </trkpt>
      <trkpt lat="44.89182" lon="0.4043">
        <ele>96.3</ele>
        <time>2023-08-26T09:56:19Z</time>
      </trkpt>
      <trkpt lat="44.8918" lon="0.40429">
        <ele>96.4</ele>
        <time>2023-08-26T09:56:20Z</time>
      </trkpt>
      <trkpt lat="44.89171" lon="0.40429">
        <ele>96.6</ele>
        <time>2023-08-26T09:56:26Z</time>
      </trkpt>
      <trkpt lat="44.89156" lon="0.40432">
        <ele>96.5</ele>
        <time>2023-08-26T09:56:33Z</time>
      </trkpt>
      <trkpt lat="44.89139" lon="0.40438">
        <ele>96</ele>
        <time>2023-08-26T09:56:39Z</time>
      </trkpt>
      <trkpt lat="44.89123" lon="0.4044">
        <ele>95.2</ele>
        <time>2023-08-26T09:56:45Z</time>
      </trkpt>
      <trkpt lat="44.8911" lon="0.4044">
        <ele>94.7</ele>
        <time>2023-08-26T09:56:50Z</time>
      </trkpt>
      <trkpt lat="44.89101" lon="0.40442">
        <ele>94.3</ele>
        <time>2023-08-26T09:56:53Z</time>
      </trkpt>
      <trkpt lat="44.89096" lon="0.40446">
        <ele>94</ele>
        <time>2023-08-26T09:56:55Z</time>
      </trkpt>
      <trkpt lat="44.89087" lon="0.40449">
        <ele>93.6</ele>
        <time>2023-08-26T09:56:59Z</time>
      </trkpt>
      <trkpt lat="44.89074" lon="0.40456">
        <ele>93.3</ele>
        <time>2023-08-26T09:57:02Z</time>
      </trkpt>
      <trkpt lat="44.89056" lon="0.40464">
        <ele>93.3</ele>
        <time>2023-08-26T09:57:06Z</time>
      </trkpt>
      <trkpt lat="44.89044" lon="0.40466">
        <ele>93.6</ele>
        <time>2023-08-26T09:57:08Z</time>
      </trkpt>
      <trkpt lat="44.89031" lon="0.40466">
        <ele>94</ele>
        <time>2023-08-26T09:57:10Z</time>
      </trkpt>
      <trkpt lat="44.89018" lon="0.40467">
        <ele>94.5</ele>
        <time>2023-08-26T09:57:13Z</time>
      </trkpt>
      <trkpt lat="44.88996" lon="0.40473">
        <ele>96</ele>
        <time>2023-08-26T09:57:18Z</time>
      </trkpt>
      <trkpt lat="44.88992" lon="0.40476">
        <ele>96</ele>
        <time>2023-08-26T09:57:19Z</time>
      </trkpt>
      <trkpt lat="44.88982" lon="0.40483">
        <ele>96.3</ele>
        <time>2023-08-26T09:57:22Z</time>
      </trkpt>
      <trkpt lat="44.88978" lon="0.40485">
        <ele>96.4</ele>
        <time>2023-08-26T09:57:23Z</time>
      </trkpt>
      <trkpt lat="44.88968" lon="0.40495">
        <ele>96.5</ele>
        <time>2023-08-26T09:57:26Z</time>
      </trkpt>
      <trkpt lat="44.8897" lon="0.4051">
        <ele>96</ele>
        <time>2023-08-26T09:57:29Z</time>
      </trkpt>
      <trkpt lat="44.88975" lon="0.40518">
        <ele>95.4</ele>
        <time>2023-08-26T09:57:31Z</time>
      </trkpt>
      <trkpt lat="44.88973" lon="0.40522">
        <ele>95.5</ele>
        <time>2023-08-26T09:57:32Z</time>
      </trkpt>
      <trkpt lat="44.8897" lon="0.40532">
        <ele>95.5</ele>
        <time>2023-08-26T09:57:35Z</time>
      </trkpt>
      <trkpt lat="44.88969" lon="0.40535">
        <ele>95.7</ele>
        <time>2023-08-26T09:57:36Z</time>
      </trkpt>
      <trkpt lat="44.88964" lon="0.40546">
        <ele>95.8</ele>
        <time>2023-08-26T09:57:40Z</time>
      </trkpt>
      <trkpt lat="44.88964" lon="0.40561">
        <ele>95.7</ele>
        <time>2023-08-26T09:57:45Z</time>
      </trkpt>
      <trkpt lat="44.88962" lon="0.40574">
        <ele>95.8</ele>
        <time>2023-08-26T09:57:50Z</time>
      </trkpt>
      <trkpt lat="44.88962" lon="0.40579">
        <ele>95.8</ele>
        <time>2023-08-26T09:57:52Z</time>
      </trkpt>
      <trkpt lat="44.88963" lon="0.40592">
        <ele>95.5</ele>
        <time>2023-08-26T09:57:57Z</time>
      </trkpt>
      <trkpt lat="44.88963" lon="0.40595">
        <ele>95.4</ele>
        <time>2023-08-26T09:57:58Z</time>
      </trkpt>
      <trkpt lat="44.88963" lon="0.40604">
        <ele>95.3</ele>
        <time>2023-08-26T09:58:01Z</time>
      </trkpt>
      <trkpt lat="44.88965" lon="0.40618">
        <ele>95.2</ele>
        <time>2023-08-26T09:58:06Z</time>
      </trkpt>
      <trkpt lat="44.88968" lon="0.4064">
        <ele>94.6</ele>
        <time>2023-08-26T09:58:12Z</time>
      </trkpt>
      <trkpt lat="44.88972" lon="0.40655">
        <ele>93.7</ele>
        <time>2023-08-26T09:58:15Z</time>
      </trkpt>
      <trkpt lat="44.88973" lon="0.4066">
        <ele>93.6</ele>
        <time>2023-08-26T09:58:16Z</time>
      </trkpt>
      <trkpt lat="44.88974" lon="0.40667">
        <ele>93.4</ele>
        <time>2023-08-26T09:58:17Z</time>
      </trkpt>
      <trkpt lat="44.88976" lon="0.40685">
        <ele>92.5</ele>
        <time>2023-08-26T09:58:19Z</time>
      </trkpt>
      <trkpt lat="44.88986" lon="0.40711">
        <ele>90.6</ele>
        <time>2023-08-26T09:58:22Z</time>
      </trkpt>
      <trkpt lat="44.88991" lon="0.40719">
        <ele>89.8</ele>
        <time>2023-08-26T09:58:23Z</time>
      </trkpt>
      <trkpt lat="44.89" lon="0.40737">
        <ele>88.8</ele>
        <time>2023-08-26T09:58:25Z</time>
      </trkpt>
      <trkpt lat="44.89002" lon="0.40746">
        <ele>88.8</ele>
        <time>2023-08-26T09:58:26Z</time>
      </trkpt>
      <trkpt lat="44.89003" lon="0.40753">
        <ele>88.6</ele>
        <time>2023-08-26T09:58:27Z</time>
      </trkpt>
      <trkpt lat="44.89006" lon="0.40769">
        <ele>88.6</ele>
        <time>2023-08-26T09:58:29Z</time>
      </trkpt>
      <trkpt lat="44.89006" lon="0.40777">
        <ele>88.9</ele>
        <time>2023-08-26T09:58:30Z</time>
      </trkpt>
      <trkpt lat="44.89007" lon="0.40783">
        <ele>89.3</ele>
        <time>2023-08-26T09:58:31Z</time>
      </trkpt>
      <trkpt lat="44.89008" lon="0.408">
        <ele>90</ele>
        <time>2023-08-26T09:58:34Z</time>
      </trkpt>
      <trkpt lat="44.89009" lon="0.40804">
        <ele>90.4</ele>
        <time>2023-08-26T09:58:37Z</time>
      </trkpt>
      <trkpt lat="44.89018" lon="0.40795">
        <ele>88.9</ele>
        <time>2023-08-26T09:58:41Z</time>
      </trkpt>
      <trkpt lat="44.89023" lon="0.40789">
        <ele>88.4</ele>
        <time>2023-08-26T09:58:43Z</time>
      </trkpt>
      <trkpt lat="44.89028" lon="0.40788">
        <ele>88</ele>
        <time>2023-08-26T09:58:44Z</time>
      </trkpt>
      <trkpt lat="44.89032" lon="0.40788">
        <ele>87.8</ele>
        <time>2023-08-26T09:58:45Z</time>
      </trkpt>
      <trkpt lat="44.8904" lon="0.40783">
        <ele>87.1</ele>
        <time>2023-08-26T09:58:47Z</time>
      </trkpt>
      <trkpt lat="44.89063" lon="0.40775">
        <ele>85.8</ele>
        <time>2023-08-26T09:58:52Z</time>
      </trkpt>
      <trkpt lat="44.89068" lon="0.40772">
        <ele>85.6</ele>
        <time>2023-08-26T09:58:53Z</time>
      </trkpt>
      <trkpt lat="44.89078" lon="0.40768">
        <ele>85.2</ele>
        <time>2023-08-26T09:58:55Z</time>
      </trkpt>
      <trkpt lat="44.89083" lon="0.40766">
        <ele>85.1</ele>
        <time>2023-08-26T09:58:56Z</time>
      </trkpt>
      <trkpt lat="44.89088" lon="0.40764">
        <ele>84.9</ele>
        <time>2023-08-26T09:58:57Z</time>
      </trkpt>
      <trkpt lat="44.89097" lon="0.40761">
        <ele>84.6</ele>
        <time>2023-08-26T09:58:59Z</time>
      </trkpt>
      <trkpt lat="44.89101" lon="0.40756">
        <ele>84.5</ele>
        <time>2023-08-26T09:59:00Z</time>
      </trkpt>
      <trkpt lat="44.8911" lon="0.40743">
        <ele>84.3</ele>
        <time>2023-08-26T09:59:03Z</time>
      </trkpt>
      <trkpt lat="44.89115" lon="0.40742">
        <ele>84.2</ele>
        <time>2023-08-26T09:59:04Z</time>
      </trkpt>
      <trkpt lat="44.89118" lon="0.40738">
        <ele>84.1</ele>
        <time>2023-08-26T09:59:05Z</time>
      </trkpt>
      <trkpt lat="44.89127" lon="0.40727">
        <ele>84</ele>
        <time>2023-08-26T09:59:07Z</time>
      </trkpt>
      <trkpt lat="44.8914" lon="0.40717">
        <ele>83.7</ele>
        <time>2023-08-26T09:59:10Z</time>
      </trkpt>
      <trkpt lat="44.89142" lon="0.40712">
        <ele>83.7</ele>
        <time>2023-08-26T09:59:11Z</time>
      </trkpt>
      <trkpt lat="44.89146" lon="0.40709">
        <ele>83.7</ele>
        <time>2023-08-26T09:59:12Z</time>
      </trkpt>
      <trkpt lat="44.89154" lon="0.40705">
        <ele>83.6</ele>
        <time>2023-08-26T09:59:14Z</time>
      </trkpt>
      <trkpt lat="44.89158" lon="0.40705">
        <ele>83.4</ele>
        <time>2023-08-26T09:59:15Z</time>
      </trkpt>
      <trkpt lat="44.89163" lon="0.40701">
        <ele>83.3</ele>
        <time>2023-08-26T09:59:16Z</time>
      </trkpt>
      <trkpt lat="44.89172" lon="0.40693">
        <ele>83.3</ele>
        <time>2023-08-26T09:59:18Z</time>
      </trkpt>
      <trkpt lat="44.89181" lon="0.40689">
        <ele>83.2</ele>
        <time>2023-08-26T09:59:20Z</time>
      </trkpt>
      <trkpt lat="44.89188" lon="0.40688">
        <ele>83.2</ele>
        <time>2023-08-26T09:59:23Z</time>
      </trkpt>
      <trkpt lat="44.89188" lon="0.40688">
        <ele>83.2</ele>
        <time>2023-08-26T09:59:24Z</time>
      </trkpt>
      <trkpt lat="44.89209" lon="0.40711">
        <ele>81.6</ele>
        <time>2023-08-26T10:00:07Z</time>
      </trkpt>
      <trkpt lat="44.89211" lon="0.40713">
        <ele>81.6</ele>
        <time>2023-08-26T10:00:08Z</time>
      </trkpt>
      <trkpt lat="44.89213" lon="0.40715">
        <ele>81.4</ele>
        <time>2023-08-26T10:00:09Z</time>
      </trkpt>
      <trkpt lat="44.89224" lon="0.40721">
        <ele>80.7</ele>
        <time>2023-08-26T10:00:13Z</time>
      </trkpt>
      <trkpt lat="44.89239" lon="0.40722">
        <ele>79.9</ele>
        <time>2023-08-26T10:00:17Z</time>
      </trkpt>
      <trkpt lat="44.89248" lon="0.40723">
        <ele>79.4</ele>
        <time>2023-08-26T10:00:19Z</time>
      </trkpt>
      <trkpt lat="44.89254" lon="0.40725">
        <ele>79.1</ele>
        <time>2023-08-26T10:00:20Z</time>
      </trkpt>
      <trkpt lat="44.89268" lon="0.40726">
        <ele>78.8</ele>
        <time>2023-08-26T10:00:23Z</time>
      </trkpt>
      <trkpt lat="44.89273" lon="0.40727">
        <ele>78.7</ele>
        <time>2023-08-26T10:00:24Z</time>
      </trkpt>
      <trkpt lat="44.89284" lon="0.40726">
        <ele>78.5</ele>
        <time>2023-08-26T10:00:27Z</time>
      </trkpt>
      <trkpt lat="44.89287" lon="0.40723">
        <ele>78.4</ele>
        <time>2023-08-26T10:00:28Z</time>
      </trkpt>
      <trkpt lat="44.89289" lon="0.40722">
        <ele>78.6</ele>
        <time>2023-08-26T10:00:29Z</time>
      </trkpt>
      <trkpt lat="44.893" lon="0.40722">
        <ele>78.5</ele>
        <time>2023-08-26T10:00:32Z</time>
      </trkpt>
      <trkpt lat="44.89309" lon="0.4072">
        <ele>78.5</ele>
        <time>2023-08-26T10:00:34Z</time>
      </trkpt>
      <trkpt lat="44.8932" lon="0.40721">
        <ele>78.5</ele>
        <time>2023-08-26T10:00:36Z</time>
      </trkpt>
      <trkpt lat="44.89325" lon="0.40722">
        <ele>78.5</ele>
        <time>2023-08-26T10:00:37Z</time>
      </trkpt>
      <trkpt lat="44.89339" lon="0.40721">
        <ele>78.3</ele>
        <time>2023-08-26T10:00:41Z</time>
      </trkpt>
      <trkpt lat="44.8935" lon="0.40722">
        <ele>78.1</ele>
        <time>2023-08-26T10:00:45Z</time>
      </trkpt>
      <trkpt lat="44.89352" lon="0.40723">
        <ele>77.8</ele>
        <time>2023-08-26T10:00:47Z</time>
      </trkpt>
      <trkpt lat="44.8936" lon="0.40728">
        <ele>77.3</ele>
        <time>2023-08-26T10:01:04Z</time>
      </trkpt>
      <trkpt lat="44.89362" lon="0.40729">
        <ele>77.2</ele>
        <time>2023-08-26T10:01:05Z</time>
      </trkpt>
      <trkpt lat="44.89364" lon="0.4073">
        <ele>77.2</ele>
        <time>2023-08-26T10:01:07Z</time>
      </trkpt>
      <trkpt lat="44.89366" lon="0.40732">
        <ele>76.8</ele>
        <time>2023-08-26T10:01:08Z</time>
      </trkpt>
      <trkpt lat="44.8938" lon="0.40736">
        <ele>75.9</ele>
        <time>2023-08-26T10:01:11Z</time>
      </trkpt>
      <trkpt lat="44.89391" lon="0.40739">
        <ele>75.4</ele>
        <time>2023-08-26T10:01:14Z</time>
      </trkpt>
      <trkpt lat="44.89399" lon="0.40741">
        <ele>74.6</ele>
        <time>2023-08-26T10:01:18Z</time>
      </trkpt>
      <trkpt lat="44.89407" lon="0.40747">
        <ele>74</ele>
        <time>2023-08-26T10:01:21Z</time>
      </trkpt>
      <trkpt lat="44.89409" lon="0.40748">
        <ele>73.8</ele>
        <time>2023-08-26T10:01:23Z</time>
      </trkpt>
      <trkpt lat="44.89423" lon="0.40764">
        <ele>72.1</ele>
        <time>2023-08-26T10:01:30Z</time>
      </trkpt>
      <trkpt lat="44.89424" lon="0.40767">
        <ele>71.9</ele>
        <time>2023-08-26T10:01:31Z</time>
      </trkpt>
      <trkpt lat="44.89432" lon="0.40772">
        <ele>71.4</ele>
        <time>2023-08-26T10:01:34Z</time>
      </trkpt>
      <trkpt lat="44.89438" lon="0.4078">
        <ele>71.1</ele>
        <time>2023-08-26T10:01:37Z</time>
      </trkpt>
      <trkpt lat="44.89442" lon="0.40789">
        <ele>71.1</ele>
        <time>2023-08-26T10:01:40Z</time>
      </trkpt>
      <trkpt lat="44.89443" lon="0.40793">
        <ele>71.2</ele>
        <time>2023-08-26T10:01:41Z</time>
      </trkpt>
      <trkpt lat="44.89444" lon="0.40796">
        <ele>71.2</ele>
        <time>2023-08-26T10:01:42Z</time>
      </trkpt>
      <trkpt lat="44.89447" lon="0.40804">
        <ele>71.3</ele>
        <time>2023-08-26T10:01:45Z</time>
      </trkpt>
      <trkpt lat="44.8945" lon="0.40804">
        <ele>71.2</ele>
        <time>2023-08-26T10:01:47Z</time>
      </trkpt>
      <trkpt lat="44.8945" lon="0.40803">
        <ele>71.2</ele>
        <time>2023-08-26T10:01:48Z</time>
      </trkpt>
      <trkpt lat="44.89453" lon="0.408">
        <ele>71.2</ele>
        <time>2023-08-26T10:01:50Z</time>
      </trkpt>
      <trkpt lat="44.89455" lon="0.40799">
        <ele>71</ele>
        <time>2023-08-26T10:01:51Z</time>
      </trkpt>
      <trkpt lat="44.89459" lon="0.40795">
        <ele>71</ele>
        <time>2023-08-26T10:01:53Z</time>
      </trkpt>
      <trkpt lat="44.89462" lon="0.40792">
        <ele>70.9</ele>
        <time>2023-08-26T10:01:55Z</time>
      </trkpt>
      <trkpt lat="44.89475" lon="0.40783">
        <ele>70.5</ele>
        <time>2023-08-26T10:01:59Z</time>
      </trkpt>
      <trkpt lat="44.8949" lon="0.40773">
        <ele>70.5</ele>
        <time>2023-08-26T10:02:03Z</time>
      </trkpt>
      <trkpt lat="44.89494" lon="0.40772">
        <ele>70.5</ele>
        <time>2023-08-26T10:02:04Z</time>
      </trkpt>
      <trkpt lat="44.89499" lon="0.40771">
        <ele>70.6</ele>
        <time>2023-08-26T10:02:05Z</time>
      </trkpt>
      <trkpt lat="44.89506" lon="0.40771">
        <ele>70.7</ele>
        <time>2023-08-26T10:02:07Z</time>
      </trkpt>
      <trkpt lat="44.89508" lon="0.40773">
        <ele>70.7</ele>
        <time>2023-08-26T10:02:08Z</time>
      </trkpt>
      <trkpt lat="44.89517" lon="0.4078">
        <ele>70.9</ele>
        <time>2023-08-26T10:02:11Z</time>
      </trkpt>
      <trkpt lat="44.89524" lon="0.40785">
        <ele>71.1</ele>
        <time>2023-08-26T10:02:13Z</time>
      </trkpt>
      <trkpt lat="44.89534" lon="0.40792">
        <ele>71.5</ele>
        <time>2023-08-26T10:02:16Z</time>
      </trkpt>
      <trkpt lat="44.89541" lon="0.40794">
        <ele>71.6</ele>
        <time>2023-08-26T10:02:17Z</time>
      </trkpt>
      <trkpt lat="44.89556" lon="0.408">
        <ele>71.8</ele>
        <time>2023-08-26T10:02:20Z</time>
      </trkpt>
      <trkpt lat="44.89569" lon="0.40802">
        <ele>71.6</ele>
        <time>2023-08-26T10:02:23Z</time>
      </trkpt>
      <trkpt lat="44.89572" lon="0.40803">
        <ele>71.6</ele>
        <time>2023-08-26T10:02:24Z</time>
      </trkpt>
      <trkpt lat="44.89577" lon="0.40807">
        <ele>71.4</ele>
        <time>2023-08-26T10:02:26Z</time>
      </trkpt>
      <trkpt lat="44.89586" lon="0.40812">
        <ele>71.1</ele>
        <time>2023-08-26T10:02:30Z</time>
      </trkpt>
      <trkpt lat="44.89598" lon="0.40813">
        <ele>70.7</ele>
        <time>2023-08-26T10:02:33Z</time>
      </trkpt>
      <trkpt lat="44.89601" lon="0.40812">
        <ele>70.5</ele>
        <time>2023-08-26T10:02:34Z</time>
      </trkpt>
      <trkpt lat="44.89606" lon="0.40808">
        <ele>70.2</ele>
        <time>2023-08-26T10:02:36Z</time>
      </trkpt>
      <trkpt lat="44.8961" lon="0.40804">
        <ele>70</ele>
        <time>2023-08-26T10:02:37Z</time>
      </trkpt>
      <trkpt lat="44.89617" lon="0.40798">
        <ele>69.4</ele>
        <time>2023-08-26T10:02:39Z</time>
      </trkpt>
      <trkpt lat="44.8962" lon="0.40796">
        <ele>69.2</ele>
        <time>2023-08-26T10:02:40Z</time>
      </trkpt>
      <trkpt lat="44.89627" lon="0.40793">
        <ele>68.9</ele>
        <time>2023-08-26T10:02:42Z</time>
      </trkpt>
      <trkpt lat="44.89632" lon="0.40789">
        <ele>68.5</ele>
        <time>2023-08-26T10:02:44Z</time>
      </trkpt>
      <trkpt lat="44.89636" lon="0.40786">
        <ele>68.3</ele>
        <time>2023-08-26T10:02:45Z</time>
      </trkpt>
      <trkpt lat="44.89649" lon="0.40785">
        <ele>67.7</ele>
        <time>2023-08-26T10:02:48Z</time>
      </trkpt>
      <trkpt lat="44.89652" lon="0.40783">
        <ele>67.6</ele>
        <time>2023-08-26T10:02:49Z</time>
      </trkpt>
      <trkpt lat="44.89672" lon="0.4078">
        <ele>66.8</ele>
        <time>2023-08-26T10:02:53Z</time>
      </trkpt>
      <trkpt lat="44.89691" lon="0.40775">
        <ele>66.2</ele>
        <time>2023-08-26T10:02:57Z</time>
      </trkpt>
      <trkpt lat="44.89696" lon="0.40772">
        <ele>66</ele>
        <time>2023-08-26T10:02:59Z</time>
      </trkpt>
      <trkpt lat="44.89698" lon="0.40771">
        <ele>66</ele>
        <time>2023-08-26T10:03:00Z</time>
      </trkpt>
      <trkpt lat="44.89699" lon="0.4077">
        <ele>66</ele>
        <time>2023-08-26T10:03:01Z</time>
      </trkpt>
      <trkpt lat="44.89701" lon="0.40774">
        <ele>66</ele>
        <time>2023-08-26T10:03:49Z</time>
      </trkpt>
      <trkpt lat="44.897" lon="0.40775">
        <ele>66.1</ele>
        <time>2023-08-26T10:03:50Z</time>
      </trkpt>
      <trkpt lat="44.89694" lon="0.40779">
        <ele>66.3</ele>
        <time>2023-08-26T10:03:54Z</time>
      </trkpt>
      <trkpt lat="44.89676" lon="0.40787">
        <ele>66.9</ele>
        <time>2023-08-26T10:03:58Z</time>
      </trkpt>
      <trkpt lat="44.89672" lon="0.4079">
        <ele>67</ele>
        <time>2023-08-26T10:03:59Z</time>
      </trkpt>
      <trkpt lat="44.89663" lon="0.40798">
        <ele>67.6</ele>
        <time>2023-08-26T10:04:01Z</time>
      </trkpt>
      <trkpt lat="44.89651" lon="0.40816">
        <ele>68.6</ele>
        <time>2023-08-26T10:04:05Z</time>
      </trkpt>
      <trkpt lat="44.89643" lon="0.40821">
        <ele>69.1</ele>
        <time>2023-08-26T10:04:07Z</time>
      </trkpt>
      <trkpt lat="44.89639" lon="0.4083">
        <ele>69.5</ele>
        <time>2023-08-26T10:04:09Z</time>
      </trkpt>
      <trkpt lat="44.89634" lon="0.40849">
        <ele>70.4</ele>
        <time>2023-08-26T10:04:14Z</time>
      </trkpt>
      <trkpt lat="44.89636" lon="0.4087">
        <ele>71.3</ele>
        <time>2023-08-26T10:04:20Z</time>
      </trkpt>
      <trkpt lat="44.89639" lon="0.40879">
        <ele>71.8</ele>
        <time>2023-08-26T10:04:23Z</time>
      </trkpt>
      <trkpt lat="44.8964" lon="0.40887">
        <ele>72.2</ele>
        <time>2023-08-26T10:04:26Z</time>
      </trkpt>
      <trkpt lat="44.89642" lon="0.40895">
        <ele>72.8</ele>
        <time>2023-08-26T10:04:29Z</time>
      </trkpt>
      <trkpt lat="44.89645" lon="0.40905">
        <ele>73.5</ele>
        <time>2023-08-26T10:04:33Z</time>
      </trkpt>
      <trkpt lat="44.89644" lon="0.40915">
        <ele>74.1</ele>
        <time>2023-08-26T10:04:38Z</time>
      </trkpt>
      <trkpt lat="44.89642" lon="0.40921">
        <ele>74.6</ele>
        <time>2023-08-26T10:04:42Z</time>
      </trkpt>
      <trkpt lat="44.89641" lon="0.40929">
        <ele>75.4</ele>
        <time>2023-08-26T10:04:46Z</time>
      </trkpt>
      <trkpt lat="44.8964" lon="0.40934">
        <ele>75.7</ele>
        <time>2023-08-26T10:04:49Z</time>
      </trkpt>
      <trkpt lat="44.89638" lon="0.40937">
        <ele>76.1</ele>
        <time>2023-08-26T10:04:51Z</time>
      </trkpt>
      <trkpt lat="44.89634" lon="0.40943">
        <ele>76.2</ele>
        <time>2023-08-26T10:04:55Z</time>
      </trkpt>
      <trkpt lat="44.89633" lon="0.40946">
        <ele>76.6</ele>
        <time>2023-08-26T10:04:57Z</time>
      </trkpt>
      <trkpt lat="44.89632" lon="0.40948">
        <ele>76.6</ele>
        <time>2023-08-26T10:04:58Z</time>
      </trkpt>
      <trkpt lat="44.89631" lon="0.40952">
        <ele>76.8</ele>
        <time>2023-08-26T10:05:00Z</time>
      </trkpt>
      <trkpt lat="44.89631" lon="0.40954">
        <ele>76.8</ele>
        <time>2023-08-26T10:05:01Z</time>
      </trkpt>
      <trkpt lat="44.89632" lon="0.40956">
        <ele>77.4</ele>
        <time>2023-08-26T10:05:02Z</time>
      </trkpt>
      <trkpt lat="44.89632" lon="0.40958">
        <ele>77.4</ele>
        <time>2023-08-26T10:05:03Z</time>
      </trkpt>
      <trkpt lat="44.89632" lon="0.40962">
        <ele>77.8</ele>
        <time>2023-08-26T10:05:05Z</time>
      </trkpt>
      <trkpt lat="44.89632" lon="0.40965">
        <ele>78.2</ele>
        <time>2023-08-26T10:05:07Z</time>
      </trkpt>
      <trkpt lat="44.89629" lon="0.40976">
        <ele>79.2</ele>
        <time>2023-08-26T10:05:13Z</time>
      </trkpt>
      <trkpt lat="44.89628" lon="0.40978">
        <ele>79</ele>
        <time>2023-08-26T10:05:14Z</time>
      </trkpt>
      <trkpt lat="44.89626" lon="0.40984">
        <ele>79.4</ele>
        <time>2023-08-26T10:05:17Z</time>
      </trkpt>
      <trkpt lat="44.89624" lon="0.40991">
        <ele>79.9</ele>
        <time>2023-08-26T10:05:21Z</time>
      </trkpt>
      <trkpt lat="44.89626" lon="0.40998">
        <ele>80.7</ele>
        <time>2023-08-26T10:05:25Z</time>
      </trkpt>
      <trkpt lat="44.89627" lon="0.41">
        <ele>80.7</ele>
        <time>2023-08-26T10:05:26Z</time>
      </trkpt>
      <trkpt lat="44.89624" lon="0.4101">
        <ele>81.1</ele>
        <time>2023-08-26T10:05:31Z</time>
      </trkpt>
      <trkpt lat="44.89623" lon="0.41017">
        <ele>81.7</ele>
        <time>2023-08-26T10:05:35Z</time>
      </trkpt>
      <trkpt lat="44.89623" lon="0.41021">
        <ele>82.1</ele>
        <time>2023-08-26T10:05:37Z</time>
      </trkpt>
      <trkpt lat="44.89621" lon="0.41027">
        <ele>82.6</ele>
        <time>2023-08-26T10:05:41Z</time>
      </trkpt>
      <trkpt lat="44.89622" lon="0.41031">
        <ele>82.6</ele>
        <time>2023-08-26T10:05:43Z</time>
      </trkpt>
      <trkpt lat="44.89622" lon="0.41036">
        <ele>83.2</ele>
        <time>2023-08-26T10:05:46Z</time>
      </trkpt>
      <trkpt lat="44.89622" lon="0.4104">
        <ele>83.2</ele>
        <time>2023-08-26T10:05:48Z</time>
      </trkpt>
      <trkpt lat="44.89625" lon="0.41047">
        <ele>83.8</ele>
        <time>2023-08-26T10:05:51Z</time>
      </trkpt>
      <trkpt lat="44.89627" lon="0.41059">
        <ele>84.7</ele>
        <time>2023-08-26T10:05:56Z</time>
      </trkpt>
      <trkpt lat="44.89626" lon="0.41064">
        <ele>84.9</ele>
        <time>2023-08-26T10:05:58Z</time>
      </trkpt>
      <trkpt lat="44.89627" lon="0.41066">
        <ele>85.1</ele>
        <time>2023-08-26T10:05:59Z</time>
      </trkpt>
      <trkpt lat="44.89628" lon="0.41073">
        <ele>85.3</ele>
        <time>2023-08-26T10:06:01Z</time>
      </trkpt>
      <trkpt lat="44.8963" lon="0.41076">
        <ele>85.7</ele>
        <time>2023-08-26T10:06:02Z</time>
      </trkpt>
      <trkpt lat="44.89632" lon="0.41083">
        <ele>86.2</ele>
        <time>2023-08-26T10:06:04Z</time>
      </trkpt>
      <trkpt lat="44.89634" lon="0.41094">
        <ele>86.5</ele>
        <time>2023-08-26T10:06:07Z</time>
      </trkpt>
      <trkpt lat="44.89638" lon="0.41103">
        <ele>87.2</ele>
        <time>2023-08-26T10:06:10Z</time>
      </trkpt>
      <trkpt lat="44.8964" lon="0.41106">
        <ele>87.2</ele>
        <time>2023-08-26T10:06:11Z</time>
      </trkpt>
      <trkpt lat="44.89643" lon="0.41112">
        <ele>87.5</ele>
        <time>2023-08-26T10:06:13Z</time>
      </trkpt>
      <trkpt lat="44.89643" lon="0.41124">
        <ele>87.6</ele>
        <time>2023-08-26T10:06:16Z</time>
      </trkpt>
      <trkpt lat="44.89644" lon="0.41134">
        <ele>87.7</ele>
        <time>2023-08-26T10:06:18Z</time>
      </trkpt>
      <trkpt lat="44.89644" lon="0.41139">
        <ele>87.6</ele>
        <time>2023-08-26T10:06:19Z</time>
      </trkpt>
      <trkpt lat="44.89641" lon="0.41151">
        <ele>87.3</ele>
        <time>2023-08-26T10:06:21Z</time>
      </trkpt>
      <trkpt lat="44.89639" lon="0.41179">
        <ele>86.9</ele>
        <time>2023-08-26T10:06:25Z</time>
      </trkpt>
      <trkpt lat="44.89639" lon="0.41186">
        <ele>86.9</ele>
        <time>2023-08-26T10:06:26Z</time>
      </trkpt>
      <trkpt lat="44.8964" lon="0.41193">
        <ele>86.9</ele>
        <time>2023-08-26T10:06:27Z</time>
      </trkpt>
      <trkpt lat="44.89642" lon="0.41205">
        <ele>86.9</ele>
        <time>2023-08-26T10:06:29Z</time>
      </trkpt>
      <trkpt lat="44.89643" lon="0.41211">
        <ele>86.9</ele>
        <time>2023-08-26T10:06:30Z</time>
      </trkpt>
      <trkpt lat="44.89651" lon="0.41241">
        <ele>87.1</ele>
        <time>2023-08-26T10:06:36Z</time>
      </trkpt>
      <trkpt lat="44.89659" lon="0.41262">
        <ele>87.2</ele>
        <time>2023-08-26T10:06:41Z</time>
      </trkpt>
      <trkpt lat="44.89662" lon="0.4127">
        <ele>87.4</ele>
        <time>2023-08-26T10:06:43Z</time>
      </trkpt>
      <trkpt lat="44.89665" lon="0.41286">
        <ele>87.9</ele>
        <time>2023-08-26T10:06:47Z</time>
      </trkpt>
      <trkpt lat="44.89664" lon="0.41288">
        <ele>87.9</ele>
        <time>2023-08-26T10:06:48Z</time>
      </trkpt>
      <trkpt lat="44.89661" lon="0.41292">
        <ele>87.9</ele>
        <time>2023-08-26T10:06:50Z</time>
      </trkpt>
      <trkpt lat="44.89645" lon="0.41294">
        <ele>87.6</ele>
        <time>2023-08-26T10:06:53Z</time>
      </trkpt>
      <trkpt lat="44.89627" lon="0.41295">
        <ele>87.2</ele>
        <time>2023-08-26T10:06:57Z</time>
      </trkpt>
      <trkpt lat="44.89607" lon="0.41298">
        <ele>86.8</ele>
        <time>2023-08-26T10:07:02Z</time>
      </trkpt>
      <trkpt lat="44.89591" lon="0.41311">
        <ele>87.5</ele>
        <time>2023-08-26T10:07:07Z</time>
      </trkpt>
      <trkpt lat="44.8958" lon="0.41328">
        <ele>88.7</ele>
        <time>2023-08-26T10:07:12Z</time>
      </trkpt>
      <trkpt lat="44.89577" lon="0.41347">
        <ele>90.1</ele>
        <time>2023-08-26T10:07:17Z</time>
      </trkpt>
      <trkpt lat="44.89576" lon="0.4135">
        <ele>90.4</ele>
        <time>2023-08-26T10:07:18Z</time>
      </trkpt>
      <trkpt lat="44.89574" lon="0.41357">
        <ele>90.7</ele>
        <time>2023-08-26T10:07:20Z</time>
      </trkpt>
      <trkpt lat="44.89574" lon="0.4136">
        <ele>91</ele>
        <time>2023-08-26T10:07:21Z</time>
      </trkpt>
      <trkpt lat="44.89576" lon="0.41372">
        <ele>91.8</ele>
        <time>2023-08-26T10:07:25Z</time>
      </trkpt>
      <trkpt lat="44.89582" lon="0.41386">
        <ele>92.4</ele>
        <time>2023-08-26T10:07:29Z</time>
      </trkpt>
      <trkpt lat="44.8958" lon="0.41406">
        <ele>93.7</ele>
        <time>2023-08-26T10:07:35Z</time>
      </trkpt>
      <trkpt lat="44.89583" lon="0.41424">
        <ele>94.2</ele>
        <time>2023-08-26T10:07:40Z</time>
      </trkpt>
      <trkpt lat="44.89589" lon="0.41438">
        <ele>94.4</ele>
        <time>2023-08-26T10:07:44Z</time>
      </trkpt>
      <trkpt lat="44.89595" lon="0.41451">
        <ele>94.5</ele>
        <time>2023-08-26T10:07:48Z</time>
      </trkpt>
      <trkpt lat="44.89601" lon="0.41466">
        <ele>94.8</ele>
        <time>2023-08-26T10:07:52Z</time>
      </trkpt>
      <trkpt lat="44.89606" lon="0.4148">
        <ele>94.8</ele>
        <time>2023-08-26T10:07:55Z</time>
      </trkpt>
      <trkpt lat="44.8961" lon="0.41493">
        <ele>94.9</ele>
        <time>2023-08-26T10:07:57Z</time>
      </trkpt>
      <trkpt lat="44.89614" lon="0.41518">
        <ele>95.3</ele>
        <time>2023-08-26T10:08:00Z</time>
      </trkpt>
      <trkpt lat="44.89615" lon="0.41525">
        <ele>95.7</ele>
        <time>2023-08-26T10:08:01Z</time>
      </trkpt>
      <trkpt lat="44.89615" lon="0.41531">
        <ele>95.9</ele>
        <time>2023-08-26T10:08:02Z</time>
      </trkpt>
      <trkpt lat="44.89611" lon="0.41541">
        <ele>96.7</ele>
        <time>2023-08-26T10:08:04Z</time>
      </trkpt>
      <trkpt lat="44.896" lon="0.41551">
        <ele>98.6</ele>
        <time>2023-08-26T10:08:07Z</time>
      </trkpt>
      <trkpt lat="44.89598" lon="0.41555">
        <ele>99.3</ele>
        <time>2023-08-26T10:08:08Z</time>
      </trkpt>
      <trkpt lat="44.89597" lon="0.41559">
        <ele>99.7</ele>
        <time>2023-08-26T10:08:09Z</time>
      </trkpt>
      <trkpt lat="44.896" lon="0.41569">
        <ele>100.7</ele>
        <time>2023-08-26T10:08:11Z</time>
      </trkpt>
      <trkpt lat="44.89605" lon="0.41592">
        <ele>101.5</ele>
        <time>2023-08-26T10:08:15Z</time>
      </trkpt>
      <trkpt lat="44.89606" lon="0.41598">
        <ele>101.7</ele>
        <time>2023-08-26T10:08:16Z</time>
      </trkpt>
      <trkpt lat="44.89607" lon="0.41603">
        <ele>101.9</ele>
        <time>2023-08-26T10:08:17Z</time>
      </trkpt>
      <trkpt lat="44.8961" lon="0.41616">
        <ele>101.7</ele>
        <time>2023-08-26T10:08:19Z</time>
      </trkpt>
      <trkpt lat="44.89613" lon="0.41622">
        <ele>101.3</ele>
        <time>2023-08-26T10:08:20Z</time>
      </trkpt>
      <trkpt lat="44.89617" lon="0.41629">
        <ele>100.5</ele>
        <time>2023-08-26T10:08:21Z</time>
      </trkpt>
      <trkpt lat="44.89622" lon="0.41643">
        <ele>99.9</ele>
        <time>2023-08-26T10:08:23Z</time>
      </trkpt>
      <trkpt lat="44.89629" lon="0.41664">
        <ele>98.5</ele>
        <time>2023-08-26T10:08:26Z</time>
      </trkpt>
      <trkpt lat="44.89634" lon="0.41678">
        <ele>98.1</ele>
        <time>2023-08-26T10:08:28Z</time>
      </trkpt>
      <trkpt lat="44.89638" lon="0.41693">
        <ele>97.3</ele>
        <time>2023-08-26T10:08:30Z</time>
      </trkpt>
      <trkpt lat="44.89643" lon="0.41707">
        <ele>97</ele>
        <time>2023-08-26T10:08:32Z</time>
      </trkpt>
      <trkpt lat="44.89645" lon="0.41718">
        <ele>96.6</ele>
        <time>2023-08-26T10:08:34Z</time>
      </trkpt>
      <trkpt lat="44.89647" lon="0.41722">
        <ele>96.2</ele>
        <time>2023-08-26T10:08:35Z</time>
      </trkpt>
      <trkpt lat="44.89644" lon="0.41724">
        <ele>97</ele>
        <time>2023-08-26T10:08:38Z</time>
      </trkpt>
      <trkpt lat="44.89638" lon="0.41739">
        <ele>97.4</ele>
        <time>2023-08-26T10:08:55Z</time>
      </trkpt>
      <trkpt lat="44.89638" lon="0.41741">
        <ele>97.9</ele>
        <time>2023-08-26T10:08:56Z</time>
      </trkpt>
      <trkpt lat="44.89637" lon="0.41748">
        <ele>98.1</ele>
        <time>2023-08-26T10:08:58Z</time>
      </trkpt>
      <trkpt lat="44.89638" lon="0.41752">
        <ele>97.8</ele>
        <time>2023-08-26T10:08:59Z</time>
      </trkpt>
      <trkpt lat="44.89637" lon="0.41761">
        <ele>98.5</ele>
        <time>2023-08-26T10:09:01Z</time>
      </trkpt>
      <trkpt lat="44.89636" lon="0.41767">
        <ele>98.7</ele>
        <time>2023-08-26T10:09:03Z</time>
      </trkpt>
      <trkpt lat="44.89634" lon="0.41778">
        <ele>99.4</ele>
        <time>2023-08-26T10:09:06Z</time>
      </trkpt>
      <trkpt lat="44.89633" lon="0.41781">
        <ele>99.6</ele>
        <time>2023-08-26T10:09:07Z</time>
      </trkpt>
      <trkpt lat="44.89633" lon="0.41788">
        <ele>100.1</ele>
        <time>2023-08-26T10:09:09Z</time>
      </trkpt>
      <trkpt lat="44.89636" lon="0.41797">
        <ele>100.5</ele>
        <time>2023-08-26T10:09:11Z</time>
      </trkpt>
      <trkpt lat="44.8964" lon="0.41805">
        <ele>100.8</ele>
        <time>2023-08-26T10:09:13Z</time>
      </trkpt>
      <trkpt lat="44.89639" lon="0.41809">
        <ele>101.1</ele>
        <time>2023-08-26T10:09:14Z</time>
      </trkpt>
      <trkpt lat="44.89635" lon="0.41823">
        <ele>102.1</ele>
        <time>2023-08-26T10:09:18Z</time>
      </trkpt>
      <trkpt lat="44.89633" lon="0.41826">
        <ele>102.6</ele>
        <time>2023-08-26T10:09:19Z</time>
      </trkpt>
      <trkpt lat="44.89631" lon="0.41828">
        <ele>102.8</ele>
        <time>2023-08-26T10:09:20Z</time>
      </trkpt>
      <trkpt lat="44.89625" lon="0.41831">
        <ele>103.3</ele>
        <time>2023-08-26T10:09:22Z</time>
      </trkpt>
      <trkpt lat="44.89618" lon="0.41833">
        <ele>103.6</ele>
        <time>2023-08-26T10:09:25Z</time>
      </trkpt>
      <trkpt lat="44.89617" lon="0.41835">
        <ele>103.9</ele>
        <time>2023-08-26T10:09:26Z</time>
      </trkpt>
      <trkpt lat="44.89613" lon="0.41846">
        <ele>104.7</ele>
        <time>2023-08-26T10:09:30Z</time>
      </trkpt>
      <trkpt lat="44.8961" lon="0.41848">
        <ele>104.9</ele>
        <time>2023-08-26T10:09:31Z</time>
      </trkpt>
      <trkpt lat="44.89607" lon="0.41852">
        <ele>105.3</ele>
        <time>2023-08-26T10:09:33Z</time>
      </trkpt>
      <trkpt lat="44.89605" lon="0.41858">
        <ele>105.7</ele>
        <time>2023-08-26T10:09:35Z</time>
      </trkpt>
      <trkpt lat="44.89605" lon="0.41867">
        <ele>106.1</ele>
        <time>2023-08-26T10:09:38Z</time>
      </trkpt>
      <trkpt lat="44.89609" lon="0.4187">
        <ele>106.1</ele>
        <time>2023-08-26T10:09:39Z</time>
      </trkpt>
      <trkpt lat="44.89616" lon="0.41878">
        <ele>106.1</ele>
        <time>2023-08-26T10:09:41Z</time>
      </trkpt>
      <trkpt lat="44.89617" lon="0.41882">
        <ele>106.1</ele>
        <time>2023-08-26T10:09:43Z</time>
      </trkpt>
      <trkpt lat="44.89599" lon="0.41893">
        <ele>108.1</ele>
        <time>2023-08-26T10:09:49Z</time>
      </trkpt>
      <trkpt lat="44.89594" lon="0.41899">
        <ele>109</ele>
        <time>2023-08-26T10:09:52Z</time>
      </trkpt>
      <trkpt lat="44.89591" lon="0.41905">
        <ele>109.4</ele>
        <time>2023-08-26T10:09:54Z</time>
      </trkpt>
      <trkpt lat="44.89592" lon="0.41921">
        <ele>110</ele>
        <time>2023-08-26T10:09:58Z</time>
      </trkpt>
      <trkpt lat="44.89597" lon="0.41933">
        <ele>110</ele>
        <time>2023-08-26T10:10:02Z</time>
      </trkpt>
      <trkpt lat="44.89605" lon="0.41948">
        <ele>110</ele>
        <time>2023-08-26T10:10:07Z</time>
      </trkpt>
      <trkpt lat="44.89608" lon="0.41956">
        <ele>110.2</ele>
        <time>2023-08-26T10:10:10Z</time>
      </trkpt>
      <trkpt lat="44.89609" lon="0.41958">
        <ele>110.2</ele>
        <time>2023-08-26T10:10:11Z</time>
      </trkpt>
      <trkpt lat="44.8961" lon="0.41963">
        <ele>110.5</ele>
        <time>2023-08-26T10:10:13Z</time>
      </trkpt>
      <trkpt lat="44.89612" lon="0.4197">
        <ele>110.6</ele>
        <time>2023-08-26T10:10:16Z</time>
      </trkpt>
      <trkpt lat="44.89614" lon="0.41978">
        <ele>110.8</ele>
        <time>2023-08-26T10:10:20Z</time>
      </trkpt>
      <trkpt lat="44.89618" lon="0.41985">
        <ele>111</ele>
        <time>2023-08-26T10:10:23Z</time>
      </trkpt>
      <trkpt lat="44.89619" lon="0.41994">
        <ele>111.3</ele>
        <time>2023-08-26T10:10:27Z</time>
      </trkpt>
      <trkpt lat="44.89622" lon="0.42001">
        <ele>111.4</ele>
        <time>2023-08-26T10:10:30Z</time>
      </trkpt>
      <trkpt lat="44.89624" lon="0.42004">
        <ele>111.5</ele>
        <time>2023-08-26T10:10:31Z</time>
      </trkpt>
      <trkpt lat="44.89629" lon="0.4201">
        <ele>111.9</ele>
        <time>2023-08-26T10:10:35Z</time>
      </trkpt>
      <trkpt lat="44.8963" lon="0.42009">
        <ele>111.8</ele>
        <time>2023-08-26T10:10:36Z</time>
      </trkpt>
      <trkpt lat="44.89637" lon="0.41997">
        <ele>111.2</ele>
        <time>2023-08-26T10:10:41Z</time>
      </trkpt>
      <trkpt lat="44.89641" lon="0.4198">
        <ele>110.5</ele>
        <time>2023-08-26T10:10:46Z</time>
      </trkpt>
      <trkpt lat="44.89649" lon="0.41955">
        <ele>109.4</ele>
        <time>2023-08-26T10:10:52Z</time>
      </trkpt>
      <trkpt lat="44.89652" lon="0.41944">
        <ele>108.9</ele>
        <time>2023-08-26T10:10:54Z</time>
      </trkpt>
      <trkpt lat="44.89656" lon="0.41933">
        <ele>108.4</ele>
        <time>2023-08-26T10:10:56Z</time>
      </trkpt>
      <trkpt lat="44.8966" lon="0.41912">
        <ele>107.4</ele>
        <time>2023-08-26T10:10:59Z</time>
      </trkpt>
      <trkpt lat="44.89659" lon="0.41905">
        <ele>107.1</ele>
        <time>2023-08-26T10:11:00Z</time>
      </trkpt>
      <trkpt lat="44.89671" lon="0.41882">
        <ele>105.9</ele>
        <time>2023-08-26T10:11:04Z</time>
      </trkpt>
      <trkpt lat="44.89674" lon="0.41875">
        <ele>105.5</ele>
        <time>2023-08-26T10:11:05Z</time>
      </trkpt>
      <trkpt lat="44.89681" lon="0.41849">
        <ele>104.2</ele>
        <time>2023-08-26T10:11:08Z</time>
      </trkpt>
      <trkpt lat="44.89694" lon="0.418">
        <ele>101.7</ele>
        <time>2023-08-26T10:11:13Z</time>
      </trkpt>
      <trkpt lat="44.8971" lon="0.41751">
        <ele>99.7</ele>
        <time>2023-08-26T10:11:18Z</time>
      </trkpt>
      <trkpt lat="44.89715" lon="0.41742">
        <ele>99.3</ele>
        <time>2023-08-26T10:11:19Z</time>
      </trkpt>
      <trkpt lat="44.8972" lon="0.41736">
        <ele>99</ele>
        <time>2023-08-26T10:11:20Z</time>
      </trkpt>
      <trkpt lat="44.89733" lon="0.41725">
        <ele>98.3</ele>
        <time>2023-08-26T10:11:22Z</time>
      </trkpt>
      <trkpt lat="44.89739" lon="0.41721">
        <ele>98.1</ele>
        <time>2023-08-26T10:11:23Z</time>
      </trkpt>
      <trkpt lat="44.89745" lon="0.41716">
        <ele>97.9</ele>
        <time>2023-08-26T10:11:24Z</time>
      </trkpt>
      <trkpt lat="44.89765" lon="0.41709">
        <ele>97.3</ele>
        <time>2023-08-26T10:11:27Z</time>
      </trkpt>
      <trkpt lat="44.89801" lon="0.41704">
        <ele>95.4</ele>
        <time>2023-08-26T10:11:32Z</time>
      </trkpt>
      <trkpt lat="44.89826" lon="0.41699">
        <ele>94.4</ele>
        <time>2023-08-26T10:11:35Z</time>
      </trkpt>
      <trkpt lat="44.89833" lon="0.41696">
        <ele>94.1</ele>
        <time>2023-08-26T10:11:36Z</time>
      </trkpt>
      <trkpt lat="44.89855" lon="0.41681">
        <ele>93.9</ele>
        <time>2023-08-26T10:11:39Z</time>
      </trkpt>
      <trkpt lat="44.89861" lon="0.41675">
        <ele>93.8</ele>
        <time>2023-08-26T10:11:40Z</time>
      </trkpt>
      <trkpt lat="44.89867" lon="0.4167">
        <ele>93.8</ele>
        <time>2023-08-26T10:11:41Z</time>
      </trkpt>
      <trkpt lat="44.89883" lon="0.41656">
        <ele>93.6</ele>
        <time>2023-08-26T10:11:44Z</time>
      </trkpt>
      <trkpt lat="44.89894" lon="0.41648">
        <ele>93.3</ele>
        <time>2023-08-26T10:11:46Z</time>
      </trkpt>
      <trkpt lat="44.89904" lon="0.41642">
        <ele>93</ele>
        <time>2023-08-26T10:11:48Z</time>
      </trkpt>
      <trkpt lat="44.89936" lon="0.41621">
        <ele>91.9</ele>
        <time>2023-08-26T10:11:54Z</time>
      </trkpt>
      <trkpt lat="44.89961" lon="0.41606">
        <ele>91.4</ele>
        <time>2023-08-26T10:11:58Z</time>
      </trkpt>
      <trkpt lat="44.89972" lon="0.41597">
        <ele>91.2</ele>
        <time>2023-08-26T10:12:00Z</time>
      </trkpt>
      <trkpt lat="44.89981" lon="0.41584">
        <ele>91.1</ele>
        <time>2023-08-26T10:12:02Z</time>
      </trkpt>
      <trkpt lat="44.89997" lon="0.41548">
        <ele>91.2</ele>
        <time>2023-08-26T10:12:07Z</time>
      </trkpt>
      <trkpt lat="44.90006" lon="0.41503">
        <ele>91.5</ele>
        <time>2023-08-26T10:12:12Z</time>
      </trkpt>
      <trkpt lat="44.90015" lon="0.41469">
        <ele>91.5</ele>
        <time>2023-08-26T10:12:17Z</time>
      </trkpt>
      <trkpt lat="44.90024" lon="0.41436">
        <ele>90.8</ele>
        <time>2023-08-26T10:12:22Z</time>
      </trkpt>
      <trkpt lat="44.90025" lon="0.41428">
        <ele>90.5</ele>
        <time>2023-08-26T10:12:23Z</time>
      </trkpt>
      <trkpt lat="44.90028" lon="0.4141">
        <ele>89.9</ele>
        <time>2023-08-26T10:12:25Z</time>
      </trkpt>
      <trkpt lat="44.90029" lon="0.41401">
        <ele>89.6</ele>
        <time>2023-08-26T10:12:26Z</time>
      </trkpt>
      <trkpt lat="44.90031" lon="0.41392">
        <ele>89.4</ele>
        <time>2023-08-26T10:12:27Z</time>
      </trkpt>
      <trkpt lat="44.90034" lon="0.41374">
        <ele>89.2</ele>
        <time>2023-08-26T10:12:29Z</time>
      </trkpt>
      <trkpt lat="44.90037" lon="0.41357">
        <ele>89.2</ele>
        <time>2023-08-26T10:12:31Z</time>
      </trkpt>
      <trkpt lat="44.90046" lon="0.41328">
        <ele>89.1</ele>
        <time>2023-08-26T10:12:35Z</time>
      </trkpt>
      <trkpt lat="44.90053" lon="0.41315">
        <ele>89.1</ele>
        <time>2023-08-26T10:12:37Z</time>
      </trkpt>
      <trkpt lat="44.90063" lon="0.41294">
        <ele>88.8</ele>
        <time>2023-08-26T10:12:40Z</time>
      </trkpt>
      <trkpt lat="44.90067" lon="0.41288">
        <ele>88.6</ele>
        <time>2023-08-26T10:12:41Z</time>
      </trkpt>
      <trkpt lat="44.90076" lon="0.41276">
        <ele>88.2</ele>
        <time>2023-08-26T10:12:43Z</time>
      </trkpt>
      <trkpt lat="44.90081" lon="0.4127">
        <ele>88</ele>
        <time>2023-08-26T10:12:44Z</time>
      </trkpt>
      <trkpt lat="44.90085" lon="0.41263">
        <ele>87.8</ele>
        <time>2023-08-26T10:12:45Z</time>
      </trkpt>
      <trkpt lat="44.90088" lon="0.41245">
        <ele>87.5</ele>
        <time>2023-08-26T10:12:47Z</time>
      </trkpt>
      <trkpt lat="44.90089" lon="0.41197">
        <ele>86.2</ele>
        <time>2023-08-26T10:12:52Z</time>
      </trkpt>
      <trkpt lat="44.9009" lon="0.41187">
        <ele>85.8</ele>
        <time>2023-08-26T10:12:53Z</time>
      </trkpt>
      <trkpt lat="44.90094" lon="0.41166">
        <ele>85</ele>
        <time>2023-08-26T10:12:55Z</time>
      </trkpt>
      <trkpt lat="44.90102" lon="0.41134">
        <ele>83.8</ele>
        <time>2023-08-26T10:12:58Z</time>
      </trkpt>
      <trkpt lat="44.90124" lon="0.41064">
        <ele>81.5</ele>
        <time>2023-08-26T10:13:05Z</time>
      </trkpt>
      <trkpt lat="44.90128" lon="0.41054">
        <ele>81.3</ele>
        <time>2023-08-26T10:13:06Z</time>
      </trkpt>
      <trkpt lat="44.90141" lon="0.41028">
        <ele>80.8</ele>
        <time>2023-08-26T10:13:09Z</time>
      </trkpt>
      <trkpt lat="44.90146" lon="0.4102">
        <ele>80.6</ele>
        <time>2023-08-26T10:13:10Z</time>
      </trkpt>
      <trkpt lat="44.90155" lon="0.41007">
        <ele>80.3</ele>
        <time>2023-08-26T10:13:12Z</time>
      </trkpt>
      <trkpt lat="44.90159" lon="0.41">
        <ele>80.1</ele>
        <time>2023-08-26T10:13:13Z</time>
      </trkpt>
      <trkpt lat="44.90169" lon="0.40977">
        <ele>79.2</ele>
        <time>2023-08-26T10:13:16Z</time>
      </trkpt>
      <trkpt lat="44.90172" lon="0.40968">
        <ele>78.9</ele>
        <time>2023-08-26T10:13:17Z</time>
      </trkpt>
      <trkpt lat="44.90174" lon="0.40958">
        <ele>78.4</ele>
        <time>2023-08-26T10:13:18Z</time>
      </trkpt>
      <trkpt lat="44.9018" lon="0.40929">
        <ele>76.8</ele>
        <time>2023-08-26T10:13:21Z</time>
      </trkpt>
      <trkpt lat="44.90193" lon="0.40889">
        <ele>74.2</ele>
        <time>2023-08-26T10:13:25Z</time>
      </trkpt>
      <trkpt lat="44.90223" lon="0.40844">
        <ele>70.6</ele>
        <time>2023-08-26T10:13:30Z</time>
      </trkpt>
      <trkpt lat="44.90254" lon="0.40809">
        <ele>69.1</ele>
        <time>2023-08-26T10:13:35Z</time>
      </trkpt>
      <trkpt lat="44.90264" lon="0.40799">
        <ele>68.8</ele>
        <time>2023-08-26T10:13:37Z</time>
      </trkpt>
      <trkpt lat="44.90269" lon="0.40794">
        <ele>68.7</ele>
        <time>2023-08-26T10:13:38Z</time>
      </trkpt>
      <trkpt lat="44.90272" lon="0.40788">
        <ele>68.6</ele>
        <time>2023-08-26T10:13:39Z</time>
      </trkpt>
      <trkpt lat="44.90276" lon="0.4077">
        <ele>68.8</ele>
        <time>2023-08-26T10:13:42Z</time>
      </trkpt>
      <trkpt lat="44.90278" lon="0.40761">
        <ele>69</ele>
        <time>2023-08-26T10:13:44Z</time>
      </trkpt>
      <trkpt lat="44.90282" lon="0.40753">
        <ele>69.2</ele>
        <time>2023-08-26T10:13:46Z</time>
      </trkpt>
      <trkpt lat="44.90291" lon="0.40733">
        <ele>69.8</ele>
        <time>2023-08-26T10:13:52Z</time>
      </trkpt>
      <trkpt lat="44.90298" lon="0.40723">
        <ele>70.2</ele>
        <time>2023-08-26T10:13:56Z</time>
      </trkpt>
      <trkpt lat="44.90297" lon="0.4072">
        <ele>70.3</ele>
        <time>2023-08-26T10:13:57Z</time>
      </trkpt>
      <trkpt lat="44.90298" lon="0.40717">
        <ele>70.4</ele>
        <time>2023-08-26T10:13:58Z</time>
      </trkpt>
      <trkpt lat="44.90304" lon="0.4071">
        <ele>70.7</ele>
        <time>2023-08-26T10:14:01Z</time>
      </trkpt>
      <trkpt lat="44.9031" lon="0.40704">
        <ele>70.9</ele>
        <time>2023-08-26T10:14:04Z</time>
      </trkpt>
      <trkpt lat="44.9032" lon="0.40701">
        <ele>71.3</ele>
        <time>2023-08-26T10:14:07Z</time>
      </trkpt>
      <trkpt lat="44.90328" lon="0.407">
        <ele>71.6</ele>
        <time>2023-08-26T10:14:10Z</time>
      </trkpt>
      <trkpt lat="44.9033" lon="0.407">
        <ele>71.7</ele>
        <time>2023-08-26T10:14:11Z</time>
      </trkpt>
      <trkpt lat="44.90334" lon="0.40689">
        <ele>72.2</ele>
        <time>2023-08-26T10:14:14Z</time>
      </trkpt>
      <trkpt lat="44.90335" lon="0.40684">
        <ele>72.4</ele>
        <time>2023-08-26T10:14:15Z</time>
      </trkpt>
      <trkpt lat="44.9034" lon="0.40675">
        <ele>72.8</ele>
        <time>2023-08-26T10:14:18Z</time>
      </trkpt>
      <trkpt lat="44.90341" lon="0.4067">
        <ele>73</ele>
        <time>2023-08-26T10:14:20Z</time>
      </trkpt>
      <trkpt lat="44.90342" lon="0.40664">
        <ele>73.2</ele>
        <time>2023-08-26T10:14:22Z</time>
      </trkpt>
      <trkpt lat="44.90343" lon="0.40657">
        <ele>73.5</ele>
        <time>2023-08-26T10:14:24Z</time>
      </trkpt>
      <trkpt lat="44.90348" lon="0.40651">
        <ele>73.9</ele>
        <time>2023-08-26T10:14:27Z</time>
      </trkpt>
      <trkpt lat="44.90353" lon="0.4064">
        <ele>74.5</ele>
        <time>2023-08-26T10:14:31Z</time>
      </trkpt>
      <trkpt lat="44.90356" lon="0.40634">
        <ele>74.8</ele>
        <time>2023-08-26T10:14:33Z</time>
      </trkpt>
      <trkpt lat="44.90363" lon="0.40621">
        <ele>75.6</ele>
        <time>2023-08-26T10:14:39Z</time>
      </trkpt>
      <trkpt lat="44.90365" lon="0.40615">
        <ele>75.9</ele>
        <time>2023-08-26T10:14:41Z</time>
      </trkpt>
      <trkpt lat="44.90367" lon="0.40609">
        <ele>76.2</ele>
        <time>2023-08-26T10:14:44Z</time>
      </trkpt>
      <trkpt lat="44.90369" lon="0.40606">
        <ele>76.4</ele>
        <time>2023-08-26T10:14:46Z</time>
      </trkpt>
      <trkpt lat="44.90369" lon="0.40603">
        <ele>76.6</ele>
        <time>2023-08-26T10:14:47Z</time>
      </trkpt>
      <trkpt lat="44.90369" lon="0.406">
        <ele>76.7</ele>
        <time>2023-08-26T10:14:48Z</time>
      </trkpt>
      <trkpt lat="44.90369" lon="0.40597">
        <ele>76.9</ele>
        <time>2023-08-26T10:14:49Z</time>
      </trkpt>
      <trkpt lat="44.90372" lon="0.40592">
        <ele>77.2</ele>
        <time>2023-08-26T10:14:51Z</time>
      </trkpt>
      <trkpt lat="44.90374" lon="0.40587">
        <ele>77.4</ele>
        <time>2023-08-26T10:14:53Z</time>
      </trkpt>
      <trkpt lat="44.90374" lon="0.40585">
        <ele>77.5</ele>
        <time>2023-08-26T10:14:54Z</time>
      </trkpt>
      <trkpt lat="44.90377" lon="0.40566">
        <ele>78.1</ele>
        <time>2023-08-26T10:15:02Z</time>
      </trkpt>
      <trkpt lat="44.90378" lon="0.40561">
        <ele>78.3</ele>
        <time>2023-08-26T10:15:04Z</time>
      </trkpt>
      <trkpt lat="44.90379" lon="0.40556">
        <ele>78.5</ele>
        <time>2023-08-26T10:15:06Z</time>
      </trkpt>
      <trkpt lat="44.9038" lon="0.40554">
        <ele>78.6</ele>
        <time>2023-08-26T10:15:07Z</time>
      </trkpt>
      <trkpt lat="44.90379" lon="0.40548">
        <ele>78.8</ele>
        <time>2023-08-26T10:15:09Z</time>
      </trkpt>
      <trkpt lat="44.90381" lon="0.40534">
        <ele>79.4</ele>
        <time>2023-08-26T10:15:14Z</time>
      </trkpt>
      <trkpt lat="44.90382" lon="0.40528">
        <ele>79.6</ele>
        <time>2023-08-26T10:15:16Z</time>
      </trkpt>
      <trkpt lat="44.90381" lon="0.40524">
        <ele>79.7</ele>
        <time>2023-08-26T10:15:17Z</time>
      </trkpt>
      <trkpt lat="44.9038" lon="0.40515">
        <ele>79.9</ele>
        <time>2023-08-26T10:15:20Z</time>
      </trkpt>
      <trkpt lat="44.90386" lon="0.40508">
        <ele>80.2</ele>
        <time>2023-08-26T10:15:23Z</time>
      </trkpt>
      <trkpt lat="44.90386" lon="0.40505">
        <ele>80.3</ele>
        <time>2023-08-26T10:15:24Z</time>
      </trkpt>
      <trkpt lat="44.90389" lon="0.40497">
        <ele>80.4</ele>
        <time>2023-08-26T10:15:27Z</time>
      </trkpt>
      <trkpt lat="44.9039" lon="0.40491">
        <ele>80.5</ele>
        <time>2023-08-26T10:15:29Z</time>
      </trkpt>
      <trkpt lat="44.90397" lon="0.40487">
        <ele>80.6</ele>
        <time>2023-08-26T10:15:31Z</time>
      </trkpt>
      <trkpt lat="44.904" lon="0.40481">
        <ele>80.7</ele>
        <time>2023-08-26T10:15:33Z</time>
      </trkpt>
      <trkpt lat="44.90406" lon="0.40478">
        <ele>80.8</ele>
        <time>2023-08-26T10:15:35Z</time>
      </trkpt>
      <trkpt lat="44.90413" lon="0.40472">
        <ele>80.9</ele>
        <time>2023-08-26T10:15:38Z</time>
      </trkpt>
      <trkpt lat="44.90414" lon="0.4047">
        <ele>80.9</ele>
        <time>2023-08-26T10:15:39Z</time>
      </trkpt>
      <trkpt lat="44.90418" lon="0.40463">
        <ele>80.9</ele>
        <time>2023-08-26T10:15:42Z</time>
      </trkpt>
      <trkpt lat="44.90423" lon="0.40461">
        <ele>80.9</ele>
        <time>2023-08-26T10:15:44Z</time>
      </trkpt>
      <trkpt lat="44.90427" lon="0.4046">
        <ele>80.8</ele>
        <time>2023-08-26T10:15:45Z</time>
      </trkpt>
      <trkpt lat="44.9044" lon="0.4046">
        <ele>80.6</ele>
        <time>2023-08-26T10:15:48Z</time>
      </trkpt>
      <trkpt lat="44.90451" lon="0.40455">
        <ele>80.6</ele>
        <time>2023-08-26T10:15:51Z</time>
      </trkpt>
      <trkpt lat="44.90469" lon="0.40448">
        <ele>80.7</ele>
        <time>2023-08-26T10:15:57Z</time>
      </trkpt>
      <trkpt lat="44.90479" lon="0.40467">
        <ele>82</ele>
        <time>2023-08-26T10:16:02Z</time>
      </trkpt>
      <trkpt lat="44.90489" lon="0.40486">
        <ele>82.6</ele>
        <time>2023-08-26T10:16:07Z</time>
      </trkpt>
      <trkpt lat="44.90501" lon="0.40508">
        <ele>83.2</ele>
        <time>2023-08-26T10:16:13Z</time>
      </trkpt>
      <trkpt lat="44.90511" lon="0.40527">
        <ele>83.6</ele>
        <time>2023-08-26T10:16:18Z</time>
      </trkpt>
      <trkpt lat="44.90524" lon="0.40549">
        <ele>83.8</ele>
        <time>2023-08-26T10:16:25Z</time>
      </trkpt>
      <trkpt lat="44.90528" lon="0.40569">
        <ele>84.2</ele>
        <time>2023-08-26T10:16:30Z</time>
      </trkpt>
      <trkpt lat="44.90534" lon="0.40583">
        <ele>84.5</ele>
        <time>2023-08-26T10:16:34Z</time>
      </trkpt>
      <trkpt lat="44.90539" lon="0.40594">
        <ele>84.8</ele>
        <time>2023-08-26T10:16:37Z</time>
      </trkpt>
      <trkpt lat="44.90546" lon="0.40607">
        <ele>85.2</ele>
        <time>2023-08-26T10:16:41Z</time>
      </trkpt>
      <trkpt lat="44.90548" lon="0.40608">
        <ele>85.4</ele>
        <time>2023-08-26T10:16:42Z</time>
      </trkpt>
      <trkpt lat="44.9056" lon="0.40606">
        <ele>85.2</ele>
        <time>2023-08-26T10:16:46Z</time>
      </trkpt>
      <trkpt lat="44.90565" lon="0.40614">
        <ele>85.6</ele>
        <time>2023-08-26T10:16:48Z</time>
      </trkpt>
      <trkpt lat="44.90565" lon="0.40618">
        <ele>85.8</ele>
        <time>2023-08-26T10:16:49Z</time>
      </trkpt>
      <trkpt lat="44.90572" lon="0.40635">
        <ele>86.3</ele>
        <time>2023-08-26T10:16:54Z</time>
      </trkpt>
      <trkpt lat="44.90581" lon="0.40652">
        <ele>86.8</ele>
        <time>2023-08-26T10:16:58Z</time>
      </trkpt>
      <trkpt lat="44.90592" lon="0.40674">
        <ele>87.4</ele>
        <time>2023-08-26T10:17:03Z</time>
      </trkpt>
      <trkpt lat="44.90598" lon="0.4069">
        <ele>88.2</ele>
        <time>2023-08-26T10:17:06Z</time>
      </trkpt>
      <trkpt lat="44.90607" lon="0.40711">
        <ele>89.2</ele>
        <time>2023-08-26T10:17:10Z</time>
      </trkpt>
      <trkpt lat="44.9061" lon="0.40722">
        <ele>89.9</ele>
        <time>2023-08-26T10:17:12Z</time>
      </trkpt>
      <trkpt lat="44.90612" lon="0.40727">
        <ele>90.4</ele>
        <time>2023-08-26T10:17:13Z</time>
      </trkpt>
      <trkpt lat="44.9062" lon="0.40743">
        <ele>91.9</ele>
        <time>2023-08-26T10:17:16Z</time>
      </trkpt>
      <trkpt lat="44.90623" lon="0.40746">
        <ele>92.5</ele>
        <time>2023-08-26T10:17:17Z</time>
      </trkpt>
      <trkpt lat="44.90631" lon="0.40756">
        <ele>93.7</ele>
        <time>2023-08-26T10:17:20Z</time>
      </trkpt>
      <trkpt lat="44.90637" lon="0.40762">
        <ele>94.7</ele>
        <time>2023-08-26T10:17:23Z</time>
      </trkpt>
      <trkpt lat="44.90647" lon="0.40774">
        <ele>95.7</ele>
        <time>2023-08-26T10:17:26Z</time>
      </trkpt>
      <trkpt lat="44.90663" lon="0.40792">
        <ele>97.3</ele>
        <time>2023-08-26T10:17:31Z</time>
      </trkpt>
      <trkpt lat="44.90678" lon="0.40806">
        <ele>97.9</ele>
        <time>2023-08-26T10:17:37Z</time>
      </trkpt>
      <trkpt lat="44.90687" lon="0.40813">
        <ele>98.2</ele>
        <time>2023-08-26T10:17:41Z</time>
      </trkpt>
      <trkpt lat="44.90696" lon="0.40823">
        <ele>98.3</ele>
        <time>2023-08-26T10:17:47Z</time>
      </trkpt>
      <trkpt lat="44.90707" lon="0.40835">
        <ele>98.1</ele>
        <time>2023-08-26T10:17:53Z</time>
      </trkpt>
      <trkpt lat="44.90716" lon="0.40844">
        <ele>98</ele>
        <time>2023-08-26T10:17:58Z</time>
      </trkpt>
      <trkpt lat="44.90726" lon="0.40854">
        <ele>98</ele>
        <time>2023-08-26T10:18:03Z</time>
      </trkpt>
      <trkpt lat="44.90738" lon="0.40866">
        <ele>98</ele>
        <time>2023-08-26T10:18:09Z</time>
      </trkpt>
      <trkpt lat="44.9075" lon="0.40878">
        <ele>98.1</ele>
        <time>2023-08-26T10:18:15Z</time>
      </trkpt>
      <trkpt lat="44.90764" lon="0.40893">
        <ele>98.3</ele>
        <time>2023-08-26T10:18:21Z</time>
      </trkpt>
      <trkpt lat="44.90776" lon="0.40907">
        <ele>98.5</ele>
        <time>2023-08-26T10:18:25Z</time>
      </trkpt>
      <trkpt lat="44.90779" lon="0.40912">
        <ele>98.7</ele>
        <time>2023-08-26T10:18:26Z</time>
      </trkpt>
      <trkpt lat="44.90782" lon="0.40919">
        <ele>98.8</ele>
        <time>2023-08-26T10:18:27Z</time>
      </trkpt>
      <trkpt lat="44.9079" lon="0.40946">
        <ele>98.2</ele>
        <time>2023-08-26T10:18:30Z</time>
      </trkpt>
      <trkpt lat="44.90796" lon="0.40969">
        <ele>96.7</ele>
        <time>2023-08-26T10:18:32Z</time>
      </trkpt>
      <trkpt lat="44.90805" lon="0.4099">
        <ele>94.3</ele>
        <time>2023-08-26T10:18:34Z</time>
      </trkpt>
      <trkpt lat="44.90827" lon="0.41015">
        <ele>91.2</ele>
        <time>2023-08-26T10:18:37Z</time>
      </trkpt>
      <trkpt lat="44.90855" lon="0.4105">
        <ele>89.4</ele>
        <time>2023-08-26T10:18:41Z</time>
      </trkpt>
      <trkpt lat="44.9086" lon="0.41067">
        <ele>89.8</ele>
        <time>2023-08-26T10:18:43Z</time>
      </trkpt>
      <trkpt lat="44.90856" lon="0.4108">
        <ele>90.2</ele>
        <time>2023-08-26T10:18:45Z</time>
      </trkpt>
      <trkpt lat="44.90851" lon="0.4109">
        <ele>90.5</ele>
        <time>2023-08-26T10:18:47Z</time>
      </trkpt>
      <trkpt lat="44.90841" lon="0.41111">
        <ele>91.3</ele>
        <time>2023-08-26T10:18:52Z</time>
      </trkpt>
      <trkpt lat="44.90835" lon="0.4114">
        <ele>92.7</ele>
        <time>2023-08-26T10:18:58Z</time>
      </trkpt>
      <trkpt lat="44.90838" lon="0.41159">
        <ele>93.4</ele>
        <time>2023-08-26T10:19:03Z</time>
      </trkpt>
      <trkpt lat="44.90839" lon="0.41166">
        <ele>93.9</ele>
        <time>2023-08-26T10:19:05Z</time>
      </trkpt>
      <trkpt lat="44.90838" lon="0.41172">
        <ele>94.3</ele>
        <time>2023-08-26T10:19:07Z</time>
      </trkpt>
      <trkpt lat="44.90837" lon="0.41181">
        <ele>94.7</ele>
        <time>2023-08-26T10:19:10Z</time>
      </trkpt>
      <trkpt lat="44.90837" lon="0.41187">
        <ele>95.2</ele>
        <time>2023-08-26T10:19:12Z</time>
      </trkpt>
      <trkpt lat="44.90835" lon="0.41189">
        <ele>95.1</ele>
        <time>2023-08-26T10:19:13Z</time>
      </trkpt>
      <trkpt lat="44.90835" lon="0.41195">
        <ele>95</ele>
        <time>2023-08-26T10:19:16Z</time>
      </trkpt>
      <trkpt lat="44.90845" lon="0.41208">
        <ele>94.7</ele>
        <time>2023-08-26T10:19:22Z</time>
      </trkpt>
      <trkpt lat="44.90857" lon="0.41222">
        <ele>94.3</ele>
        <time>2023-08-26T10:19:28Z</time>
      </trkpt>
      <trkpt lat="44.90866" lon="0.41234">
        <ele>94</ele>
        <time>2023-08-26T10:19:33Z</time>
      </trkpt>
      <trkpt lat="44.90871" lon="0.41239">
        <ele>93.9</ele>
        <time>2023-08-26T10:19:35Z</time>
      </trkpt>
      <trkpt lat="44.90883" lon="0.41252">
        <ele>93.5</ele>
        <time>2023-08-26T10:19:41Z</time>
      </trkpt>
      <trkpt lat="44.90896" lon="0.41266">
        <ele>93.1</ele>
        <time>2023-08-26T10:19:48Z</time>
      </trkpt>
      <trkpt lat="44.90914" lon="0.41287">
        <ele>92.5</ele>
        <time>2023-08-26T10:19:58Z</time>
      </trkpt>
      <trkpt lat="44.90925" lon="0.413">
        <ele>92.1</ele>
        <time>2023-08-26T10:20:04Z</time>
      </trkpt>
      <trkpt lat="44.90936" lon="0.41314">
        <ele>91.8</ele>
        <time>2023-08-26T10:20:11Z</time>
      </trkpt>
      <trkpt lat="44.90949" lon="0.41327">
        <ele>91.4</ele>
        <time>2023-08-26T10:20:17Z</time>
      </trkpt>
      <trkpt lat="44.90961" lon="0.41342">
        <ele>91</ele>
        <time>2023-08-26T10:20:21Z</time>
      </trkpt>
      <trkpt lat="44.90965" lon="0.41345">
        <ele>90.9</ele>
        <time>2023-08-26T10:20:22Z</time>
      </trkpt>
      <trkpt lat="44.90973" lon="0.41347">
        <ele>90.7</ele>
        <time>2023-08-26T10:20:24Z</time>
      </trkpt>
      <trkpt lat="44.90977" lon="0.41344">
        <ele>90.8</ele>
        <time>2023-08-26T10:20:25Z</time>
      </trkpt>
      <trkpt lat="44.9098" lon="0.41339">
        <ele>90.8</ele>
        <time>2023-08-26T10:20:26Z</time>
      </trkpt>
      <trkpt lat="44.90983" lon="0.41334">
        <ele>90.9</ele>
        <time>2023-08-26T10:20:27Z</time>
      </trkpt>
      <trkpt lat="44.90985" lon="0.41328">
        <ele>91</ele>
        <time>2023-08-26T10:20:28Z</time>
      </trkpt>
      <trkpt lat="44.90989" lon="0.41322">
        <ele>91</ele>
        <time>2023-08-26T10:20:29Z</time>
      </trkpt>
      <trkpt lat="44.90995" lon="0.41311">
        <ele>90.8</ele>
        <time>2023-08-26T10:20:31Z</time>
      </trkpt>
      <trkpt lat="44.91008" lon="0.4129">
        <ele>90.5</ele>
        <time>2023-08-26T10:20:35Z</time>
      </trkpt>
      <trkpt lat="44.91018" lon="0.41275">
        <ele>90.4</ele>
        <time>2023-08-26T10:20:38Z</time>
      </trkpt>
      <trkpt lat="44.91029" lon="0.41262">
        <ele>90.5</ele>
        <time>2023-08-26T10:20:41Z</time>
      </trkpt>
      <trkpt lat="44.91035" lon="0.41253">
        <ele>90.6</ele>
        <time>2023-08-26T10:20:43Z</time>
      </trkpt>
      <trkpt lat="44.91041" lon="0.41243">
        <ele>90.6</ele>
        <time>2023-08-26T10:20:45Z</time>
      </trkpt>
      <trkpt lat="44.91047" lon="0.41234">
        <ele>90.5</ele>
        <time>2023-08-26T10:20:47Z</time>
      </trkpt>
      <trkpt lat="44.91064" lon="0.41211">
        <ele>90.3</ele>
        <time>2023-08-26T10:20:53Z</time>
      </trkpt>
      <trkpt lat="44.91072" lon="0.41214">
        <ele>89.9</ele>
        <time>2023-08-26T10:20:55Z</time>
      </trkpt>
      <trkpt lat="44.91077" lon="0.41219">
        <ele>89.4</ele>
        <time>2023-08-26T10:20:56Z</time>
      </trkpt>
      <trkpt lat="44.91103" lon="0.41246">
        <ele>86.2</ele>
        <time>2023-08-26T10:21:01Z</time>
      </trkpt>
      <trkpt lat="44.91113" lon="0.41253">
        <ele>85.2</ele>
        <time>2023-08-26T10:21:03Z</time>
      </trkpt>
      <trkpt lat="44.91122" lon="0.41253">
        <ele>84.4</ele>
        <time>2023-08-26T10:21:05Z</time>
      </trkpt>
      <trkpt lat="44.91125" lon="0.41241">
        <ele>84.2</ele>
        <time>2023-08-26T10:21:07Z</time>
      </trkpt>
      <trkpt lat="44.91125" lon="0.41226">
        <ele>84.2</ele>
        <time>2023-08-26T10:21:09Z</time>
      </trkpt>
      <trkpt lat="44.91126" lon="0.412">
        <ele>84.5</ele>
        <time>2023-08-26T10:21:13Z</time>
      </trkpt>
      <trkpt lat="44.91135" lon="0.41168">
        <ele>84.3</ele>
        <time>2023-08-26T10:21:19Z</time>
      </trkpt>
      <trkpt lat="44.91136" lon="0.41162">
        <ele>84.2</ele>
        <time>2023-08-26T10:21:20Z</time>
      </trkpt>
      <trkpt lat="44.91145" lon="0.41129">
        <ele>83.8</ele>
        <time>2023-08-26T10:21:25Z</time>
      </trkpt>
      <trkpt lat="44.91154" lon="0.4111">
        <ele>83.5</ele>
        <time>2023-08-26T10:21:28Z</time>
      </trkpt>
      <trkpt lat="44.91158" lon="0.41105">
        <ele>83.4</ele>
        <time>2023-08-26T10:21:29Z</time>
      </trkpt>
      <trkpt lat="44.9117" lon="0.41082">
        <ele>83</ele>
        <time>2023-08-26T10:21:33Z</time>
      </trkpt>
      <trkpt lat="44.91172" lon="0.41076">
        <ele>82.9</ele>
        <time>2023-08-26T10:21:34Z</time>
      </trkpt>
      <trkpt lat="44.91174" lon="0.41069">
        <ele>82.8</ele>
        <time>2023-08-26T10:21:35Z</time>
      </trkpt>
      <trkpt lat="44.91184" lon="0.41034">
        <ele>82.4</ele>
        <time>2023-08-26T10:21:40Z</time>
      </trkpt>
      <trkpt lat="44.91187" lon="0.41027">
        <ele>82.4</ele>
        <time>2023-08-26T10:21:41Z</time>
      </trkpt>
      <trkpt lat="44.912" lon="0.41002">
        <ele>82.1</ele>
        <time>2023-08-26T10:21:45Z</time>
      </trkpt>
      <trkpt lat="44.91207" lon="0.40991">
        <ele>81.9</ele>
        <time>2023-08-26T10:21:47Z</time>
      </trkpt>
      <trkpt lat="44.91222" lon="0.40977">
        <ele>81.6</ele>
        <time>2023-08-26T10:21:50Z</time>
      </trkpt>
      <trkpt lat="44.91225" lon="0.40971">
        <ele>81.5</ele>
        <time>2023-08-26T10:21:51Z</time>
      </trkpt>
      <trkpt lat="44.91228" lon="0.40958">
        <ele>81.2</ele>
        <time>2023-08-26T10:21:53Z</time>
      </trkpt>
      <trkpt lat="44.91231" lon="0.40951">
        <ele>81</ele>
        <time>2023-08-26T10:21:54Z</time>
      </trkpt>
      <trkpt lat="44.91237" lon="0.40937">
        <ele>80.5</ele>
        <time>2023-08-26T10:21:56Z</time>
      </trkpt>
      <trkpt lat="44.91246" lon="0.40924">
        <ele>80</ele>
        <time>2023-08-26T10:21:58Z</time>
      </trkpt>
      <trkpt lat="44.91252" lon="0.40908">
        <ele>79.4</ele>
        <time>2023-08-26T10:22:00Z</time>
      </trkpt>
      <trkpt lat="44.91259" lon="0.40894">
        <ele>79</ele>
        <time>2023-08-26T10:22:02Z</time>
      </trkpt>
      <trkpt lat="44.91271" lon="0.40875">
        <ele>78.7</ele>
        <time>2023-08-26T10:22:05Z</time>
      </trkpt>
      <trkpt lat="44.91281" lon="0.40863">
        <ele>78.7</ele>
        <time>2023-08-26T10:22:07Z</time>
      </trkpt>
      <trkpt lat="44.91311" lon="0.4082">
        <ele>78</ele>
        <time>2023-08-26T10:22:14Z</time>
      </trkpt>
      <trkpt lat="44.91338" lon="0.40788">
        <ele>77.3</ele>
        <time>2023-08-26T10:22:20Z</time>
      </trkpt>
      <trkpt lat="44.9135" lon="0.40774">
        <ele>76.9</ele>
        <time>2023-08-26T10:22:23Z</time>
      </trkpt>
      <trkpt lat="44.91364" lon="0.40762">
        <ele>76.5</ele>
        <time>2023-08-26T10:22:26Z</time>
      </trkpt>
      <trkpt lat="44.91377" lon="0.40749">
        <ele>76.2</ele>
        <time>2023-08-26T10:22:29Z</time>
      </trkpt>
      <trkpt lat="44.91385" lon="0.4074">
        <ele>76.1</ele>
        <time>2023-08-26T10:22:31Z</time>
      </trkpt>
      <trkpt lat="44.9139" lon="0.40737">
        <ele>76</ele>
        <time>2023-08-26T10:22:32Z</time>
      </trkpt>
      <trkpt lat="44.91416" lon="0.40719">
        <ele>75.3</ele>
        <time>2023-08-26T10:22:37Z</time>
      </trkpt>
      <trkpt lat="44.91462" lon="0.40683">
        <ele>73.5</ele>
        <time>2023-08-26T10:22:46Z</time>
      </trkpt>
      <trkpt lat="44.91506" lon="0.40644">
        <ele>71</ele>
        <time>2023-08-26T10:22:54Z</time>
      </trkpt>
      <trkpt lat="44.91537" lon="0.40616">
        <ele>69.3</ele>
        <time>2023-08-26T10:23:00Z</time>
      </trkpt>
      <trkpt lat="44.91548" lon="0.40612">
        <ele>68.5</ele>
        <time>2023-08-26T10:23:02Z</time>
      </trkpt>
      <trkpt lat="44.91554" lon="0.40614">
        <ele>67.9</ele>
        <time>2023-08-26T10:23:03Z</time>
      </trkpt>
      <trkpt lat="44.91559" lon="0.40618">
        <ele>67.4</ele>
        <time>2023-08-26T10:23:04Z</time>
      </trkpt>
      <trkpt lat="44.91563" lon="0.40623">
        <ele>66.8</ele>
        <time>2023-08-26T10:23:05Z</time>
      </trkpt>
      <trkpt lat="44.91569" lon="0.40629">
        <ele>66</ele>
        <time>2023-08-26T10:23:06Z</time>
      </trkpt>
      <trkpt lat="44.91587" lon="0.40651">
        <ele>63.4</ele>
        <time>2023-08-26T10:23:09Z</time>
      </trkpt>
      <trkpt lat="44.91598" lon="0.40666">
        <ele>62</ele>
        <time>2023-08-26T10:23:11Z</time>
      </trkpt>
      <trkpt lat="44.91607" lon="0.40678">
        <ele>61.1</ele>
        <time>2023-08-26T10:23:13Z</time>
      </trkpt>
      <trkpt lat="44.91613" lon="0.40685">
        <ele>60.5</ele>
        <time>2023-08-26T10:23:15Z</time>
      </trkpt>
      <trkpt lat="44.91616" lon="0.40686">
        <ele>60.1</ele>
        <time>2023-08-26T10:23:16Z</time>
      </trkpt>
      <trkpt lat="44.91619" lon="0.40682">
        <ele>60.1</ele>
        <time>2023-08-26T10:23:18Z</time>
      </trkpt>
      <trkpt lat="44.9162" lon="0.40678">
        <ele>60</ele>
        <time>2023-08-26T10:23:19Z</time>
      </trkpt>
      <trkpt lat="44.9162" lon="0.40669">
        <ele>60</ele>
        <time>2023-08-26T10:23:21Z</time>
      </trkpt>
      <trkpt lat="44.91619" lon="0.40657">
        <ele>59.8</ele>
        <time>2023-08-26T10:23:23Z</time>
      </trkpt>
      <trkpt lat="44.91619" lon="0.40641">
        <ele>59.7</ele>
        <time>2023-08-26T10:23:26Z</time>
      </trkpt>
      <trkpt lat="44.91619" lon="0.40624">
        <ele>59.3</ele>
        <time>2023-08-26T10:23:29Z</time>
      </trkpt>
      <trkpt lat="44.91618" lon="0.40612">
        <ele>59</ele>
        <time>2023-08-26T10:23:31Z</time>
      </trkpt>
      <trkpt lat="44.91619" lon="0.40607">
        <ele>58.8</ele>
        <time>2023-08-26T10:23:32Z</time>
      </trkpt>
      <trkpt lat="44.91618" lon="0.40589">
        <ele>58.3</ele>
        <time>2023-08-26T10:23:35Z</time>
      </trkpt>
      <trkpt lat="44.91618" lon="0.40583">
        <ele>58.1</ele>
        <time>2023-08-26T10:23:36Z</time>
      </trkpt>
      <trkpt lat="44.91615" lon="0.40562">
        <ele>57.2</ele>
        <time>2023-08-26T10:23:39Z</time>
      </trkpt>
      <trkpt lat="44.91615" lon="0.40555">
        <ele>56.8</ele>
        <time>2023-08-26T10:23:40Z</time>
      </trkpt>
      <trkpt lat="44.91616" lon="0.40542">
        <ele>56.2</ele>
        <time>2023-08-26T10:23:42Z</time>
      </trkpt>
      <trkpt lat="44.91616" lon="0.40514">
        <ele>54.6</ele>
        <time>2023-08-26T10:23:46Z</time>
      </trkpt>
      <trkpt lat="44.91618" lon="0.4049">
        <ele>52.9</ele>
        <time>2023-08-26T10:23:50Z</time>
      </trkpt>
      <trkpt lat="44.91618" lon="0.4048">
        <ele>52.3</ele>
        <time>2023-08-26T10:23:51Z</time>
      </trkpt>
      <trkpt lat="44.91621" lon="0.40454">
        <ele>50.8</ele>
        <time>2023-08-26T10:23:54Z</time>
      </trkpt>
      <trkpt lat="44.91624" lon="0.40447">
        <ele>50.6</ele>
        <time>2023-08-26T10:23:55Z</time>
      </trkpt>
      <trkpt lat="44.91632" lon="0.40425">
        <ele>49.9</ele>
        <time>2023-08-26T10:23:59Z</time>
      </trkpt>
      <trkpt lat="44.91633" lon="0.4042">
        <ele>49.8</ele>
        <time>2023-08-26T10:24:00Z</time>
      </trkpt>
      <trkpt lat="44.91641" lon="0.4041">
        <ele>49.7</ele>
        <time>2023-08-26T10:24:03Z</time>
      </trkpt>
      <trkpt lat="44.91656" lon="0.40401">
        <ele>49.6</ele>
        <time>2023-08-26T10:24:07Z</time>
      </trkpt>
      <trkpt lat="44.91664" lon="0.40392">
        <ele>49.6</ele>
        <time>2023-08-26T10:24:11Z</time>
      </trkpt>
      <trkpt lat="44.91663" lon="0.40378">
        <ele>49.6</ele>
        <time>2023-08-26T10:24:15Z</time>
      </trkpt>
    </trkseg>
  </trk>
</gpx>